<?xml version='1.0' encoding='UTF-8'?><gpx version="1.1" creator="JPX - https://github.com/jenetics/jpx" xmlns="http://www.topografix.com/GPX/1/1"><trk><trkseg><trkpt lat="43.9661506" lon="12.7624138"><ele>3.0</ele><time>2026-04-26T07:09:03.937Z</time></trkpt><trkpt lat="43.9661132" lon="12.762316"><ele>3.0</ele><time>2026-04-26T07:09:04.937Z</time></trkpt><trkpt lat="43.9660695" lon="12.7622216"><ele>3.0</ele><time>2026-04-26T07:09:05.937Z</time></trkpt><trkpt lat="43.9660287" lon="12.7621244"><ele>3.0</ele><time>2026-04-26T07:09:06.937Z</time></trkpt><trkpt lat="43.9659972" lon="12.7620184"><ele>3.0</ele><time>2026-04-26T07:09:07.936Z</time></trkpt><trkpt lat="43.9659849" lon="12.7619105"><ele>3.0</ele><time>2026-04-26T07:09:08.936Z</time></trkpt><trkpt lat="43.9659827" lon="12.7618108"><ele>3.8</ele><time>2026-04-26T07:09:09.937Z</time></trkpt><trkpt lat="43.9659801" lon="12.7616538"><ele>4.6</ele><time>2026-04-26T07:09:11.937Z</time></trkpt><trkpt lat="43.9658745" lon="12.7617691"><ele>5.3999999999999995</ele><time>2026-04-26T07:09:17.937Z</time></trkpt><trkpt lat="43.9658365" lon="12.761886"><ele>6.199999999999999</ele><time>2026-04-26T07:09:18.936Z</time></trkpt><trkpt lat="43.9658039" lon="12.7619988"><ele>7.0</ele><time>2026-04-26T07:09:19.937Z</time></trkpt><trkpt lat="43.9657761" lon="12.7621042"><ele>8.666666666666668</ele><time>2026-04-26T07:09:20.937Z</time></trkpt><trkpt lat="43.9657533" lon="12.7622042"><ele>10.333333333333334</ele><time>2026-04-26T07:09:21.936Z</time></trkpt><trkpt lat="43.9657286" lon="12.7623026"><ele>12.0</ele><time>2026-04-26T07:09:22.937Z</time></trkpt><trkpt lat="43.9657022" lon="12.7624025"><ele>13.666666666666668</ele><time>2026-04-26T07:09:23.937Z</time></trkpt><trkpt lat="43.965678" lon="12.7625054"><ele>15.333333333333334</ele><time>2026-04-26T07:09:24.936Z</time></trkpt><trkpt lat="43.9656589" lon="12.7626028"><ele>17.0</ele><time>2026-04-26T07:09:25.937Z</time></trkpt><trkpt lat="43.9656234" lon="12.7627595"><ele>17.0</ele><time>2026-04-26T07:09:27.937Z</time></trkpt><trkpt lat="43.9655907" lon="12.7628705"><ele>17.0</ele><time>2026-04-26T07:09:29.937Z</time></trkpt><trkpt lat="43.9655083" lon="12.7629183"><ele>17.0</ele><time>2026-04-26T07:09:41.936Z</time></trkpt><trkpt lat="43.9654183" lon="12.7628917"><ele>17.0</ele><time>2026-04-26T07:09:43.937Z</time></trkpt><trkpt lat="43.9653583" lon="12.7628633"><ele>17.0</ele><time>2026-04-26T07:09:44.937Z</time></trkpt><trkpt lat="43.96529" lon="12.7628317"><ele>17.0</ele><time>2026-04-26T07:09:45.937Z</time></trkpt><trkpt lat="43.9651933" lon="12.7627933"><ele>17.0</ele><time>2026-04-26T07:09:47.937Z</time></trkpt><trkpt lat="43.96511" lon="12.7628933"><ele>17.0</ele><time>2026-04-26T07:09:50.937Z</time></trkpt><trkpt lat="43.9650833" lon="12.7629917"><ele>17.0</ele><time>2026-04-26T07:09:51.936Z</time></trkpt><trkpt lat="43.965055" lon="12.76311"><ele>17.0</ele><time>2026-04-26T07:09:52.936Z</time></trkpt><trkpt lat="43.9650267" lon="12.7632317"><ele>17.0</ele><time>2026-04-26T07:09:53.937Z</time></trkpt><trkpt lat="43.9649967" lon="12.7633583"><ele>19.4</ele><time>2026-04-26T07:09:54.937Z</time></trkpt><trkpt lat="43.964965" lon="12.7634933"><ele>21.799999999999997</ele><time>2026-04-26T07:09:55.937Z</time></trkpt><trkpt lat="43.96493" lon="12.7636367"><ele>24.2</ele><time>2026-04-26T07:09:56.937Z</time></trkpt><trkpt lat="43.9648967" lon="12.7637783"><ele>26.599999999999998</ele><time>2026-04-26T07:09:57.936Z</time></trkpt><trkpt lat="43.9648667" lon="12.7639117"><ele>29.0</ele><time>2026-04-26T07:09:58.937Z</time></trkpt><trkpt lat="43.9648383" lon="12.7640417"><ele>29.2</ele><time>2026-04-26T07:09:59.937Z</time></trkpt><trkpt lat="43.9648183" lon="12.76418"><ele>29.4</ele><time>2026-04-26T07:10:00.937Z</time></trkpt><trkpt lat="43.9648183" lon="12.7643283"><ele>29.6</ele><time>2026-04-26T07:10:01.936Z</time></trkpt><trkpt lat="43.9648267" lon="12.7644767"><ele>29.8</ele><time>2026-04-26T07:10:02.936Z</time></trkpt><trkpt lat="43.9648383" lon="12.76463"><ele>30.0</ele><time>2026-04-26T07:10:03.937Z</time></trkpt><trkpt lat="43.9648483" lon="12.7647917"><ele>31.0</ele><time>2026-04-26T07:10:04.937Z</time></trkpt><trkpt lat="43.9648483" lon="12.76495"><ele>32.0</ele><time>2026-04-26T07:10:05.937Z</time></trkpt><trkpt lat="43.96484" lon="12.7651033"><ele>33.0</ele><time>2026-04-26T07:10:06.937Z</time></trkpt><trkpt lat="43.9648267" lon="12.76526"><ele>34.0</ele><time>2026-04-26T07:10:07.936Z</time></trkpt><trkpt lat="43.9648117" lon="12.765415"><ele>34.5</ele><time>2026-04-26T07:10:08.937Z</time></trkpt><trkpt lat="43.9648083" lon="12.765575"><ele>35.0</ele><time>2026-04-26T07:10:09.936Z</time></trkpt><trkpt lat="43.96483" lon="12.7657417"><ele>35.5</ele><time>2026-04-26T07:10:10.937Z</time></trkpt><trkpt lat="43.964875" lon="12.7659033"><ele>36.0</ele><time>2026-04-26T07:10:11.937Z</time></trkpt><trkpt lat="43.9649317" lon="12.7660533"><ele>37.4</ele><time>2026-04-26T07:10:12.936Z</time></trkpt><trkpt lat="43.9649833" lon="12.7661883"><ele>38.8</ele><time>2026-04-26T07:10:13.937Z</time></trkpt><trkpt lat="43.9650133" lon="12.76632"><ele>40.199999999999996</ele><time>2026-04-26T07:10:14.936Z</time></trkpt><trkpt lat="43.9650233" lon="12.7664483"><ele>41.6</ele><time>2026-04-26T07:10:15.937Z</time></trkpt><trkpt lat="43.9650067" lon="12.7665617"><ele>43.0</ele><time>2026-04-26T07:10:16.937Z</time></trkpt><trkpt lat="43.96496" lon="12.7666367"><ele>43.0</ele><time>2026-04-26T07:10:17.937Z</time></trkpt><trkpt lat="43.9648917" lon="12.766665"><ele>43.0</ele><time>2026-04-26T07:10:18.937Z</time></trkpt><trkpt lat="43.9648167" lon="12.7666217"><ele>43.0</ele><time>2026-04-26T07:10:19.937Z</time></trkpt><trkpt lat="43.9647533" lon="12.76653"><ele>43.0</ele><time>2026-04-26T07:10:20.937Z</time></trkpt><trkpt lat="43.964705" lon="12.7664"><ele>43.0</ele><time>2026-04-26T07:10:21.937Z</time></trkpt><trkpt lat="43.9646583" lon="12.7662467"><ele>43.0</ele><time>2026-04-26T07:10:22.937Z</time></trkpt><trkpt lat="43.9645983" lon="12.7660833"><ele>43.0</ele><time>2026-04-26T07:10:23.937Z</time></trkpt><trkpt lat="43.9645233" lon="12.7659233"><ele>43.0</ele><time>2026-04-26T07:10:24.937Z</time></trkpt><trkpt lat="43.96444" lon="12.7657733"><ele>43.0</ele><time>2026-04-26T07:10:25.936Z</time></trkpt><trkpt lat="43.9643533" lon="12.7656217"><ele>41.25</ele><time>2026-04-26T07:10:26.937Z</time></trkpt><trkpt lat="43.9642717" lon="12.765465"><ele>39.5</ele><time>2026-04-26T07:10:27.937Z</time></trkpt><trkpt lat="43.964205" lon="12.7652967"><ele>37.75</ele><time>2026-04-26T07:10:28.937Z</time></trkpt><trkpt lat="43.96416" lon="12.7651217"><ele>36.0</ele><time>2026-04-26T07:10:29.936Z</time></trkpt><trkpt lat="43.96413" lon="12.7649467"><ele>38.6</ele><time>2026-04-26T07:10:30.937Z</time></trkpt><trkpt lat="43.964105" lon="12.7647833"><ele>41.2</ele><time>2026-04-26T07:10:31.936Z</time></trkpt><trkpt lat="43.9640767" lon="12.76463"><ele>43.800000000000004</ele><time>2026-04-26T07:10:32.936Z</time></trkpt><trkpt lat="43.9640383" lon="12.7644917"><ele>46.400000000000006</ele><time>2026-04-26T07:10:33.936Z</time></trkpt><trkpt lat="43.9639883" lon="12.7643617"><ele>49.0</ele><time>2026-04-26T07:10:34.937Z</time></trkpt><trkpt lat="43.963935" lon="12.7642317"><ele>49.0</ele><time>2026-04-26T07:10:35.937Z</time></trkpt><trkpt lat="43.9638783" lon="12.7641017"><ele>49.0</ele><time>2026-04-26T07:10:36.937Z</time></trkpt><trkpt lat="43.963835" lon="12.7639683"><ele>49.0</ele><time>2026-04-26T07:10:37.936Z</time></trkpt><trkpt lat="43.9638033" lon="12.7638317"><ele>49.0</ele><time>2026-04-26T07:10:38.937Z</time></trkpt><trkpt lat="43.9637933" lon="12.76368"><ele>49.0</ele><time>2026-04-26T07:10:39.937Z</time></trkpt><trkpt lat="43.9637933" lon="12.763515"><ele>48.5</ele><time>2026-04-26T07:10:40.936Z</time></trkpt><trkpt lat="43.9637917" lon="12.76334"><ele>48.0</ele><time>2026-04-26T07:10:41.937Z</time></trkpt><trkpt lat="43.96378" lon="12.763165"><ele>47.5</ele><time>2026-04-26T07:10:42.937Z</time></trkpt><trkpt lat="43.9637583" lon="12.76299"><ele>47.0</ele><time>2026-04-26T07:10:43.937Z</time></trkpt><trkpt lat="43.96374" lon="12.7628233"><ele>47.75</ele><time>2026-04-26T07:10:44.937Z</time></trkpt><trkpt lat="43.9637333" lon="12.76266"><ele>48.5</ele><time>2026-04-26T07:10:45.936Z</time></trkpt><trkpt lat="43.9637367" lon="12.7625017"><ele>49.25</ele><time>2026-04-26T07:10:46.937Z</time></trkpt><trkpt lat="43.9637533" lon="12.7623483"><ele>50.0</ele><time>2026-04-26T07:10:47.937Z</time></trkpt><trkpt lat="43.9637783" lon="12.7622033"><ele>50.0</ele><time>2026-04-26T07:10:48.937Z</time></trkpt><trkpt lat="43.9638083" lon="12.7620717"><ele>50.0</ele><time>2026-04-26T07:10:49.937Z</time></trkpt><trkpt lat="43.9638433" lon="12.7619483"><ele>50.0</ele><time>2026-04-26T07:10:50.937Z</time></trkpt><trkpt lat="43.9638767" lon="12.7618267"><ele>50.0</ele><time>2026-04-26T07:10:51.937Z</time></trkpt><trkpt lat="43.9639017" lon="12.7617017"><ele>50.0</ele><time>2026-04-26T07:10:52.937Z</time></trkpt><trkpt lat="43.9639117" lon="12.761575"><ele>50.6</ele><time>2026-04-26T07:10:53.937Z</time></trkpt><trkpt lat="43.963895" lon="12.76145"><ele>51.2</ele><time>2026-04-26T07:10:54.937Z</time></trkpt><trkpt lat="43.9638517" lon="12.7613333"><ele>51.8</ele><time>2026-04-26T07:10:55.936Z</time></trkpt><trkpt lat="43.9637933" lon="12.7612333"><ele>52.4</ele><time>2026-04-26T07:10:56.936Z</time></trkpt><trkpt lat="43.963725" lon="12.76115"><ele>53.0</ele><time>2026-04-26T07:10:57.937Z</time></trkpt><trkpt lat="43.96365" lon="12.7610767"><ele>52.333333333333336</ele><time>2026-04-26T07:10:58.937Z</time></trkpt><trkpt lat="43.9635783" lon="12.761005"><ele>51.66666666666667</ele><time>2026-04-26T07:10:59.937Z</time></trkpt><trkpt lat="43.9635083" lon="12.7609283"><ele>51.0</ele><time>2026-04-26T07:11:00.937Z</time></trkpt><trkpt lat="43.96344" lon="12.76085"><ele>50.33333333333333</ele><time>2026-04-26T07:11:01.937Z</time></trkpt><trkpt lat="43.9633683" lon="12.76078"><ele>49.666666666666664</ele><time>2026-04-26T07:11:02.937Z</time></trkpt><trkpt lat="43.9632917" lon="12.7607217"><ele>49.0</ele><time>2026-04-26T07:11:03.937Z</time></trkpt><trkpt lat="43.9632117" lon="12.7606833"><ele>52.0</ele><time>2026-04-26T07:11:04.937Z</time></trkpt><trkpt lat="43.9631283" lon="12.76066"><ele>55.0</ele><time>2026-04-26T07:11:05.937Z</time></trkpt><trkpt lat="43.9630417" lon="12.76067"><ele>58.00000000000001</ele><time>2026-04-26T07:11:06.937Z</time></trkpt><trkpt lat="43.96296" lon="12.7607167"><ele>61.0</ele><time>2026-04-26T07:11:07.937Z</time></trkpt><trkpt lat="43.9628817" lon="12.7608"><ele>64.0</ele><time>2026-04-26T07:11:08.937Z</time></trkpt><trkpt lat="43.9628033" lon="12.7609067"><ele>64.0</ele><time>2026-04-26T07:11:09.937Z</time></trkpt><trkpt lat="43.9627217" lon="12.7610267"><ele>64.0</ele><time>2026-04-26T07:11:10.937Z</time></trkpt><trkpt lat="43.9626367" lon="12.7611533"><ele>64.0</ele><time>2026-04-26T07:11:11.937Z</time></trkpt><trkpt lat="43.9625433" lon="12.7612833"><ele>64.0</ele><time>2026-04-26T07:11:12.936Z</time></trkpt><trkpt lat="43.9624483" lon="12.7614267"><ele>64.66666666666666</ele><time>2026-04-26T07:11:13.937Z</time></trkpt><trkpt lat="43.96235" lon="12.7615833"><ele>65.33333333333333</ele><time>2026-04-26T07:11:14.937Z</time></trkpt><trkpt lat="43.9622467" lon="12.7617417"><ele>66.0</ele><time>2026-04-26T07:11:15.937Z</time></trkpt><trkpt lat="43.9621433" lon="12.7619033"><ele>66.0</ele><time>2026-04-26T07:11:16.936Z</time></trkpt><trkpt lat="43.9620417" lon="12.76207"><ele>66.0</ele><time>2026-04-26T07:11:17.937Z</time></trkpt><trkpt lat="43.96194" lon="12.7622367"><ele>66.0</ele><time>2026-04-26T07:11:18.937Z</time></trkpt><trkpt lat="43.9618383" lon="12.7624017"><ele>66.0</ele><time>2026-04-26T07:11:19.936Z</time></trkpt><trkpt lat="43.9617367" lon="12.7625667"><ele>66.0</ele><time>2026-04-26T07:11:20.937Z</time></trkpt><trkpt lat="43.96164" lon="12.7627233"><ele>66.0</ele><time>2026-04-26T07:11:21.937Z</time></trkpt><trkpt lat="43.961545" lon="12.7628733"><ele>66.0</ele><time>2026-04-26T07:11:22.937Z</time></trkpt><trkpt lat="43.961455" lon="12.7630183"><ele>62.75</ele><time>2026-04-26T07:11:23.936Z</time></trkpt><trkpt lat="43.96137" lon="12.76316"><ele>59.5</ele><time>2026-04-26T07:11:24.937Z</time></trkpt><trkpt lat="43.96129" lon="12.763305"><ele>56.25</ele><time>2026-04-26T07:11:25.937Z</time></trkpt><trkpt lat="43.961205" lon="12.76344"><ele>53.0</ele><time>2026-04-26T07:11:26.937Z</time></trkpt><trkpt lat="43.961115" lon="12.7635733"><ele>53.0</ele><time>2026-04-26T07:11:27.937Z</time></trkpt><trkpt lat="43.96103" lon="12.763715"><ele>53.0</ele><time>2026-04-26T07:11:28.936Z</time></trkpt><trkpt lat="43.9609467" lon="12.7638617"><ele>53.0</ele><time>2026-04-26T07:11:29.937Z</time></trkpt><trkpt lat="43.9608567" lon="12.7640083"><ele>53.0</ele><time>2026-04-26T07:11:30.937Z</time></trkpt><trkpt lat="43.96076" lon="12.7641567"><ele>51.333333333333336</ele><time>2026-04-26T07:11:31.937Z</time></trkpt><trkpt lat="43.9606483" lon="12.7642917"><ele>49.66666666666667</ele><time>2026-04-26T07:11:32.937Z</time></trkpt><trkpt lat="43.9605217" lon="12.764415"><ele>48.0</ele><time>2026-04-26T07:11:33.937Z</time></trkpt><trkpt lat="43.96038" lon="12.7645267"><ele>48.0</ele><time>2026-04-26T07:11:34.936Z</time></trkpt><trkpt lat="43.9602167" lon="12.7646183"><ele>48.0</ele><time>2026-04-26T07:11:35.937Z</time></trkpt><trkpt lat="43.9600433" lon="12.7646967"><ele>48.0</ele><time>2026-04-26T07:11:36.937Z</time></trkpt><trkpt lat="43.9598667" lon="12.764775"><ele>44.666666666666664</ele><time>2026-04-26T07:11:37.937Z</time></trkpt><trkpt lat="43.9596917" lon="12.764855"><ele>41.33333333333333</ele><time>2026-04-26T07:11:38.937Z</time></trkpt><trkpt lat="43.9595233" lon="12.7649283"><ele>38.0</ele><time>2026-04-26T07:11:39.937Z</time></trkpt><trkpt lat="43.9593583" lon="12.765"><ele>36.33333333333333</ele><time>2026-04-26T07:11:40.937Z</time></trkpt><trkpt lat="43.9591917" lon="12.7650683"><ele>34.666666666666664</ele><time>2026-04-26T07:11:41.937Z</time></trkpt><trkpt lat="43.95903" lon="12.7651383"><ele>33.0</ele><time>2026-04-26T07:11:42.937Z</time></trkpt><trkpt lat="43.9588717" lon="12.7652083"><ele>33.0</ele><time>2026-04-26T07:11:43.936Z</time></trkpt><trkpt lat="43.9587133" lon="12.7652783"><ele>33.0</ele><time>2026-04-26T07:11:44.937Z</time></trkpt><trkpt lat="43.958555" lon="12.7653467"><ele>33.0</ele><time>2026-04-26T07:11:45.937Z</time></trkpt><trkpt lat="43.9584017" lon="12.765415"><ele>31.0</ele><time>2026-04-26T07:11:46.937Z</time></trkpt><trkpt lat="43.958255" lon="12.7654817"><ele>29.0</ele><time>2026-04-26T07:11:47.936Z</time></trkpt><trkpt lat="43.9581117" lon="12.7655383"><ele>27.0</ele><time>2026-04-26T07:11:48.936Z</time></trkpt><trkpt lat="43.9579767" lon="12.765595"><ele>25.0</ele><time>2026-04-26T07:11:49.937Z</time></trkpt><trkpt lat="43.95784" lon="12.7656383"><ele>25.0</ele><time>2026-04-26T07:11:50.937Z</time></trkpt><trkpt lat="43.9577" lon="12.765655"><ele>25.0</ele><time>2026-04-26T07:11:51.936Z</time></trkpt><trkpt lat="43.9575667" lon="12.7656383"><ele>25.0</ele><time>2026-04-26T07:11:52.937Z</time></trkpt><trkpt lat="43.9574567" lon="12.765595"><ele>25.0</ele><time>2026-04-26T07:11:53.937Z</time></trkpt><trkpt lat="43.957375" lon="12.7655533"><ele>23.6</ele><time>2026-04-26T07:11:54.937Z</time></trkpt><trkpt lat="43.95731" lon="12.7655433"><ele>22.2</ele><time>2026-04-26T07:11:55.936Z</time></trkpt><trkpt lat="43.957215" lon="12.7656167"><ele>20.8</ele><time>2026-04-26T07:12:10.937Z</time></trkpt><trkpt lat="43.9571583" lon="12.765775"><ele>19.4</ele><time>2026-04-26T07:12:12.937Z</time></trkpt><trkpt lat="43.95711" lon="12.7658683"><ele>18.0</ele><time>2026-04-26T07:12:13.937Z</time></trkpt><trkpt lat="43.9570483" lon="12.76594"><ele>18.0</ele><time>2026-04-26T07:12:14.936Z</time></trkpt><trkpt lat="43.9569683" lon="12.7659733"><ele>18.0</ele><time>2026-04-26T07:12:15.937Z</time></trkpt><trkpt lat="43.9568817" lon="12.765975"><ele>18.0</ele><time>2026-04-26T07:12:16.936Z</time></trkpt><trkpt lat="43.9567983" lon="12.7659333"><ele>18.0</ele><time>2026-04-26T07:12:17.937Z</time></trkpt><trkpt lat="43.9567233" lon="12.7658667"><ele>18.0</ele><time>2026-04-26T07:12:18.937Z</time></trkpt><trkpt lat="43.9566717" lon="12.765765"><ele>18.0</ele><time>2026-04-26T07:12:19.937Z</time></trkpt><trkpt lat="43.9566467" lon="12.7656417"><ele>17.0</ele><time>2026-04-26T07:12:20.937Z</time></trkpt><trkpt lat="43.9566533" lon="12.76549"><ele>16.0</ele><time>2026-04-26T07:12:21.937Z</time></trkpt><trkpt lat="43.956675" lon="12.7653167"><ele>15.0</ele><time>2026-04-26T07:12:22.937Z</time></trkpt><trkpt lat="43.9566817" lon="12.765125"><ele>14.0</ele><time>2026-04-26T07:12:23.937Z</time></trkpt><trkpt lat="43.9566617" lon="12.76492"><ele>13.666666666666668</ele><time>2026-04-26T07:12:24.936Z</time></trkpt><trkpt lat="43.9566317" lon="12.7647033"><ele>13.333333333333332</ele><time>2026-04-26T07:12:25.937Z</time></trkpt><trkpt lat="43.9565883" lon="12.7644817"><ele>13.0</ele><time>2026-04-26T07:12:26.937Z</time></trkpt><trkpt lat="43.95653" lon="12.7642633"><ele>14.0</ele><time>2026-04-26T07:12:27.936Z</time></trkpt><trkpt lat="43.95647" lon="12.7640483"><ele>15.0</ele><time>2026-04-26T07:12:28.937Z</time></trkpt><trkpt lat="43.956395" lon="12.763845"><ele>16.0</ele><time>2026-04-26T07:12:29.937Z</time></trkpt><trkpt lat="43.956305" lon="12.7636567"><ele>15.666666666666666</ele><time>2026-04-26T07:12:30.937Z</time></trkpt><trkpt lat="43.9562017" lon="12.7634817"><ele>15.333333333333332</ele><time>2026-04-26T07:12:31.937Z</time></trkpt><trkpt lat="43.95608" lon="12.7633233"><ele>15.0</ele><time>2026-04-26T07:12:32.937Z</time></trkpt><trkpt lat="43.9559483" lon="12.7631733"><ele>13.666666666666666</ele><time>2026-04-26T07:12:33.937Z</time></trkpt><trkpt lat="43.9558117" lon="12.763025"><ele>12.333333333333332</ele><time>2026-04-26T07:12:34.936Z</time></trkpt><trkpt lat="43.9556717" lon="12.7628767"><ele>11.0</ele><time>2026-04-26T07:12:35.937Z</time></trkpt><trkpt lat="43.9555333" lon="12.762735"><ele>11.0</ele><time>2026-04-26T07:12:36.937Z</time></trkpt><trkpt lat="43.9554" lon="12.7625917"><ele>11.0</ele><time>2026-04-26T07:12:37.936Z</time></trkpt><trkpt lat="43.95527" lon="12.7624483"><ele>11.0</ele><time>2026-04-26T07:12:38.937Z</time></trkpt><trkpt lat="43.9551383" lon="12.7623083"><ele>11.0</ele><time>2026-04-26T07:12:39.937Z</time></trkpt><trkpt lat="43.9550033" lon="12.7621733"><ele>11.0</ele><time>2026-04-26T07:12:40.937Z</time></trkpt><trkpt lat="43.9548717" lon="12.76203"><ele>11.0</ele><time>2026-04-26T07:12:41.937Z</time></trkpt><trkpt lat="43.954745" lon="12.7618783"><ele>10.333333333333332</ele><time>2026-04-26T07:12:42.937Z</time></trkpt><trkpt lat="43.954625" lon="12.7617167"><ele>9.666666666666666</ele><time>2026-04-26T07:12:43.936Z</time></trkpt><trkpt lat="43.9545083" lon="12.7615517"><ele>9.0</ele><time>2026-04-26T07:12:44.937Z</time></trkpt><trkpt lat="43.9543983" lon="12.7613767"><ele>9.0</ele><time>2026-04-26T07:12:45.937Z</time></trkpt><trkpt lat="43.9543067" lon="12.7611833"><ele>9.0</ele><time>2026-04-26T07:12:46.937Z</time></trkpt><trkpt lat="43.9542233" lon="12.7609833"><ele>9.0</ele><time>2026-04-26T07:12:47.937Z</time></trkpt><trkpt lat="43.9541483" lon="12.7607767"><ele>9.0</ele><time>2026-04-26T07:12:48.936Z</time></trkpt><trkpt lat="43.9540817" lon="12.7605633"><ele>9.0</ele><time>2026-04-26T07:12:49.937Z</time></trkpt><trkpt lat="43.954025" lon="12.7603433"><ele>9.0</ele><time>2026-04-26T07:12:50.937Z</time></trkpt><trkpt lat="43.9539733" lon="12.760115"><ele>9.0</ele><time>2026-04-26T07:12:51.937Z</time></trkpt><trkpt lat="43.9539317" lon="12.7598817"><ele>9.0</ele><time>2026-04-26T07:12:52.937Z</time></trkpt><trkpt lat="43.9538933" lon="12.7596483"><ele>9.0</ele><time>2026-04-26T07:12:53.937Z</time></trkpt><trkpt lat="43.9538583" lon="12.75941"><ele>9.0</ele><time>2026-04-26T07:12:54.937Z</time></trkpt><trkpt lat="43.9538267" lon="12.7591683"><ele>9.0</ele><time>2026-04-26T07:12:55.936Z</time></trkpt><trkpt lat="43.9537967" lon="12.7589267"><ele>9.0</ele><time>2026-04-26T07:12:56.937Z</time></trkpt><trkpt lat="43.9537667" lon="12.758685"><ele>9.333333333333334</ele><time>2026-04-26T07:12:57.937Z</time></trkpt><trkpt lat="43.9537367" lon="12.7584433"><ele>9.666666666666668</ele><time>2026-04-26T07:12:58.937Z</time></trkpt><trkpt lat="43.953705" lon="12.7582017"><ele>10.0</ele><time>2026-04-26T07:12:59.937Z</time></trkpt><trkpt lat="43.953675" lon="12.757965"><ele>10.0</ele><time>2026-04-26T07:13:00.937Z</time></trkpt><trkpt lat="43.953645" lon="12.7577333"><ele>10.0</ele><time>2026-04-26T07:13:01.936Z</time></trkpt><trkpt lat="43.953615" lon="12.7574967"><ele>10.0</ele><time>2026-04-26T07:13:02.937Z</time></trkpt><trkpt lat="43.953585" lon="12.75726"><ele>9.666666666666668</ele><time>2026-04-26T07:13:03.936Z</time></trkpt><trkpt lat="43.9535517" lon="12.75702"><ele>9.333333333333334</ele><time>2026-04-26T07:13:04.937Z</time></trkpt><trkpt lat="43.95352" lon="12.756775"><ele>9.0</ele><time>2026-04-26T07:13:05.937Z</time></trkpt><trkpt lat="43.95349" lon="12.7565283"><ele>8.666666666666666</ele><time>2026-04-26T07:13:06.937Z</time></trkpt><trkpt lat="43.9534633" lon="12.75628"><ele>8.333333333333332</ele><time>2026-04-26T07:13:07.937Z</time></trkpt><trkpt lat="43.95344" lon="12.7560317"><ele>8.0</ele><time>2026-04-26T07:13:08.937Z</time></trkpt><trkpt lat="43.95342" lon="12.7557817"><ele>8.0</ele><time>2026-04-26T07:13:09.937Z</time></trkpt><trkpt lat="43.9534" lon="12.75553"><ele>8.0</ele><time>2026-04-26T07:13:10.937Z</time></trkpt><trkpt lat="43.95338" lon="12.75528"><ele>8.0</ele><time>2026-04-26T07:13:11.937Z</time></trkpt><trkpt lat="43.95336" lon="12.75503"><ele>8.333333333333332</ele><time>2026-04-26T07:13:12.937Z</time></trkpt><trkpt lat="43.9533417" lon="12.75478"><ele>8.666666666666666</ele><time>2026-04-26T07:13:13.937Z</time></trkpt><trkpt lat="43.9533233" lon="12.7545267"><ele>9.0</ele><time>2026-04-26T07:13:14.936Z</time></trkpt><trkpt lat="43.9533083" lon="12.7542733"><ele>9.333333333333334</ele><time>2026-04-26T07:13:15.936Z</time></trkpt><trkpt lat="43.95329" lon="12.75402"><ele>9.666666666666668</ele><time>2026-04-26T07:13:16.936Z</time></trkpt><trkpt lat="43.953275" lon="12.753765"><ele>10.0</ele><time>2026-04-26T07:13:17.937Z</time></trkpt><trkpt lat="43.9532633" lon="12.75351"><ele>11.0</ele><time>2026-04-26T07:13:18.937Z</time></trkpt><trkpt lat="43.95325" lon="12.75326"><ele>12.0</ele><time>2026-04-26T07:13:19.937Z</time></trkpt><trkpt lat="43.9532433" lon="12.7530133"><ele>13.0</ele><time>2026-04-26T07:13:20.936Z</time></trkpt><trkpt lat="43.9532417" lon="12.75277"><ele>13.0</ele><time>2026-04-26T07:13:21.936Z</time></trkpt><trkpt lat="43.95324" lon="12.75253"><ele>13.0</ele><time>2026-04-26T07:13:22.937Z</time></trkpt><trkpt lat="43.9532367" lon="12.7522883"><ele>13.0</ele><time>2026-04-26T07:13:23.937Z</time></trkpt><trkpt lat="43.9532333" lon="12.7520483"><ele>12.666666666666666</ele><time>2026-04-26T07:13:24.937Z</time></trkpt><trkpt lat="43.9532383" lon="12.7518167"><ele>12.333333333333332</ele><time>2026-04-26T07:13:25.937Z</time></trkpt><trkpt lat="43.9532433" lon="12.7515883"><ele>12.0</ele><time>2026-04-26T07:13:26.937Z</time></trkpt><trkpt lat="43.953245" lon="12.7513717"><ele>12.0</ele><time>2026-04-26T07:13:27.936Z</time></trkpt><trkpt lat="43.9532433" lon="12.75118"><ele>12.0</ele><time>2026-04-26T07:13:28.937Z</time></trkpt><trkpt lat="43.953245" lon="12.7510183"><ele>12.0</ele><time>2026-04-26T07:13:29.937Z</time></trkpt><trkpt lat="43.9532517" lon="12.750885"><ele>12.0</ele><time>2026-04-26T07:13:30.937Z</time></trkpt><trkpt lat="43.9532683" lon="12.7507817"><ele>12.0</ele><time>2026-04-26T07:13:31.936Z</time></trkpt><trkpt lat="43.95332" lon="12.750655"><ele>11.5</ele><time>2026-04-26T07:13:33.937Z</time></trkpt><trkpt lat="43.9533783" lon="12.7505883"><ele>11.0</ele><time>2026-04-26T07:13:35.937Z</time></trkpt><trkpt lat="43.9534467" lon="12.7505333"><ele>10.5</ele><time>2026-04-26T07:13:38.937Z</time></trkpt><trkpt lat="43.9535033" lon="12.75044"><ele>10.0</ele><time>2026-04-26T07:13:43.937Z</time></trkpt><trkpt lat="43.953555" lon="12.7503583"><ele>9.5</ele><time>2026-04-26T07:13:45.937Z</time></trkpt><trkpt lat="43.953655" lon="12.75032"><ele>9.0</ele><time>2026-04-26T07:13:48.937Z</time></trkpt><trkpt lat="43.9537483" lon="12.7503017"><ele>9.0</ele><time>2026-04-26T07:13:50.937Z</time></trkpt><trkpt lat="43.953815" lon="12.7502333"><ele>9.0</ele><time>2026-04-26T07:13:52.936Z</time></trkpt><trkpt lat="43.9538333" lon="12.7501433"><ele>9.0</ele><time>2026-04-26T07:13:55.937Z</time></trkpt><trkpt lat="43.9538133" lon="12.7502267"><ele>9.0</ele><time>2026-04-26T07:17:01.937Z</time></trkpt><trkpt lat="43.9537983" lon="12.7503467"><ele>9.0</ele><time>2026-04-26T07:17:03.937Z</time></trkpt><trkpt lat="43.95376" lon="12.75044"><ele>9.0</ele><time>2026-04-26T07:17:05.936Z</time></trkpt><trkpt lat="43.9536883" lon="12.75045"><ele>9.0</ele><time>2026-04-26T07:17:07.937Z</time></trkpt><trkpt lat="43.9536283" lon="12.750415"><ele>9.0</ele><time>2026-04-26T07:17:09.937Z</time></trkpt><trkpt lat="43.95351" lon="12.75035"><ele>9.0</ele><time>2026-04-26T07:17:12.937Z</time></trkpt><trkpt lat="43.9534367" lon="12.7503233"><ele>9.0</ele><time>2026-04-26T07:17:15.937Z</time></trkpt><trkpt lat="43.9534117" lon="12.750225"><ele>9.0</ele><time>2026-04-26T07:19:32.937Z</time></trkpt><trkpt lat="43.9533667" lon="12.750155"><ele>9.0</ele><time>2026-04-26T07:19:34.936Z</time></trkpt><trkpt lat="43.9533183" lon="12.7500567"><ele>9.2</ele><time>2026-04-26T07:19:37.937Z</time></trkpt><trkpt lat="43.9532867" lon="12.7499767"><ele>9.4</ele><time>2026-04-26T07:19:39.937Z</time></trkpt><trkpt lat="43.9532783" lon="12.7498217"><ele>9.6</ele><time>2026-04-26T07:19:41.936Z</time></trkpt><trkpt lat="43.9532833" lon="12.7497133"><ele>9.8</ele><time>2026-04-26T07:19:42.936Z</time></trkpt><trkpt lat="43.953285" lon="12.7495783"><ele>10.0</ele><time>2026-04-26T07:19:43.937Z</time></trkpt><trkpt lat="43.9532883" lon="12.7494183"><ele>9.75</ele><time>2026-04-26T07:19:44.937Z</time></trkpt><trkpt lat="43.95329" lon="12.7492383"><ele>9.5</ele><time>2026-04-26T07:19:45.936Z</time></trkpt><trkpt lat="43.9532917" lon="12.7490467"><ele>9.25</ele><time>2026-04-26T07:19:46.937Z</time></trkpt><trkpt lat="43.9532917" lon="12.7488483"><ele>9.0</ele><time>2026-04-26T07:19:47.936Z</time></trkpt><trkpt lat="43.9532917" lon="12.7486467"><ele>9.25</ele><time>2026-04-26T07:19:48.937Z</time></trkpt><trkpt lat="43.9532867" lon="12.7484533"><ele>9.5</ele><time>2026-04-26T07:19:49.937Z</time></trkpt><trkpt lat="43.95328" lon="12.74826"><ele>9.75</ele><time>2026-04-26T07:19:50.937Z</time></trkpt><trkpt lat="43.9532717" lon="12.7480633"><ele>10.0</ele><time>2026-04-26T07:19:51.937Z</time></trkpt><trkpt lat="43.95326" lon="12.7478617"><ele>10.333333333333334</ele><time>2026-04-26T07:19:52.936Z</time></trkpt><trkpt lat="43.95325" lon="12.747655"><ele>10.666666666666666</ele><time>2026-04-26T07:19:53.937Z</time></trkpt><trkpt lat="43.95324" lon="12.747445"><ele>11.0</ele><time>2026-04-26T07:19:54.937Z</time></trkpt><trkpt lat="43.953225" lon="12.7472367"><ele>11.0</ele><time>2026-04-26T07:19:55.937Z</time></trkpt><trkpt lat="43.953205" lon="12.74703"><ele>11.0</ele><time>2026-04-26T07:19:56.936Z</time></trkpt><trkpt lat="43.9531833" lon="12.7468233"><ele>11.0</ele><time>2026-04-26T07:19:57.937Z</time></trkpt><trkpt lat="43.95316" lon="12.7466183"><ele>11.5</ele><time>2026-04-26T07:19:58.936Z</time></trkpt><trkpt lat="43.953135" lon="12.7464133"><ele>12.0</ele><time>2026-04-26T07:19:59.937Z</time></trkpt><trkpt lat="43.9531083" lon="12.74621"><ele>12.5</ele><time>2026-04-26T07:20:00.936Z</time></trkpt><trkpt lat="43.953075" lon="12.7460067"><ele>13.0</ele><time>2026-04-26T07:20:01.937Z</time></trkpt><trkpt lat="43.9530417" lon="12.7458033"><ele>13.333333333333332</ele><time>2026-04-26T07:20:02.936Z</time></trkpt><trkpt lat="43.9530033" lon="12.7456"><ele>13.666666666666668</ele><time>2026-04-26T07:20:03.937Z</time></trkpt><trkpt lat="43.9529633" lon="12.745395"><ele>14.0</ele><time>2026-04-26T07:20:04.936Z</time></trkpt><trkpt lat="43.95292" lon="12.7451833"><ele>14.0</ele><time>2026-04-26T07:20:05.936Z</time></trkpt><trkpt lat="43.9528733" lon="12.7449733"><ele>14.0</ele><time>2026-04-26T07:20:06.937Z</time></trkpt><trkpt lat="43.9528217" lon="12.7447683"><ele>14.0</ele><time>2026-04-26T07:20:07.937Z</time></trkpt><trkpt lat="43.9527683" lon="12.744565"><ele>13.333333333333334</ele><time>2026-04-26T07:20:08.936Z</time></trkpt><trkpt lat="43.9527083" lon="12.7443683"><ele>12.666666666666668</ele><time>2026-04-26T07:20:09.937Z</time></trkpt><trkpt lat="43.95265" lon="12.7441683"><ele>12.0</ele><time>2026-04-26T07:20:10.937Z</time></trkpt><trkpt lat="43.9525867" lon="12.7439683"><ele>12.0</ele><time>2026-04-26T07:20:11.937Z</time></trkpt><trkpt lat="43.9525233" lon="12.74376"><ele>12.0</ele><time>2026-04-26T07:20:12.937Z</time></trkpt><trkpt lat="43.95246" lon="12.7435467"><ele>12.0</ele><time>2026-04-26T07:20:13.937Z</time></trkpt><trkpt lat="43.9523983" lon="12.7433417"><ele>12.0</ele><time>2026-04-26T07:20:14.936Z</time></trkpt><trkpt lat="43.952335" lon="12.7431417"><ele>12.0</ele><time>2026-04-26T07:20:15.937Z</time></trkpt><trkpt lat="43.952275" lon="12.7429367"><ele>12.0</ele><time>2026-04-26T07:20:16.937Z</time></trkpt><trkpt lat="43.95221" lon="12.7427333"><ele>12.666666666666668</ele><time>2026-04-26T07:20:17.937Z</time></trkpt><trkpt lat="43.9521483" lon="12.74253"><ele>13.333333333333334</ele><time>2026-04-26T07:20:18.937Z</time></trkpt><trkpt lat="43.9520883" lon="12.742325"><ele>14.0</ele><time>2026-04-26T07:20:19.937Z</time></trkpt><trkpt lat="43.9520283" lon="12.7421217"><ele>14.0</ele><time>2026-04-26T07:20:20.936Z</time></trkpt><trkpt lat="43.951965" lon="12.7419133"><ele>14.0</ele><time>2026-04-26T07:20:21.936Z</time></trkpt><trkpt lat="43.9519" lon="12.7417033"><ele>14.0</ele><time>2026-04-26T07:20:22.937Z</time></trkpt><trkpt lat="43.9518317" lon="12.741485"><ele>14.0</ele><time>2026-04-26T07:20:23.937Z</time></trkpt><trkpt lat="43.95176" lon="12.74126"><ele>14.0</ele><time>2026-04-26T07:20:24.937Z</time></trkpt><trkpt lat="43.95169" lon="12.74103"><ele>14.0</ele><time>2026-04-26T07:20:25.936Z</time></trkpt><trkpt lat="43.95162" lon="12.7407933"><ele>14.0</ele><time>2026-04-26T07:20:26.937Z</time></trkpt><trkpt lat="43.95155" lon="12.74055"><ele>14.0</ele><time>2026-04-26T07:20:27.936Z</time></trkpt><trkpt lat="43.9514833" lon="12.740305"><ele>14.0</ele><time>2026-04-26T07:20:28.936Z</time></trkpt><trkpt lat="43.9514167" lon="12.7400583"><ele>14.0</ele><time>2026-04-26T07:20:29.937Z</time></trkpt><trkpt lat="43.951355" lon="12.73981"><ele>14.0</ele><time>2026-04-26T07:20:30.937Z</time></trkpt><trkpt lat="43.9512933" lon="12.7395617"><ele>14.0</ele><time>2026-04-26T07:20:31.937Z</time></trkpt><trkpt lat="43.9512383" lon="12.7393117"><ele>14.333333333333334</ele><time>2026-04-26T07:20:32.937Z</time></trkpt><trkpt lat="43.9511933" lon="12.73906"><ele>14.666666666666668</ele><time>2026-04-26T07:20:33.937Z</time></trkpt><trkpt lat="43.9511467" lon="12.73881"><ele>15.0</ele><time>2026-04-26T07:20:34.937Z</time></trkpt><trkpt lat="43.951105" lon="12.7385567"><ele>14.666666666666668</ele><time>2026-04-26T07:20:35.937Z</time></trkpt><trkpt lat="43.9510683" lon="12.7383017"><ele>14.333333333333334</ele><time>2026-04-26T07:20:36.937Z</time></trkpt><trkpt lat="43.9510383" lon="12.7380467"><ele>14.0</ele><time>2026-04-26T07:20:37.937Z</time></trkpt><trkpt lat="43.951015" lon="12.737785"><ele>14.0</ele><time>2026-04-26T07:20:38.937Z</time></trkpt><trkpt lat="43.9509933" lon="12.7375217"><ele>14.0</ele><time>2026-04-26T07:20:39.937Z</time></trkpt><trkpt lat="43.9509783" lon="12.737255"><ele>14.0</ele><time>2026-04-26T07:20:40.937Z</time></trkpt><trkpt lat="43.9509717" lon="12.7369867"><ele>13.666666666666668</ele><time>2026-04-26T07:20:41.936Z</time></trkpt><trkpt lat="43.9509683" lon="12.7367167"><ele>13.333333333333332</ele><time>2026-04-26T07:20:42.936Z</time></trkpt><trkpt lat="43.9509717" lon="12.7364467"><ele>13.0</ele><time>2026-04-26T07:20:43.936Z</time></trkpt><trkpt lat="43.9509833" lon="12.7361767"><ele>12.666666666666666</ele><time>2026-04-26T07:20:44.936Z</time></trkpt><trkpt lat="43.951" lon="12.7359067"><ele>12.333333333333332</ele><time>2026-04-26T07:20:45.937Z</time></trkpt><trkpt lat="43.9510267" lon="12.7356383"><ele>12.0</ele><time>2026-04-26T07:20:46.937Z</time></trkpt><trkpt lat="43.9510583" lon="12.735375"><ele>12.0</ele><time>2026-04-26T07:20:47.937Z</time></trkpt><trkpt lat="43.9510967" lon="12.7351117"><ele>12.0</ele><time>2026-04-26T07:20:48.937Z</time></trkpt><trkpt lat="43.9511433" lon="12.73485"><ele>12.0</ele><time>2026-04-26T07:20:49.936Z</time></trkpt><trkpt lat="43.9511967" lon="12.7345867"><ele>12.666666666666668</ele><time>2026-04-26T07:20:50.937Z</time></trkpt><trkpt lat="43.95126" lon="12.7343283"><ele>13.333333333333334</ele><time>2026-04-26T07:20:51.936Z</time></trkpt><trkpt lat="43.95133" lon="12.7340733"><ele>14.0</ele><time>2026-04-26T07:20:52.937Z</time></trkpt><trkpt lat="43.9514083" lon="12.7338233"><ele>14.0</ele><time>2026-04-26T07:20:53.937Z</time></trkpt><trkpt lat="43.9514983" lon="12.733585"><ele>14.0</ele><time>2026-04-26T07:20:54.937Z</time></trkpt><trkpt lat="43.9515967" lon="12.73336"><ele>14.0</ele><time>2026-04-26T07:20:55.936Z</time></trkpt><trkpt lat="43.9517067" lon="12.733145"><ele>14.0</ele><time>2026-04-26T07:20:56.937Z</time></trkpt><trkpt lat="43.9518267" lon="12.732935"><ele>14.0</ele><time>2026-04-26T07:20:57.937Z</time></trkpt><trkpt lat="43.9519467" lon="12.732725"><ele>14.0</ele><time>2026-04-26T07:20:58.937Z</time></trkpt><trkpt lat="43.95207" lon="12.7325183"><ele>13.333333333333334</ele><time>2026-04-26T07:20:59.937Z</time></trkpt><trkpt lat="43.9522" lon="12.7323167"><ele>12.666666666666668</ele><time>2026-04-26T07:21:00.937Z</time></trkpt><trkpt lat="43.952335" lon="12.73212"><ele>12.0</ele><time>2026-04-26T07:21:01.937Z</time></trkpt><trkpt lat="43.9524733" lon="12.7319267"><ele>13.333333333333332</ele><time>2026-04-26T07:21:02.936Z</time></trkpt><trkpt lat="43.952615" lon="12.73174"><ele>14.666666666666666</ele><time>2026-04-26T07:21:03.936Z</time></trkpt><trkpt lat="43.9527617" lon="12.7315567"><ele>16.0</ele><time>2026-04-26T07:21:04.937Z</time></trkpt><trkpt lat="43.9529117" lon="12.73138"><ele>16.0</ele><time>2026-04-26T07:21:05.937Z</time></trkpt><trkpt lat="43.9530617" lon="12.731205"><ele>16.0</ele><time>2026-04-26T07:21:06.937Z</time></trkpt><trkpt lat="43.9532133" lon="12.7310333"><ele>16.0</ele><time>2026-04-26T07:21:07.936Z</time></trkpt><trkpt lat="43.953365" lon="12.73086"><ele>16.0</ele><time>2026-04-26T07:21:08.937Z</time></trkpt><trkpt lat="43.9535183" lon="12.7306867"><ele>16.0</ele><time>2026-04-26T07:21:09.937Z</time></trkpt><trkpt lat="43.953675" lon="12.7305183"><ele>16.0</ele><time>2026-04-26T07:21:10.937Z</time></trkpt><trkpt lat="43.9538283" lon="12.73035"><ele>15.666666666666666</ele><time>2026-04-26T07:21:11.937Z</time></trkpt><trkpt lat="43.9539767" lon="12.73018"><ele>15.333333333333332</ele><time>2026-04-26T07:21:12.937Z</time></trkpt><trkpt lat="43.9541217" lon="12.7300217"><ele>15.0</ele><time>2026-04-26T07:21:13.936Z</time></trkpt><trkpt lat="43.9542583" lon="12.72987"><ele>15.5</ele><time>2026-04-26T07:21:14.936Z</time></trkpt><trkpt lat="43.9543883" lon="12.729735"><ele>16.0</ele><time>2026-04-26T07:21:15.936Z</time></trkpt><trkpt lat="43.9545067" lon="12.7296133"><ele>16.5</ele><time>2026-04-26T07:21:16.937Z</time></trkpt><trkpt lat="43.9546067" lon="12.72951"><ele>17.0</ele><time>2026-04-26T07:21:17.937Z</time></trkpt><trkpt lat="43.954695" lon="12.729435"><ele>17.0</ele><time>2026-04-26T07:21:18.937Z</time></trkpt><trkpt lat="43.954775" lon="12.7293967"><ele>17.0</ele><time>2026-04-26T07:21:19.936Z</time></trkpt><trkpt lat="43.9548567" lon="12.7294133"><ele>17.0</ele><time>2026-04-26T07:21:20.936Z</time></trkpt><trkpt lat="43.9549417" lon="12.729445"><ele>17.0</ele><time>2026-04-26T07:21:21.936Z</time></trkpt><trkpt lat="43.955035" lon="12.729505"><ele>17.0</ele><time>2026-04-26T07:21:22.937Z</time></trkpt><trkpt lat="43.955125" lon="12.729595"><ele>16.75</ele><time>2026-04-26T07:21:23.937Z</time></trkpt><trkpt lat="43.9552033" lon="12.7297183"><ele>16.5</ele><time>2026-04-26T07:21:24.936Z</time></trkpt><trkpt lat="43.9552817" lon="12.7298533"><ele>16.25</ele><time>2026-04-26T07:21:25.937Z</time></trkpt><trkpt lat="43.955365" lon="12.7299867"><ele>16.0</ele><time>2026-04-26T07:21:26.936Z</time></trkpt><trkpt lat="43.95544" lon="12.7301217"><ele>15.8</ele><time>2026-04-26T07:21:27.937Z</time></trkpt><trkpt lat="43.9554883" lon="12.7302733"><ele>15.600000000000001</ele><time>2026-04-26T07:21:28.936Z</time></trkpt><trkpt lat="43.955515" lon="12.73043"><ele>15.4</ele><time>2026-04-26T07:21:29.937Z</time></trkpt><trkpt lat="43.9555383" lon="12.73057"><ele>15.2</ele><time>2026-04-26T07:21:30.936Z</time></trkpt><trkpt lat="43.9555883" lon="12.7306683"><ele>15.0</ele><time>2026-04-26T07:21:31.937Z</time></trkpt><trkpt lat="43.9556617" lon="12.7307183"><ele>15.0</ele><time>2026-04-26T07:21:32.937Z</time></trkpt><trkpt lat="43.955755" lon="12.7307283"><ele>15.0</ele><time>2026-04-26T07:21:33.937Z</time></trkpt><trkpt lat="43.955865" lon="12.7307367"><ele>15.0</ele><time>2026-04-26T07:21:34.936Z</time></trkpt><trkpt lat="43.9559867" lon="12.7307783"><ele>15.0</ele><time>2026-04-26T07:21:35.937Z</time></trkpt><trkpt lat="43.9561283" lon="12.730815"><ele>14.333333333333332</ele><time>2026-04-26T07:21:36.937Z</time></trkpt><trkpt lat="43.9562817" lon="12.7308167"><ele>13.666666666666666</ele><time>2026-04-26T07:21:37.937Z</time></trkpt><trkpt lat="43.9564333" lon="12.7307667"><ele>13.0</ele><time>2026-04-26T07:21:38.937Z</time></trkpt><trkpt lat="43.9565733" lon="12.730675"><ele>13.0</ele><time>2026-04-26T07:21:39.936Z</time></trkpt><trkpt lat="43.9566967" lon="12.7305633"><ele>13.0</ele><time>2026-04-26T07:21:40.937Z</time></trkpt><trkpt lat="43.9568033" lon="12.7304517"><ele>13.0</ele><time>2026-04-26T07:21:41.936Z</time></trkpt><trkpt lat="43.9568933" lon="12.7303567"><ele>13.0</ele><time>2026-04-26T07:21:42.937Z</time></trkpt><trkpt lat="43.9569717" lon="12.7302917"><ele>12.999999999999998</ele><time>2026-04-26T07:21:43.937Z</time></trkpt><trkpt lat="43.9570283" lon="12.73025"><ele>13.0</ele><time>2026-04-26T07:21:44.937Z</time></trkpt><trkpt lat="43.9570817" lon="12.7301983"><ele>13.0</ele><time>2026-04-26T07:21:46.937Z</time></trkpt><trkpt lat="43.9571617" lon="12.730175"><ele>13.0</ele><time>2026-04-26T07:21:48.937Z</time></trkpt><trkpt lat="43.95725" lon="12.73012"><ele>12.999999999999998</ele><time>2026-04-26T07:21:50.937Z</time></trkpt><trkpt lat="43.9572483" lon="12.7299967"><ele>13.0</ele><time>2026-04-26T07:21:52.937Z</time></trkpt><trkpt lat="43.9571583" lon="12.7298583"><ele>13.5</ele><time>2026-04-26T07:21:54.936Z</time></trkpt><trkpt lat="43.95708" lon="12.7297817"><ele>14.0</ele><time>2026-04-26T07:21:55.937Z</time></trkpt><trkpt lat="43.957005" lon="12.7296833"><ele>14.5</ele><time>2026-04-26T07:21:56.937Z</time></trkpt><trkpt lat="43.95694" lon="12.7295417"><ele>15.0</ele><time>2026-04-26T07:21:57.937Z</time></trkpt><trkpt lat="43.956875" lon="12.72937"><ele>15.0</ele><time>2026-04-26T07:21:58.937Z</time></trkpt><trkpt lat="43.9568033" lon="12.7292017"><ele>15.0</ele><time>2026-04-26T07:21:59.937Z</time></trkpt><trkpt lat="43.95672" lon="12.7290383"><ele>15.0</ele><time>2026-04-26T07:22:00.937Z</time></trkpt><trkpt lat="43.95663" lon="12.7288733"><ele>15.0</ele><time>2026-04-26T07:22:01.936Z</time></trkpt><trkpt lat="43.9565317" lon="12.7287067"><ele>15.0</ele><time>2026-04-26T07:22:02.937Z</time></trkpt><trkpt lat="43.956425" lon="12.728545"><ele>15.0</ele><time>2026-04-26T07:22:03.937Z</time></trkpt><trkpt lat="43.9563117" lon="12.7283867"><ele>15.0</ele><time>2026-04-26T07:22:04.937Z</time></trkpt><trkpt lat="43.9562" lon="12.72822"><ele>15.0</ele><time>2026-04-26T07:22:05.937Z</time></trkpt><trkpt lat="43.9560867" lon="12.7280533"><ele>15.0</ele><time>2026-04-26T07:22:06.936Z</time></trkpt><trkpt lat="43.9559667" lon="12.7278967"><ele>15.0</ele><time>2026-04-26T07:22:07.936Z</time></trkpt><trkpt lat="43.955845" lon="12.72774"><ele>15.333333333333332</ele><time>2026-04-26T07:22:08.937Z</time></trkpt><trkpt lat="43.9557233" lon="12.7275767"><ele>15.666666666666666</ele><time>2026-04-26T07:22:09.937Z</time></trkpt><trkpt lat="43.9555983" lon="12.7274133"><ele>16.0</ele><time>2026-04-26T07:22:10.937Z</time></trkpt><trkpt lat="43.9554683" lon="12.7272517"><ele>16.0</ele><time>2026-04-26T07:22:11.937Z</time></trkpt><trkpt lat="43.955335" lon="12.7270917"><ele>16.0</ele><time>2026-04-26T07:22:12.937Z</time></trkpt><trkpt lat="43.9551983" lon="12.7269333"><ele>16.0</ele><time>2026-04-26T07:22:13.937Z</time></trkpt><trkpt lat="43.9550567" lon="12.7267983"><ele>16.0</ele><time>2026-04-26T07:22:14.937Z</time></trkpt><trkpt lat="43.95491" lon="12.7266833"><ele>16.0</ele><time>2026-04-26T07:22:15.937Z</time></trkpt><trkpt lat="43.9547683" lon="12.7265767"><ele>16.0</ele><time>2026-04-26T07:22:16.936Z</time></trkpt><trkpt lat="43.9546333" lon="12.7264817"><ele>16.0</ele><time>2026-04-26T07:22:17.936Z</time></trkpt><trkpt lat="43.954515" lon="12.726395"><ele>16.0</ele><time>2026-04-26T07:22:18.937Z</time></trkpt><trkpt lat="43.954425" lon="12.7263083"><ele>16.0</ele><time>2026-04-26T07:22:19.936Z</time></trkpt><trkpt lat="43.9543633" lon="12.7262117"><ele>16.0</ele><time>2026-04-26T07:22:20.937Z</time></trkpt><trkpt lat="43.9543367" lon="12.72609"><ele>16.0</ele><time>2026-04-26T07:22:21.937Z</time></trkpt><trkpt lat="43.95433" lon="12.7259483"><ele>15.8</ele><time>2026-04-26T07:22:22.937Z</time></trkpt><trkpt lat="43.9542967" lon="12.7258333"><ele>15.600000000000001</ele><time>2026-04-26T07:22:23.936Z</time></trkpt><trkpt lat="43.95423" lon="12.72576"><ele>15.4</ele><time>2026-04-26T07:22:24.937Z</time></trkpt><trkpt lat="43.9541483" lon="12.725725"><ele>15.2</ele><time>2026-04-26T07:22:25.937Z</time></trkpt><trkpt lat="43.9540583" lon="12.7257483"><ele>15.0</ele><time>2026-04-26T07:22:26.937Z</time></trkpt><trkpt lat="43.9539633" lon="12.7258167"><ele>15.75</ele><time>2026-04-26T07:22:27.937Z</time></trkpt><trkpt lat="43.95386" lon="12.72585"><ele>16.5</ele><time>2026-04-26T07:22:28.936Z</time></trkpt><trkpt lat="43.9537433" lon="12.72581"><ele>17.25</ele><time>2026-04-26T07:22:29.936Z</time></trkpt><trkpt lat="43.953615" lon="12.725735"><ele>18.0</ele><time>2026-04-26T07:22:30.936Z</time></trkpt><trkpt lat="43.9534817" lon="12.7256683"><ele>18.666666666666668</ele><time>2026-04-26T07:22:31.937Z</time></trkpt><trkpt lat="43.9533417" lon="12.7256067"><ele>19.333333333333336</ele><time>2026-04-26T07:22:32.937Z</time></trkpt><trkpt lat="43.9531917" lon="12.7255517"><ele>20.0</ele><time>2026-04-26T07:22:33.937Z</time></trkpt><trkpt lat="43.9530383" lon="12.7255"><ele>20.0</ele><time>2026-04-26T07:22:34.937Z</time></trkpt><trkpt lat="43.952885" lon="12.7254467"><ele>20.0</ele><time>2026-04-26T07:22:35.937Z</time></trkpt><trkpt lat="43.9527283" lon="12.725395"><ele>20.0</ele><time>2026-04-26T07:22:36.936Z</time></trkpt><trkpt lat="43.9525717" lon="12.72534"><ele>19.666666666666668</ele><time>2026-04-26T07:22:37.937Z</time></trkpt><trkpt lat="43.9524133" lon="12.7252767"><ele>19.333333333333332</ele><time>2026-04-26T07:22:38.936Z</time></trkpt><trkpt lat="43.9522517" lon="12.7252167"><ele>19.0</ele><time>2026-04-26T07:22:39.937Z</time></trkpt><trkpt lat="43.95209" lon="12.725155"><ele>18.666666666666664</ele><time>2026-04-26T07:22:40.937Z</time></trkpt><trkpt lat="43.9519267" lon="12.7250967"><ele>18.333333333333332</ele><time>2026-04-26T07:22:41.937Z</time></trkpt><trkpt lat="43.9517667" lon="12.72503"><ele>18.0</ele><time>2026-04-26T07:22:42.937Z</time></trkpt><trkpt lat="43.9516083" lon="12.724955"><ele>19.0</ele><time>2026-04-26T07:22:43.937Z</time></trkpt><trkpt lat="43.95145" lon="12.7248817"><ele>20.0</ele><time>2026-04-26T07:22:44.937Z</time></trkpt><trkpt lat="43.9512917" lon="12.724815"><ele>21.0</ele><time>2026-04-26T07:22:45.937Z</time></trkpt><trkpt lat="43.9511383" lon="12.7247517"><ele>21.0</ele><time>2026-04-26T07:22:46.937Z</time></trkpt><trkpt lat="43.950995" lon="12.7246983"><ele>21.0</ele><time>2026-04-26T07:22:47.936Z</time></trkpt><trkpt lat="43.9508617" lon="12.7246483"><ele>21.0</ele><time>2026-04-26T07:22:48.937Z</time></trkpt><trkpt lat="43.9507483" lon="12.7246017"><ele>21.0</ele><time>2026-04-26T07:22:49.937Z</time></trkpt><trkpt lat="43.9506633" lon="12.7245583"><ele>20.666666666666668</ele><time>2026-04-26T07:22:50.937Z</time></trkpt><trkpt lat="43.9505967" lon="12.7245217"><ele>20.333333333333332</ele><time>2026-04-26T07:22:51.937Z</time></trkpt><trkpt lat="43.9505367" lon="12.7244783"><ele>20.0</ele><time>2026-04-26T07:22:52.936Z</time></trkpt><trkpt lat="43.9504933" lon="12.724395"><ele>19.666666666666664</ele><time>2026-04-26T07:22:53.937Z</time></trkpt><trkpt lat="43.9504533" lon="12.7243033"><ele>19.333333333333332</ele><time>2026-04-26T07:22:54.937Z</time></trkpt><trkpt lat="43.950405" lon="12.7242367"><ele>19.0</ele><time>2026-04-26T07:22:55.937Z</time></trkpt><trkpt lat="43.9502917" lon="12.7241667"><ele>18.8</ele><time>2026-04-26T07:22:57.937Z</time></trkpt><trkpt lat="43.9502033" lon="12.7241583"><ele>18.599999999999998</ele><time>2026-04-26T07:22:58.936Z</time></trkpt><trkpt lat="43.9501" lon="12.7241317"><ele>18.4</ele><time>2026-04-26T07:22:59.937Z</time></trkpt><trkpt lat="43.9499983" lon="12.72407"><ele>18.2</ele><time>2026-04-26T07:23:00.937Z</time></trkpt><trkpt lat="43.9499033" lon="12.7239783"><ele>18.0</ele><time>2026-04-26T07:23:01.937Z</time></trkpt><trkpt lat="43.9498067" lon="12.72386"><ele>18.333333333333332</ele><time>2026-04-26T07:23:02.937Z</time></trkpt><trkpt lat="43.9496983" lon="12.723725"><ele>18.666666666666664</ele><time>2026-04-26T07:23:03.936Z</time></trkpt><trkpt lat="43.9495783" lon="12.723585"><ele>19.0</ele><time>2026-04-26T07:23:04.937Z</time></trkpt><trkpt lat="43.9494533" lon="12.7234383"><ele>19.0</ele><time>2026-04-26T07:23:05.937Z</time></trkpt><trkpt lat="43.949325" lon="12.723285"><ele>19.0</ele><time>2026-04-26T07:23:06.937Z</time></trkpt><trkpt lat="43.949195" lon="12.7231233"><ele>19.0</ele><time>2026-04-26T07:23:07.937Z</time></trkpt><trkpt lat="43.9490583" lon="12.7229567"><ele>19.333333333333332</ele><time>2026-04-26T07:23:08.937Z</time></trkpt><trkpt lat="43.9489183" lon="12.7227883"><ele>19.666666666666668</ele><time>2026-04-26T07:23:09.937Z</time></trkpt><trkpt lat="43.9487767" lon="12.722625"><ele>20.0</ele><time>2026-04-26T07:23:10.937Z</time></trkpt><trkpt lat="43.9486433" lon="12.72245"><ele>20.0</ele><time>2026-04-26T07:23:11.937Z</time></trkpt><trkpt lat="43.9485133" lon="12.722285"><ele>20.0</ele><time>2026-04-26T07:23:12.937Z</time></trkpt><trkpt lat="43.94839" lon="12.722125"><ele>20.0</ele><time>2026-04-26T07:23:13.937Z</time></trkpt><trkpt lat="43.9482733" lon="12.7219767"><ele>20.75</ele><time>2026-04-26T07:23:14.937Z</time></trkpt><trkpt lat="43.948165" lon="12.7218433"><ele>21.5</ele><time>2026-04-26T07:23:15.937Z</time></trkpt><trkpt lat="43.9480733" lon="12.7217217"><ele>22.25</ele><time>2026-04-26T07:23:16.936Z</time></trkpt><trkpt lat="43.947995" lon="12.7216183"><ele>23.0</ele><time>2026-04-26T07:23:17.937Z</time></trkpt><trkpt lat="43.9479367" lon="12.7215067"><ele>23.0</ele><time>2026-04-26T07:23:18.937Z</time></trkpt><trkpt lat="43.9479117" lon="12.7213783"><ele>23.0</ele><time>2026-04-26T07:23:19.937Z</time></trkpt><trkpt lat="43.94788" lon="12.7212767"><ele>23.0</ele><time>2026-04-26T07:23:20.936Z</time></trkpt><trkpt lat="43.9478267" lon="12.72121"><ele>23.0</ele><time>2026-04-26T07:23:21.937Z</time></trkpt><trkpt lat="43.94775" lon="12.7211733"><ele>23.0</ele><time>2026-04-26T07:23:22.937Z</time></trkpt><trkpt lat="43.9476517" lon="12.7211567"><ele>23.0</ele><time>2026-04-26T07:23:23.937Z</time></trkpt><trkpt lat="43.947545" lon="12.72111"><ele>23.25</ele><time>2026-04-26T07:23:24.937Z</time></trkpt><trkpt lat="43.9474367" lon="12.7210217"><ele>23.5</ele><time>2026-04-26T07:23:25.937Z</time></trkpt><trkpt lat="43.947325" lon="12.7209"><ele>23.75</ele><time>2026-04-26T07:23:26.937Z</time></trkpt><trkpt lat="43.9472017" lon="12.7207583"><ele>24.0</ele><time>2026-04-26T07:23:27.937Z</time></trkpt><trkpt lat="43.9470683" lon="12.720615"><ele>24.0</ele><time>2026-04-26T07:23:28.936Z</time></trkpt><trkpt lat="43.9469317" lon="12.720465"><ele>24.0</ele><time>2026-04-26T07:23:29.936Z</time></trkpt><trkpt lat="43.9467917" lon="12.7203133"><ele>24.0</ele><time>2026-04-26T07:23:30.936Z</time></trkpt><trkpt lat="43.9466517" lon="12.72017"><ele>24.0</ele><time>2026-04-26T07:23:31.937Z</time></trkpt><trkpt lat="43.94651" lon="12.7200233"><ele>24.0</ele><time>2026-04-26T07:23:32.937Z</time></trkpt><trkpt lat="43.94636" lon="12.7198867"><ele>24.0</ele><time>2026-04-26T07:23:33.937Z</time></trkpt><trkpt lat="43.9462117" lon="12.7197383"><ele>24.0</ele><time>2026-04-26T07:23:34.937Z</time></trkpt><trkpt lat="43.9460633" lon="12.719585"><ele>24.0</ele><time>2026-04-26T07:23:35.936Z</time></trkpt><trkpt lat="43.9459167" lon="12.71943"><ele>24.0</ele><time>2026-04-26T07:23:36.937Z</time></trkpt><trkpt lat="43.9457683" lon="12.7192767"><ele>24.666666666666664</ele><time>2026-04-26T07:23:37.937Z</time></trkpt><trkpt lat="43.945615" lon="12.7191333"><ele>25.333333333333332</ele><time>2026-04-26T07:23:38.937Z</time></trkpt><trkpt lat="43.9454583" lon="12.7189883"><ele>26.0</ele><time>2026-04-26T07:23:39.936Z</time></trkpt><trkpt lat="43.9453017" lon="12.71884"><ele>26.0</ele><time>2026-04-26T07:23:40.936Z</time></trkpt><trkpt lat="43.9451483" lon="12.718685"><ele>26.0</ele><time>2026-04-26T07:23:41.937Z</time></trkpt><trkpt lat="43.9449967" lon="12.7185317"><ele>26.0</ele><time>2026-04-26T07:23:42.937Z</time></trkpt><trkpt lat="43.944845" lon="12.71838"><ele>25.666666666666664</ele><time>2026-04-26T07:23:43.936Z</time></trkpt><trkpt lat="43.9447033" lon="12.7182167"><ele>25.333333333333336</ele><time>2026-04-26T07:23:44.937Z</time></trkpt><trkpt lat="43.9445817" lon="12.7180483"><ele>25.0</ele><time>2026-04-26T07:23:45.937Z</time></trkpt><trkpt lat="43.9444833" lon="12.7178933"><ele>25.0</ele><time>2026-04-26T07:23:46.937Z</time></trkpt><trkpt lat="43.9444067" lon="12.7177517"><ele>25.0</ele><time>2026-04-26T07:23:47.937Z</time></trkpt><trkpt lat="43.9443433" lon="12.7175933"><ele>25.0</ele><time>2026-04-26T07:23:48.936Z</time></trkpt><trkpt lat="43.9442683" lon="12.7174483"><ele>25.0</ele><time>2026-04-26T07:23:49.937Z</time></trkpt><trkpt lat="43.9441867" lon="12.7173283"><ele>24.6</ele><time>2026-04-26T07:23:50.937Z</time></trkpt><trkpt lat="43.94409" lon="12.71726"><ele>24.2</ele><time>2026-04-26T07:23:51.936Z</time></trkpt><trkpt lat="43.9439883" lon="12.7172433"><ele>23.799999999999997</ele><time>2026-04-26T07:23:52.937Z</time></trkpt><trkpt lat="43.9438867" lon="12.71727"><ele>23.4</ele><time>2026-04-26T07:23:53.937Z</time></trkpt><trkpt lat="43.943785" lon="12.71733"><ele>23.0</ele><time>2026-04-26T07:23:54.936Z</time></trkpt><trkpt lat="43.9436783" lon="12.717425"><ele>23.0</ele><time>2026-04-26T07:23:55.937Z</time></trkpt><trkpt lat="43.94356" lon="12.7175017"><ele>23.0</ele><time>2026-04-26T07:23:56.936Z</time></trkpt><trkpt lat="43.9434333" lon="12.7175283"><ele>23.0</ele><time>2026-04-26T07:23:57.936Z</time></trkpt><trkpt lat="43.9433083" lon="12.7175"><ele>23.0</ele><time>2026-04-26T07:23:58.936Z</time></trkpt><trkpt lat="43.9431833" lon="12.717435"><ele>23.25</ele><time>2026-04-26T07:23:59.937Z</time></trkpt><trkpt lat="43.943065" lon="12.7173417"><ele>23.5</ele><time>2026-04-26T07:24:00.938Z</time></trkpt><trkpt lat="43.942955" lon="12.7172383"><ele>23.75</ele><time>2026-04-26T07:24:01.938Z</time></trkpt><trkpt lat="43.942845" lon="12.7171583"><ele>24.0</ele><time>2026-04-26T07:24:02.938Z</time></trkpt><trkpt lat="43.9427383" lon="12.7170767"><ele>24.0</ele><time>2026-04-26T07:24:03.937Z</time></trkpt><trkpt lat="43.9426267" lon="12.7169983"><ele>24.0</ele><time>2026-04-26T07:24:04.938Z</time></trkpt><trkpt lat="43.942515" lon="12.716915"><ele>24.0</ele><time>2026-04-26T07:24:05.938Z</time></trkpt><trkpt lat="43.942395" lon="12.7168383"><ele>24.0</ele><time>2026-04-26T07:24:06.937Z</time></trkpt><trkpt lat="43.9422767" lon="12.7167633"><ele>24.75</ele><time>2026-04-26T07:24:07.938Z</time></trkpt><trkpt lat="43.9421683" lon="12.716685"><ele>25.5</ele><time>2026-04-26T07:24:08.937Z</time></trkpt><trkpt lat="43.9420633" lon="12.7166117"><ele>26.25</ele><time>2026-04-26T07:24:09.938Z</time></trkpt><trkpt lat="43.9419633" lon="12.7165367"><ele>27.0</ele><time>2026-04-26T07:24:10.938Z</time></trkpt><trkpt lat="43.9418633" lon="12.7164667"><ele>27.0</ele><time>2026-04-26T07:24:11.938Z</time></trkpt><trkpt lat="43.9417717" lon="12.7164"><ele>27.0</ele><time>2026-04-26T07:24:12.938Z</time></trkpt><trkpt lat="43.9416917" lon="12.71634"><ele>27.0</ele><time>2026-04-26T07:24:13.938Z</time></trkpt><trkpt lat="43.9416233" lon="12.7162883"><ele>27.0</ele><time>2026-04-26T07:24:14.938Z</time></trkpt><trkpt lat="43.94156" lon="12.7162417"><ele>27.0</ele><time>2026-04-26T07:24:15.938Z</time></trkpt><trkpt lat="43.9414967" lon="12.7161933"><ele>27.0</ele><time>2026-04-26T07:24:16.938Z</time></trkpt><trkpt lat="43.941435" lon="12.7161517"><ele>27.0</ele><time>2026-04-26T07:24:17.938Z</time></trkpt><trkpt lat="43.9413767" lon="12.71611"><ele>27.0</ele><time>2026-04-26T07:24:18.938Z</time></trkpt><trkpt lat="43.9413167" lon="12.7160683"><ele>27.0</ele><time>2026-04-26T07:24:19.938Z</time></trkpt><trkpt lat="43.94125" lon="12.7160133"><ele>27.0</ele><time>2026-04-26T07:24:20.937Z</time></trkpt><trkpt lat="43.9411733" lon="12.7159533"><ele>27.0</ele><time>2026-04-26T07:24:21.937Z</time></trkpt><trkpt lat="43.94109" lon="12.7158917"><ele>27.0</ele><time>2026-04-26T07:24:22.938Z</time></trkpt><trkpt lat="43.9409983" lon="12.71583"><ele>27.0</ele><time>2026-04-26T07:24:23.938Z</time></trkpt><trkpt lat="43.9408983" lon="12.7157617"><ele>27.0</ele><time>2026-04-26T07:24:24.938Z</time></trkpt><trkpt lat="43.940795" lon="12.71568"><ele>27.0</ele><time>2026-04-26T07:24:25.938Z</time></trkpt><trkpt lat="43.94069" lon="12.7155933"><ele>27.0</ele><time>2026-04-26T07:24:26.937Z</time></trkpt><trkpt lat="43.9405833" lon="12.7155"><ele>27.0</ele><time>2026-04-26T07:24:27.938Z</time></trkpt><trkpt lat="43.940475" lon="12.7154083"><ele>27.0</ele><time>2026-04-26T07:24:28.937Z</time></trkpt><trkpt lat="43.940365" lon="12.7153083"><ele>27.0</ele><time>2026-04-26T07:24:29.938Z</time></trkpt><trkpt lat="43.9402567" lon="12.7152067"><ele>27.0</ele><time>2026-04-26T07:24:30.937Z</time></trkpt><trkpt lat="43.9401567" lon="12.7150933"><ele>27.25</ele><time>2026-04-26T07:24:31.938Z</time></trkpt><trkpt lat="43.9400567" lon="12.7149817"><ele>27.5</ele><time>2026-04-26T07:24:32.938Z</time></trkpt><trkpt lat="43.939955" lon="12.71487"><ele>27.75</ele><time>2026-04-26T07:24:33.938Z</time></trkpt><trkpt lat="43.9398567" lon="12.7147517"><ele>28.0</ele><time>2026-04-26T07:24:34.937Z</time></trkpt><trkpt lat="43.9397667" lon="12.7146333"><ele>28.0</ele><time>2026-04-26T07:24:35.937Z</time></trkpt><trkpt lat="43.9396767" lon="12.714525"><ele>27.999999999999996</ele><time>2026-04-26T07:24:36.938Z</time></trkpt><trkpt lat="43.9395983" lon="12.7144083"><ele>27.999999999999996</ele><time>2026-04-26T07:24:37.937Z</time></trkpt><trkpt lat="43.9395217" lon="12.7143067"><ele>28.0</ele><time>2026-04-26T07:24:38.938Z</time></trkpt><trkpt lat="43.9394483" lon="12.71421"><ele>28.0</ele><time>2026-04-26T07:24:39.938Z</time></trkpt><trkpt lat="43.9393783" lon="12.7141133"><ele>28.166666666666668</ele><time>2026-04-26T07:24:40.938Z</time></trkpt><trkpt lat="43.93932" lon="12.7140283"><ele>28.333333333333336</ele><time>2026-04-26T07:24:41.938Z</time></trkpt><trkpt lat="43.9392717" lon="12.71396"><ele>28.5</ele><time>2026-04-26T07:24:42.937Z</time></trkpt><trkpt lat="43.9392083" lon="12.7138617"><ele>28.666666666666664</ele><time>2026-04-26T07:24:44.938Z</time></trkpt><trkpt lat="43.9391633" lon="12.7137983"><ele>28.833333333333332</ele><time>2026-04-26T07:24:47.937Z</time></trkpt><trkpt lat="43.9390883" lon="12.7136917"><ele>29.0</ele><time>2026-04-26T07:24:50.938Z</time></trkpt><trkpt lat="43.9390133" lon="12.713575"><ele>28.999999999999996</ele><time>2026-04-26T07:24:52.938Z</time></trkpt><trkpt lat="43.93892" lon="12.71344"><ele>29.0</ele><time>2026-04-26T07:24:54.938Z</time></trkpt><trkpt lat="43.9388667" lon="12.7133617"><ele>29.0</ele><time>2026-04-26T07:24:55.937Z</time></trkpt><trkpt lat="43.9388117" lon="12.7132817"><ele>29.0</ele><time>2026-04-26T07:24:56.938Z</time></trkpt><trkpt lat="43.9387583" lon="12.7132067"><ele>28.999999999999996</ele><time>2026-04-26T07:24:57.938Z</time></trkpt><trkpt lat="43.9387067" lon="12.713135"><ele>29.0</ele><time>2026-04-26T07:24:58.938Z</time></trkpt><trkpt lat="43.9386583" lon="12.7130683"><ele>28.999999999999996</ele><time>2026-04-26T07:24:59.938Z</time></trkpt><trkpt lat="43.9385433" lon="12.713025"><ele>29.0</ele><time>2026-04-26T07:25:01.938Z</time></trkpt><trkpt lat="43.9384783" lon="12.7130567"><ele>29.0</ele><time>2026-04-26T07:25:02.938Z</time></trkpt><trkpt lat="43.9384133" lon="12.7131033"><ele>29.0</ele><time>2026-04-26T07:25:03.937Z</time></trkpt><trkpt lat="43.9383483" lon="12.7131667"><ele>28.999999999999996</ele><time>2026-04-26T07:25:04.938Z</time></trkpt><trkpt lat="43.9382867" lon="12.7132333"><ele>29.0</ele><time>2026-04-26T07:25:05.937Z</time></trkpt><trkpt lat="43.9382267" lon="12.7132883"><ele>29.333333333333332</ele><time>2026-04-26T07:25:06.938Z</time></trkpt><trkpt lat="43.93816" lon="12.713325"><ele>29.666666666666664</ele><time>2026-04-26T07:25:07.938Z</time></trkpt><trkpt lat="43.93809" lon="12.71334"><ele>30.0</ele><time>2026-04-26T07:25:08.938Z</time></trkpt><trkpt lat="43.9380233" lon="12.7133083"><ele>30.333333333333336</ele><time>2026-04-26T07:25:09.938Z</time></trkpt><trkpt lat="43.93796" lon="12.7132783"><ele>30.666666666666668</ele><time>2026-04-26T07:25:10.937Z</time></trkpt><trkpt lat="43.9378417" lon="12.71328"><ele>31.0</ele><time>2026-04-26T07:25:12.938Z</time></trkpt><trkpt lat="43.937795" lon="12.7133417"><ele>31.0</ele><time>2026-04-26T07:25:13.938Z</time></trkpt><trkpt lat="43.9377483" lon="12.7134317"><ele>31.0</ele><time>2026-04-26T07:25:14.937Z</time></trkpt><trkpt lat="43.9376883" lon="12.713535"><ele>31.0</ele><time>2026-04-26T07:25:15.938Z</time></trkpt><trkpt lat="43.9376117" lon="12.71364"><ele>31.0</ele><time>2026-04-26T07:25:16.938Z</time></trkpt><trkpt lat="43.9375283" lon="12.71374"><ele>31.0</ele><time>2026-04-26T07:25:17.938Z</time></trkpt><trkpt lat="43.9374433" lon="12.71384"><ele>30.75</ele><time>2026-04-26T07:25:18.937Z</time></trkpt><trkpt lat="43.9373567" lon="12.71394"><ele>30.5</ele><time>2026-04-26T07:25:19.938Z</time></trkpt><trkpt lat="43.9372717" lon="12.71404"><ele>30.25</ele><time>2026-04-26T07:25:20.938Z</time></trkpt><trkpt lat="43.9371867" lon="12.71414"><ele>30.0</ele><time>2026-04-26T07:25:21.937Z</time></trkpt><trkpt lat="43.9371" lon="12.7142467"><ele>30.0</ele><time>2026-04-26T07:25:22.937Z</time></trkpt><trkpt lat="43.9370117" lon="12.7143533"><ele>30.0</ele><time>2026-04-26T07:25:23.937Z</time></trkpt><trkpt lat="43.9369233" lon="12.7144617"><ele>30.0</ele><time>2026-04-26T07:25:24.936Z</time></trkpt><trkpt lat="43.9368283" lon="12.7145733"><ele>30.0</ele><time>2026-04-26T07:25:25.936Z</time></trkpt><trkpt lat="43.936735" lon="12.7146883"><ele>30.0</ele><time>2026-04-26T07:25:26.937Z</time></trkpt><trkpt lat="43.9366417" lon="12.7148017"><ele>30.0</ele><time>2026-04-26T07:25:27.937Z</time></trkpt><trkpt lat="43.9365483" lon="12.71492"><ele>30.0</ele><time>2026-04-26T07:25:28.937Z</time></trkpt><trkpt lat="43.9364517" lon="12.7150317"><ele>30.0</ele><time>2026-04-26T07:25:29.937Z</time></trkpt><trkpt lat="43.9363583" lon="12.7151483"><ele>30.0</ele><time>2026-04-26T07:25:30.936Z</time></trkpt><trkpt lat="43.9362667" lon="12.7152633"><ele>30.0</ele><time>2026-04-26T07:25:31.937Z</time></trkpt><trkpt lat="43.936175" lon="12.7153783"><ele>30.0</ele><time>2026-04-26T07:25:32.936Z</time></trkpt><trkpt lat="43.9360833" lon="12.71549"><ele>30.0</ele><time>2026-04-26T07:25:33.937Z</time></trkpt><trkpt lat="43.93599" lon="12.7156"><ele>30.0</ele><time>2026-04-26T07:25:34.936Z</time></trkpt><trkpt lat="43.935905" lon="12.7157067"><ele>30.0</ele><time>2026-04-26T07:25:35.936Z</time></trkpt><trkpt lat="43.9358233" lon="12.7158083"><ele>30.0</ele><time>2026-04-26T07:25:36.936Z</time></trkpt><trkpt lat="43.935745" lon="12.7159117"><ele>30.0</ele><time>2026-04-26T07:25:37.937Z</time></trkpt><trkpt lat="43.9356617" lon="12.716015"><ele>30.0</ele><time>2026-04-26T07:25:38.937Z</time></trkpt><trkpt lat="43.93558" lon="12.7161217"><ele>30.25</ele><time>2026-04-26T07:25:39.937Z</time></trkpt><trkpt lat="43.9354983" lon="12.7162333"><ele>30.5</ele><time>2026-04-26T07:25:40.937Z</time></trkpt><trkpt lat="43.9354133" lon="12.7163433"><ele>30.75</ele><time>2026-04-26T07:25:41.936Z</time></trkpt><trkpt lat="43.935325" lon="12.7164483"><ele>31.0</ele><time>2026-04-26T07:25:42.937Z</time></trkpt><trkpt lat="43.935235" lon="12.7165517"><ele>31.0</ele><time>2026-04-26T07:25:43.937Z</time></trkpt><trkpt lat="43.9351517" lon="12.7166717"><ele>31.0</ele><time>2026-04-26T07:25:44.937Z</time></trkpt><trkpt lat="43.9350667" lon="12.7167983"><ele>31.0</ele><time>2026-04-26T07:25:45.936Z</time></trkpt><trkpt lat="43.93498" lon="12.716925"><ele>31.0</ele><time>2026-04-26T07:25:46.936Z</time></trkpt><trkpt lat="43.9348883" lon="12.717055"><ele>30.75</ele><time>2026-04-26T07:25:47.937Z</time></trkpt><trkpt lat="43.934795" lon="12.7171917"><ele>30.5</ele><time>2026-04-26T07:25:48.937Z</time></trkpt><trkpt lat="43.9347017" lon="12.717335"><ele>30.25</ele><time>2026-04-26T07:25:49.937Z</time></trkpt><trkpt lat="43.93461" lon="12.7174817"><ele>30.0</ele><time>2026-04-26T07:25:50.937Z</time></trkpt><trkpt lat="43.9345117" lon="12.7176267"><ele>29.75</ele><time>2026-04-26T07:25:51.936Z</time></trkpt><trkpt lat="43.9344167" lon="12.7177767"><ele>29.5</ele><time>2026-04-26T07:25:52.937Z</time></trkpt><trkpt lat="43.9343233" lon="12.7179267"><ele>29.25</ele><time>2026-04-26T07:25:53.937Z</time></trkpt><trkpt lat="43.93423" lon="12.71807"><ele>29.0</ele><time>2026-04-26T07:25:54.937Z</time></trkpt><trkpt lat="43.93414" lon="12.7182133"><ele>29.0</ele><time>2026-04-26T07:25:55.936Z</time></trkpt><trkpt lat="43.9340483" lon="12.7183567"><ele>29.0</ele><time>2026-04-26T07:25:56.936Z</time></trkpt><trkpt lat="43.9339533" lon="12.718505"><ele>29.0</ele><time>2026-04-26T07:25:57.937Z</time></trkpt><trkpt lat="43.9338583" lon="12.718655"><ele>29.0</ele><time>2026-04-26T07:25:58.936Z</time></trkpt><trkpt lat="43.9337633" lon="12.7188133"><ele>28.75</ele><time>2026-04-26T07:25:59.937Z</time></trkpt><trkpt lat="43.9336667" lon="12.7189717"><ele>28.5</ele><time>2026-04-26T07:26:00.937Z</time></trkpt><trkpt lat="43.9335733" lon="12.719125"><ele>28.25</ele><time>2026-04-26T07:26:01.937Z</time></trkpt><trkpt lat="43.9334833" lon="12.7192667"><ele>28.0</ele><time>2026-04-26T07:26:02.936Z</time></trkpt><trkpt lat="43.9333933" lon="12.7194033"><ele>28.0</ele><time>2026-04-26T07:26:03.936Z</time></trkpt><trkpt lat="43.9332983" lon="12.719535"><ele>28.0</ele><time>2026-04-26T07:26:04.937Z</time></trkpt><trkpt lat="43.9331967" lon="12.7196617"><ele>28.0</ele><time>2026-04-26T07:26:05.936Z</time></trkpt><trkpt lat="43.93309" lon="12.7197833"><ele>28.0</ele><time>2026-04-26T07:26:06.937Z</time></trkpt><trkpt lat="43.932975" lon="12.7198983"><ele>28.0</ele><time>2026-04-26T07:26:07.937Z</time></trkpt><trkpt lat="43.9328533" lon="12.7200033"><ele>28.0</ele><time>2026-04-26T07:26:08.937Z</time></trkpt><trkpt lat="43.932725" lon="12.7200967"><ele>28.0</ele><time>2026-04-26T07:26:09.936Z</time></trkpt><trkpt lat="43.93259" lon="12.7201767"><ele>28.0</ele><time>2026-04-26T07:26:10.936Z</time></trkpt><trkpt lat="43.9324517" lon="12.72025"><ele>27.5</ele><time>2026-04-26T07:26:11.937Z</time></trkpt><trkpt lat="43.93231" lon="12.720305"><ele>27.0</ele><time>2026-04-26T07:26:12.937Z</time></trkpt><trkpt lat="43.932165" lon="12.72035"><ele>26.5</ele><time>2026-04-26T07:26:13.937Z</time></trkpt><trkpt lat="43.9320183" lon="12.72039"><ele>26.0</ele><time>2026-04-26T07:26:14.937Z</time></trkpt><trkpt lat="43.9318667" lon="12.72043"><ele>25.666666666666664</ele><time>2026-04-26T07:26:15.937Z</time></trkpt><trkpt lat="43.9317117" lon="12.7204717"><ele>25.333333333333336</ele><time>2026-04-26T07:26:16.937Z</time></trkpt><trkpt lat="43.9315567" lon="12.7205133"><ele>25.0</ele><time>2026-04-26T07:26:17.937Z</time></trkpt><trkpt lat="43.931405" lon="12.7205517"><ele>25.0</ele><time>2026-04-26T07:26:18.936Z</time></trkpt><trkpt lat="43.9312567" lon="12.7205917"><ele>25.0</ele><time>2026-04-26T07:26:19.937Z</time></trkpt><trkpt lat="43.9311117" lon="12.72063"><ele>25.0</ele><time>2026-04-26T07:26:20.937Z</time></trkpt><trkpt lat="43.9309617" lon="12.720665"><ele>26.0</ele><time>2026-04-26T07:26:21.937Z</time></trkpt><trkpt lat="43.9308133" lon="12.7207017"><ele>27.0</ele><time>2026-04-26T07:26:22.937Z</time></trkpt><trkpt lat="43.930665" lon="12.7207433"><ele>28.0</ele><time>2026-04-26T07:26:23.937Z</time></trkpt><trkpt lat="43.9305167" lon="12.72078"><ele>28.0</ele><time>2026-04-26T07:26:24.936Z</time></trkpt><trkpt lat="43.9303733" lon="12.720805"><ele>28.0</ele><time>2026-04-26T07:26:25.937Z</time></trkpt><trkpt lat="43.9302367" lon="12.7208367"><ele>28.0</ele><time>2026-04-26T07:26:26.937Z</time></trkpt><trkpt lat="43.9300983" lon="12.7208667"><ele>28.0</ele><time>2026-04-26T07:26:27.937Z</time></trkpt><trkpt lat="43.92996" lon="12.7208933"><ele>28.25</ele><time>2026-04-26T07:26:28.936Z</time></trkpt><trkpt lat="43.9298183" lon="12.720915"><ele>28.5</ele><time>2026-04-26T07:26:29.937Z</time></trkpt><trkpt lat="43.9296733" lon="12.7209417"><ele>28.75</ele><time>2026-04-26T07:26:30.937Z</time></trkpt><trkpt lat="43.9295283" lon="12.7209683"><ele>29.0</ele><time>2026-04-26T07:26:31.937Z</time></trkpt><trkpt lat="43.929385" lon="12.7209917"><ele>29.0</ele><time>2026-04-26T07:26:32.937Z</time></trkpt><trkpt lat="43.929245" lon="12.72102"><ele>29.0</ele><time>2026-04-26T07:26:33.937Z</time></trkpt><trkpt lat="43.9291067" lon="12.7210517"><ele>29.0</ele><time>2026-04-26T07:26:34.937Z</time></trkpt><trkpt lat="43.9289667" lon="12.7210767"><ele>29.0</ele><time>2026-04-26T07:26:35.937Z</time></trkpt><trkpt lat="43.928825" lon="12.7211017"><ele>29.25</ele><time>2026-04-26T07:26:36.937Z</time></trkpt><trkpt lat="43.928685" lon="12.721135"><ele>29.5</ele><time>2026-04-26T07:26:37.936Z</time></trkpt><trkpt lat="43.92855" lon="12.721175"><ele>29.75</ele><time>2026-04-26T07:26:38.937Z</time></trkpt><trkpt lat="43.92842" lon="12.7212167"><ele>30.0</ele><time>2026-04-26T07:26:39.937Z</time></trkpt><trkpt lat="43.9282983" lon="12.72126"><ele>30.0</ele><time>2026-04-26T07:26:40.937Z</time></trkpt><trkpt lat="43.928175" lon="12.7213067"><ele>30.0</ele><time>2026-04-26T07:26:41.937Z</time></trkpt><trkpt lat="43.9280567" lon="12.721365"><ele>30.0</ele><time>2026-04-26T07:26:42.937Z</time></trkpt><trkpt lat="43.9279417" lon="12.7214217"><ele>30.0</ele><time>2026-04-26T07:26:43.937Z</time></trkpt><trkpt lat="43.9278317" lon="12.7214767"><ele>30.0</ele><time>2026-04-26T07:26:44.937Z</time></trkpt><trkpt lat="43.9277333" lon="12.7215367"><ele>30.0</ele><time>2026-04-26T07:26:45.936Z</time></trkpt><trkpt lat="43.9276383" lon="12.7215833"><ele>30.0</ele><time>2026-04-26T07:26:46.936Z</time></trkpt><trkpt lat="43.9275467" lon="12.721625"><ele>30.0</ele><time>2026-04-26T07:26:47.937Z</time></trkpt><trkpt lat="43.9274633" lon="12.7216667"><ele>30.0</ele><time>2026-04-26T07:26:48.937Z</time></trkpt><trkpt lat="43.9273883" lon="12.7217183"><ele>30.0</ele><time>2026-04-26T07:26:49.937Z</time></trkpt><trkpt lat="43.9273133" lon="12.72177"><ele>30.0</ele><time>2026-04-26T07:26:50.937Z</time></trkpt><trkpt lat="43.9272283" lon="12.7218"><ele>30.0</ele><time>2026-04-26T07:26:51.937Z</time></trkpt><trkpt lat="43.9271383" lon="12.7218383"><ele>30.0</ele><time>2026-04-26T07:26:52.937Z</time></trkpt><trkpt lat="43.9270383" lon="12.72188"><ele>30.0</ele><time>2026-04-26T07:26:53.937Z</time></trkpt><trkpt lat="43.9269367" lon="12.7219333"><ele>30.0</ele><time>2026-04-26T07:26:54.936Z</time></trkpt><trkpt lat="43.9268367" lon="12.7219867"><ele>30.0</ele><time>2026-04-26T07:26:55.936Z</time></trkpt><trkpt lat="43.92673" lon="12.7220417"><ele>30.0</ele><time>2026-04-26T07:26:56.937Z</time></trkpt><trkpt lat="43.9266217" lon="12.7221033"><ele>30.0</ele><time>2026-04-26T07:26:57.937Z</time></trkpt><trkpt lat="43.92651" lon="12.7221633"><ele>29.5</ele><time>2026-04-26T07:26:58.937Z</time></trkpt><trkpt lat="43.9263933" lon="12.722225"><ele>29.0</ele><time>2026-04-26T07:26:59.937Z</time></trkpt><trkpt lat="43.926275" lon="12.7222883"><ele>28.5</ele><time>2026-04-26T07:27:00.937Z</time></trkpt><trkpt lat="43.926155" lon="12.722355"><ele>28.0</ele><time>2026-04-26T07:27:01.937Z</time></trkpt><trkpt lat="43.9260333" lon="12.7224267"><ele>28.0</ele><time>2026-04-26T07:27:02.937Z</time></trkpt><trkpt lat="43.9259017" lon="12.7224967"><ele>28.0</ele><time>2026-04-26T07:27:03.936Z</time></trkpt><trkpt lat="43.9257683" lon="12.7225683"><ele>28.0</ele><time>2026-04-26T07:27:04.936Z</time></trkpt><trkpt lat="43.92563" lon="12.722635"><ele>28.0</ele><time>2026-04-26T07:27:05.936Z</time></trkpt><trkpt lat="43.925495" lon="12.7227083"><ele>28.25</ele><time>2026-04-26T07:27:06.937Z</time></trkpt><trkpt lat="43.92536" lon="12.722785"><ele>28.5</ele><time>2026-04-26T07:27:07.937Z</time></trkpt><trkpt lat="43.925225" lon="12.7228567"><ele>28.75</ele><time>2026-04-26T07:27:08.937Z</time></trkpt><trkpt lat="43.92509" lon="12.722935"><ele>29.0</ele><time>2026-04-26T07:27:09.936Z</time></trkpt><trkpt lat="43.9249517" lon="12.7230083"><ele>29.0</ele><time>2026-04-26T07:27:10.937Z</time></trkpt><trkpt lat="43.9248083" lon="12.7230817"><ele>29.0</ele><time>2026-04-26T07:27:11.937Z</time></trkpt><trkpt lat="43.9246583" lon="12.7231633"><ele>29.0</ele><time>2026-04-26T07:27:12.936Z</time></trkpt><trkpt lat="43.9245033" lon="12.7232367"><ele>29.0</ele><time>2026-04-26T07:27:13.937Z</time></trkpt><trkpt lat="43.9243467" lon="12.7233133"><ele>29.0</ele><time>2026-04-26T07:27:14.937Z</time></trkpt><trkpt lat="43.9241917" lon="12.723385"><ele>29.0</ele><time>2026-04-26T07:27:15.937Z</time></trkpt><trkpt lat="43.92404" lon="12.723465"><ele>30.0</ele><time>2026-04-26T07:27:16.937Z</time></trkpt><trkpt lat="43.9238917" lon="12.7235367"><ele>31.0</ele><time>2026-04-26T07:27:17.937Z</time></trkpt><trkpt lat="43.9237383" lon="12.7236033"><ele>32.0</ele><time>2026-04-26T07:27:18.937Z</time></trkpt><trkpt lat="43.9235883" lon="12.7236633"><ele>32.0</ele><time>2026-04-26T07:27:19.937Z</time></trkpt><trkpt lat="43.9234467" lon="12.7237283"><ele>32.0</ele><time>2026-04-26T07:27:20.937Z</time></trkpt><trkpt lat="43.9233083" lon="12.723795"><ele>32.0</ele><time>2026-04-26T07:27:21.936Z</time></trkpt><trkpt lat="43.9231767" lon="12.7238533"><ele>32.0</ele><time>2026-04-26T07:27:22.937Z</time></trkpt><trkpt lat="43.9230517" lon="12.7239133"><ele>32.25</ele><time>2026-04-26T07:27:23.937Z</time></trkpt><trkpt lat="43.9229317" lon="12.72397"><ele>32.5</ele><time>2026-04-26T07:27:24.937Z</time></trkpt><trkpt lat="43.9228067" lon="12.724"><ele>32.75</ele><time>2026-04-26T07:27:25.937Z</time></trkpt><trkpt lat="43.9226767" lon="12.72399"><ele>33.0</ele><time>2026-04-26T07:27:26.936Z</time></trkpt><trkpt lat="43.9225383" lon="12.7239617"><ele>33.5</ele><time>2026-04-26T07:27:27.936Z</time></trkpt><trkpt lat="43.9224017" lon="12.7239183"><ele>34.0</ele><time>2026-04-26T07:27:28.937Z</time></trkpt><trkpt lat="43.922265" lon="12.72386"><ele>34.5</ele><time>2026-04-26T07:27:29.936Z</time></trkpt><trkpt lat="43.9221367" lon="12.7237833"><ele>35.0</ele><time>2026-04-26T07:27:30.937Z</time></trkpt><trkpt lat="43.9220167" lon="12.72371"><ele>35.0</ele><time>2026-04-26T07:27:31.937Z</time></trkpt><trkpt lat="43.9218967" lon="12.7236533"><ele>35.0</ele><time>2026-04-26T07:27:32.937Z</time></trkpt><trkpt lat="43.9217783" lon="12.723595"><ele>35.0</ele><time>2026-04-26T07:27:33.936Z</time></trkpt><trkpt lat="43.9216583" lon="12.7235333"><ele>35.0</ele><time>2026-04-26T07:27:34.937Z</time></trkpt><trkpt lat="43.92154" lon="12.7234717"><ele>36.5</ele><time>2026-04-26T07:27:35.937Z</time></trkpt><trkpt lat="43.9214233" lon="12.7233983"><ele>38.0</ele><time>2026-04-26T07:27:36.937Z</time></trkpt><trkpt lat="43.9213117" lon="12.7233033"><ele>39.5</ele><time>2026-04-26T07:27:37.937Z</time></trkpt><trkpt lat="43.9212" lon="12.7231967"><ele>41.0</ele><time>2026-04-26T07:27:38.937Z</time></trkpt><trkpt lat="43.9210867" lon="12.72309"><ele>41.0</ele><time>2026-04-26T07:27:39.937Z</time></trkpt><trkpt lat="43.92097" lon="12.7229917"><ele>41.0</ele><time>2026-04-26T07:27:40.937Z</time></trkpt><trkpt lat="43.920845" lon="12.7229117"><ele>41.0</ele><time>2026-04-26T07:27:41.937Z</time></trkpt><trkpt lat="43.9207133" lon="12.7228383"><ele>41.0</ele><time>2026-04-26T07:27:42.937Z</time></trkpt><trkpt lat="43.92058" lon="12.72278"><ele>41.5</ele><time>2026-04-26T07:27:43.936Z</time></trkpt><trkpt lat="43.9204433" lon="12.72275"><ele>42.0</ele><time>2026-04-26T07:27:44.936Z</time></trkpt><trkpt lat="43.9203117" lon="12.722725"><ele>42.5</ele><time>2026-04-26T07:27:45.937Z</time></trkpt><trkpt lat="43.920185" lon="12.7227117"><ele>43.0</ele><time>2026-04-26T07:27:46.937Z</time></trkpt><trkpt lat="43.9200633" lon="12.7226967"><ele>46.25</ele><time>2026-04-26T07:27:47.937Z</time></trkpt><trkpt lat="43.9199467" lon="12.7226667"><ele>49.5</ele><time>2026-04-26T07:27:48.937Z</time></trkpt><trkpt lat="43.91983" lon="12.72262"><ele>52.75</ele><time>2026-04-26T07:27:49.936Z</time></trkpt><trkpt lat="43.9197167" lon="12.722555"><ele>56.0</ele><time>2026-04-26T07:27:50.937Z</time></trkpt><trkpt lat="43.919605" lon="12.7224783"><ele>56.0</ele><time>2026-04-26T07:27:51.937Z</time></trkpt><trkpt lat="43.9194917" lon="12.7223883"><ele>56.0</ele><time>2026-04-26T07:27:52.937Z</time></trkpt><trkpt lat="43.9193767" lon="12.7222967"><ele>56.0</ele><time>2026-04-26T07:27:53.937Z</time></trkpt><trkpt lat="43.9192567" lon="12.72221"><ele>56.0</ele><time>2026-04-26T07:27:54.937Z</time></trkpt><trkpt lat="43.9191317" lon="12.7221183"><ele>56.75</ele><time>2026-04-26T07:27:55.936Z</time></trkpt><trkpt lat="43.9190067" lon="12.72203"><ele>57.5</ele><time>2026-04-26T07:27:56.937Z</time></trkpt><trkpt lat="43.9188783" lon="12.7219433"><ele>58.25</ele><time>2026-04-26T07:27:57.937Z</time></trkpt><trkpt lat="43.9187483" lon="12.7218517"><ele>59.0</ele><time>2026-04-26T07:27:58.937Z</time></trkpt><trkpt lat="43.9186167" lon="12.7217633"><ele>59.0</ele><time>2026-04-26T07:27:59.937Z</time></trkpt><trkpt lat="43.91848" lon="12.7216883"><ele>59.0</ele><time>2026-04-26T07:28:00.937Z</time></trkpt><trkpt lat="43.9183417" lon="12.7216217"><ele>59.0</ele><time>2026-04-26T07:28:01.936Z</time></trkpt><trkpt lat="43.9182067" lon="12.7215483"><ele>59.0</ele><time>2026-04-26T07:28:02.937Z</time></trkpt><trkpt lat="43.91807" lon="12.72148"><ele>61.0</ele><time>2026-04-26T07:28:03.936Z</time></trkpt><trkpt lat="43.91794" lon="12.7214017"><ele>63.0</ele><time>2026-04-26T07:28:04.937Z</time></trkpt><trkpt lat="43.9178167" lon="12.721315"><ele>65.0</ele><time>2026-04-26T07:28:05.937Z</time></trkpt><trkpt lat="43.9176967" lon="12.7212217"><ele>67.0</ele><time>2026-04-26T07:28:06.937Z</time></trkpt><trkpt lat="43.917575" lon="12.7211267"><ele>69.5</ele><time>2026-04-26T07:28:07.937Z</time></trkpt><trkpt lat="43.9174517" lon="12.7210317"><ele>72.0</ele><time>2026-04-26T07:28:08.937Z</time></trkpt><trkpt lat="43.91733" lon="12.720935"><ele>74.5</ele><time>2026-04-26T07:28:09.936Z</time></trkpt><trkpt lat="43.9172183" lon="12.72084"><ele>77.0</ele><time>2026-04-26T07:28:10.937Z</time></trkpt><trkpt lat="43.91711" lon="12.7207383"><ele>77.0</ele><time>2026-04-26T07:28:11.937Z</time></trkpt><trkpt lat="43.9169983" lon="12.7206417"><ele>77.0</ele><time>2026-04-26T07:28:12.937Z</time></trkpt><trkpt lat="43.916885" lon="12.7205417"><ele>77.0</ele><time>2026-04-26T07:28:13.937Z</time></trkpt><trkpt lat="43.9167733" lon="12.7204367"><ele>77.0</ele><time>2026-04-26T07:28:14.937Z</time></trkpt><trkpt lat="43.916665" lon="12.72033"><ele>79.5</ele><time>2026-04-26T07:28:15.937Z</time></trkpt><trkpt lat="43.9165567" lon="12.7202233"><ele>82.0</ele><time>2026-04-26T07:28:16.937Z</time></trkpt><trkpt lat="43.916455" lon="12.7201083"><ele>84.5</ele><time>2026-04-26T07:28:17.937Z</time></trkpt><trkpt lat="43.9163567" lon="12.71998"><ele>87.0</ele><time>2026-04-26T07:28:18.936Z</time></trkpt><trkpt lat="43.916265" lon="12.7198383"><ele>87.0</ele><time>2026-04-26T07:28:19.937Z</time></trkpt><trkpt lat="43.9161767" lon="12.7196817"><ele>87.0</ele><time>2026-04-26T07:28:20.937Z</time></trkpt><trkpt lat="43.91609" lon="12.7195133"><ele>87.0</ele><time>2026-04-26T07:28:21.936Z</time></trkpt><trkpt lat="43.915995" lon="12.71933"><ele>87.0</ele><time>2026-04-26T07:28:22.937Z</time></trkpt><trkpt lat="43.9158933" lon="12.71914"><ele>87.0</ele><time>2026-04-26T07:28:23.937Z</time></trkpt><trkpt lat="43.9157883" lon="12.7189483"><ele>87.0</ele><time>2026-04-26T07:28:24.937Z</time></trkpt><trkpt lat="43.9156833" lon="12.7187517"><ele>86.33333333333333</ele><time>2026-04-26T07:28:25.936Z</time></trkpt><trkpt lat="43.91558" lon="12.7185533"><ele>85.66666666666666</ele><time>2026-04-26T07:28:26.937Z</time></trkpt><trkpt lat="43.915475" lon="12.7183483"><ele>85.0</ele><time>2026-04-26T07:28:27.937Z</time></trkpt><trkpt lat="43.9153717" lon="12.7181467"><ele>85.0</ele><time>2026-04-26T07:28:28.937Z</time></trkpt><trkpt lat="43.9152683" lon="12.7179483"><ele>85.0</ele><time>2026-04-26T07:28:29.936Z</time></trkpt><trkpt lat="43.915165" lon="12.7177483"><ele>85.0</ele><time>2026-04-26T07:28:30.937Z</time></trkpt><trkpt lat="43.9150633" lon="12.7175417"><ele>85.66666666666666</ele><time>2026-04-26T07:28:31.936Z</time></trkpt><trkpt lat="43.9149517" lon="12.7173433"><ele>86.33333333333333</ele><time>2026-04-26T07:28:32.937Z</time></trkpt><trkpt lat="43.9148283" lon="12.71716"><ele>87.0</ele><time>2026-04-26T07:28:33.936Z</time></trkpt><trkpt lat="43.9146983" lon="12.716985"><ele>87.0</ele><time>2026-04-26T07:28:34.936Z</time></trkpt><trkpt lat="43.9145683" lon="12.71682"><ele>87.0</ele><time>2026-04-26T07:28:35.936Z</time></trkpt><trkpt lat="43.9144433" lon="12.71665"><ele>87.0</ele><time>2026-04-26T07:28:36.936Z</time></trkpt><trkpt lat="43.9143183" lon="12.7164967"><ele>87.5</ele><time>2026-04-26T07:28:37.937Z</time></trkpt><trkpt lat="43.9142017" lon="12.7163483"><ele>88.0</ele><time>2026-04-26T07:28:38.936Z</time></trkpt><trkpt lat="43.9140967" lon="12.7162167"><ele>88.5</ele><time>2026-04-26T07:28:39.937Z</time></trkpt><trkpt lat="43.9139983" lon="12.7160983"><ele>89.0</ele><time>2026-04-26T07:28:40.937Z</time></trkpt><trkpt lat="43.9139117" lon="12.7159917"><ele>89.0</ele><time>2026-04-26T07:28:41.937Z</time></trkpt><trkpt lat="43.9138367" lon="12.715895"><ele>89.0</ele><time>2026-04-26T07:28:42.937Z</time></trkpt><trkpt lat="43.9137733" lon="12.7158183"><ele>89.0</ele><time>2026-04-26T07:28:43.936Z</time></trkpt><trkpt lat="43.9137233" lon="12.715755"><ele>89.0</ele><time>2026-04-26T07:28:44.937Z</time></trkpt><trkpt lat="43.9136517" lon="12.715685"><ele>89.0</ele><time>2026-04-26T07:28:46.937Z</time></trkpt><trkpt lat="43.9135917" lon="12.7156183"><ele>89.0</ele><time>2026-04-26T07:28:49.937Z</time></trkpt><trkpt lat="43.9135283" lon="12.715545"><ele>89.0</ele><time>2026-04-26T07:28:52.936Z</time></trkpt><trkpt lat="43.9134567" lon="12.7154717"><ele>89.0</ele><time>2026-04-26T07:28:55.937Z</time></trkpt><trkpt lat="43.9134533" lon="12.7153633"><ele>89.0</ele><time>2026-04-26T07:31:37.937Z</time></trkpt><trkpt lat="43.9135383" lon="12.71532"><ele>89.0</ele><time>2026-04-26T07:31:40.937Z</time></trkpt><trkpt lat="43.913645" lon="12.715285"><ele>89.0</ele><time>2026-04-26T07:31:42.937Z</time></trkpt><trkpt lat="43.9137083" lon="12.7152633"><ele>89.0</ele><time>2026-04-26T07:31:43.936Z</time></trkpt><trkpt lat="43.9137767" lon="12.715245"><ele>88.4</ele><time>2026-04-26T07:31:44.937Z</time></trkpt><trkpt lat="43.9138883" lon="12.7152083"><ele>87.80000000000001</ele><time>2026-04-26T07:31:46.937Z</time></trkpt><trkpt lat="43.91398" lon="12.7151683"><ele>87.19999999999999</ele><time>2026-04-26T07:31:48.937Z</time></trkpt><trkpt lat="43.9140633" lon="12.7151267"><ele>86.6</ele><time>2026-04-26T07:31:50.937Z</time></trkpt><trkpt lat="43.91413" lon="12.7150633"><ele>86.0</ele><time>2026-04-26T07:31:52.937Z</time></trkpt><trkpt lat="43.9141617" lon="12.7149683"><ele>86.0</ele><time>2026-04-26T07:32:00.937Z</time></trkpt><trkpt lat="43.914175" lon="12.7148517"><ele>86.0</ele><time>2026-04-26T07:32:03.938Z</time></trkpt><trkpt lat="43.9141733" lon="12.7147233"><ele>86.0</ele><time>2026-04-26T07:32:05.938Z</time></trkpt><trkpt lat="43.9141617" lon="12.7145483"><ele>86.0</ele><time>2026-04-26T07:32:07.937Z</time></trkpt><trkpt lat="43.9141483" lon="12.7144283"><ele>86.0</ele><time>2026-04-26T07:32:08.938Z</time></trkpt><trkpt lat="43.9141333" lon="12.7143067"><ele>86.14285714285715</ele><time>2026-04-26T07:32:09.938Z</time></trkpt><trkpt lat="43.91412" lon="12.7141983"><ele>86.28571428571429</ele><time>2026-04-26T07:32:10.938Z</time></trkpt><trkpt lat="43.9141067" lon="12.714105"><ele>86.42857142857143</ele><time>2026-04-26T07:32:11.937Z</time></trkpt><trkpt lat="43.91409" lon="12.713985"><ele>86.57142857142858</ele><time>2026-04-26T07:32:13.938Z</time></trkpt><trkpt lat="43.9140767" lon="12.713895"><ele>86.71428571428572</ele><time>2026-04-26T07:32:24.938Z</time></trkpt><trkpt lat="43.91405" lon="12.713815"><ele>86.85714285714286</ele><time>2026-04-26T07:32:47.938Z</time></trkpt><trkpt lat="43.9140567" lon="12.7139067"><ele>87.0</ele><time>2026-04-26T07:32:54.938Z</time></trkpt><trkpt lat="43.9140917" lon="12.71405"><ele>87.0</ele><time>2026-04-26T07:32:56.937Z</time></trkpt><trkpt lat="43.9140983" lon="12.7141383"><ele>87.0</ele><time>2026-04-26T07:32:57.938Z</time></trkpt><trkpt lat="43.914105" lon="12.7142317"><ele>87.0</ele><time>2026-04-26T07:32:58.938Z</time></trkpt><trkpt lat="43.91412" lon="12.71439"><ele>87.0</ele><time>2026-04-26T07:33:00.937Z</time></trkpt><trkpt lat="43.9141317" lon="12.7144967"><ele>87.0</ele><time>2026-04-26T07:33:02.938Z</time></trkpt><trkpt lat="43.9141367" lon="12.7146367"><ele>87.0</ele><time>2026-04-26T07:33:05.938Z</time></trkpt><trkpt lat="43.9141483" lon="12.7147467"><ele>86.83333333333333</ele><time>2026-04-26T07:33:07.937Z</time></trkpt><trkpt lat="43.9141567" lon="12.714845"><ele>86.66666666666667</ele><time>2026-04-26T07:33:10.937Z</time></trkpt><trkpt lat="43.914215" lon="12.714885"><ele>86.5</ele><time>2026-04-26T07:33:15.938Z</time></trkpt><trkpt lat="43.914295" lon="12.7148117"><ele>86.33333333333334</ele><time>2026-04-26T07:33:18.937Z</time></trkpt><trkpt lat="43.914365" lon="12.7147783"><ele>86.16666666666667</ele><time>2026-04-26T07:33:20.938Z</time></trkpt><trkpt lat="43.9144467" lon="12.7147617"><ele>86.0</ele><time>2026-04-26T07:33:24.938Z</time></trkpt><trkpt lat="43.914575" lon="12.7147217"><ele>84.0</ele><time>2026-04-26T07:33:26.938Z</time></trkpt><trkpt lat="43.9146583" lon="12.714695"><ele>82.0</ele><time>2026-04-26T07:33:27.938Z</time></trkpt><trkpt lat="43.9147467" lon="12.7146667"><ele>80.0</ele><time>2026-04-26T07:33:28.938Z</time></trkpt><trkpt lat="43.9148283" lon="12.7146417"><ele>78.0</ele><time>2026-04-26T07:33:29.938Z</time></trkpt><trkpt lat="43.9148917" lon="12.714615"><ele>76.0</ele><time>2026-04-26T07:33:30.938Z</time></trkpt><trkpt lat="43.91497" lon="12.71452"><ele>74.0</ele><time>2026-04-26T07:33:32.938Z</time></trkpt><trkpt lat="43.915005" lon="12.7143567"><ele>73.66666666666667</ele><time>2026-04-26T07:33:34.937Z</time></trkpt><trkpt lat="43.9150183" lon="12.7142617"><ele>73.33333333333334</ele><time>2026-04-26T07:33:35.938Z</time></trkpt><trkpt lat="43.9150317" lon="12.7141617"><ele>73.0</ele><time>2026-04-26T07:33:36.938Z</time></trkpt><trkpt lat="43.9150467" lon="12.71407"><ele>72.66666666666667</ele><time>2026-04-26T07:33:37.938Z</time></trkpt><trkpt lat="43.9150833" lon="12.713935"><ele>72.33333333333333</ele><time>2026-04-26T07:33:39.938Z</time></trkpt><trkpt lat="43.915145" lon="12.7138217"><ele>72.0</ele><time>2026-04-26T07:33:41.938Z</time></trkpt><trkpt lat="43.9152283" lon="12.7137333"><ele>69.83333333333333</ele><time>2026-04-26T07:33:43.938Z</time></trkpt><trkpt lat="43.9153267" lon="12.7136333"><ele>67.66666666666667</ele><time>2026-04-26T07:33:45.936Z</time></trkpt><trkpt lat="43.9153817" lon="12.7135783"><ele>65.5</ele><time>2026-04-26T07:33:46.936Z</time></trkpt><trkpt lat="43.915435" lon="12.7135233"><ele>63.333333333333336</ele><time>2026-04-26T07:33:47.937Z</time></trkpt><trkpt lat="43.9154867" lon="12.7134683"><ele>61.16666666666667</ele><time>2026-04-26T07:33:48.937Z</time></trkpt><trkpt lat="43.915545" lon="12.71342"><ele>59.0</ele><time>2026-04-26T07:33:49.937Z</time></trkpt><trkpt lat="43.915605" lon="12.7133783"><ele>58.66666666666667</ele><time>2026-04-26T07:33:50.936Z</time></trkpt><trkpt lat="43.9157133" lon="12.7133017"><ele>58.333333333333336</ele><time>2026-04-26T07:33:52.937Z</time></trkpt><trkpt lat="43.91577" lon="12.7132583"><ele>58.0</ele><time>2026-04-26T07:33:53.937Z</time></trkpt><trkpt lat="43.9158333" lon="12.71322"><ele>57.66666666666667</ele><time>2026-04-26T07:33:54.937Z</time></trkpt><trkpt lat="43.915895" lon="12.7131783"><ele>57.333333333333336</ele><time>2026-04-26T07:33:55.937Z</time></trkpt><trkpt lat="43.9160033" lon="12.713105"><ele>57.0</ele><time>2026-04-26T07:33:57.936Z</time></trkpt><trkpt lat="43.916105" lon="12.7130367"><ele>55.333333333333336</ele><time>2026-04-26T07:33:59.937Z</time></trkpt><trkpt lat="43.9162" lon="12.7129717"><ele>53.666666666666664</ele><time>2026-04-26T07:34:01.937Z</time></trkpt><trkpt lat="43.9162767" lon="12.71291"><ele>52.0</ele><time>2026-04-26T07:34:03.937Z</time></trkpt><trkpt lat="43.9163467" lon="12.712865"><ele>50.33333333333333</ele><time>2026-04-26T07:34:05.936Z</time></trkpt><trkpt lat="43.9163933" lon="12.7127883"><ele>48.666666666666664</ele><time>2026-04-26T07:34:08.937Z</time></trkpt><trkpt lat="43.91641" lon="12.7126967"><ele>47.0</ele><time>2026-04-26T07:34:11.936Z</time></trkpt><trkpt lat="43.9163883" lon="12.7126033"><ele>46.33333333333333</ele><time>2026-04-26T07:34:13.936Z</time></trkpt><trkpt lat="43.9163667" lon="12.71252"><ele>45.666666666666664</ele><time>2026-04-26T07:34:14.936Z</time></trkpt><trkpt lat="43.9163317" lon="12.712365"><ele>45.0</ele><time>2026-04-26T07:34:16.937Z</time></trkpt><trkpt lat="43.91629" lon="12.7122233"><ele>44.333333333333336</ele><time>2026-04-26T07:34:18.937Z</time></trkpt><trkpt lat="43.916265" lon="12.71214"><ele>43.66666666666667</ele><time>2026-04-26T07:34:19.937Z</time></trkpt><trkpt lat="43.916235" lon="12.7120483"><ele>43.0</ele><time>2026-04-26T07:34:20.936Z</time></trkpt><trkpt lat="43.916205" lon="12.711955"><ele>42.714285714285715</ele><time>2026-04-26T07:34:21.937Z</time></trkpt><trkpt lat="43.91617" lon="12.7118617"><ele>42.42857142857143</ele><time>2026-04-26T07:34:22.937Z</time></trkpt><trkpt lat="43.9161333" lon="12.71178"><ele>42.14285714285714</ele><time>2026-04-26T07:34:23.937Z</time></trkpt><trkpt lat="43.9160933" lon="12.711705"><ele>41.85714285714286</ele><time>2026-04-26T07:34:24.937Z</time></trkpt><trkpt lat="43.91605" lon="12.71163"><ele>41.57142857142857</ele><time>2026-04-26T07:34:25.937Z</time></trkpt><trkpt lat="43.9160017" lon="12.7115517"><ele>41.285714285714285</ele><time>2026-04-26T07:34:26.936Z</time></trkpt><trkpt lat="43.9159533" lon="12.71147"><ele>41.0</ele><time>2026-04-26T07:34:27.936Z</time></trkpt><trkpt lat="43.9159117" lon="12.7113667"><ele>41.5</ele><time>2026-04-26T07:34:28.937Z</time></trkpt><trkpt lat="43.9158733" lon="12.711245"><ele>42.0</ele><time>2026-04-26T07:34:29.937Z</time></trkpt><trkpt lat="43.9158417" lon="12.7111233"><ele>42.5</ele><time>2026-04-26T07:34:30.937Z</time></trkpt><trkpt lat="43.9158133" lon="12.71102"><ele>43.0</ele><time>2026-04-26T07:34:31.937Z</time></trkpt><trkpt lat="43.915785" lon="12.7109383"><ele>43.5</ele><time>2026-04-26T07:34:32.937Z</time></trkpt><trkpt lat="43.9157083" lon="12.7108517"><ele>44.0</ele><time>2026-04-26T07:34:34.936Z</time></trkpt><trkpt lat="43.91559" lon="12.7108233"><ele>44.0</ele><time>2026-04-26T07:34:36.937Z</time></trkpt><trkpt lat="43.91551" lon="12.7107083"><ele>44.0</ele><time>2026-04-26T07:34:38.937Z</time></trkpt><trkpt lat="43.9154933" lon="12.7106083"><ele>44.0</ele><time>2026-04-26T07:34:39.936Z</time></trkpt><trkpt lat="43.9154967" lon="12.7104767"><ele>44.0</ele><time>2026-04-26T07:34:40.936Z</time></trkpt><trkpt lat="43.9155033" lon="12.7103567"><ele>44.0</ele><time>2026-04-26T07:34:41.937Z</time></trkpt><trkpt lat="43.915505" lon="12.7102483"><ele>44.0</ele><time>2026-04-26T07:34:42.937Z</time></trkpt><trkpt lat="43.9155017" lon="12.7101317"><ele>43.800000000000004</ele><time>2026-04-26T07:34:43.937Z</time></trkpt><trkpt lat="43.9155" lon="12.7100067"><ele>43.6</ele><time>2026-04-26T07:34:44.936Z</time></trkpt><trkpt lat="43.9154983" lon="12.70988"><ele>43.4</ele><time>2026-04-26T07:34:45.937Z</time></trkpt><trkpt lat="43.9154917" lon="12.70975"><ele>43.2</ele><time>2026-04-26T07:34:46.937Z</time></trkpt><trkpt lat="43.9154883" lon="12.7096267"><ele>43.0</ele><time>2026-04-26T07:34:47.937Z</time></trkpt><trkpt lat="43.915485" lon="12.709505"><ele>42.833333333333336</ele><time>2026-04-26T07:34:48.937Z</time></trkpt><trkpt lat="43.91548" lon="12.7093917"><ele>42.66666666666667</ele><time>2026-04-26T07:34:49.936Z</time></trkpt><trkpt lat="43.91547" lon="12.709275"><ele>42.5</ele><time>2026-04-26T07:34:50.937Z</time></trkpt><trkpt lat="43.9154583" lon="12.7091517"><ele>42.333333333333336</ele><time>2026-04-26T07:34:51.937Z</time></trkpt><trkpt lat="43.9154483" lon="12.7090283"><ele>42.166666666666664</ele><time>2026-04-26T07:34:52.937Z</time></trkpt><trkpt lat="43.9154433" lon="12.7089083"><ele>42.0</ele><time>2026-04-26T07:34:53.936Z</time></trkpt><trkpt lat="43.91544" lon="12.7087933"><ele>42.0</ele><time>2026-04-26T07:34:54.936Z</time></trkpt><trkpt lat="43.9154333" lon="12.7086817"><ele>42.0</ele><time>2026-04-26T07:34:55.936Z</time></trkpt><trkpt lat="43.9154283" lon="12.708575"><ele>42.0</ele><time>2026-04-26T07:34:56.937Z</time></trkpt><trkpt lat="43.9154217" lon="12.70847"><ele>42.0</ele><time>2026-04-26T07:34:57.937Z</time></trkpt><trkpt lat="43.9154167" lon="12.7083667"><ele>42.0</ele><time>2026-04-26T07:34:58.936Z</time></trkpt><trkpt lat="43.9154183" lon="12.7082717"><ele>42.0</ele><time>2026-04-26T07:34:59.936Z</time></trkpt><trkpt lat="43.9154533" lon="12.7081267"><ele>42.0</ele><time>2026-04-26T07:35:01.937Z</time></trkpt><trkpt lat="43.9155167" lon="12.7079933"><ele>42.0</ele><time>2026-04-26T07:35:03.937Z</time></trkpt><trkpt lat="43.9155767" lon="12.70786"><ele>42.0</ele><time>2026-04-26T07:35:05.937Z</time></trkpt><trkpt lat="43.9156317" lon="12.70772"><ele>42.0</ele><time>2026-04-26T07:35:07.937Z</time></trkpt><trkpt lat="43.91568" lon="12.7076083"><ele>42.0</ele><time>2026-04-26T07:35:09.936Z</time></trkpt><trkpt lat="43.91573" lon="12.70754"><ele>42.0</ele><time>2026-04-26T07:35:12.936Z</time></trkpt><trkpt lat="43.9157833" lon="12.707485"><ele>42.0</ele><time>2026-04-26T07:35:15.937Z</time></trkpt><trkpt lat="43.9156817" lon="12.70742"><ele>42.0</ele><time>2026-04-26T07:35:33.937Z</time></trkpt><trkpt lat="43.9156033" lon="12.7074167"><ele>42.0</ele><time>2026-04-26T07:35:37.937Z</time></trkpt><trkpt lat="43.9155367" lon="12.7073917"><ele>42.0</ele><time>2026-04-26T07:35:40.936Z</time></trkpt><trkpt lat="43.9154617" lon="12.7073633"><ele>42.0</ele><time>2026-04-26T07:35:43.937Z</time></trkpt><trkpt lat="43.91537" lon="12.7073367"><ele>42.0</ele><time>2026-04-26T07:35:46.937Z</time></trkpt><trkpt lat="43.9152833" lon="12.7073"><ele>42.0</ele><time>2026-04-26T07:35:48.937Z</time></trkpt><trkpt lat="43.9152233" lon="12.7072717"><ele>42.0</ele><time>2026-04-26T07:35:49.937Z</time></trkpt><trkpt lat="43.9151567" lon="12.7072267"><ele>42.0</ele><time>2026-04-26T07:35:50.937Z</time></trkpt><trkpt lat="43.9150917" lon="12.7071667"><ele>42.0</ele><time>2026-04-26T07:35:51.936Z</time></trkpt><trkpt lat="43.91503" lon="12.7070967"><ele>42.0</ele><time>2026-04-26T07:35:52.936Z</time></trkpt><trkpt lat="43.9149767" lon="12.7070333"><ele>42.6</ele><time>2026-04-26T07:35:53.937Z</time></trkpt><trkpt lat="43.9148783" lon="12.70695"><ele>43.2</ele><time>2026-04-26T07:35:55.937Z</time></trkpt><trkpt lat="43.9147617" lon="12.7068717"><ele>43.8</ele><time>2026-04-26T07:35:57.937Z</time></trkpt><trkpt lat="43.914695" lon="12.706825"><ele>44.4</ele><time>2026-04-26T07:35:58.937Z</time></trkpt><trkpt lat="43.914595" lon="12.7067867"><ele>45.0</ele><time>2026-04-26T07:36:00.937Z</time></trkpt><trkpt lat="43.9145317" lon="12.7067667"><ele>45.333333333333336</ele><time>2026-04-26T07:36:02.937Z</time></trkpt><trkpt lat="43.914465" lon="12.7067217"><ele>45.666666666666664</ele><time>2026-04-26T07:36:06.937Z</time></trkpt><trkpt lat="43.91442" lon="12.7066183"><ele>46.0</ele><time>2026-04-26T07:36:08.937Z</time></trkpt><trkpt lat="43.91436" lon="12.7064617"><ele>46.33333333333333</ele><time>2026-04-26T07:36:10.937Z</time></trkpt><trkpt lat="43.914335" lon="12.7063717"><ele>46.666666666666664</ele><time>2026-04-26T07:36:11.937Z</time></trkpt><trkpt lat="43.91432" lon="12.7062817"><ele>47.0</ele><time>2026-04-26T07:36:12.937Z</time></trkpt><trkpt lat="43.91432" lon="12.7061933"><ele>47.0</ele><time>2026-04-26T07:36:13.937Z</time></trkpt><trkpt lat="43.9143283" lon="12.7061017"><ele>47.0</ele><time>2026-04-26T07:36:14.937Z</time></trkpt><trkpt lat="43.9143367" lon="12.706"><ele>47.0</ele><time>2026-04-26T07:36:15.937Z</time></trkpt><trkpt lat="43.914345" lon="12.7058717"><ele>47.0</ele><time>2026-04-26T07:36:16.937Z</time></trkpt><trkpt lat="43.9143533" lon="12.70572"><ele>47.0</ele><time>2026-04-26T07:36:17.937Z</time></trkpt><trkpt lat="43.9143633" lon="12.7055617"><ele>47.5</ele><time>2026-04-26T07:36:18.937Z</time></trkpt><trkpt lat="43.9143767" lon="12.70542"><ele>48.0</ele><time>2026-04-26T07:36:19.937Z</time></trkpt><trkpt lat="43.9143867" lon="12.7052983"><ele>48.5</ele><time>2026-04-26T07:36:20.937Z</time></trkpt><trkpt lat="43.9143983" lon="12.7051917"><ele>49.0</ele><time>2026-04-26T07:36:21.936Z</time></trkpt><trkpt lat="43.9144" lon="12.7050933"><ele>49.50000000000001</ele><time>2026-04-26T07:36:22.937Z</time></trkpt><trkpt lat="43.9143783" lon="12.70501"><ele>50.0</ele><time>2026-04-26T07:36:23.937Z</time></trkpt><trkpt lat="43.9143383" lon="12.70493"><ele>50.2</ele><time>2026-04-26T07:36:24.936Z</time></trkpt><trkpt lat="43.9142783" lon="12.70486"><ele>50.4</ele><time>2026-04-26T07:36:25.936Z</time></trkpt><trkpt lat="43.9142117" lon="12.7047867"><ele>50.599999999999994</ele><time>2026-04-26T07:36:26.937Z</time></trkpt><trkpt lat="43.914145" lon="12.7047067"><ele>50.8</ele><time>2026-04-26T07:36:27.937Z</time></trkpt><trkpt lat="43.91407" lon="12.70462"><ele>51.0</ele><time>2026-04-26T07:36:28.936Z</time></trkpt><trkpt lat="43.9139883" lon="12.7045267"><ele>53.25</ele><time>2026-04-26T07:36:29.937Z</time></trkpt><trkpt lat="43.913895" lon="12.7044283"><ele>55.5</ele><time>2026-04-26T07:36:30.937Z</time></trkpt><trkpt lat="43.9137917" lon="12.704325"><ele>57.75</ele><time>2026-04-26T07:36:31.936Z</time></trkpt><trkpt lat="43.9136833" lon="12.7042217"><ele>60.0</ele><time>2026-04-26T07:36:32.937Z</time></trkpt><trkpt lat="43.913575" lon="12.7041217"><ele>60.5</ele><time>2026-04-26T07:36:33.937Z</time></trkpt><trkpt lat="43.9134667" lon="12.70402"><ele>61.0</ele><time>2026-04-26T07:36:34.936Z</time></trkpt><trkpt lat="43.9133567" lon="12.7039233"><ele>61.5</ele><time>2026-04-26T07:36:35.937Z</time></trkpt><trkpt lat="43.9132417" lon="12.703835"><ele>62.0</ele><time>2026-04-26T07:36:36.937Z</time></trkpt><trkpt lat="43.91312" lon="12.7037483"><ele>63.75</ele><time>2026-04-26T07:36:37.937Z</time></trkpt><trkpt lat="43.9129983" lon="12.7036667"><ele>65.5</ele><time>2026-04-26T07:36:38.937Z</time></trkpt><trkpt lat="43.91288" lon="12.703585"><ele>67.25</ele><time>2026-04-26T07:36:39.937Z</time></trkpt><trkpt lat="43.91276" lon="12.7035033"><ele>69.0</ele><time>2026-04-26T07:36:40.937Z</time></trkpt><trkpt lat="43.9126417" lon="12.7034233"><ele>72.25</ele><time>2026-04-26T07:36:41.937Z</time></trkpt><trkpt lat="43.91252" lon="12.70334"><ele>75.5</ele><time>2026-04-26T07:36:42.936Z</time></trkpt><trkpt lat="43.9123917" lon="12.7032533"><ele>78.75</ele><time>2026-04-26T07:36:43.937Z</time></trkpt><trkpt lat="43.91226" lon="12.7031617"><ele>82.0</ele><time>2026-04-26T07:36:44.936Z</time></trkpt><trkpt lat="43.9121267" lon="12.7030767"><ele>82.0</ele><time>2026-04-26T07:36:45.937Z</time></trkpt><trkpt lat="43.911995" lon="12.7029967"><ele>82.0</ele><time>2026-04-26T07:36:46.936Z</time></trkpt><trkpt lat="43.91187" lon="12.7029217"><ele>82.0</ele><time>2026-04-26T07:36:47.937Z</time></trkpt><trkpt lat="43.91176" lon="12.7028483"><ele>82.0</ele><time>2026-04-26T07:36:48.937Z</time></trkpt><trkpt lat="43.9116633" lon="12.7027633"><ele>85.5</ele><time>2026-04-26T07:36:49.936Z</time></trkpt><trkpt lat="43.91158" lon="12.7026567"><ele>89.0</ele><time>2026-04-26T07:36:50.936Z</time></trkpt><trkpt lat="43.9115017" lon="12.70251"><ele>92.5</ele><time>2026-04-26T07:36:51.936Z</time></trkpt><trkpt lat="43.9114267" lon="12.7023517"><ele>96.0</ele><time>2026-04-26T07:36:52.937Z</time></trkpt><trkpt lat="43.911355" lon="12.7022"><ele>96.0</ele><time>2026-04-26T07:36:53.936Z</time></trkpt><trkpt lat="43.91128" lon="12.7020417"><ele>96.0</ele><time>2026-04-26T07:36:54.937Z</time></trkpt><trkpt lat="43.9112083" lon="12.7018833"><ele>96.0</ele><time>2026-04-26T07:36:55.937Z</time></trkpt><trkpt lat="43.91114" lon="12.7017367"><ele>96.0</ele><time>2026-04-26T07:36:56.937Z</time></trkpt><trkpt lat="43.911075" lon="12.7016167"><ele>97.16666666666667</ele><time>2026-04-26T07:36:57.936Z</time></trkpt><trkpt lat="43.9110133" lon="12.7015183"><ele>98.33333333333334</ele><time>2026-04-26T07:36:58.937Z</time></trkpt><trkpt lat="43.9109567" lon="12.7014483"><ele>99.5</ele><time>2026-04-26T07:36:59.937Z</time></trkpt><trkpt lat="43.9108983" lon="12.7013433"><ele>100.66666666666667</ele><time>2026-04-26T07:37:01.937Z</time></trkpt><trkpt lat="43.9109517" lon="12.7012233"><ele>101.83333333333334</ele><time>2026-04-26T07:37:03.937Z</time></trkpt><trkpt lat="43.9110033" lon="12.7011517"><ele>103.0</ele><time>2026-04-26T07:37:04.937Z</time></trkpt><trkpt lat="43.9110583" lon="12.7010617"><ele>103.4</ele><time>2026-04-26T07:37:05.937Z</time></trkpt><trkpt lat="43.91112" lon="12.7009683"><ele>103.80000000000001</ele><time>2026-04-26T07:37:06.937Z</time></trkpt><trkpt lat="43.91118" lon="12.7008767"><ele>104.2</ele><time>2026-04-26T07:37:07.937Z</time></trkpt><trkpt lat="43.911245" lon="12.7007817"><ele>104.6</ele><time>2026-04-26T07:37:08.937Z</time></trkpt><trkpt lat="43.9113117" lon="12.700685"><ele>105.0</ele><time>2026-04-26T07:37:09.937Z</time></trkpt><trkpt lat="43.9113817" lon="12.70059"><ele>105.0</ele><time>2026-04-26T07:37:10.936Z</time></trkpt><trkpt lat="43.9114533" lon="12.700495"><ele>105.0</ele><time>2026-04-26T07:37:11.937Z</time></trkpt><trkpt lat="43.9115267" lon="12.7004"><ele>105.0</ele><time>2026-04-26T07:37:12.937Z</time></trkpt><trkpt lat="43.9115917" lon="12.700315"><ele>105.0</ele><time>2026-04-26T07:37:13.937Z</time></trkpt><trkpt lat="43.9116483" lon="12.7002433"><ele>105.0</ele><time>2026-04-26T07:37:14.937Z</time></trkpt><trkpt lat="43.911695" lon="12.7001817"><ele>105.0</ele><time>2026-04-26T07:37:15.936Z</time></trkpt><trkpt lat="43.9117767" lon="12.70008"><ele>103.83333333333333</ele><time>2026-04-26T07:37:17.937Z</time></trkpt><trkpt lat="43.91183" lon="12.7000133"><ele>102.66666666666666</ele><time>2026-04-26T07:37:19.937Z</time></trkpt><trkpt lat="43.9118783" lon="12.6999517"><ele>101.5</ele><time>2026-04-26T07:37:21.937Z</time></trkpt><trkpt lat="43.9119467" lon="12.6998733"><ele>100.33333333333333</ele><time>2026-04-26T07:37:23.936Z</time></trkpt><trkpt lat="43.912015" lon="12.6997833"><ele>99.16666666666666</ele><time>2026-04-26T07:37:25.937Z</time></trkpt><trkpt lat="43.91211" lon="12.6996617"><ele>98.0</ele><time>2026-04-26T07:37:27.936Z</time></trkpt><trkpt lat="43.9121667" lon="12.69959"><ele>97.99999999999999</ele><time>2026-04-26T07:37:28.937Z</time></trkpt><trkpt lat="43.9122217" lon="12.6995133"><ele>98.0</ele><time>2026-04-26T07:37:29.937Z</time></trkpt><trkpt lat="43.9122767" lon="12.6994333"><ele>98.0</ele><time>2026-04-26T07:37:30.936Z</time></trkpt><trkpt lat="43.912325" lon="12.6993617"><ele>98.0</ele><time>2026-04-26T07:37:31.937Z</time></trkpt><trkpt lat="43.9123683" lon="12.6992883"><ele>97.99999999999999</ele><time>2026-04-26T07:37:32.937Z</time></trkpt><trkpt lat="43.9124383" lon="12.6991583"><ele>98.0</ele><time>2026-04-26T07:37:34.937Z</time></trkpt><trkpt lat="43.9124783" lon="12.6990883"><ele>97.28571428571429</ele><time>2026-04-26T07:37:35.936Z</time></trkpt><trkpt lat="43.9125167" lon="12.6990167"><ele>96.57142857142857</ele><time>2026-04-26T07:37:36.937Z</time></trkpt><trkpt lat="43.9125533" lon="12.6989433"><ele>95.85714285714286</ele><time>2026-04-26T07:37:37.936Z</time></trkpt><trkpt lat="43.9125883" lon="12.698865"><ele>95.14285714285714</ele><time>2026-04-26T07:37:38.937Z</time></trkpt><trkpt lat="43.9126267" lon="12.6987767"><ele>94.42857142857143</ele><time>2026-04-26T07:37:39.937Z</time></trkpt><trkpt lat="43.9126717" lon="12.6986783"><ele>93.71428571428572</ele><time>2026-04-26T07:37:40.937Z</time></trkpt><trkpt lat="43.912725" lon="12.6985783"><ele>93.0</ele><time>2026-04-26T07:37:41.937Z</time></trkpt><trkpt lat="43.91278" lon="12.6984967"><ele>94.83333333333333</ele><time>2026-04-26T07:37:42.937Z</time></trkpt><trkpt lat="43.9128433" lon="12.69843"><ele>96.66666666666666</ele><time>2026-04-26T07:37:43.937Z</time></trkpt><trkpt lat="43.91291" lon="12.6983733"><ele>98.5</ele><time>2026-04-26T07:37:44.936Z</time></trkpt><trkpt lat="43.9129817" lon="12.6983233"><ele>100.33333333333333</ele><time>2026-04-26T07:37:45.936Z</time></trkpt><trkpt lat="43.913055" lon="12.69826"><ele>102.16666666666666</ele><time>2026-04-26T07:37:46.936Z</time></trkpt><trkpt lat="43.9131317" lon="12.698195"><ele>104.0</ele><time>2026-04-26T07:37:47.937Z</time></trkpt><trkpt lat="43.9132017" lon="12.698135"><ele>103.99999999999999</ele><time>2026-04-26T07:37:48.936Z</time></trkpt><trkpt lat="43.91326" lon="12.6980783"><ele>104.0</ele><time>2026-04-26T07:37:49.937Z</time></trkpt><trkpt lat="43.9133217" lon="12.6980267"><ele>104.0</ele><time>2026-04-26T07:37:50.937Z</time></trkpt><trkpt lat="43.9133933" lon="12.6979767"><ele>104.0</ele><time>2026-04-26T07:37:51.937Z</time></trkpt><trkpt lat="43.9134683" lon="12.6979133"><ele>103.99999999999999</ele><time>2026-04-26T07:37:52.937Z</time></trkpt><trkpt lat="43.913545" lon="12.697855"><ele>104.0</ele><time>2026-04-26T07:37:53.937Z</time></trkpt><trkpt lat="43.9136283" lon="12.6977983"><ele>104.99999999999999</ele><time>2026-04-26T07:37:54.936Z</time></trkpt><trkpt lat="43.91371" lon="12.6977483"><ele>106.0</ele><time>2026-04-26T07:37:55.937Z</time></trkpt><trkpt lat="43.913785" lon="12.6977017"><ele>107.0</ele><time>2026-04-26T07:37:56.936Z</time></trkpt><trkpt lat="43.9138583" lon="12.697645"><ele>108.0</ele><time>2026-04-26T07:37:57.936Z</time></trkpt><trkpt lat="43.9139267" lon="12.6975833"><ele>108.99999999999999</ele><time>2026-04-26T07:37:58.937Z</time></trkpt><trkpt lat="43.9139883" lon="12.6975183"><ele>110.0</ele><time>2026-04-26T07:37:59.937Z</time></trkpt><trkpt lat="43.91404" lon="12.6974467"><ele>109.99999999999999</ele><time>2026-04-26T07:38:00.937Z</time></trkpt><trkpt lat="43.91408" lon="12.697365"><ele>110.0</ele><time>2026-04-26T07:38:01.936Z</time></trkpt><trkpt lat="43.9141167" lon="12.6972767"><ele>110.0</ele><time>2026-04-26T07:38:02.937Z</time></trkpt><trkpt lat="43.9141617" lon="12.6971833"><ele>110.0</ele><time>2026-04-26T07:38:03.937Z</time></trkpt><trkpt lat="43.9142217" lon="12.697095"><ele>109.99999999999999</ele><time>2026-04-26T07:38:04.937Z</time></trkpt><trkpt lat="43.9142917" lon="12.6970117"><ele>110.0</ele><time>2026-04-26T07:38:05.937Z</time></trkpt><trkpt lat="43.9143667" lon="12.69694"><ele>109.66666666666666</ele><time>2026-04-26T07:38:06.937Z</time></trkpt><trkpt lat="43.91444" lon="12.6968767"><ele>109.33333333333333</ele><time>2026-04-26T07:38:07.937Z</time></trkpt><trkpt lat="43.914505" lon="12.696815"><ele>109.0</ele><time>2026-04-26T07:38:08.937Z</time></trkpt><trkpt lat="43.9145667" lon="12.696755"><ele>108.66666666666666</ele><time>2026-04-26T07:38:09.937Z</time></trkpt><trkpt lat="43.9146317" lon="12.6967067"><ele>108.33333333333333</ele><time>2026-04-26T07:38:10.937Z</time></trkpt><trkpt lat="43.9147033" lon="12.69666"><ele>108.0</ele><time>2026-04-26T07:38:11.937Z</time></trkpt><trkpt lat="43.9147733" lon="12.6966233"><ele>108.0</ele><time>2026-04-26T07:38:12.936Z</time></trkpt><trkpt lat="43.9148817" lon="12.6965817"><ele>108.00000000000001</ele><time>2026-04-26T07:38:14.937Z</time></trkpt><trkpt lat="43.9149733" lon="12.6965533"><ele>108.00000000000001</ele><time>2026-04-26T07:38:16.937Z</time></trkpt><trkpt lat="43.9150533" lon="12.6965483"><ele>108.0</ele><time>2026-04-26T07:38:18.937Z</time></trkpt><trkpt lat="43.91513" lon="12.696505"><ele>108.0</ele><time>2026-04-26T07:38:20.937Z</time></trkpt><trkpt lat="43.91517" lon="12.6963983"><ele>108.60000000000001</ele><time>2026-04-26T07:38:22.936Z</time></trkpt><trkpt lat="43.9151533" lon="12.6962217"><ele>109.20000000000002</ele><time>2026-04-26T07:38:24.937Z</time></trkpt><trkpt lat="43.9151183" lon="12.696095"><ele>109.8</ele><time>2026-04-26T07:38:25.937Z</time></trkpt><trkpt lat="43.915075" lon="12.695955"><ele>110.4</ele><time>2026-04-26T07:38:26.937Z</time></trkpt><trkpt lat="43.915035" lon="12.6958183"><ele>111.0</ele><time>2026-04-26T07:38:27.937Z</time></trkpt><trkpt lat="43.915" lon="12.69568"><ele>111.0</ele><time>2026-04-26T07:38:28.937Z</time></trkpt><trkpt lat="43.9149633" lon="12.6955417"><ele>111.0</ele><time>2026-04-26T07:38:29.937Z</time></trkpt><trkpt lat="43.91493" lon="12.695405"><ele>111.0</ele><time>2026-04-26T07:38:30.937Z</time></trkpt><trkpt lat="43.914895" lon="12.695275"><ele>111.0</ele><time>2026-04-26T07:38:31.937Z</time></trkpt><trkpt lat="43.9148617" lon="12.6951567"><ele>111.0</ele><time>2026-04-26T07:38:32.937Z</time></trkpt><trkpt lat="43.9148333" lon="12.6950533"><ele>112.5</ele><time>2026-04-26T07:38:33.937Z</time></trkpt><trkpt lat="43.914805" lon="12.6949583"><ele>114.0</ele><time>2026-04-26T07:38:34.936Z</time></trkpt><trkpt lat="43.914775" lon="12.694865"><ele>115.5</ele><time>2026-04-26T07:38:35.936Z</time></trkpt><trkpt lat="43.9147467" lon="12.694775"><ele>117.0</ele><time>2026-04-26T07:38:36.937Z</time></trkpt><trkpt lat="43.91472" lon="12.6946917"><ele>118.5</ele><time>2026-04-26T07:38:37.937Z</time></trkpt><trkpt lat="43.9146717" lon="12.6945367"><ele>120.0</ele><time>2026-04-26T07:38:39.936Z</time></trkpt><trkpt lat="43.914655" lon="12.6944417"><ele>119.66666666666667</ele><time>2026-04-26T07:38:41.937Z</time></trkpt><trkpt lat="43.9147233" lon="12.6943567"><ele>119.33333333333334</ele><time>2026-04-26T07:38:45.937Z</time></trkpt><trkpt lat="43.9148283" lon="12.694295"><ele>119.0</ele><time>2026-04-26T07:38:47.936Z</time></trkpt><trkpt lat="43.9148883" lon="12.6942583"><ele>118.66666666666667</ele><time>2026-04-26T07:38:48.937Z</time></trkpt><trkpt lat="43.9149533" lon="12.6942217"><ele>118.33333333333334</ele><time>2026-04-26T07:38:49.936Z</time></trkpt><trkpt lat="43.9150233" lon="12.694185"><ele>118.0</ele><time>2026-04-26T07:38:50.937Z</time></trkpt><trkpt lat="43.9150983" lon="12.6941517"><ele>118.00000000000001</ele><time>2026-04-26T07:38:51.937Z</time></trkpt><trkpt lat="43.9151717" lon="12.6941017"><ele>118.0</ele><time>2026-04-26T07:38:52.937Z</time></trkpt><trkpt lat="43.91525" lon="12.6940517"><ele>118.0</ele><time>2026-04-26T07:38:53.937Z</time></trkpt><trkpt lat="43.915335" lon="12.694005"><ele>118.0</ele><time>2026-04-26T07:38:54.936Z</time></trkpt><trkpt lat="43.9154167" lon="12.6939533"><ele>118.00000000000001</ele><time>2026-04-26T07:38:55.937Z</time></trkpt><trkpt lat="43.9154933" lon="12.6939083"><ele>118.0</ele><time>2026-04-26T07:38:56.937Z</time></trkpt><trkpt lat="43.9155617" lon="12.69388"><ele>118.0</ele><time>2026-04-26T07:38:57.936Z</time></trkpt><trkpt lat="43.9156417" lon="12.6938217"><ele>118.00000000000001</ele><time>2026-04-26T07:38:59.937Z</time></trkpt><trkpt lat="43.91566" lon="12.6936783"><ele>118.00000000000001</ele><time>2026-04-26T07:39:22.937Z</time></trkpt><trkpt lat="43.915615" lon="12.6935467"><ele>118.0</ele><time>2026-04-26T07:39:24.937Z</time></trkpt><trkpt lat="43.9155267" lon="12.693415"><ele>118.0</ele><time>2026-04-26T07:39:26.937Z</time></trkpt><trkpt lat="43.9154667" lon="12.6933417"><ele>119.0</ele><time>2026-04-26T07:39:27.937Z</time></trkpt><trkpt lat="43.9154" lon="12.69326"><ele>120.00000000000001</ele><time>2026-04-26T07:39:28.937Z</time></trkpt><trkpt lat="43.9153317" lon="12.6931733"><ele>121.00000000000001</ele><time>2026-04-26T07:39:29.937Z</time></trkpt><trkpt lat="43.9152633" lon="12.693085"><ele>122.0</ele><time>2026-04-26T07:39:30.937Z</time></trkpt><trkpt lat="43.9151967" lon="12.693"><ele>123.0</ele><time>2026-04-26T07:39:31.937Z</time></trkpt><trkpt lat="43.915135" lon="12.6929183"><ele>123.60000000000001</ele><time>2026-04-26T07:39:32.937Z</time></trkpt><trkpt lat="43.91507" lon="12.692835"><ele>124.20000000000002</ele><time>2026-04-26T07:39:33.937Z</time></trkpt><trkpt lat="43.9150017" lon="12.692755"><ele>124.8</ele><time>2026-04-26T07:39:34.937Z</time></trkpt><trkpt lat="43.9149283" lon="12.6926767"><ele>125.4</ele><time>2026-04-26T07:39:35.937Z</time></trkpt><trkpt lat="43.91485" lon="12.6925917"><ele>126.0</ele><time>2026-04-26T07:39:36.937Z</time></trkpt><trkpt lat="43.9147683" lon="12.6924983"><ele>126.0</ele><time>2026-04-26T07:39:37.936Z</time></trkpt><trkpt lat="43.9146883" lon="12.6924017"><ele>126.0</ele><time>2026-04-26T07:39:38.937Z</time></trkpt><trkpt lat="43.9146" lon="12.69231"><ele>126.0</ele><time>2026-04-26T07:39:39.937Z</time></trkpt><trkpt lat="43.9145033" lon="12.6922233"><ele>126.0</ele><time>2026-04-26T07:39:40.937Z</time></trkpt><trkpt lat="43.9144033" lon="12.6921483"><ele>126.0</ele><time>2026-04-26T07:39:41.937Z</time></trkpt><trkpt lat="43.9143017" lon="12.6920833"><ele>128.2</ele><time>2026-04-26T07:39:42.937Z</time></trkpt><trkpt lat="43.9141983" lon="12.6920333"><ele>130.39999999999998</ele><time>2026-04-26T07:39:43.937Z</time></trkpt><trkpt lat="43.9140883" lon="12.691995"><ele>132.6</ele><time>2026-04-26T07:39:44.937Z</time></trkpt><trkpt lat="43.9139833" lon="12.6919717"><ele>134.79999999999998</ele><time>2026-04-26T07:39:45.937Z</time></trkpt><trkpt lat="43.913885" lon="12.6919583"><ele>137.0</ele><time>2026-04-26T07:39:46.937Z</time></trkpt><trkpt lat="43.9137983" lon="12.6919517"><ele>137.0</ele><time>2026-04-26T07:39:47.937Z</time></trkpt><trkpt lat="43.9137183" lon="12.6919467"><ele>137.0</ele><time>2026-04-26T07:39:48.937Z</time></trkpt><trkpt lat="43.9136433" lon="12.691945"><ele>137.0</ele><time>2026-04-26T07:39:49.937Z</time></trkpt><trkpt lat="43.913575" lon="12.6919383"><ele>137.0</ele><time>2026-04-26T07:39:50.937Z</time></trkpt><trkpt lat="43.9134683" lon="12.6918683"><ele>137.0</ele><time>2026-04-26T07:39:52.937Z</time></trkpt><trkpt lat="43.9134017" lon="12.691725"><ele>137.0</ele><time>2026-04-26T07:39:54.937Z</time></trkpt><trkpt lat="43.91339" lon="12.6916317"><ele>137.0</ele><time>2026-04-26T07:39:55.937Z</time></trkpt><trkpt lat="43.9133933" lon="12.691525"><ele>137.0</ele><time>2026-04-26T07:39:56.937Z</time></trkpt><trkpt lat="43.9133983" lon="12.691415"><ele>137.0</ele><time>2026-04-26T07:39:57.937Z</time></trkpt><trkpt lat="43.9134033" lon="12.6912967"><ele>137.0</ele><time>2026-04-26T07:39:58.937Z</time></trkpt><trkpt lat="43.9134117" lon="12.6911767"><ele>137.0</ele><time>2026-04-26T07:39:59.937Z</time></trkpt><trkpt lat="43.9134133" lon="12.6910633"><ele>137.0</ele><time>2026-04-26T07:40:00.936Z</time></trkpt><trkpt lat="43.9134" lon="12.6909617"><ele>137.0</ele><time>2026-04-26T07:40:01.937Z</time></trkpt><trkpt lat="43.9133817" lon="12.6908617"><ele>137.0</ele><time>2026-04-26T07:40:02.937Z</time></trkpt><trkpt lat="43.91337" lon="12.6907583"><ele>137.0</ele><time>2026-04-26T07:40:03.937Z</time></trkpt><trkpt lat="43.913365" lon="12.6906517"><ele>137.0</ele><time>2026-04-26T07:40:04.937Z</time></trkpt><trkpt lat="43.9133683" lon="12.6905367"><ele>137.0</ele><time>2026-04-26T07:40:05.937Z</time></trkpt><trkpt lat="43.9133667" lon="12.6904083"><ele>137.0</ele><time>2026-04-26T07:40:06.936Z</time></trkpt><trkpt lat="43.9133583" lon="12.6902667"><ele>137.0</ele><time>2026-04-26T07:40:07.936Z</time></trkpt><trkpt lat="43.913345" lon="12.6901233"><ele>137.0</ele><time>2026-04-26T07:40:08.937Z</time></trkpt><trkpt lat="43.9133317" lon="12.68999"><ele>137.0</ele><time>2026-04-26T07:40:09.937Z</time></trkpt><trkpt lat="43.9133167" lon="12.689865"><ele>137.0</ele><time>2026-04-26T07:40:10.937Z</time></trkpt><trkpt lat="43.9133033" lon="12.6897483"><ele>137.16666666666666</ele><time>2026-04-26T07:40:11.937Z</time></trkpt><trkpt lat="43.9132967" lon="12.6896317"><ele>137.33333333333331</ele><time>2026-04-26T07:40:12.937Z</time></trkpt><trkpt lat="43.913295" lon="12.68951"><ele>137.5</ele><time>2026-04-26T07:40:13.937Z</time></trkpt><trkpt lat="43.9132967" lon="12.6893867"><ele>137.66666666666666</ele><time>2026-04-26T07:40:14.936Z</time></trkpt><trkpt lat="43.9132983" lon="12.6892717"><ele>137.83333333333334</ele><time>2026-04-26T07:40:15.937Z</time></trkpt><trkpt lat="43.913305" lon="12.6891783"><ele>138.0</ele><time>2026-04-26T07:40:16.936Z</time></trkpt><trkpt lat="43.9133383" lon="12.6890383"><ele>137.4</ele><time>2026-04-26T07:40:18.936Z</time></trkpt><trkpt lat="43.9134033" lon="12.688875"><ele>136.8</ele><time>2026-04-26T07:40:20.937Z</time></trkpt><trkpt lat="43.91343" lon="12.6887633"><ele>136.2</ele><time>2026-04-26T07:40:21.937Z</time></trkpt><trkpt lat="43.9134533" lon="12.6886433"><ele>135.6</ele><time>2026-04-26T07:40:22.936Z</time></trkpt><trkpt lat="43.9134783" lon="12.688515"><ele>135.0</ele><time>2026-04-26T07:40:23.936Z</time></trkpt><trkpt lat="43.9135067" lon="12.68838"><ele>133.4</ele><time>2026-04-26T07:40:24.936Z</time></trkpt><trkpt lat="43.9135333" lon="12.688235"><ele>131.8</ele><time>2026-04-26T07:40:25.937Z</time></trkpt><trkpt lat="43.9135583" lon="12.6880883"><ele>130.2</ele><time>2026-04-26T07:40:26.937Z</time></trkpt><trkpt lat="43.913585" lon="12.6879517"><ele>128.6</ele><time>2026-04-26T07:40:27.936Z</time></trkpt><trkpt lat="43.9136133" lon="12.6878183"><ele>127.0</ele><time>2026-04-26T07:40:28.937Z</time></trkpt><trkpt lat="43.9136467" lon="12.6876867"><ele>127.0</ele><time>2026-04-26T07:40:29.937Z</time></trkpt><trkpt lat="43.9136883" lon="12.687555"><ele>126.99999999999999</ele><time>2026-04-26T07:40:30.937Z</time></trkpt><trkpt lat="43.91373" lon="12.6874217"><ele>126.99999999999999</ele><time>2026-04-26T07:40:31.937Z</time></trkpt><trkpt lat="43.9137783" lon="12.68729"><ele>127.0</ele><time>2026-04-26T07:40:32.937Z</time></trkpt><trkpt lat="43.913825" lon="12.6871533"><ele>127.0</ele><time>2026-04-26T07:40:33.936Z</time></trkpt><trkpt lat="43.91387" lon="12.6870117"><ele>126.75</ele><time>2026-04-26T07:40:34.937Z</time></trkpt><trkpt lat="43.9139167" lon="12.68687"><ele>126.5</ele><time>2026-04-26T07:40:35.937Z</time></trkpt><trkpt lat="43.91396" lon="12.6867283"><ele>126.25</ele><time>2026-04-26T07:40:36.937Z</time></trkpt><trkpt lat="43.9140017" lon="12.6865767"><ele>126.0</ele><time>2026-04-26T07:40:37.937Z</time></trkpt><trkpt lat="43.9140383" lon="12.686415"><ele>126.0</ele><time>2026-04-26T07:40:38.937Z</time></trkpt><trkpt lat="43.9140683" lon="12.6862467"><ele>126.0</ele><time>2026-04-26T07:40:39.937Z</time></trkpt><trkpt lat="43.9140917" lon="12.6860733"><ele>126.0</ele><time>2026-04-26T07:40:40.937Z</time></trkpt><trkpt lat="43.91411" lon="12.685895"><ele>126.0</ele><time>2026-04-26T07:40:41.936Z</time></trkpt><trkpt lat="43.914125" lon="12.6857167"><ele>126.0</ele><time>2026-04-26T07:40:42.937Z</time></trkpt><trkpt lat="43.9141367" lon="12.6855417"><ele>126.0</ele><time>2026-04-26T07:40:43.937Z</time></trkpt><trkpt lat="43.91415" lon="12.6853683"><ele>126.0</ele><time>2026-04-26T07:40:44.937Z</time></trkpt><trkpt lat="43.914165" lon="12.6851933"><ele>126.0</ele><time>2026-04-26T07:40:45.937Z</time></trkpt><trkpt lat="43.91418" lon="12.6850283"><ele>126.33333333333333</ele><time>2026-04-26T07:40:46.937Z</time></trkpt><trkpt lat="43.91419" lon="12.6848867"><ele>126.66666666666666</ele><time>2026-04-26T07:40:47.937Z</time></trkpt><trkpt lat="43.9142" lon="12.68477"><ele>127.0</ele><time>2026-04-26T07:40:48.937Z</time></trkpt><trkpt lat="43.9142133" lon="12.6846767"><ele>127.33333333333333</ele><time>2026-04-26T07:40:49.936Z</time></trkpt><trkpt lat="43.9142733" lon="12.6845383"><ele>127.66666666666666</ele><time>2026-04-26T07:40:51.936Z</time></trkpt><trkpt lat="43.91433" lon="12.6844917"><ele>128.0</ele><time>2026-04-26T07:40:52.937Z</time></trkpt><trkpt lat="43.9144" lon="12.6844583"><ele>126.16666666666666</ele><time>2026-04-26T07:40:53.937Z</time></trkpt><trkpt lat="43.9144733" lon="12.6844217"><ele>124.33333333333333</ele><time>2026-04-26T07:40:54.937Z</time></trkpt><trkpt lat="43.9145467" lon="12.6843733"><ele>122.5</ele><time>2026-04-26T07:40:55.937Z</time></trkpt><trkpt lat="43.9146233" lon="12.6843117"><ele>120.66666666666666</ele><time>2026-04-26T07:40:56.937Z</time></trkpt><trkpt lat="43.914705" lon="12.6842467"><ele>118.83333333333333</ele><time>2026-04-26T07:40:57.937Z</time></trkpt><trkpt lat="43.91479" lon="12.68418"><ele>117.0</ele><time>2026-04-26T07:40:58.937Z</time></trkpt><trkpt lat="43.914875" lon="12.684115"><ele>117.0</ele><time>2026-04-26T07:40:59.937Z</time></trkpt><trkpt lat="43.9149617" lon="12.6840533"><ele>116.99999999999999</ele><time>2026-04-26T07:41:00.937Z</time></trkpt><trkpt lat="43.9150517" lon="12.683995"><ele>116.99999999999999</ele><time>2026-04-26T07:41:01.936Z</time></trkpt><trkpt lat="43.91515" lon="12.683945"><ele>117.0</ele><time>2026-04-26T07:41:02.937Z</time></trkpt><trkpt lat="43.9152533" lon="12.6839083"><ele>117.0</ele><time>2026-04-26T07:41:03.936Z</time></trkpt><trkpt lat="43.9153617" lon="12.6838717"><ele>114.19999999999999</ele><time>2026-04-26T07:41:04.937Z</time></trkpt><trkpt lat="43.915475" lon="12.683855"><ele>111.39999999999999</ele><time>2026-04-26T07:41:05.936Z</time></trkpt><trkpt lat="43.9155867" lon="12.6838633"><ele>108.6</ele><time>2026-04-26T07:41:06.936Z</time></trkpt><trkpt lat="43.915695" lon="12.6838867"><ele>105.80000000000001</ele><time>2026-04-26T07:41:07.937Z</time></trkpt><trkpt lat="43.9158033" lon="12.6839083"><ele>103.0</ele><time>2026-04-26T07:41:08.937Z</time></trkpt><trkpt lat="43.9159133" lon="12.6839317"><ele>100.75</ele><time>2026-04-26T07:41:09.937Z</time></trkpt><trkpt lat="43.9160233" lon="12.683955"><ele>98.5</ele><time>2026-04-26T07:41:10.937Z</time></trkpt><trkpt lat="43.9161383" lon="12.6839667"><ele>96.25</ele><time>2026-04-26T07:41:11.937Z</time></trkpt><trkpt lat="43.91625" lon="12.683985"><ele>94.0</ele><time>2026-04-26T07:41:12.937Z</time></trkpt><trkpt lat="43.9163633" lon="12.6840117"><ele>94.0</ele><time>2026-04-26T07:41:13.937Z</time></trkpt><trkpt lat="43.91648" lon="12.68404"><ele>94.0</ele><time>2026-04-26T07:41:14.937Z</time></trkpt><trkpt lat="43.9166033" lon="12.6840667"><ele>94.0</ele><time>2026-04-26T07:41:15.937Z</time></trkpt><trkpt lat="43.9167233" lon="12.684105"><ele>94.0</ele><time>2026-04-26T07:41:16.937Z</time></trkpt><trkpt lat="43.9168467" lon="12.6841217"><ele>91.5</ele><time>2026-04-26T07:41:17.937Z</time></trkpt><trkpt lat="43.9169667" lon="12.6841483"><ele>89.0</ele><time>2026-04-26T07:41:18.937Z</time></trkpt><trkpt lat="43.917085" lon="12.6841833"><ele>86.5</ele><time>2026-04-26T07:41:19.937Z</time></trkpt><trkpt lat="43.9172033" lon="12.6842133"><ele>84.0</ele><time>2026-04-26T07:41:20.937Z</time></trkpt><trkpt lat="43.91732" lon="12.684245"><ele>84.0</ele><time>2026-04-26T07:41:21.937Z</time></trkpt><trkpt lat="43.9174333" lon="12.684285"><ele>84.0</ele><time>2026-04-26T07:41:22.937Z</time></trkpt><trkpt lat="43.9175533" lon="12.6843133"><ele>84.0</ele><time>2026-04-26T07:41:23.937Z</time></trkpt><trkpt lat="43.9176767" lon="12.684345"><ele>84.0</ele><time>2026-04-26T07:41:24.937Z</time></trkpt><trkpt lat="43.9177967" lon="12.6843783"><ele>82.0</ele><time>2026-04-26T07:41:25.937Z</time></trkpt><trkpt lat="43.9179083" lon="12.6844183"><ele>80.0</ele><time>2026-04-26T07:41:26.937Z</time></trkpt><trkpt lat="43.9180167" lon="12.684445"><ele>78.0</ele><time>2026-04-26T07:41:27.937Z</time></trkpt><trkpt lat="43.9181267" lon="12.6844467"><ele>76.0</ele><time>2026-04-26T07:41:28.937Z</time></trkpt><trkpt lat="43.9182383" lon="12.6844433"><ele>74.0</ele><time>2026-04-26T07:41:29.937Z</time></trkpt><trkpt lat="43.91835" lon="12.6844567"><ele>70.5</ele><time>2026-04-26T07:41:30.937Z</time></trkpt><trkpt lat="43.9184583" lon="12.6845067"><ele>67.0</ele><time>2026-04-26T07:41:31.937Z</time></trkpt><trkpt lat="43.9185667" lon="12.6845667"><ele>63.5</ele><time>2026-04-26T07:41:32.937Z</time></trkpt><trkpt lat="43.9186717" lon="12.6846333"><ele>60.0</ele><time>2026-04-26T07:41:33.937Z</time></trkpt><trkpt lat="43.9187683" lon="12.6847017"><ele>60.0</ele><time>2026-04-26T07:41:34.937Z</time></trkpt><trkpt lat="43.918865" lon="12.684765"><ele>60.0</ele><time>2026-04-26T07:41:35.936Z</time></trkpt><trkpt lat="43.9189633" lon="12.68482"><ele>60.0</ele><time>2026-04-26T07:41:36.937Z</time></trkpt><trkpt lat="43.91906" lon="12.68487"><ele>60.0</ele><time>2026-04-26T07:41:37.937Z</time></trkpt><trkpt lat="43.9191583" lon="12.6849167"><ele>60.0</ele><time>2026-04-26T07:41:38.937Z</time></trkpt><trkpt lat="43.91925" lon="12.6849567"><ele>58.6</ele><time>2026-04-26T07:41:39.937Z</time></trkpt><trkpt lat="43.9193317" lon="12.6849867"><ele>57.2</ele><time>2026-04-26T07:41:40.936Z</time></trkpt><trkpt lat="43.9193983" lon="12.6850067"><ele>55.8</ele><time>2026-04-26T07:41:41.937Z</time></trkpt><trkpt lat="43.919495" lon="12.6850067"><ele>54.4</ele><time>2026-04-26T07:41:43.937Z</time></trkpt><trkpt lat="43.9195767" lon="12.684965"><ele>53.0</ele><time>2026-04-26T07:41:45.936Z</time></trkpt><trkpt lat="43.91964" lon="12.6848267"><ele>53.0</ele><time>2026-04-26T07:41:47.936Z</time></trkpt><trkpt lat="43.919675" lon="12.6847183"><ele>53.0</ele><time>2026-04-26T07:41:48.937Z</time></trkpt><trkpt lat="43.9197167" lon="12.6845917"><ele>53.0</ele><time>2026-04-26T07:41:49.937Z</time></trkpt><trkpt lat="43.9197683" lon="12.6844533"><ele>53.0</ele><time>2026-04-26T07:41:50.937Z</time></trkpt><trkpt lat="43.9198167" lon="12.6842983"><ele>53.0</ele><time>2026-04-26T07:41:51.937Z</time></trkpt><trkpt lat="43.9198633" lon="12.6841433"><ele>52.0</ele><time>2026-04-26T07:41:52.937Z</time></trkpt><trkpt lat="43.9199117" lon="12.6839883"><ele>51.0</ele><time>2026-04-26T07:41:53.937Z</time></trkpt><trkpt lat="43.9199633" lon="12.68384"><ele>50.0</ele><time>2026-04-26T07:41:54.937Z</time></trkpt><trkpt lat="43.9200367" lon="12.683715"><ele>49.0</ele><time>2026-04-26T07:41:55.937Z</time></trkpt><trkpt lat="43.9201267" lon="12.6836267"><ele>48.666666666666664</ele><time>2026-04-26T07:41:56.937Z</time></trkpt><trkpt lat="43.920215" lon="12.6835733"><ele>48.33333333333333</ele><time>2026-04-26T07:41:57.936Z</time></trkpt><trkpt lat="43.9202933" lon="12.683535"><ele>48.0</ele><time>2026-04-26T07:41:58.937Z</time></trkpt><trkpt lat="43.9203633" lon="12.6834983"><ele>47.666666666666664</ele><time>2026-04-26T07:41:59.936Z</time></trkpt><trkpt lat="43.9204283" lon="12.6834683"><ele>47.33333333333333</ele><time>2026-04-26T07:42:00.937Z</time></trkpt><trkpt lat="43.92049" lon="12.6834383"><ele>47.0</ele><time>2026-04-26T07:42:01.937Z</time></trkpt><trkpt lat="43.9205583" lon="12.6833067"><ele>47.0</ele><time>2026-04-26T07:42:03.937Z</time></trkpt><trkpt lat="43.92056" lon="12.683205"><ele>47.0</ele><time>2026-04-26T07:42:04.937Z</time></trkpt><trkpt lat="43.9205633" lon="12.6831033"><ele>47.0</ele><time>2026-04-26T07:42:05.937Z</time></trkpt><trkpt lat="43.92057" lon="12.683"><ele>47.0</ele><time>2026-04-26T07:42:06.937Z</time></trkpt><trkpt lat="43.92058" lon="12.6829033"><ele>47.0</ele><time>2026-04-26T07:42:07.937Z</time></trkpt><trkpt lat="43.9205983" lon="12.6827383"><ele>47.0</ele><time>2026-04-26T07:42:09.937Z</time></trkpt><trkpt lat="43.9206067" lon="12.6825983"><ele>47.8</ele><time>2026-04-26T07:42:11.937Z</time></trkpt><trkpt lat="43.9207017" lon="12.682495"><ele>48.6</ele><time>2026-04-26T07:42:13.937Z</time></trkpt><trkpt lat="43.9207583" lon="12.6824283"><ele>49.4</ele><time>2026-04-26T07:42:14.937Z</time></trkpt><trkpt lat="43.92084" lon="12.6823683"><ele>50.199999999999996</ele><time>2026-04-26T07:42:15.937Z</time></trkpt><trkpt lat="43.92095" lon="12.682325"><ele>51.0</ele><time>2026-04-26T07:42:16.937Z</time></trkpt><trkpt lat="43.92106" lon="12.6822633"><ele>51.0</ele><time>2026-04-26T07:42:17.937Z</time></trkpt><trkpt lat="43.9211683" lon="12.6822"><ele>51.0</ele><time>2026-04-26T07:42:18.937Z</time></trkpt><trkpt lat="43.9212667" lon="12.6821383"><ele>51.0</ele><time>2026-04-26T07:42:19.936Z</time></trkpt><trkpt lat="43.9213617" lon="12.6820817"><ele>51.0</ele><time>2026-04-26T07:42:20.937Z</time></trkpt><trkpt lat="43.9214467" lon="12.6820267"><ele>51.0</ele><time>2026-04-26T07:42:21.937Z</time></trkpt><trkpt lat="43.92153" lon="12.68197"><ele>51.199999999999996</ele><time>2026-04-26T07:42:22.937Z</time></trkpt><trkpt lat="43.9216133" lon="12.68192"><ele>51.4</ele><time>2026-04-26T07:42:23.937Z</time></trkpt><trkpt lat="43.9217017" lon="12.6818717"><ele>51.6</ele><time>2026-04-26T07:42:24.937Z</time></trkpt><trkpt lat="43.92179" lon="12.6818233"><ele>51.8</ele><time>2026-04-26T07:42:25.938Z</time></trkpt><trkpt lat="43.92188" lon="12.6817783"><ele>52.0</ele><time>2026-04-26T07:42:26.938Z</time></trkpt><trkpt lat="43.9219717" lon="12.68173"><ele>52.0</ele><time>2026-04-26T07:42:27.937Z</time></trkpt><trkpt lat="43.9220683" lon="12.6816767"><ele>52.0</ele><time>2026-04-26T07:42:28.938Z</time></trkpt><trkpt lat="43.9221667" lon="12.6816217"><ele>52.0</ele><time>2026-04-26T07:42:29.938Z</time></trkpt><trkpt lat="43.9222633" lon="12.68157"><ele>52.0</ele><time>2026-04-26T07:42:30.938Z</time></trkpt><trkpt lat="43.9223517" lon="12.681515"><ele>52.0</ele><time>2026-04-26T07:42:31.938Z</time></trkpt><trkpt lat="43.9224367" lon="12.6814617"><ele>52.0</ele><time>2026-04-26T07:42:32.938Z</time></trkpt><trkpt lat="43.92252" lon="12.68141"><ele>52.0</ele><time>2026-04-26T07:42:33.937Z</time></trkpt><trkpt lat="43.92261" lon="12.6813583"><ele>52.0</ele><time>2026-04-26T07:42:34.938Z</time></trkpt><trkpt lat="43.9227033" lon="12.6813"><ele>52.0</ele><time>2026-04-26T07:42:35.938Z</time></trkpt><trkpt lat="43.922795" lon="12.6812417"><ele>52.0</ele><time>2026-04-26T07:42:36.938Z</time></trkpt><trkpt lat="43.922885" lon="12.68119"><ele>52.166666666666664</ele><time>2026-04-26T07:42:37.938Z</time></trkpt><trkpt lat="43.9229717" lon="12.6811383"><ele>52.33333333333333</ele><time>2026-04-26T07:42:38.938Z</time></trkpt><trkpt lat="43.9230533" lon="12.6810833"><ele>52.5</ele><time>2026-04-26T07:42:39.938Z</time></trkpt><trkpt lat="43.92313" lon="12.6810317"><ele>52.66666666666667</ele><time>2026-04-26T07:42:40.938Z</time></trkpt><trkpt lat="43.9232" lon="12.6809883"><ele>52.833333333333336</ele><time>2026-04-26T07:42:41.938Z</time></trkpt><trkpt lat="43.92326" lon="12.6809483"><ele>53.0</ele><time>2026-04-26T07:42:42.937Z</time></trkpt><trkpt lat="43.92335" lon="12.6809033"><ele>53.00000000000001</ele><time>2026-04-26T07:42:44.937Z</time></trkpt><trkpt lat="43.92341" lon="12.6808683"><ele>53.0</ele><time>2026-04-26T07:42:46.938Z</time></trkpt><trkpt lat="43.9234517" lon="12.680785"><ele>53.0</ele><time>2026-04-26T07:42:48.938Z</time></trkpt><trkpt lat="43.923415" lon="12.68062"><ele>53.0</ele><time>2026-04-26T07:42:50.938Z</time></trkpt><trkpt lat="43.9233783" lon="12.6805233"><ele>53.00000000000001</ele><time>2026-04-26T07:42:51.938Z</time></trkpt><trkpt lat="43.92334" lon="12.68041"><ele>53.0</ele><time>2026-04-26T07:42:52.937Z</time></trkpt><trkpt lat="43.9233033" lon="12.6802817"><ele>53.599999999999994</ele><time>2026-04-26T07:42:53.937Z</time></trkpt><trkpt lat="43.9232683" lon="12.680145"><ele>54.199999999999996</ele><time>2026-04-26T07:42:54.938Z</time></trkpt><trkpt lat="43.923235" lon="12.68"><ele>54.8</ele><time>2026-04-26T07:42:55.938Z</time></trkpt><trkpt lat="43.9232" lon="12.6798533"><ele>55.4</ele><time>2026-04-26T07:42:56.938Z</time></trkpt><trkpt lat="43.9231667" lon="12.6797017"><ele>56.0</ele><time>2026-04-26T07:42:57.938Z</time></trkpt><trkpt lat="43.9231333" lon="12.6795483"><ele>56.0</ele><time>2026-04-26T07:42:58.938Z</time></trkpt><trkpt lat="43.9230967" lon="12.679395"><ele>56.0</ele><time>2026-04-26T07:42:59.937Z</time></trkpt><trkpt lat="43.92306" lon="12.6792383"><ele>56.0</ele><time>2026-04-26T07:43:00.938Z</time></trkpt><trkpt lat="43.9230217" lon="12.6790767"><ele>56.0</ele><time>2026-04-26T07:43:01.938Z</time></trkpt><trkpt lat="43.9229817" lon="12.6789117"><ele>56.0</ele><time>2026-04-26T07:43:02.938Z</time></trkpt><trkpt lat="43.9229417" lon="12.6787483"><ele>56.0</ele><time>2026-04-26T07:43:03.937Z</time></trkpt><trkpt lat="43.922905" lon="12.6785883"><ele>56.0</ele><time>2026-04-26T07:43:04.937Z</time></trkpt><trkpt lat="43.9228667" lon="12.6784333"><ele>56.0</ele><time>2026-04-26T07:43:05.938Z</time></trkpt><trkpt lat="43.9228267" lon="12.6782783"><ele>56.0</ele><time>2026-04-26T07:43:06.938Z</time></trkpt><trkpt lat="43.9227883" lon="12.678125"><ele>56.0</ele><time>2026-04-26T07:43:07.938Z</time></trkpt><trkpt lat="43.92275" lon="12.6779717"><ele>56.0</ele><time>2026-04-26T07:43:08.938Z</time></trkpt><trkpt lat="43.92271" lon="12.677815"><ele>56.0</ele><time>2026-04-26T07:43:09.937Z</time></trkpt><trkpt lat="43.92267" lon="12.6776567"><ele>56.0</ele><time>2026-04-26T07:43:10.938Z</time></trkpt><trkpt lat="43.9226317" lon="12.6774917"><ele>56.0</ele><time>2026-04-26T07:43:11.938Z</time></trkpt><trkpt lat="43.9225917" lon="12.6773267"><ele>56.0</ele><time>2026-04-26T07:43:12.938Z</time></trkpt><trkpt lat="43.9225517" lon="12.6771667"><ele>56.0</ele><time>2026-04-26T07:43:13.938Z</time></trkpt><trkpt lat="43.9225117" lon="12.6770183"><ele>56.0</ele><time>2026-04-26T07:43:14.938Z</time></trkpt><trkpt lat="43.9224767" lon="12.67688"><ele>55.99999999999999</ele><time>2026-04-26T07:43:15.938Z</time></trkpt><trkpt lat="43.9224433" lon="12.6767467"><ele>55.99999999999999</ele><time>2026-04-26T07:43:16.938Z</time></trkpt><trkpt lat="43.9224067" lon="12.6766233"><ele>56.0</ele><time>2026-04-26T07:43:17.938Z</time></trkpt><trkpt lat="43.9223783" lon="12.67651"><ele>56.0</ele><time>2026-04-26T07:43:18.938Z</time></trkpt><trkpt lat="43.9223433" lon="12.6764267"><ele>56.0</ele><time>2026-04-26T07:43:19.938Z</time></trkpt><trkpt lat="43.9222267" lon="12.6763783"><ele>55.99999999999999</ele><time>2026-04-26T07:43:21.938Z</time></trkpt><trkpt lat="43.9221467" lon="12.6764133"><ele>55.99999999999999</ele><time>2026-04-26T07:43:22.938Z</time></trkpt><trkpt lat="43.9220583" lon="12.67642"><ele>56.0</ele><time>2026-04-26T07:43:23.937Z</time></trkpt><trkpt lat="43.9219533" lon="12.6764"><ele>56.0</ele><time>2026-04-26T07:43:24.938Z</time></trkpt><trkpt lat="43.9218383" lon="12.6763633"><ele>56.25</ele><time>2026-04-26T07:43:25.938Z</time></trkpt><trkpt lat="43.92172" lon="12.6763233"><ele>56.5</ele><time>2026-04-26T07:43:26.938Z</time></trkpt><trkpt lat="43.921595" lon="12.6762933"><ele>56.75</ele><time>2026-04-26T07:43:27.938Z</time></trkpt><trkpt lat="43.9214667" lon="12.6762683"><ele>57.0</ele><time>2026-04-26T07:43:28.937Z</time></trkpt><trkpt lat="43.9213317" lon="12.67624"><ele>57.0</ele><time>2026-04-26T07:43:29.938Z</time></trkpt><trkpt lat="43.9211883" lon="12.67621"><ele>57.0</ele><time>2026-04-26T07:43:30.938Z</time></trkpt><trkpt lat="43.9210433" lon="12.676175"><ele>57.0</ele><time>2026-04-26T07:43:31.938Z</time></trkpt><trkpt lat="43.9209" lon="12.6761383"><ele>57.0</ele><time>2026-04-26T07:43:32.938Z</time></trkpt><trkpt lat="43.9207617" lon="12.6760867"><ele>57.5</ele><time>2026-04-26T07:43:33.938Z</time></trkpt><trkpt lat="43.92063" lon="12.6760067"><ele>58.0</ele><time>2026-04-26T07:43:34.937Z</time></trkpt><trkpt lat="43.9205067" lon="12.6759183"><ele>58.5</ele><time>2026-04-26T07:43:35.938Z</time></trkpt><trkpt lat="43.920385" lon="12.675825"><ele>59.0</ele><time>2026-04-26T07:43:36.938Z</time></trkpt><trkpt lat="43.9202617" lon="12.6757317"><ele>59.0</ele><time>2026-04-26T07:43:37.937Z</time></trkpt><trkpt lat="43.9201367" lon="12.6756383"><ele>59.0</ele><time>2026-04-26T07:43:38.938Z</time></trkpt><trkpt lat="43.9200167" lon="12.675535"><ele>59.0</ele><time>2026-04-26T07:43:39.938Z</time></trkpt><trkpt lat="43.9198983" lon="12.67544"><ele>59.0</ele><time>2026-04-26T07:43:40.938Z</time></trkpt><trkpt lat="43.9197817" lon="12.6753317"><ele>59.0</ele><time>2026-04-26T07:43:41.938Z</time></trkpt><trkpt lat="43.9196617" lon="12.6752133"><ele>59.0</ele><time>2026-04-26T07:43:42.938Z</time></trkpt><trkpt lat="43.9195417" lon="12.6751"><ele>59.0</ele><time>2026-04-26T07:43:43.937Z</time></trkpt><trkpt lat="43.9194217" lon="12.6749983"><ele>59.0</ele><time>2026-04-26T07:43:44.938Z</time></trkpt><trkpt lat="43.919305" lon="12.6748967"><ele>59.25</ele><time>2026-04-26T07:43:45.938Z</time></trkpt><trkpt lat="43.91919" lon="12.6747917"><ele>59.5</ele><time>2026-04-26T07:43:46.937Z</time></trkpt><trkpt lat="43.9190767" lon="12.674685"><ele>59.75</ele><time>2026-04-26T07:43:47.937Z</time></trkpt><trkpt lat="43.91896" lon="12.6745867"><ele>60.0</ele><time>2026-04-26T07:43:48.938Z</time></trkpt><trkpt lat="43.9188433" lon="12.6744883"><ele>60.0</ele><time>2026-04-26T07:43:49.938Z</time></trkpt><trkpt lat="43.9187317" lon="12.6743883"><ele>60.0</ele><time>2026-04-26T07:43:50.938Z</time></trkpt><trkpt lat="43.9186167" lon="12.67429"><ele>60.0</ele><time>2026-04-26T07:43:51.938Z</time></trkpt><trkpt lat="43.9185033" lon="12.674195"><ele>60.0</ele><time>2026-04-26T07:43:52.938Z</time></trkpt><trkpt lat="43.918395" lon="12.6740933"><ele>60.2</ele><time>2026-04-26T07:43:53.938Z</time></trkpt><trkpt lat="43.9182933" lon="12.674"><ele>60.4</ele><time>2026-04-26T07:43:54.938Z</time></trkpt><trkpt lat="43.9182067" lon="12.673925"><ele>60.599999999999994</ele><time>2026-04-26T07:43:55.938Z</time></trkpt><trkpt lat="43.9181417" lon="12.673855"><ele>60.8</ele><time>2026-04-26T07:43:56.938Z</time></trkpt><trkpt lat="43.91809" lon="12.673795"><ele>61.0</ele><time>2026-04-26T07:43:57.938Z</time></trkpt><trkpt lat="43.9180083" lon="12.6736983"><ele>60.99999999999999</ele><time>2026-04-26T07:43:59.938Z</time></trkpt><trkpt lat="43.9179483" lon="12.67364"><ele>61.0</ele><time>2026-04-26T07:44:01.938Z</time></trkpt><trkpt lat="43.91788" lon="12.6735667"><ele>61.0</ele><time>2026-04-26T07:50:08.937Z</time></trkpt><trkpt lat="43.9177883" lon="12.6735017"><ele>61.0</ele><time>2026-04-26T07:50:10.937Z</time></trkpt><trkpt lat="43.9177317" lon="12.6734517"><ele>60.99999999999999</ele><time>2026-04-26T07:50:11.937Z</time></trkpt><trkpt lat="43.9176617" lon="12.6733933"><ele>61.0</ele><time>2026-04-26T07:50:12.937Z</time></trkpt><trkpt lat="43.9175883" lon="12.6733283"><ele>61.4</ele><time>2026-04-26T07:50:13.937Z</time></trkpt><trkpt lat="43.917515" lon="12.6732633"><ele>61.8</ele><time>2026-04-26T07:50:14.937Z</time></trkpt><trkpt lat="43.9174383" lon="12.6731967"><ele>62.199999999999996</ele><time>2026-04-26T07:50:15.937Z</time></trkpt><trkpt lat="43.917355" lon="12.6731267"><ele>62.599999999999994</ele><time>2026-04-26T07:50:16.937Z</time></trkpt><trkpt lat="43.91727" lon="12.67305"><ele>63.0</ele><time>2026-04-26T07:50:17.936Z</time></trkpt><trkpt lat="43.9171833" lon="12.6729783"><ele>63.0</ele><time>2026-04-26T07:50:18.937Z</time></trkpt><trkpt lat="43.9171" lon="12.6729067"><ele>63.0</ele><time>2026-04-26T07:50:19.937Z</time></trkpt><trkpt lat="43.917015" lon="12.6728417"><ele>63.0</ele><time>2026-04-26T07:50:20.937Z</time></trkpt><trkpt lat="43.9169333" lon="12.6727817"><ele>63.0</ele><time>2026-04-26T07:50:21.937Z</time></trkpt><trkpt lat="43.916855" lon="12.6727233"><ele>63.0</ele><time>2026-04-26T07:50:22.937Z</time></trkpt><trkpt lat="43.9167683" lon="12.6726783"><ele>63.2</ele><time>2026-04-26T07:50:23.937Z</time></trkpt><trkpt lat="43.9166733" lon="12.67265"><ele>63.4</ele><time>2026-04-26T07:50:24.937Z</time></trkpt><trkpt lat="43.9165717" lon="12.67263"><ele>63.60000000000001</ele><time>2026-04-26T07:50:25.936Z</time></trkpt><trkpt lat="43.9164667" lon="12.6726267"><ele>63.800000000000004</ele><time>2026-04-26T07:50:26.936Z</time></trkpt><trkpt lat="43.9163583" lon="12.672645"><ele>64.0</ele><time>2026-04-26T07:50:27.937Z</time></trkpt><trkpt lat="43.9162483" lon="12.6726633"><ele>64.0</ele><time>2026-04-26T07:50:28.936Z</time></trkpt><trkpt lat="43.9161367" lon="12.67269"><ele>64.0</ele><time>2026-04-26T07:50:29.937Z</time></trkpt><trkpt lat="43.91602" lon="12.67272"><ele>64.0</ele><time>2026-04-26T07:50:30.937Z</time></trkpt><trkpt lat="43.9158983" lon="12.6727467"><ele>64.0</ele><time>2026-04-26T07:50:31.936Z</time></trkpt><trkpt lat="43.915775" lon="12.6727683"><ele>63.25</ele><time>2026-04-26T07:50:32.936Z</time></trkpt><trkpt lat="43.9156483" lon="12.6727967"><ele>62.5</ele><time>2026-04-26T07:50:33.936Z</time></trkpt><trkpt lat="43.91552" lon="12.67282"><ele>61.75</ele><time>2026-04-26T07:50:34.936Z</time></trkpt><trkpt lat="43.9153883" lon="12.6728417"><ele>61.0</ele><time>2026-04-26T07:50:35.937Z</time></trkpt><trkpt lat="43.91526" lon="12.672865"><ele>61.0</ele><time>2026-04-26T07:50:36.937Z</time></trkpt><trkpt lat="43.9151283" lon="12.672895"><ele>61.0</ele><time>2026-04-26T07:50:37.936Z</time></trkpt><trkpt lat="43.9149933" lon="12.6729317"><ele>61.0</ele><time>2026-04-26T07:50:38.937Z</time></trkpt><trkpt lat="43.914855" lon="12.6729667"><ele>61.0</ele><time>2026-04-26T07:50:39.937Z</time></trkpt><trkpt lat="43.9147167" lon="12.6730017"><ele>60.75</ele><time>2026-04-26T07:50:40.937Z</time></trkpt><trkpt lat="43.91458" lon="12.6730367"><ele>60.5</ele><time>2026-04-26T07:50:41.937Z</time></trkpt><trkpt lat="43.9144417" lon="12.6730683"><ele>60.25</ele><time>2026-04-26T07:50:42.937Z</time></trkpt><trkpt lat="43.9143033" lon="12.6730983"><ele>60.0</ele><time>2026-04-26T07:50:43.936Z</time></trkpt><trkpt lat="43.91416" lon="12.6731317"><ele>58.75</ele><time>2026-04-26T07:50:44.937Z</time></trkpt><trkpt lat="43.91402" lon="12.6731683"><ele>57.5</ele><time>2026-04-26T07:50:45.937Z</time></trkpt><trkpt lat="43.91388" lon="12.6731933"><ele>56.25</ele><time>2026-04-26T07:50:46.937Z</time></trkpt><trkpt lat="43.9137467" lon="12.6732217"><ele>55.0</ele><time>2026-04-26T07:50:47.937Z</time></trkpt><trkpt lat="43.9136233" lon="12.6732483"><ele>55.0</ele><time>2026-04-26T07:50:48.937Z</time></trkpt><trkpt lat="43.9135067" lon="12.6732783"><ele>55.0</ele><time>2026-04-26T07:50:49.936Z</time></trkpt><trkpt lat="43.9134" lon="12.6733183"><ele>55.0</ele><time>2026-04-26T07:50:50.937Z</time></trkpt><trkpt lat="43.9133033" lon="12.6733633"><ele>55.0</ele><time>2026-04-26T07:50:51.937Z</time></trkpt><trkpt lat="43.9132217" lon="12.673415"><ele>55.0</ele><time>2026-04-26T07:50:52.937Z</time></trkpt><trkpt lat="43.9131467" lon="12.67347"><ele>55.0</ele><time>2026-04-26T07:50:53.936Z</time></trkpt><trkpt lat="43.9130683" lon="12.6735083"><ele>55.0</ele><time>2026-04-26T07:50:54.937Z</time></trkpt><trkpt lat="43.9129783" lon="12.6735283"><ele>55.0</ele><time>2026-04-26T07:50:55.936Z</time></trkpt><trkpt lat="43.912885" lon="12.6735517"><ele>55.0</ele><time>2026-04-26T07:50:56.936Z</time></trkpt><trkpt lat="43.9127833" lon="12.67355"><ele>55.0</ele><time>2026-04-26T07:50:57.937Z</time></trkpt><trkpt lat="43.9126767" lon="12.673535"><ele>55.0</ele><time>2026-04-26T07:50:58.937Z</time></trkpt><trkpt lat="43.9125667" lon="12.673505"><ele>55.0</ele><time>2026-04-26T07:50:59.937Z</time></trkpt><trkpt lat="43.91246" lon="12.6734633"><ele>55.0</ele><time>2026-04-26T07:51:00.936Z</time></trkpt><trkpt lat="43.9123583" lon="12.6734183"><ele>55.0</ele><time>2026-04-26T07:51:01.937Z</time></trkpt><trkpt lat="43.9122633" lon="12.6733883"><ele>55.0</ele><time>2026-04-26T07:51:02.937Z</time></trkpt><trkpt lat="43.91217" lon="12.6733583"><ele>55.0</ele><time>2026-04-26T07:51:03.937Z</time></trkpt><trkpt lat="43.91208" lon="12.6733333"><ele>55.0</ele><time>2026-04-26T07:51:04.937Z</time></trkpt><trkpt lat="43.9119833" lon="12.6733167"><ele>55.0</ele><time>2026-04-26T07:51:05.937Z</time></trkpt><trkpt lat="43.9118867" lon="12.673295"><ele>55.0</ele><time>2026-04-26T07:51:06.937Z</time></trkpt><trkpt lat="43.9117933" lon="12.67328"><ele>55.0</ele><time>2026-04-26T07:51:07.936Z</time></trkpt><trkpt lat="43.9117083" lon="12.67328"><ele>55.49999999999999</ele><time>2026-04-26T07:51:08.937Z</time></trkpt><trkpt lat="43.911635" lon="12.6732867"><ele>56.0</ele><time>2026-04-26T07:51:09.937Z</time></trkpt><trkpt lat="43.91157" lon="12.673295"><ele>56.5</ele><time>2026-04-26T07:51:10.936Z</time></trkpt><trkpt lat="43.9115067" lon="12.6732967"><ele>57.0</ele><time>2026-04-26T07:51:11.937Z</time></trkpt><trkpt lat="43.9114133" lon="12.673235"><ele>57.49999999999999</ele><time>2026-04-26T07:51:13.937Z</time></trkpt><trkpt lat="43.9114017" lon="12.6730633"><ele>58.0</ele><time>2026-04-26T07:51:15.936Z</time></trkpt><trkpt lat="43.9113933" lon="12.672975"><ele>58.0</ele><time>2026-04-26T07:51:16.937Z</time></trkpt><trkpt lat="43.9114033" lon="12.6728517"><ele>58.0</ele><time>2026-04-26T07:51:17.937Z</time></trkpt><trkpt lat="43.9114067" lon="12.67272"><ele>58.0</ele><time>2026-04-26T07:51:18.936Z</time></trkpt><trkpt lat="43.9114033" lon="12.6725767"><ele>58.0</ele><time>2026-04-26T07:51:19.937Z</time></trkpt><trkpt lat="43.9114" lon="12.6724233"><ele>58.0</ele><time>2026-04-26T07:51:20.937Z</time></trkpt><trkpt lat="43.9114017" lon="12.6722583"><ele>58.0</ele><time>2026-04-26T07:51:21.937Z</time></trkpt><trkpt lat="43.9114083" lon="12.67209"><ele>58.0</ele><time>2026-04-26T07:51:22.936Z</time></trkpt><trkpt lat="43.91141" lon="12.6719117"><ele>58.0</ele><time>2026-04-26T07:51:23.937Z</time></trkpt><trkpt lat="43.9114083" lon="12.6717217"><ele>58.0</ele><time>2026-04-26T07:51:24.937Z</time></trkpt><trkpt lat="43.9114083" lon="12.6715217"><ele>58.0</ele><time>2026-04-26T07:51:25.936Z</time></trkpt><trkpt lat="43.91141" lon="12.6713083"><ele>58.0</ele><time>2026-04-26T07:51:26.937Z</time></trkpt><trkpt lat="43.9114117" lon="12.67109"><ele>58.0</ele><time>2026-04-26T07:51:27.937Z</time></trkpt><trkpt lat="43.91142" lon="12.6708733"><ele>59.5</ele><time>2026-04-26T07:51:28.937Z</time></trkpt><trkpt lat="43.9114233" lon="12.6706633"><ele>61.0</ele><time>2026-04-26T07:51:29.937Z</time></trkpt><trkpt lat="43.911425" lon="12.6704633"><ele>62.5</ele><time>2026-04-26T07:51:30.936Z</time></trkpt><trkpt lat="43.9114233" lon="12.670265"><ele>64.0</ele><time>2026-04-26T07:51:31.937Z</time></trkpt><trkpt lat="43.9114267" lon="12.6700717"><ele>66.0</ele><time>2026-04-26T07:51:32.937Z</time></trkpt><trkpt lat="43.9114267" lon="12.6698783"><ele>68.0</ele><time>2026-04-26T07:51:33.937Z</time></trkpt><trkpt lat="43.9114267" lon="12.6696883"><ele>70.0</ele><time>2026-04-26T07:51:34.936Z</time></trkpt><trkpt lat="43.9114133" lon="12.6694983"><ele>72.0</ele><time>2026-04-26T07:51:35.936Z</time></trkpt><trkpt lat="43.9113833" lon="12.66931"><ele>72.5</ele><time>2026-04-26T07:51:36.937Z</time></trkpt><trkpt lat="43.9113433" lon="12.6691233"><ele>73.0</ele><time>2026-04-26T07:51:37.936Z</time></trkpt><trkpt lat="43.9113033" lon="12.668935"><ele>73.5</ele><time>2026-04-26T07:51:38.937Z</time></trkpt><trkpt lat="43.9112617" lon="12.6687483"><ele>74.0</ele><time>2026-04-26T07:51:39.937Z</time></trkpt><trkpt lat="43.911215" lon="12.668565"><ele>74.0</ele><time>2026-04-26T07:51:40.937Z</time></trkpt><trkpt lat="43.9111633" lon="12.6683883"><ele>74.0</ele><time>2026-04-26T07:51:41.936Z</time></trkpt><trkpt lat="43.911105" lon="12.6682117"><ele>74.0</ele><time>2026-04-26T07:51:42.937Z</time></trkpt><trkpt lat="43.9110467" lon="12.66804"><ele>74.0</ele><time>2026-04-26T07:51:43.937Z</time></trkpt><trkpt lat="43.9109767" lon="12.6678817"><ele>76.25</ele><time>2026-04-26T07:51:44.937Z</time></trkpt><trkpt lat="43.9108933" lon="12.6677417"><ele>78.5</ele><time>2026-04-26T07:51:45.937Z</time></trkpt><trkpt lat="43.9107917" lon="12.66762"><ele>80.75</ele><time>2026-04-26T07:51:46.936Z</time></trkpt><trkpt lat="43.91068" lon="12.6675067"><ele>83.0</ele><time>2026-04-26T07:51:47.937Z</time></trkpt><trkpt lat="43.91057" lon="12.6673817"><ele>83.0</ele><time>2026-04-26T07:51:48.937Z</time></trkpt><trkpt lat="43.9104617" lon="12.6672483"><ele>83.0</ele><time>2026-04-26T07:51:49.937Z</time></trkpt><trkpt lat="43.9103617" lon="12.6671017"><ele>83.0</ele><time>2026-04-26T07:51:50.937Z</time></trkpt><trkpt lat="43.910265" lon="12.6669483"><ele>83.0</ele><time>2026-04-26T07:51:51.937Z</time></trkpt><trkpt lat="43.9101633" lon="12.666795"><ele>83.75</ele><time>2026-04-26T07:51:52.937Z</time></trkpt><trkpt lat="43.91006" lon="12.6666417"><ele>84.5</ele><time>2026-04-26T07:51:53.937Z</time></trkpt><trkpt lat="43.90996" lon="12.6664933"><ele>85.25</ele><time>2026-04-26T07:51:54.937Z</time></trkpt><trkpt lat="43.9098633" lon="12.6663433"><ele>86.0</ele><time>2026-04-26T07:51:55.937Z</time></trkpt><trkpt lat="43.9097617" lon="12.6662"><ele>84.75</ele><time>2026-04-26T07:51:56.937Z</time></trkpt><trkpt lat="43.9096683" lon="12.6660567"><ele>83.5</ele><time>2026-04-26T07:51:57.936Z</time></trkpt><trkpt lat="43.909575" lon="12.665915"><ele>82.25</ele><time>2026-04-26T07:51:58.937Z</time></trkpt><trkpt lat="43.9094817" lon="12.66577"><ele>81.0</ele><time>2026-04-26T07:51:59.937Z</time></trkpt><trkpt lat="43.9093717" lon="12.6656417"><ele>81.0</ele><time>2026-04-26T07:52:00.936Z</time></trkpt><trkpt lat="43.9092467" lon="12.665535"><ele>81.0</ele><time>2026-04-26T07:52:01.937Z</time></trkpt><trkpt lat="43.9091233" lon="12.6654417"><ele>81.0</ele><time>2026-04-26T07:52:02.937Z</time></trkpt><trkpt lat="43.9090117" lon="12.6653617"><ele>81.0</ele><time>2026-04-26T07:52:03.937Z</time></trkpt><trkpt lat="43.9089133" lon="12.665295"><ele>83.25</ele><time>2026-04-26T07:52:04.936Z</time></trkpt><trkpt lat="43.908815" lon="12.6652267"><ele>85.5</ele><time>2026-04-26T07:52:05.937Z</time></trkpt><trkpt lat="43.90872" lon="12.6651533"><ele>87.75</ele><time>2026-04-26T07:52:06.937Z</time></trkpt><trkpt lat="43.90862" lon="12.6650733"><ele>90.0</ele><time>2026-04-26T07:52:07.937Z</time></trkpt><trkpt lat="43.9085117" lon="12.664985"><ele>90.5</ele><time>2026-04-26T07:52:08.937Z</time></trkpt><trkpt lat="43.9084033" lon="12.6648867"><ele>91.0</ele><time>2026-04-26T07:52:09.936Z</time></trkpt><trkpt lat="43.9082967" lon="12.66478"><ele>91.5</ele><time>2026-04-26T07:52:10.936Z</time></trkpt><trkpt lat="43.9082017" lon="12.6646417"><ele>92.0</ele><time>2026-04-26T07:52:11.937Z</time></trkpt><trkpt lat="43.9081133" lon="12.6644867"><ele>91.25</ele><time>2026-04-26T07:52:12.937Z</time></trkpt><trkpt lat="43.9080267" lon="12.664325"><ele>90.5</ele><time>2026-04-26T07:52:13.936Z</time></trkpt><trkpt lat="43.90794" lon="12.6641617"><ele>89.75</ele><time>2026-04-26T07:52:14.937Z</time></trkpt><trkpt lat="43.9078483" lon="12.6640017"><ele>89.0</ele><time>2026-04-26T07:52:15.937Z</time></trkpt><trkpt lat="43.9077567" lon="12.6638483"><ele>89.0</ele><time>2026-04-26T07:52:16.937Z</time></trkpt><trkpt lat="43.90767" lon="12.6636933"><ele>89.0</ele><time>2026-04-26T07:52:17.936Z</time></trkpt><trkpt lat="43.907585" lon="12.6635417"><ele>89.0</ele><time>2026-04-26T07:52:18.937Z</time></trkpt><trkpt lat="43.9075033" lon="12.6633983"><ele>89.0</ele><time>2026-04-26T07:52:19.937Z</time></trkpt><trkpt lat="43.9074233" lon="12.6632817"><ele>90.0</ele><time>2026-04-26T07:52:20.937Z</time></trkpt><trkpt lat="43.907355" lon="12.6632017"><ele>91.0</ele><time>2026-04-26T07:52:21.937Z</time></trkpt><trkpt lat="43.907305" lon="12.6631417"><ele>92.0</ele><time>2026-04-26T07:52:22.937Z</time></trkpt><trkpt lat="43.907215" lon="12.6630683"><ele>93.0</ele><time>2026-04-26T07:52:24.936Z</time></trkpt><trkpt lat="43.9071267" lon="12.6630083"><ele>94.0</ele><time>2026-04-26T07:52:26.937Z</time></trkpt><trkpt lat="43.9070233" lon="12.662955"><ele>94.0</ele><time>2026-04-26T07:52:28.937Z</time></trkpt><trkpt lat="43.90691" lon="12.6628833"><ele>94.0</ele><time>2026-04-26T07:52:30.936Z</time></trkpt><trkpt lat="43.9068533" lon="12.6628433"><ele>94.0</ele><time>2026-04-26T07:52:31.937Z</time></trkpt><trkpt lat="43.9067983" lon="12.6627883"><ele>94.0</ele><time>2026-04-26T07:52:32.937Z</time></trkpt><trkpt lat="43.9067233" lon="12.6627"><ele>94.0</ele><time>2026-04-26T07:52:34.937Z</time></trkpt><trkpt lat="43.9066767" lon="12.6626233"><ele>94.0</ele><time>2026-04-26T07:52:36.937Z</time></trkpt><trkpt lat="43.906695" lon="12.6625383"><ele>93.4</ele><time>2026-04-26T07:52:39.937Z</time></trkpt><trkpt lat="43.9067583" lon="12.6625117"><ele>92.80000000000001</ele><time>2026-04-26T07:52:41.936Z</time></trkpt><trkpt lat="43.9068417" lon="12.6624683"><ele>92.19999999999999</ele><time>2026-04-26T07:52:43.937Z</time></trkpt><trkpt lat="43.9069483" lon="12.66245"><ele>91.6</ele><time>2026-04-26T07:52:45.937Z</time></trkpt><trkpt lat="43.9070667" lon="12.6624283"><ele>91.0</ele><time>2026-04-26T07:52:47.936Z</time></trkpt><trkpt lat="43.9071917" lon="12.6623983"><ele>91.0</ele><time>2026-04-26T07:52:49.937Z</time></trkpt><trkpt lat="43.9072617" lon="12.6623767"><ele>91.0</ele><time>2026-04-26T07:52:50.937Z</time></trkpt><trkpt lat="43.9073333" lon="12.662355"><ele>91.0</ele><time>2026-04-26T07:52:51.937Z</time></trkpt><trkpt lat="43.9074067" lon="12.6623283"><ele>91.0</ele><time>2026-04-26T07:52:52.937Z</time></trkpt><trkpt lat="43.9074817" lon="12.6622933"><ele>91.0</ele><time>2026-04-26T07:52:53.938Z</time></trkpt><trkpt lat="43.9075583" lon="12.662255"><ele>91.0</ele><time>2026-04-26T07:52:54.937Z</time></trkpt><trkpt lat="43.9076267" lon="12.6622167"><ele>89.28571428571429</ele><time>2026-04-26T07:52:55.938Z</time></trkpt><trkpt lat="43.9076867" lon="12.6621833"><ele>87.57142857142857</ele><time>2026-04-26T07:52:56.937Z</time></trkpt><trkpt lat="43.9077517" lon="12.6621583"><ele>85.85714285714286</ele><time>2026-04-26T07:52:57.938Z</time></trkpt><trkpt lat="43.9078217" lon="12.6621367"><ele>84.14285714285714</ele><time>2026-04-26T07:52:58.938Z</time></trkpt><trkpt lat="43.9078883" lon="12.6621233"><ele>82.42857142857143</ele><time>2026-04-26T07:52:59.937Z</time></trkpt><trkpt lat="43.9079583" lon="12.6621067"><ele>80.71428571428572</ele><time>2026-04-26T07:53:00.938Z</time></trkpt><trkpt lat="43.908025" lon="12.66209"><ele>79.0</ele><time>2026-04-26T07:53:01.938Z</time></trkpt><trkpt lat="43.9080883" lon="12.662075"><ele>79.0</ele><time>2026-04-26T07:53:02.938Z</time></trkpt><trkpt lat="43.9082067" lon="12.6620483"><ele>79.0</ele><time>2026-04-26T07:53:04.937Z</time></trkpt><trkpt lat="43.9083117" lon="12.6620533"><ele>79.0</ele><time>2026-04-26T07:53:06.938Z</time></trkpt><trkpt lat="43.908415" lon="12.6620783"><ele>79.0</ele><time>2026-04-26T07:53:08.937Z</time></trkpt><trkpt lat="43.908505" lon="12.6621167"><ele>79.0</ele><time>2026-04-26T07:53:10.938Z</time></trkpt><trkpt lat="43.908595" lon="12.66214"><ele>77.16666666666666</ele><time>2026-04-26T07:53:12.937Z</time></trkpt><trkpt lat="43.9087217" lon="12.662115"><ele>75.33333333333333</ele><time>2026-04-26T07:53:14.938Z</time></trkpt><trkpt lat="43.9087917" lon="12.662075"><ele>73.5</ele><time>2026-04-26T07:53:15.938Z</time></trkpt><trkpt lat="43.9088633" lon="12.662035"><ele>71.66666666666667</ele><time>2026-04-26T07:53:16.938Z</time></trkpt><trkpt lat="43.9089367" lon="12.6619983"><ele>69.83333333333334</ele><time>2026-04-26T07:53:17.937Z</time></trkpt><trkpt lat="43.909015" lon="12.6619733"><ele>68.0</ele><time>2026-04-26T07:53:18.938Z</time></trkpt><trkpt lat="43.909095" lon="12.6619517"><ele>67.57142857142857</ele><time>2026-04-26T07:53:19.937Z</time></trkpt><trkpt lat="43.9091733" lon="12.6619333"><ele>67.14285714285714</ele><time>2026-04-26T07:53:20.938Z</time></trkpt><trkpt lat="43.9092517" lon="12.6619167"><ele>66.71428571428572</ele><time>2026-04-26T07:53:21.938Z</time></trkpt><trkpt lat="43.9093267" lon="12.6619083"><ele>66.28571428571428</ele><time>2026-04-26T07:53:22.938Z</time></trkpt><trkpt lat="43.9093933" lon="12.66191"><ele>65.85714285714286</ele><time>2026-04-26T07:53:23.938Z</time></trkpt><trkpt lat="43.9094567" lon="12.6619317"><ele>65.42857142857143</ele><time>2026-04-26T07:53:24.938Z</time></trkpt><trkpt lat="43.909515" lon="12.66197"><ele>65.0</ele><time>2026-04-26T07:53:25.938Z</time></trkpt><trkpt lat="43.90957" lon="12.6620283"><ele>64.0</ele><time>2026-04-26T07:53:26.938Z</time></trkpt><trkpt lat="43.90962" lon="12.6621067"><ele>63.0</ele><time>2026-04-26T07:53:27.938Z</time></trkpt><trkpt lat="43.9096633" lon="12.6621817"><ele>62.0</ele><time>2026-04-26T07:53:28.938Z</time></trkpt><trkpt lat="43.90974" lon="12.6622567"><ele>61.0</ele><time>2026-04-26T07:53:30.938Z</time></trkpt><trkpt lat="43.9098217" lon="12.662215"><ele>60.00000000000001</ele><time>2026-04-26T07:53:32.938Z</time></trkpt><trkpt lat="43.90987" lon="12.6621483"><ele>59.0</ele><time>2026-04-26T07:53:34.938Z</time></trkpt><trkpt lat="43.9099417" lon="12.6621733"><ele>59.0</ele><time>2026-04-26T07:53:37.938Z</time></trkpt><trkpt lat="43.9100017" lon="12.66222"><ele>59.00000000000001</ele><time>2026-04-26T07:53:39.938Z</time></trkpt><trkpt lat="43.9100867" lon="12.6622333"><ele>59.00000000000001</ele><time>2026-04-26T07:53:41.937Z</time></trkpt><trkpt lat="43.910185" lon="12.6621983"><ele>59.0</ele><time>2026-04-26T07:53:43.938Z</time></trkpt><trkpt lat="43.9102833" lon="12.662165"><ele>59.0</ele><time>2026-04-26T07:53:45.938Z</time></trkpt><trkpt lat="43.9103917" lon="12.66217"><ele>60.2</ele><time>2026-04-26T07:53:47.938Z</time></trkpt><trkpt lat="43.9104533" lon="12.66219"><ele>61.400000000000006</ele><time>2026-04-26T07:53:48.938Z</time></trkpt><trkpt lat="43.9105683" lon="12.6622367"><ele>62.6</ele><time>2026-04-26T07:53:50.938Z</time></trkpt><trkpt lat="43.9106917" lon="12.6622267"><ele>63.8</ele><time>2026-04-26T07:53:52.938Z</time></trkpt><trkpt lat="43.9108067" lon="12.6621733"><ele>65.0</ele><time>2026-04-26T07:53:54.937Z</time></trkpt><trkpt lat="43.9108683" lon="12.6621467"><ele>65.5</ele><time>2026-04-26T07:53:55.938Z</time></trkpt><trkpt lat="43.9109367" lon="12.6621183"><ele>66.0</ele><time>2026-04-26T07:53:56.938Z</time></trkpt><trkpt lat="43.9109967" lon="12.6620667"><ele>66.5</ele><time>2026-04-26T07:53:57.938Z</time></trkpt><trkpt lat="43.9110517" lon="12.6620167"><ele>67.0</ele><time>2026-04-26T07:53:58.938Z</time></trkpt><trkpt lat="43.91114" lon="12.66194"><ele>67.5</ele><time>2026-04-26T07:54:00.938Z</time></trkpt><trkpt lat="43.9111683" lon="12.6618133"><ele>68.0</ele><time>2026-04-26T07:54:03.938Z</time></trkpt><trkpt lat="43.911075" lon="12.6616633"><ele>68.2</ele><time>2026-04-26T07:54:05.938Z</time></trkpt><trkpt lat="43.9110183" lon="12.6615717"><ele>68.4</ele><time>2026-04-26T07:54:06.938Z</time></trkpt><trkpt lat="43.91096" lon="12.6614617"><ele>68.60000000000001</ele><time>2026-04-26T07:54:07.937Z</time></trkpt><trkpt lat="43.9109033" lon="12.6613383"><ele>68.8</ele><time>2026-04-26T07:54:08.938Z</time></trkpt><trkpt lat="43.9108517" lon="12.6612083"><ele>69.0</ele><time>2026-04-26T07:54:09.938Z</time></trkpt><trkpt lat="43.9107967" lon="12.6610783"><ele>69.4</ele><time>2026-04-26T07:54:10.937Z</time></trkpt><trkpt lat="43.9107467" lon="12.6609483"><ele>69.80000000000001</ele><time>2026-04-26T07:54:11.938Z</time></trkpt><trkpt lat="43.9107" lon="12.6608133"><ele>70.19999999999999</ele><time>2026-04-26T07:54:12.937Z</time></trkpt><trkpt lat="43.9106483" lon="12.6606717"><ele>70.6</ele><time>2026-04-26T07:54:13.937Z</time></trkpt><trkpt lat="43.9106067" lon="12.6605183"><ele>71.0</ele><time>2026-04-26T07:54:14.938Z</time></trkpt><trkpt lat="43.91057" lon="12.6603533"><ele>71.25</ele><time>2026-04-26T07:54:15.938Z</time></trkpt><trkpt lat="43.9105317" lon="12.660175"><ele>71.5</ele><time>2026-04-26T07:54:16.937Z</time></trkpt><trkpt lat="43.9105067" lon="12.6599917"><ele>71.75</ele><time>2026-04-26T07:54:17.938Z</time></trkpt><trkpt lat="43.9104983" lon="12.6598067"><ele>72.0</ele><time>2026-04-26T07:54:18.937Z</time></trkpt><trkpt lat="43.9104983" lon="12.6596233"><ele>72.25</ele><time>2026-04-26T07:54:19.937Z</time></trkpt><trkpt lat="43.9105033" lon="12.65944"><ele>72.5</ele><time>2026-04-26T07:54:20.937Z</time></trkpt><trkpt lat="43.9105117" lon="12.6592517"><ele>72.75</ele><time>2026-04-26T07:54:21.936Z</time></trkpt><trkpt lat="43.9105217" lon="12.6590567"><ele>73.0</ele><time>2026-04-26T07:54:22.937Z</time></trkpt><trkpt lat="43.9105333" lon="12.6588583"><ele>73.0</ele><time>2026-04-26T07:54:23.937Z</time></trkpt><trkpt lat="43.910545" lon="12.65866"><ele>73.0</ele><time>2026-04-26T07:54:24.937Z</time></trkpt><trkpt lat="43.910555" lon="12.658465"><ele>73.0</ele><time>2026-04-26T07:54:25.937Z</time></trkpt><trkpt lat="43.9105667" lon="12.6582667"><ele>73.0</ele><time>2026-04-26T07:54:26.937Z</time></trkpt><trkpt lat="43.9105767" lon="12.6580717"><ele>73.75</ele><time>2026-04-26T07:54:27.937Z</time></trkpt><trkpt lat="43.9105833" lon="12.6578817"><ele>74.5</ele><time>2026-04-26T07:54:28.936Z</time></trkpt><trkpt lat="43.9105833" lon="12.6576867"><ele>75.25</ele><time>2026-04-26T07:54:29.937Z</time></trkpt><trkpt lat="43.9105783" lon="12.65749"><ele>76.0</ele><time>2026-04-26T07:54:30.937Z</time></trkpt><trkpt lat="43.9105633" lon="12.6572933"><ele>77.25</ele><time>2026-04-26T07:54:31.937Z</time></trkpt><trkpt lat="43.9105367" lon="12.6570983"><ele>78.5</ele><time>2026-04-26T07:54:32.937Z</time></trkpt><trkpt lat="43.9105017" lon="12.65691"><ele>79.75</ele><time>2026-04-26T07:54:33.937Z</time></trkpt><trkpt lat="43.9104567" lon="12.6567283"><ele>81.0</ele><time>2026-04-26T07:54:34.936Z</time></trkpt><trkpt lat="43.9104033" lon="12.6565483"><ele>82.0</ele><time>2026-04-26T07:54:35.937Z</time></trkpt><trkpt lat="43.9103433" lon="12.65637"><ele>83.0</ele><time>2026-04-26T07:54:36.937Z</time></trkpt><trkpt lat="43.9102817" lon="12.65619"><ele>84.0</ele><time>2026-04-26T07:54:37.937Z</time></trkpt><trkpt lat="43.9102283" lon="12.6560117"><ele>85.0</ele><time>2026-04-26T07:54:38.936Z</time></trkpt><trkpt lat="43.91019" lon="12.655835"><ele>86.75</ele><time>2026-04-26T07:54:39.937Z</time></trkpt><trkpt lat="43.9101817" lon="12.6556533"><ele>88.5</ele><time>2026-04-26T07:54:40.936Z</time></trkpt><trkpt lat="43.910205" lon="12.6554667"><ele>90.25</ele><time>2026-04-26T07:54:41.937Z</time></trkpt><trkpt lat="43.9102417" lon="12.655285"><ele>92.0</ele><time>2026-04-26T07:54:42.936Z</time></trkpt><trkpt lat="43.910285" lon="12.6551083"><ele>93.5</ele><time>2026-04-26T07:54:43.937Z</time></trkpt><trkpt lat="43.9103217" lon="12.6549333"><ele>95.0</ele><time>2026-04-26T07:54:44.937Z</time></trkpt><trkpt lat="43.91036" lon="12.6547633"><ele>96.5</ele><time>2026-04-26T07:54:45.937Z</time></trkpt><trkpt lat="43.9103917" lon="12.654595"><ele>98.0</ele><time>2026-04-26T07:54:46.937Z</time></trkpt><trkpt lat="43.9104233" lon="12.6544367"><ele>98.60000000000001</ele><time>2026-04-26T07:54:47.937Z</time></trkpt><trkpt lat="43.910455" lon="12.654295"><ele>99.2</ele><time>2026-04-26T07:54:48.937Z</time></trkpt><trkpt lat="43.9104817" lon="12.6541733"><ele>99.8</ele><time>2026-04-26T07:54:49.936Z</time></trkpt><trkpt lat="43.910485" lon="12.6540583"><ele>100.4</ele><time>2026-04-26T07:54:50.936Z</time></trkpt><trkpt lat="43.9104517" lon="12.6539433"><ele>101.0</ele><time>2026-04-26T07:54:51.937Z</time></trkpt><trkpt lat="43.9103917" lon="12.6538333"><ele>101.0</ele><time>2026-04-26T07:54:52.937Z</time></trkpt><trkpt lat="43.9103183" lon="12.6537183"><ele>101.0</ele><time>2026-04-26T07:54:53.937Z</time></trkpt><trkpt lat="43.9102417" lon="12.65359"><ele>101.0</ele><time>2026-04-26T07:54:54.937Z</time></trkpt><trkpt lat="43.9101717" lon="12.6534417"><ele>101.0</ele><time>2026-04-26T07:54:55.937Z</time></trkpt><trkpt lat="43.9101" lon="12.6532983"><ele>102.5</ele><time>2026-04-26T07:54:56.937Z</time></trkpt><trkpt lat="43.9100333" lon="12.6531667"><ele>104.0</ele><time>2026-04-26T07:54:57.937Z</time></trkpt><trkpt lat="43.90997" lon="12.653035"><ele>105.5</ele><time>2026-04-26T07:54:58.936Z</time></trkpt><trkpt lat="43.9099" lon="12.6529"><ele>107.0</ele><time>2026-04-26T07:54:59.937Z</time></trkpt><trkpt lat="43.9098283" lon="12.6527567"><ele>107.0</ele><time>2026-04-26T07:55:00.937Z</time></trkpt><trkpt lat="43.9097467" lon="12.652615"><ele>107.0</ele><time>2026-04-26T07:55:01.937Z</time></trkpt><trkpt lat="43.909665" lon="12.6524683"><ele>107.0</ele><time>2026-04-26T07:55:02.936Z</time></trkpt><trkpt lat="43.9095733" lon="12.652335"><ele>107.0</ele><time>2026-04-26T07:55:03.936Z</time></trkpt><trkpt lat="43.9094817" lon="12.6522017"><ele>107.0</ele><time>2026-04-26T07:55:04.937Z</time></trkpt><trkpt lat="43.9093967" lon="12.652065"><ele>107.0</ele><time>2026-04-26T07:55:05.937Z</time></trkpt><trkpt lat="43.9093133" lon="12.651935"><ele>107.0</ele><time>2026-04-26T07:55:06.937Z</time></trkpt><trkpt lat="43.90923" lon="12.6518067"><ele>107.0</ele><time>2026-04-26T07:55:07.936Z</time></trkpt><trkpt lat="43.9091483" lon="12.65167"><ele>108.25</ele><time>2026-04-26T07:55:08.937Z</time></trkpt><trkpt lat="43.909065" lon="12.6515333"><ele>109.5</ele><time>2026-04-26T07:55:09.937Z</time></trkpt><trkpt lat="43.9089767" lon="12.6513933"><ele>110.75</ele><time>2026-04-26T07:55:10.937Z</time></trkpt><trkpt lat="43.9088867" lon="12.6512533"><ele>112.0</ele><time>2026-04-26T07:55:11.937Z</time></trkpt><trkpt lat="43.9087967" lon="12.6511083"><ele>112.0</ele><time>2026-04-26T07:55:12.937Z</time></trkpt><trkpt lat="43.908705" lon="12.6509633"><ele>112.0</ele><time>2026-04-26T07:55:13.937Z</time></trkpt><trkpt lat="43.9086117" lon="12.650815"><ele>112.0</ele><time>2026-04-26T07:55:14.937Z</time></trkpt><trkpt lat="43.9085183" lon="12.6506667"><ele>112.0</ele><time>2026-04-26T07:55:15.936Z</time></trkpt><trkpt lat="43.9084267" lon="12.6505167"><ele>113.25</ele><time>2026-04-26T07:55:16.937Z</time></trkpt><trkpt lat="43.908335" lon="12.6503617"><ele>114.5</ele><time>2026-04-26T07:55:17.937Z</time></trkpt><trkpt lat="43.9082467" lon="12.6502017"><ele>115.75</ele><time>2026-04-26T07:55:18.936Z</time></trkpt><trkpt lat="43.9081633" lon="12.6500383"><ele>117.0</ele><time>2026-04-26T07:55:19.937Z</time></trkpt><trkpt lat="43.9080867" lon="12.6498717"><ele>117.75</ele><time>2026-04-26T07:55:20.937Z</time></trkpt><trkpt lat="43.9080133" lon="12.6497017"><ele>118.5</ele><time>2026-04-26T07:55:21.937Z</time></trkpt><trkpt lat="43.9079417" lon="12.64953"><ele>119.25</ele><time>2026-04-26T07:55:22.937Z</time></trkpt><trkpt lat="43.9078683" lon="12.649355"><ele>120.0</ele><time>2026-04-26T07:55:23.936Z</time></trkpt><trkpt lat="43.907795" lon="12.6491783"><ele>120.0</ele><time>2026-04-26T07:55:24.937Z</time></trkpt><trkpt lat="43.90772" lon="12.6490033"><ele>120.0</ele><time>2026-04-26T07:55:25.937Z</time></trkpt><trkpt lat="43.90765" lon="12.64883"><ele>120.0</ele><time>2026-04-26T07:55:26.936Z</time></trkpt><trkpt lat="43.90758" lon="12.6486617"><ele>120.0</ele><time>2026-04-26T07:55:27.937Z</time></trkpt><trkpt lat="43.9075133" lon="12.648505"><ele>121.75</ele><time>2026-04-26T07:55:28.937Z</time></trkpt><trkpt lat="43.907445" lon="12.6483517"><ele>123.5</ele><time>2026-04-26T07:55:29.937Z</time></trkpt><trkpt lat="43.9073783" lon="12.6482"><ele>125.25</ele><time>2026-04-26T07:55:30.937Z</time></trkpt><trkpt lat="43.9073133" lon="12.6480467"><ele>127.0</ele><time>2026-04-26T07:55:31.937Z</time></trkpt><trkpt lat="43.9072483" lon="12.64789"><ele>126.5</ele><time>2026-04-26T07:55:32.937Z</time></trkpt><trkpt lat="43.9071867" lon="12.6477267"><ele>126.0</ele><time>2026-04-26T07:55:33.937Z</time></trkpt><trkpt lat="43.9071283" lon="12.6475567"><ele>125.5</ele><time>2026-04-26T07:55:34.937Z</time></trkpt><trkpt lat="43.90707" lon="12.6473783"><ele>125.0</ele><time>2026-04-26T07:55:35.937Z</time></trkpt><trkpt lat="43.9070133" lon="12.6471983"><ele>125.0</ele><time>2026-04-26T07:55:36.937Z</time></trkpt><trkpt lat="43.9069567" lon="12.64702"><ele>125.0</ele><time>2026-04-26T07:55:37.937Z</time></trkpt><trkpt lat="43.9068983" lon="12.6468433"><ele>125.0</ele><time>2026-04-26T07:55:38.937Z</time></trkpt><trkpt lat="43.9068383" lon="12.6466617"><ele>125.0</ele><time>2026-04-26T07:55:39.936Z</time></trkpt><trkpt lat="43.9067783" lon="12.646475"><ele>123.66666666666666</ele><time>2026-04-26T07:55:40.936Z</time></trkpt><trkpt lat="43.90672" lon="12.646285"><ele>122.33333333333334</ele><time>2026-04-26T07:55:41.937Z</time></trkpt><trkpt lat="43.9066583" lon="12.6460933"><ele>121.0</ele><time>2026-04-26T07:55:42.937Z</time></trkpt><trkpt lat="43.9065917" lon="12.6459033"><ele>119.75</ele><time>2026-04-26T07:55:43.936Z</time></trkpt><trkpt lat="43.9065217" lon="12.6457233"><ele>118.5</ele><time>2026-04-26T07:55:44.936Z</time></trkpt><trkpt lat="43.906445" lon="12.6455617"><ele>117.25</ele><time>2026-04-26T07:55:45.937Z</time></trkpt><trkpt lat="43.9063633" lon="12.6454133"><ele>116.0</ele><time>2026-04-26T07:55:46.937Z</time></trkpt><trkpt lat="43.906285" lon="12.6452717"><ele>115.0</ele><time>2026-04-26T07:55:47.937Z</time></trkpt><trkpt lat="43.9062133" lon="12.6451367"><ele>114.0</ele><time>2026-04-26T07:55:48.937Z</time></trkpt><trkpt lat="43.9061583" lon="12.6450117"><ele>113.0</ele><time>2026-04-26T07:55:49.937Z</time></trkpt><trkpt lat="43.906125" lon="12.6448883"><ele>112.0</ele><time>2026-04-26T07:55:50.937Z</time></trkpt><trkpt lat="43.9061233" lon="12.6447617"><ele>111.0</ele><time>2026-04-26T07:55:51.937Z</time></trkpt><trkpt lat="43.90614" lon="12.6446367"><ele>111.0</ele><time>2026-04-26T07:55:52.936Z</time></trkpt><trkpt lat="43.9061683" lon="12.644515"><ele>111.0</ele><time>2026-04-26T07:55:53.937Z</time></trkpt><trkpt lat="43.9062" lon="12.6444017"><ele>111.0</ele><time>2026-04-26T07:55:54.936Z</time></trkpt><trkpt lat="43.9062333" lon="12.6442917"><ele>111.0</ele><time>2026-04-26T07:55:55.937Z</time></trkpt><trkpt lat="43.9062617" lon="12.644185"><ele>111.0</ele><time>2026-04-26T07:55:56.936Z</time></trkpt><trkpt lat="43.906285" lon="12.6440833"><ele>111.0</ele><time>2026-04-26T07:55:57.937Z</time></trkpt><trkpt lat="43.9063" lon="12.6439867"><ele>109.66666666666667</ele><time>2026-04-26T07:55:58.937Z</time></trkpt><trkpt lat="43.906315" lon="12.6439017"><ele>108.33333333333334</ele><time>2026-04-26T07:55:59.936Z</time></trkpt><trkpt lat="43.9063433" lon="12.6437983"><ele>107.0</ele><time>2026-04-26T07:56:01.937Z</time></trkpt><trkpt lat="43.906305" lon="12.64371"><ele>105.66666666666667</ele><time>2026-04-26T07:56:06.936Z</time></trkpt><trkpt lat="43.906205" lon="12.64365"><ele>104.33333333333334</ele><time>2026-04-26T07:56:08.937Z</time></trkpt><trkpt lat="43.90612" lon="12.6436283"><ele>103.0</ele><time>2026-04-26T07:56:09.937Z</time></trkpt><trkpt lat="43.9060317" lon="12.6436067"><ele>102.83333333333334</ele><time>2026-04-26T07:56:10.937Z</time></trkpt><trkpt lat="43.9059517" lon="12.64358"><ele>102.66666666666667</ele><time>2026-04-26T07:56:11.937Z</time></trkpt><trkpt lat="43.90588" lon="12.6435567"><ele>102.5</ele><time>2026-04-26T07:56:12.936Z</time></trkpt><trkpt lat="43.9057833" lon="12.6435267"><ele>102.33333333333334</ele><time>2026-04-26T07:56:14.937Z</time></trkpt><trkpt lat="43.905705" lon="12.6434917"><ele>102.16666666666667</ele><time>2026-04-26T07:56:17.937Z</time></trkpt><trkpt lat="43.905635" lon="12.643465"><ele>102.0</ele><time>2026-04-26T07:56:21.936Z</time></trkpt><trkpt lat="43.9055283" lon="12.6434433"><ele>102.0</ele><time>2026-04-26T07:56:41.937Z</time></trkpt><trkpt lat="43.9054083" lon="12.64341"><ele>102.0</ele><time>2026-04-26T07:56:43.937Z</time></trkpt><trkpt lat="43.90534" lon="12.6433867"><ele>102.0</ele><time>2026-04-26T07:56:44.937Z</time></trkpt><trkpt lat="43.9052733" lon="12.6433683"><ele>102.0</ele><time>2026-04-26T07:56:45.937Z</time></trkpt><trkpt lat="43.90518" lon="12.643365"><ele>102.0</ele><time>2026-04-26T07:56:47.937Z</time></trkpt><trkpt lat="43.9050967" lon="12.6433867"><ele>102.0</ele><time>2026-04-26T07:56:50.937Z</time></trkpt><trkpt lat="43.9050333" lon="12.6434233"><ele>103.5</ele><time>2026-04-26T07:56:53.937Z</time></trkpt><trkpt lat="43.9049633" lon="12.6435067"><ele>105.0</ele><time>2026-04-26T07:57:00.937Z</time></trkpt><trkpt lat="43.9049017" lon="12.6436317"><ele>106.5</ele><time>2026-04-26T07:57:02.937Z</time></trkpt><trkpt lat="43.9048717" lon="12.6437183"><ele>108.0</ele><time>2026-04-26T07:57:03.937Z</time></trkpt><trkpt lat="43.9048483" lon="12.6438133"><ele>109.5</ele><time>2026-04-26T07:57:04.937Z</time></trkpt><trkpt lat="43.9048267" lon="12.6439067"><ele>111.0</ele><time>2026-04-26T07:57:05.937Z</time></trkpt><trkpt lat="43.904795" lon="12.6439933"><ele>111.28571428571428</ele><time>2026-04-26T07:57:06.937Z</time></trkpt><trkpt lat="43.90475" lon="12.64407"><ele>111.57142857142858</ele><time>2026-04-26T07:57:07.937Z</time></trkpt><trkpt lat="43.9046867" lon="12.6441167"><ele>111.85714285714286</ele><time>2026-04-26T07:57:08.937Z</time></trkpt><trkpt lat="43.9046133" lon="12.6441067"><ele>112.14285714285714</ele><time>2026-04-26T07:57:09.937Z</time></trkpt><trkpt lat="43.90454" lon="12.64407"><ele>112.42857142857142</ele><time>2026-04-26T07:57:10.937Z</time></trkpt><trkpt lat="43.90447" lon="12.6440283"><ele>112.71428571428572</ele><time>2026-04-26T07:57:11.937Z</time></trkpt><trkpt lat="43.9044167" lon="12.6439783"><ele>113.0</ele><time>2026-04-26T07:57:12.937Z</time></trkpt><trkpt lat="43.9043267" lon="12.6439267"><ele>112.99999999999999</ele><time>2026-04-26T07:57:14.937Z</time></trkpt><trkpt lat="43.90425" lon="12.64402"><ele>113.0</ele><time>2026-04-26T07:57:16.937Z</time></trkpt><trkpt lat="43.9042317" lon="12.64411"><ele>113.0</ele><time>2026-04-26T07:57:17.937Z</time></trkpt><trkpt lat="43.904205" lon="12.6442033"><ele>113.0</ele><time>2026-04-26T07:57:18.937Z</time></trkpt><trkpt lat="43.90418" lon="12.6443183"><ele>112.99999999999999</ele><time>2026-04-26T07:57:19.937Z</time></trkpt><trkpt lat="43.904155" lon="12.6444467"><ele>113.0</ele><time>2026-04-26T07:57:20.937Z</time></trkpt><trkpt lat="43.9041233" lon="12.6445767"><ele>113.66666666666666</ele><time>2026-04-26T07:57:21.937Z</time></trkpt><trkpt lat="43.90409" lon="12.6446983"><ele>114.33333333333333</ele><time>2026-04-26T07:57:22.937Z</time></trkpt><trkpt lat="43.9040583" lon="12.6448117"><ele>115.0</ele><time>2026-04-26T07:57:23.937Z</time></trkpt><trkpt lat="43.9040317" lon="12.6449133"><ele>115.66666666666666</ele><time>2026-04-26T07:57:24.936Z</time></trkpt><trkpt lat="43.904015" lon="12.6450017"><ele>116.33333333333333</ele><time>2026-04-26T07:57:25.937Z</time></trkpt><trkpt lat="43.903995" lon="12.6450933"><ele>117.0</ele><time>2026-04-26T07:57:27.937Z</time></trkpt><trkpt lat="43.9040433" lon="12.6450367"><ele>117.0</ele><time>2026-04-26T07:57:30.937Z</time></trkpt><trkpt lat="43.9040867" lon="12.6448767"><ele>116.99999999999999</ele><time>2026-04-26T07:57:32.937Z</time></trkpt><trkpt lat="43.904115" lon="12.6447667"><ele>116.99999999999999</ele><time>2026-04-26T07:57:33.936Z</time></trkpt><trkpt lat="43.9041433" lon="12.6446383"><ele>117.0</ele><time>2026-04-26T07:57:34.937Z</time></trkpt><trkpt lat="43.9041717" lon="12.64451"><ele>117.0</ele><time>2026-04-26T07:57:35.937Z</time></trkpt><trkpt lat="43.9042033" lon="12.64439"><ele>117.16666666666667</ele><time>2026-04-26T07:57:36.937Z</time></trkpt><trkpt lat="43.9042333" lon="12.6442867"><ele>117.33333333333334</ele><time>2026-04-26T07:57:37.937Z</time></trkpt><trkpt lat="43.9042683" lon="12.6442067"><ele>117.5</ele><time>2026-04-26T07:57:38.936Z</time></trkpt><trkpt lat="43.9043317" lon="12.644085"><ele>117.66666666666667</ele><time>2026-04-26T07:57:40.937Z</time></trkpt><trkpt lat="43.9043617" lon="12.643955"><ele>117.83333333333334</ele><time>2026-04-26T07:57:42.937Z</time></trkpt><trkpt lat="43.9043517" lon="12.6438567"><ele>118.0</ele><time>2026-04-26T07:57:43.937Z</time></trkpt><trkpt lat="43.9043167" lon="12.6437483"><ele>118.2</ele><time>2026-04-26T07:57:44.936Z</time></trkpt><trkpt lat="43.9042783" lon="12.64363"><ele>118.4</ele><time>2026-04-26T07:57:45.937Z</time></trkpt><trkpt lat="43.904235" lon="12.643505"><ele>118.60000000000001</ele><time>2026-04-26T07:57:46.936Z</time></trkpt><trkpt lat="43.9041883" lon="12.6433717"><ele>118.80000000000001</ele><time>2026-04-26T07:57:47.937Z</time></trkpt><trkpt lat="43.9041417" lon="12.6432367"><ele>119.0</ele><time>2026-04-26T07:57:48.937Z</time></trkpt><trkpt lat="43.904095" lon="12.6431033"><ele>119.0</ele><time>2026-04-26T07:57:49.937Z</time></trkpt><trkpt lat="43.9040467" lon="12.6429683"><ele>119.0</ele><time>2026-04-26T07:57:50.937Z</time></trkpt><trkpt lat="43.904" lon="12.6428317"><ele>119.0</ele><time>2026-04-26T07:57:51.936Z</time></trkpt><trkpt lat="43.9039533" lon="12.6426917"><ele>119.0</ele><time>2026-04-26T07:57:52.937Z</time></trkpt><trkpt lat="43.903905" lon="12.6425467"><ele>119.0</ele><time>2026-04-26T07:57:53.937Z</time></trkpt><trkpt lat="43.9038567" lon="12.6423983"><ele>118.6</ele><time>2026-04-26T07:57:54.937Z</time></trkpt><trkpt lat="43.9038083" lon="12.6422583"><ele>118.2</ele><time>2026-04-26T07:57:55.937Z</time></trkpt><trkpt lat="43.9037517" lon="12.6421317"><ele>117.79999999999998</ele><time>2026-04-26T07:57:56.936Z</time></trkpt><trkpt lat="43.9036817" lon="12.6420317"><ele>117.39999999999999</ele><time>2026-04-26T07:57:57.937Z</time></trkpt><trkpt lat="43.9036" lon="12.6419817"><ele>117.0</ele><time>2026-04-26T07:57:58.937Z</time></trkpt><trkpt lat="43.9035217" lon="12.6419883"><ele>117.0</ele><time>2026-04-26T07:57:59.937Z</time></trkpt><trkpt lat="43.9034533" lon="12.6420483"><ele>116.99999999999999</ele><time>2026-04-26T07:58:00.937Z</time></trkpt><trkpt lat="43.903395" lon="12.6421483"><ele>116.99999999999999</ele><time>2026-04-26T07:58:01.937Z</time></trkpt><trkpt lat="43.9033667" lon="12.6422833"><ele>117.0</ele><time>2026-04-26T07:58:02.937Z</time></trkpt><trkpt lat="43.9033567" lon="12.6424333"><ele>117.0</ele><time>2026-04-26T07:58:03.937Z</time></trkpt><trkpt lat="43.9033433" lon="12.6425867"><ele>118.75</ele><time>2026-04-26T07:58:04.937Z</time></trkpt><trkpt lat="43.9033217" lon="12.64274"><ele>120.5</ele><time>2026-04-26T07:58:05.937Z</time></trkpt><trkpt lat="43.90329" lon="12.6428967"><ele>122.25</ele><time>2026-04-26T07:58:06.937Z</time></trkpt><trkpt lat="43.903245" lon="12.643055"><ele>124.0</ele><time>2026-04-26T07:58:07.937Z</time></trkpt><trkpt lat="43.9031833" lon="12.6432067"><ele>124.75</ele><time>2026-04-26T07:58:08.936Z</time></trkpt><trkpt lat="43.90311" lon="12.6433533"><ele>125.5</ele><time>2026-04-26T07:58:09.937Z</time></trkpt><trkpt lat="43.9030383" lon="12.6435"><ele>126.25</ele><time>2026-04-26T07:58:10.936Z</time></trkpt><trkpt lat="43.9029683" lon="12.6436517"><ele>127.0</ele><time>2026-04-26T07:58:11.937Z</time></trkpt><trkpt lat="43.9028967" lon="12.64381"><ele>127.0</ele><time>2026-04-26T07:58:12.937Z</time></trkpt><trkpt lat="43.9028217" lon="12.6439783"><ele>127.0</ele><time>2026-04-26T07:58:13.937Z</time></trkpt><trkpt lat="43.9027467" lon="12.644155"><ele>127.0</ele><time>2026-04-26T07:58:14.937Z</time></trkpt><trkpt lat="43.90267" lon="12.6443317"><ele>127.0</ele><time>2026-04-26T07:58:15.937Z</time></trkpt><trkpt lat="43.9025933" lon="12.6445083"><ele>129.5</ele><time>2026-04-26T07:58:16.937Z</time></trkpt><trkpt lat="43.90252" lon="12.6446833"><ele>132.0</ele><time>2026-04-26T07:58:17.937Z</time></trkpt><trkpt lat="43.902445" lon="12.6448583"><ele>134.5</ele><time>2026-04-26T07:58:18.937Z</time></trkpt><trkpt lat="43.9023717" lon="12.6450367"><ele>137.0</ele><time>2026-04-26T07:58:19.937Z</time></trkpt><trkpt lat="43.902295" lon="12.6452133"><ele>136.25</ele><time>2026-04-26T07:58:20.937Z</time></trkpt><trkpt lat="43.9022217" lon="12.6453917"><ele>135.5</ele><time>2026-04-26T07:58:21.937Z</time></trkpt><trkpt lat="43.9021467" lon="12.6455583"><ele>134.75</ele><time>2026-04-26T07:58:22.937Z</time></trkpt><trkpt lat="43.9020667" lon="12.6456967"><ele>134.0</ele><time>2026-04-26T07:58:23.937Z</time></trkpt><trkpt lat="43.901975" lon="12.6457783"><ele>134.0</ele><time>2026-04-26T07:58:24.937Z</time></trkpt><trkpt lat="43.9018817" lon="12.6457817"><ele>134.0</ele><time>2026-04-26T07:58:25.937Z</time></trkpt><trkpt lat="43.9018017" lon="12.6457217"><ele>134.0</ele><time>2026-04-26T07:58:26.937Z</time></trkpt><trkpt lat="43.9017433" lon="12.645625"><ele>134.0</ele><time>2026-04-26T07:58:27.937Z</time></trkpt><trkpt lat="43.901705" lon="12.64551"><ele>134.0</ele><time>2026-04-26T07:58:28.937Z</time></trkpt><trkpt lat="43.9017233" lon="12.6453433"><ele>134.75</ele><time>2026-04-26T07:58:29.937Z</time></trkpt><trkpt lat="43.9017533" lon="12.6451667"><ele>135.5</ele><time>2026-04-26T07:58:30.937Z</time></trkpt><trkpt lat="43.9017733" lon="12.644975"><ele>136.25</ele><time>2026-04-26T07:58:31.937Z</time></trkpt><trkpt lat="43.90179" lon="12.6447783"><ele>137.0</ele><time>2026-04-26T07:58:32.937Z</time></trkpt><trkpt lat="43.9018033" lon="12.644585"><ele>137.5</ele><time>2026-04-26T07:58:33.937Z</time></trkpt><trkpt lat="43.9018183" lon="12.64439"><ele>138.0</ele><time>2026-04-26T07:58:34.937Z</time></trkpt><trkpt lat="43.901835" lon="12.64419"><ele>138.5</ele><time>2026-04-26T07:58:35.937Z</time></trkpt><trkpt lat="43.9018517" lon="12.64399"><ele>139.0</ele><time>2026-04-26T07:58:36.937Z</time></trkpt><trkpt lat="43.9018567" lon="12.64379"><ele>139.25</ele><time>2026-04-26T07:58:37.937Z</time></trkpt><trkpt lat="43.9018617" lon="12.6435967"><ele>139.5</ele><time>2026-04-26T07:58:38.937Z</time></trkpt><trkpt lat="43.901835" lon="12.6434083"><ele>139.75</ele><time>2026-04-26T07:58:39.937Z</time></trkpt><trkpt lat="43.90178" lon="12.643225"><ele>140.0</ele><time>2026-04-26T07:58:40.937Z</time></trkpt><trkpt lat="43.9017017" lon="12.643055"><ele>144.33333333333331</ele><time>2026-04-26T07:58:41.936Z</time></trkpt><trkpt lat="43.9016033" lon="12.6428983"><ele>148.66666666666666</ele><time>2026-04-26T07:58:42.937Z</time></trkpt><trkpt lat="43.9015017" lon="12.6427383"><ele>153.0</ele><time>2026-04-26T07:58:43.937Z</time></trkpt><trkpt lat="43.9014083" lon="12.64257"><ele>153.0</ele><time>2026-04-26T07:58:44.937Z</time></trkpt><trkpt lat="43.9013333" lon="12.6423833"><ele>153.0</ele><time>2026-04-26T07:58:45.937Z</time></trkpt><trkpt lat="43.901275" lon="12.642185"><ele>153.0</ele><time>2026-04-26T07:58:46.936Z</time></trkpt><trkpt lat="43.9012217" lon="12.6419867"><ele>153.25</ele><time>2026-04-26T07:58:47.937Z</time></trkpt><trkpt lat="43.9011633" lon="12.641795"><ele>153.5</ele><time>2026-04-26T07:58:48.936Z</time></trkpt><trkpt lat="43.9010983" lon="12.64161"><ele>153.75</ele><time>2026-04-26T07:58:49.937Z</time></trkpt><trkpt lat="43.9010217" lon="12.64143"><ele>154.0</ele><time>2026-04-26T07:58:50.937Z</time></trkpt><trkpt lat="43.9009267" lon="12.641265"><ele>158.66666666666669</ele><time>2026-04-26T07:58:51.937Z</time></trkpt><trkpt lat="43.9008133" lon="12.6411167"><ele>163.33333333333334</ele><time>2026-04-26T07:58:52.937Z</time></trkpt><trkpt lat="43.900705" lon="12.6409633"><ele>168.0</ele><time>2026-04-26T07:58:53.937Z</time></trkpt><trkpt lat="43.9006217" lon="12.64079"><ele>168.0</ele><time>2026-04-26T07:58:54.937Z</time></trkpt><trkpt lat="43.900565" lon="12.6406"><ele>168.0</ele><time>2026-04-26T07:58:55.937Z</time></trkpt><trkpt lat="43.9005283" lon="12.6403933"><ele>168.0</ele><time>2026-04-26T07:58:56.937Z</time></trkpt><trkpt lat="43.9004917" lon="12.640185"><ele>169.0</ele><time>2026-04-26T07:58:57.937Z</time></trkpt><trkpt lat="43.9004567" lon="12.6399733"><ele>170.0</ele><time>2026-04-26T07:58:58.936Z</time></trkpt><trkpt lat="43.9004233" lon="12.6397617"><ele>171.0</ele><time>2026-04-26T07:58:59.936Z</time></trkpt><trkpt lat="43.900385" lon="12.639545"><ele>169.66666666666666</ele><time>2026-04-26T07:59:00.937Z</time></trkpt><trkpt lat="43.9003533" lon="12.639325"><ele>168.33333333333331</ele><time>2026-04-26T07:59:01.937Z</time></trkpt><trkpt lat="43.900335" lon="12.6391017"><ele>167.0</ele><time>2026-04-26T07:59:02.937Z</time></trkpt><trkpt lat="43.90032" lon="12.6388783"><ele>167.0</ele><time>2026-04-26T07:59:03.937Z</time></trkpt><trkpt lat="43.9003033" lon="12.6386567"><ele>167.0</ele><time>2026-04-26T07:59:04.937Z</time></trkpt><trkpt lat="43.90028" lon="12.6384367"><ele>167.0</ele><time>2026-04-26T07:59:05.936Z</time></trkpt><trkpt lat="43.9002367" lon="12.638225"><ele>165.33333333333331</ele><time>2026-04-26T07:59:06.937Z</time></trkpt><trkpt lat="43.9001683" lon="12.6380267"><ele>163.66666666666666</ele><time>2026-04-26T07:59:07.936Z</time></trkpt><trkpt lat="43.90008" lon="12.6378467"><ele>162.0</ele><time>2026-04-26T07:59:08.936Z</time></trkpt><trkpt lat="43.8999883" lon="12.6376767"><ele>166.0</ele><time>2026-04-26T07:59:09.937Z</time></trkpt><trkpt lat="43.8999" lon="12.6375167"><ele>170.0</ele><time>2026-04-26T07:59:10.937Z</time></trkpt><trkpt lat="43.8998183" lon="12.637365"><ele>174.0</ele><time>2026-04-26T07:59:11.937Z</time></trkpt><trkpt lat="43.8997383" lon="12.6372317"><ele>178.0</ele><time>2026-04-26T07:59:12.937Z</time></trkpt><trkpt lat="43.8996483" lon="12.6371333"><ele>178.0</ele><time>2026-04-26T07:59:13.937Z</time></trkpt><trkpt lat="43.8995533" lon="12.6370917"><ele>178.0</ele><time>2026-04-26T07:59:14.936Z</time></trkpt><trkpt lat="43.899455" lon="12.6371117"><ele>178.0</ele><time>2026-04-26T07:59:15.937Z</time></trkpt><trkpt lat="43.8993567" lon="12.6371867"><ele>178.0</ele><time>2026-04-26T07:59:16.937Z</time></trkpt><trkpt lat="43.8992483" lon="12.637265"><ele>178.0</ele><time>2026-04-26T07:59:17.936Z</time></trkpt><trkpt lat="43.8991217" lon="12.637315"><ele>179.75</ele><time>2026-04-26T07:59:18.936Z</time></trkpt><trkpt lat="43.8989783" lon="12.6373133"><ele>181.5</ele><time>2026-04-26T07:59:19.937Z</time></trkpt><trkpt lat="43.89884" lon="12.63728"><ele>183.25</ele><time>2026-04-26T07:59:20.937Z</time></trkpt><trkpt lat="43.8987183" lon="12.637235"><ele>185.0</ele><time>2026-04-26T07:59:21.937Z</time></trkpt><trkpt lat="43.8986283" lon="12.6371467"><ele>185.0</ele><time>2026-04-26T07:59:22.937Z</time></trkpt><trkpt lat="43.8985767" lon="12.63702"><ele>185.0</ele><time>2026-04-26T07:59:23.936Z</time></trkpt><trkpt lat="43.8985533" lon="12.636865"><ele>185.0</ele><time>2026-04-26T07:59:24.937Z</time></trkpt><trkpt lat="43.8985183" lon="12.6367083"><ele>185.0</ele><time>2026-04-26T07:59:25.937Z</time></trkpt><trkpt lat="43.8984417" lon="12.6365733"><ele>187.0</ele><time>2026-04-26T07:59:26.937Z</time></trkpt><trkpt lat="43.8983433" lon="12.636455"><ele>189.0</ele><time>2026-04-26T07:59:27.937Z</time></trkpt><trkpt lat="43.8982317" lon="12.6363467"><ele>191.0</ele><time>2026-04-26T07:59:28.937Z</time></trkpt><trkpt lat="43.89812" lon="12.63623"><ele>193.0</ele><time>2026-04-26T07:59:29.936Z</time></trkpt><trkpt lat="43.898025" lon="12.6360867"><ele>194.5</ele><time>2026-04-26T07:59:30.937Z</time></trkpt><trkpt lat="43.8979267" lon="12.6359483"><ele>196.0</ele><time>2026-04-26T07:59:31.936Z</time></trkpt><trkpt lat="43.897815" lon="12.6358367"><ele>197.5</ele><time>2026-04-26T07:59:32.937Z</time></trkpt><trkpt lat="43.897685" lon="12.6357733"><ele>199.0</ele><time>2026-04-26T07:59:33.937Z</time></trkpt><trkpt lat="43.8975433" lon="12.6357633"><ele>200.0</ele><time>2026-04-26T07:59:34.937Z</time></trkpt><trkpt lat="43.8973917" lon="12.6357717"><ele>201.0</ele><time>2026-04-26T07:59:35.937Z</time></trkpt><trkpt lat="43.8972417" lon="12.6357633"><ele>202.0</ele><time>2026-04-26T07:59:36.937Z</time></trkpt><trkpt lat="43.897095" lon="12.635725"><ele>202.0</ele><time>2026-04-26T07:59:37.936Z</time></trkpt><trkpt lat="43.8969567" lon="12.6356533"><ele>202.0</ele><time>2026-04-26T07:59:38.936Z</time></trkpt><trkpt lat="43.8968217" lon="12.635575"><ele>202.0</ele><time>2026-04-26T07:59:39.937Z</time></trkpt><trkpt lat="43.896685" lon="12.6355333"><ele>202.0</ele><time>2026-04-26T07:59:40.936Z</time></trkpt><trkpt lat="43.8965517" lon="12.6355283"><ele>202.6</ele><time>2026-04-26T07:59:41.937Z</time></trkpt><trkpt lat="43.89643" lon="12.63555"><ele>203.2</ele><time>2026-04-26T07:59:42.937Z</time></trkpt><trkpt lat="43.8963233" lon="12.6355933"><ele>203.8</ele><time>2026-04-26T07:59:43.937Z</time></trkpt><trkpt lat="43.89623" lon="12.63565"><ele>204.4</ele><time>2026-04-26T07:59:44.937Z</time></trkpt><trkpt lat="43.896155" lon="12.63572"><ele>205.0</ele><time>2026-04-26T07:59:45.937Z</time></trkpt><trkpt lat="43.8960917" lon="12.6357767"><ele>204.99999999999997</ele><time>2026-04-26T07:59:46.937Z</time></trkpt><trkpt lat="43.8960333" lon="12.6358367"><ele>205.0</ele><time>2026-04-26T07:59:48.936Z</time></trkpt><trkpt lat="43.8959767" lon="12.6359367"><ele>205.0</ele><time>2026-04-26T08:00:15.937Z</time></trkpt><trkpt lat="43.8959267" lon="12.6360117"><ele>205.0</ele><time>2026-04-26T08:00:17.937Z</time></trkpt><trkpt lat="43.8958717" lon="12.6360983"><ele>204.99999999999997</ele><time>2026-04-26T08:00:19.937Z</time></trkpt><trkpt lat="43.89581" lon="12.6362033"><ele>205.0</ele><time>2026-04-26T08:00:21.937Z</time></trkpt><trkpt lat="43.8957217" lon="12.6363033"><ele>205.0</ele><time>2026-04-26T08:00:23.937Z</time></trkpt><trkpt lat="43.8956633" lon="12.6363433"><ele>205.0</ele><time>2026-04-26T08:00:24.937Z</time></trkpt><trkpt lat="43.8956" lon="12.6363633"><ele>205.0</ele><time>2026-04-26T08:00:25.937Z</time></trkpt><trkpt lat="43.8955333" lon="12.63636"><ele>205.0</ele><time>2026-04-26T08:00:26.937Z</time></trkpt><trkpt lat="43.8954717" lon="12.63634"><ele>205.0</ele><time>2026-04-26T08:00:27.937Z</time></trkpt><trkpt lat="43.8953567" lon="12.6362783"><ele>205.0</ele><time>2026-04-26T08:00:29.937Z</time></trkpt><trkpt lat="43.8953" lon="12.6362383"><ele>205.0</ele><time>2026-04-26T08:00:30.936Z</time></trkpt><trkpt lat="43.8952433" lon="12.6361983"><ele>205.0</ele><time>2026-04-26T08:00:31.937Z</time></trkpt><trkpt lat="43.895145" lon="12.6361383"><ele>205.0</ele><time>2026-04-26T08:00:33.936Z</time></trkpt><trkpt lat="43.89509" lon="12.6360883"><ele>205.0</ele><time>2026-04-26T08:00:35.936Z</time></trkpt><trkpt lat="43.8951683" lon="12.6360367"><ele>205.0</ele><time>2026-04-26T08:00:39.937Z</time></trkpt><trkpt lat="43.8952417" lon="12.6359383"><ele>205.0</ele><time>2026-04-26T08:00:48.937Z</time></trkpt><trkpt lat="43.8953317" lon="12.6358467"><ele>207.0</ele><time>2026-04-26T08:00:50.937Z</time></trkpt><trkpt lat="43.89538" lon="12.6357783"><ele>209.0</ele><time>2026-04-26T08:00:51.936Z</time></trkpt><trkpt lat="43.8954233" lon="12.6357083"><ele>211.0</ele><time>2026-04-26T08:00:52.937Z</time></trkpt><trkpt lat="43.8954683" lon="12.6356417"><ele>213.0</ele><time>2026-04-26T08:00:53.937Z</time></trkpt><trkpt lat="43.8955067" lon="12.6355617"><ele>215.0</ele><time>2026-04-26T08:00:54.937Z</time></trkpt><trkpt lat="43.8955317" lon="12.6354667"><ele>217.0</ele><time>2026-04-26T08:00:55.937Z</time></trkpt><trkpt lat="43.8955417" lon="12.6353567"><ele>219.0</ele><time>2026-04-26T08:00:56.937Z</time></trkpt><trkpt lat="43.8955533" lon="12.6352483"><ele>221.0</ele><time>2026-04-26T08:00:57.937Z</time></trkpt><trkpt lat="43.8955617" lon="12.6351283"><ele>222.99999999999997</ele><time>2026-04-26T08:00:58.937Z</time></trkpt><trkpt lat="43.8955767" lon="12.6349967"><ele>224.99999999999997</ele><time>2026-04-26T08:00:59.937Z</time></trkpt><trkpt lat="43.8956017" lon="12.6348617"><ele>227.0</ele><time>2026-04-26T08:01:00.937Z</time></trkpt><trkpt lat="43.8956367" lon="12.6347317"><ele>229.0</ele><time>2026-04-26T08:01:01.937Z</time></trkpt><trkpt lat="43.8956683" lon="12.634605"><ele>229.0</ele><time>2026-04-26T08:01:02.937Z</time></trkpt><trkpt lat="43.8957017" lon="12.6344733"><ele>228.99999999999997</ele><time>2026-04-26T08:01:03.937Z</time></trkpt><trkpt lat="43.8957383" lon="12.6343383"><ele>228.99999999999997</ele><time>2026-04-26T08:01:04.937Z</time></trkpt><trkpt lat="43.8957817" lon="12.6342033"><ele>229.0</ele><time>2026-04-26T08:01:05.937Z</time></trkpt><trkpt lat="43.8958233" lon="12.6340667"><ele>229.0</ele><time>2026-04-26T08:01:06.936Z</time></trkpt><trkpt lat="43.895855" lon="12.6339217"><ele>231.5</ele><time>2026-04-26T08:01:07.937Z</time></trkpt><trkpt lat="43.8958833" lon="12.6337683"><ele>234.0</ele><time>2026-04-26T08:01:08.937Z</time></trkpt><trkpt lat="43.895895" lon="12.633605"><ele>236.5</ele><time>2026-04-26T08:01:09.937Z</time></trkpt><trkpt lat="43.8958933" lon="12.6334483"><ele>239.0</ele><time>2026-04-26T08:01:10.937Z</time></trkpt><trkpt lat="43.895885" lon="12.6333033"><ele>239.50000000000003</ele><time>2026-04-26T08:01:11.937Z</time></trkpt><trkpt lat="43.8958767" lon="12.633175"><ele>240.0</ele><time>2026-04-26T08:01:12.937Z</time></trkpt><trkpt lat="43.895865" lon="12.6330567"><ele>240.5</ele><time>2026-04-26T08:01:13.936Z</time></trkpt><trkpt lat="43.8958567" lon="12.63294"><ele>241.0</ele><time>2026-04-26T08:01:14.937Z</time></trkpt><trkpt lat="43.8958533" lon="12.6328183"><ele>241.50000000000003</ele><time>2026-04-26T08:01:15.937Z</time></trkpt><trkpt lat="43.8958517" lon="12.63269"><ele>242.0</ele><time>2026-04-26T08:01:16.937Z</time></trkpt><trkpt lat="43.8958533" lon="12.6325517"><ele>243.39999999999998</ele><time>2026-04-26T08:01:17.937Z</time></trkpt><trkpt lat="43.8958517" lon="12.6324067"><ele>244.79999999999998</ele><time>2026-04-26T08:01:18.937Z</time></trkpt><trkpt lat="43.89585" lon="12.6322567"><ele>246.2</ele><time>2026-04-26T08:01:19.937Z</time></trkpt><trkpt lat="43.8958417" lon="12.6321017"><ele>247.6</ele><time>2026-04-26T08:01:20.936Z</time></trkpt><trkpt lat="43.8958333" lon="12.63194"><ele>249.0</ele><time>2026-04-26T08:01:21.937Z</time></trkpt><trkpt lat="43.895825" lon="12.6317783"><ele>250.39999999999998</ele><time>2026-04-26T08:01:22.937Z</time></trkpt><trkpt lat="43.8958183" lon="12.6316167"><ele>251.79999999999998</ele><time>2026-04-26T08:01:23.937Z</time></trkpt><trkpt lat="43.8958217" lon="12.6314617"><ele>253.20000000000002</ele><time>2026-04-26T08:01:24.937Z</time></trkpt><trkpt lat="43.8958283" lon="12.63131"><ele>254.60000000000002</ele><time>2026-04-26T08:01:25.937Z</time></trkpt><trkpt lat="43.8958383" lon="12.6311717"><ele>256.0</ele><time>2026-04-26T08:01:26.937Z</time></trkpt><trkpt lat="43.8958417" lon="12.6310333"><ele>256.8333333333333</ele><time>2026-04-26T08:01:27.937Z</time></trkpt><trkpt lat="43.8958433" lon="12.63091"><ele>257.66666666666663</ele><time>2026-04-26T08:01:28.937Z</time></trkpt><trkpt lat="43.8958417" lon="12.6307967"><ele>258.5</ele><time>2026-04-26T08:01:29.936Z</time></trkpt><trkpt lat="43.8958383" lon="12.63068"><ele>259.3333333333333</ele><time>2026-04-26T08:01:30.938Z</time></trkpt><trkpt lat="43.895845" lon="12.6305533"><ele>260.1666666666667</ele><time>2026-04-26T08:01:31.938Z</time></trkpt><trkpt lat="43.895865" lon="12.6304167"><ele>261.0</ele><time>2026-04-26T08:01:32.938Z</time></trkpt><trkpt lat="43.8959" lon="12.6302733"><ele>255.4</ele><time>2026-04-26T08:01:33.938Z</time></trkpt><trkpt lat="43.8959417" lon="12.6301333"><ele>249.8</ele><time>2026-04-26T08:01:34.937Z</time></trkpt><trkpt lat="43.8959817" lon="12.6299883"><ele>244.20000000000002</ele><time>2026-04-26T08:01:35.937Z</time></trkpt><trkpt lat="43.8960033" lon="12.6298383"><ele>238.60000000000002</ele><time>2026-04-26T08:01:36.938Z</time></trkpt><trkpt lat="43.8959983" lon="12.62968"><ele>233.0</ele><time>2026-04-26T08:01:37.938Z</time></trkpt><trkpt lat="43.89597" lon="12.6295183"><ele>234.0</ele><time>2026-04-26T08:01:38.938Z</time></trkpt><trkpt lat="43.8959383" lon="12.6293667"><ele>235.0</ele><time>2026-04-26T08:01:39.937Z</time></trkpt><trkpt lat="43.8959217" lon="12.629225"><ele>236.0</ele><time>2026-04-26T08:01:40.937Z</time></trkpt><trkpt lat="43.8959233" lon="12.629095"><ele>237.0</ele><time>2026-04-26T08:01:41.938Z</time></trkpt><trkpt lat="43.8959267" lon="12.62898"><ele>238.0</ele><time>2026-04-26T08:01:42.938Z</time></trkpt><trkpt lat="43.895925" lon="12.6288683"><ele>242.16666666666666</ele><time>2026-04-26T08:01:43.938Z</time></trkpt><trkpt lat="43.895915" lon="12.6287583"><ele>246.33333333333331</ele><time>2026-04-26T08:01:44.938Z</time></trkpt><trkpt lat="43.8959067" lon="12.62865"><ele>250.5</ele><time>2026-04-26T08:01:45.938Z</time></trkpt><trkpt lat="43.8958817" lon="12.6285433"><ele>254.66666666666669</ele><time>2026-04-26T08:01:46.937Z</time></trkpt><trkpt lat="43.89584" lon="12.628435"><ele>258.83333333333337</ele><time>2026-04-26T08:01:47.937Z</time></trkpt><trkpt lat="43.8957983" lon="12.628335"><ele>263.0</ele><time>2026-04-26T08:01:48.938Z</time></trkpt><trkpt lat="43.89575" lon="12.6282517"><ele>263.0</ele><time>2026-04-26T08:01:49.938Z</time></trkpt><trkpt lat="43.8956967" lon="12.6281967"><ele>263.0</ele><time>2026-04-26T08:01:50.938Z</time></trkpt><trkpt lat="43.8955867" lon="12.6282383"><ele>263.0</ele><time>2026-04-26T08:01:52.938Z</time></trkpt><trkpt lat="43.895555" lon="12.6283283"><ele>263.0</ele><time>2026-04-26T08:01:53.938Z</time></trkpt><trkpt lat="43.8955217" lon="12.6284283"><ele>263.0</ele><time>2026-04-26T08:01:54.938Z</time></trkpt><trkpt lat="43.8954833" lon="12.628535"><ele>263.0</ele><time>2026-04-26T08:01:55.937Z</time></trkpt><trkpt lat="43.8954317" lon="12.6286417"><ele>263.0</ele><time>2026-04-26T08:01:56.937Z</time></trkpt><trkpt lat="43.8953683" lon="12.6287517"><ele>263.0</ele><time>2026-04-26T08:01:57.938Z</time></trkpt><trkpt lat="43.8953017" lon="12.6288683"><ele>263.0</ele><time>2026-04-26T08:01:58.938Z</time></trkpt><trkpt lat="43.8952367" lon="12.6289983"><ele>263.0</ele><time>2026-04-26T08:01:59.938Z</time></trkpt><trkpt lat="43.89517" lon="12.6291367"><ele>263.0</ele><time>2026-04-26T08:02:00.937Z</time></trkpt><trkpt lat="43.8951033" lon="12.6292817"><ele>266.4</ele><time>2026-04-26T08:02:01.938Z</time></trkpt><trkpt lat="43.89504" lon="12.629425"><ele>269.8</ele><time>2026-04-26T08:02:02.938Z</time></trkpt><trkpt lat="43.8949767" lon="12.6295567"><ele>273.2</ele><time>2026-04-26T08:02:03.938Z</time></trkpt><trkpt lat="43.8949183" lon="12.629685"><ele>276.6</ele><time>2026-04-26T08:02:04.938Z</time></trkpt><trkpt lat="43.8948667" lon="12.6298067"><ele>280.0</ele><time>2026-04-26T08:02:05.938Z</time></trkpt><trkpt lat="43.8948167" lon="12.6299217"><ele>280.8333333333333</ele><time>2026-04-26T08:02:06.938Z</time></trkpt><trkpt lat="43.8947733" lon="12.6300317"><ele>281.66666666666663</ele><time>2026-04-26T08:02:07.937Z</time></trkpt><trkpt lat="43.8947317" lon="12.6301267"><ele>282.5</ele><time>2026-04-26T08:02:08.937Z</time></trkpt><trkpt lat="43.8946833" lon="12.630205"><ele>283.3333333333333</ele><time>2026-04-26T08:02:09.938Z</time></trkpt><trkpt lat="43.8946167" lon="12.6302383"><ele>284.1666666666667</ele><time>2026-04-26T08:02:10.938Z</time></trkpt><trkpt lat="43.8945417" lon="12.63025"><ele>285.0</ele><time>2026-04-26T08:02:11.938Z</time></trkpt><trkpt lat="43.8944633" lon="12.6302383"><ele>285.0</ele><time>2026-04-26T08:02:12.937Z</time></trkpt><trkpt lat="43.8943717" lon="12.630215"><ele>285.0</ele><time>2026-04-26T08:02:13.938Z</time></trkpt><trkpt lat="43.8942733" lon="12.63019"><ele>285.0</ele><time>2026-04-26T08:02:14.937Z</time></trkpt><trkpt lat="43.89417" lon="12.6301667"><ele>285.0</ele><time>2026-04-26T08:02:15.938Z</time></trkpt><trkpt lat="43.89406" lon="12.6301333"><ele>285.0</ele><time>2026-04-26T08:02:16.938Z</time></trkpt><trkpt lat="43.8939467" lon="12.630095"><ele>286.6</ele><time>2026-04-26T08:02:17.938Z</time></trkpt><trkpt lat="43.8938333" lon="12.630045"><ele>288.2</ele><time>2026-04-26T08:02:18.938Z</time></trkpt><trkpt lat="43.8937233" lon="12.629995"><ele>289.8</ele><time>2026-04-26T08:02:19.937Z</time></trkpt><trkpt lat="43.89362" lon="12.6299533"><ele>291.4</ele><time>2026-04-26T08:02:20.937Z</time></trkpt><trkpt lat="43.8935267" lon="12.62992"><ele>293.0</ele><time>2026-04-26T08:02:21.938Z</time></trkpt><trkpt lat="43.8934383" lon="12.6298833"><ele>294.8</ele><time>2026-04-26T08:02:22.938Z</time></trkpt><trkpt lat="43.8933483" lon="12.6298417"><ele>296.6</ele><time>2026-04-26T08:02:23.938Z</time></trkpt><trkpt lat="43.8932567" lon="12.6298017"><ele>298.4</ele><time>2026-04-26T08:02:24.938Z</time></trkpt><trkpt lat="43.89316" lon="12.62976"><ele>300.2</ele><time>2026-04-26T08:02:25.938Z</time></trkpt><trkpt lat="43.8930583" lon="12.6297183"><ele>302.0</ele><time>2026-04-26T08:02:26.938Z</time></trkpt><trkpt lat="43.892955" lon="12.629675"><ele>302.0</ele><time>2026-04-26T08:02:27.938Z</time></trkpt><trkpt lat="43.8928517" lon="12.62962"><ele>302.0</ele><time>2026-04-26T08:02:28.938Z</time></trkpt><trkpt lat="43.8927583" lon="12.6295417"><ele>302.0</ele><time>2026-04-26T08:02:29.937Z</time></trkpt><trkpt lat="43.8926767" lon="12.6294467"><ele>302.0</ele><time>2026-04-26T08:02:30.938Z</time></trkpt><trkpt lat="43.8926" lon="12.6293383"><ele>302.0</ele><time>2026-04-26T08:02:31.938Z</time></trkpt><trkpt lat="43.89252" lon="12.6292233"><ele>301.6</ele><time>2026-04-26T08:02:32.938Z</time></trkpt><trkpt lat="43.8924367" lon="12.6291133"><ele>301.2</ele><time>2026-04-26T08:02:33.937Z</time></trkpt><trkpt lat="43.89235" lon="12.6290083"><ele>300.8</ele><time>2026-04-26T08:02:34.937Z</time></trkpt><trkpt lat="43.8922633" lon="12.628915"><ele>300.4</ele><time>2026-04-26T08:02:35.938Z</time></trkpt><trkpt lat="43.8921783" lon="12.6288217"><ele>300.0</ele><time>2026-04-26T08:02:36.938Z</time></trkpt><trkpt lat="43.89209" lon="12.6287383"><ele>300.0</ele><time>2026-04-26T08:02:37.938Z</time></trkpt><trkpt lat="43.8920033" lon="12.628665"><ele>300.0</ele><time>2026-04-26T08:02:38.938Z</time></trkpt><trkpt lat="43.89192" lon="12.6285933"><ele>300.0</ele><time>2026-04-26T08:02:39.937Z</time></trkpt><trkpt lat="43.8918433" lon="12.62852"><ele>300.0</ele><time>2026-04-26T08:02:40.938Z</time></trkpt><trkpt lat="43.891765" lon="12.62845"><ele>300.0</ele><time>2026-04-26T08:02:41.938Z</time></trkpt><trkpt lat="43.891685" lon="12.6283867"><ele>300.8</ele><time>2026-04-26T08:02:42.938Z</time></trkpt><trkpt lat="43.8916067" lon="12.62832"><ele>301.6</ele><time>2026-04-26T08:02:43.938Z</time></trkpt><trkpt lat="43.89153" lon="12.6282517"><ele>302.4</ele><time>2026-04-26T08:02:44.938Z</time></trkpt><trkpt lat="43.8914517" lon="12.628175"><ele>303.2</ele><time>2026-04-26T08:02:45.938Z</time></trkpt><trkpt lat="43.8913767" lon="12.6280933"><ele>304.0</ele><time>2026-04-26T08:02:46.938Z</time></trkpt><trkpt lat="43.8913017" lon="12.628015"><ele>304.0</ele><time>2026-04-26T08:02:47.938Z</time></trkpt><trkpt lat="43.89123" lon="12.62795"><ele>304.0</ele><time>2026-04-26T08:02:48.938Z</time></trkpt><trkpt lat="43.891165" lon="12.6278967"><ele>304.0</ele><time>2026-04-26T08:02:49.938Z</time></trkpt><trkpt lat="43.8910817" lon="12.62783"><ele>304.0</ele><time>2026-04-26T08:02:51.938Z</time></trkpt><trkpt lat="43.89102" lon="12.62773"><ele>304.0</ele><time>2026-04-26T08:03:33.937Z</time></trkpt><trkpt lat="43.8909667" lon="12.6276483"><ele>304.0</ele><time>2026-04-26T08:03:36.937Z</time></trkpt><trkpt lat="43.8909367" lon="12.6275517"><ele>303.8</ele><time>2026-04-26T08:03:38.937Z</time></trkpt><trkpt lat="43.8909133" lon="12.6274283"><ele>303.59999999999997</ele><time>2026-04-26T08:03:40.937Z</time></trkpt><trkpt lat="43.8908767" lon="12.6272717"><ele>303.4</ele><time>2026-04-26T08:03:42.937Z</time></trkpt><trkpt lat="43.8908533" lon="12.6271883"><ele>303.2</ele><time>2026-04-26T08:03:43.936Z</time></trkpt><trkpt lat="43.8908083" lon="12.6270217"><ele>303.0</ele><time>2026-04-26T08:03:45.937Z</time></trkpt><trkpt lat="43.8907833" lon="12.626935"><ele>301.6666666666667</ele><time>2026-04-26T08:03:46.937Z</time></trkpt><trkpt lat="43.89076" lon="12.6268483"><ele>300.3333333333333</ele><time>2026-04-26T08:03:47.937Z</time></trkpt><trkpt lat="43.890735" lon="12.626765"><ele>299.0</ele><time>2026-04-26T08:03:48.936Z</time></trkpt><trkpt lat="43.8907133" lon="12.62668"><ele>297.66666666666663</ele><time>2026-04-26T08:03:49.937Z</time></trkpt><trkpt lat="43.8906917" lon="12.626595"><ele>296.3333333333333</ele><time>2026-04-26T08:03:50.937Z</time></trkpt><trkpt lat="43.89064" lon="12.62643"><ele>295.0</ele><time>2026-04-26T08:03:52.937Z</time></trkpt><trkpt lat="43.8906167" lon="12.6263467"><ele>295.0</ele><time>2026-04-26T08:03:53.937Z</time></trkpt><trkpt lat="43.890585" lon="12.6261883"><ele>295.0</ele><time>2026-04-26T08:03:55.937Z</time></trkpt><trkpt lat="43.8905517" lon="12.626035"><ele>295.0</ele><time>2026-04-26T08:03:57.937Z</time></trkpt><trkpt lat="43.89053" lon="12.6259433"><ele>295.0</ele><time>2026-04-26T08:03:58.937Z</time></trkpt><trkpt lat="43.89051" lon="12.6258417"><ele>295.0</ele><time>2026-04-26T08:03:59.937Z</time></trkpt><trkpt lat="43.8904867" lon="12.6257233"><ele>293.0</ele><time>2026-04-26T08:04:00.937Z</time></trkpt><trkpt lat="43.8904667" lon="12.6256067"><ele>291.0</ele><time>2026-04-26T08:04:01.937Z</time></trkpt><trkpt lat="43.8904533" lon="12.6254933"><ele>289.0</ele><time>2026-04-26T08:04:02.936Z</time></trkpt><trkpt lat="43.8904383" lon="12.6253867"><ele>287.0</ele><time>2026-04-26T08:04:03.937Z</time></trkpt><trkpt lat="43.8904167" lon="12.6252617"><ele>285.0</ele><time>2026-04-26T08:04:04.937Z</time></trkpt><trkpt lat="43.8903917" lon="12.6251467"><ele>283.0</ele><time>2026-04-26T08:04:05.937Z</time></trkpt><trkpt lat="43.8903683" lon="12.62502"><ele>281.8333333333333</ele><time>2026-04-26T08:04:06.937Z</time></trkpt><trkpt lat="43.89034" lon="12.624895"><ele>280.66666666666663</ele><time>2026-04-26T08:04:07.937Z</time></trkpt><trkpt lat="43.890315" lon="12.62479"><ele>279.5</ele><time>2026-04-26T08:04:08.937Z</time></trkpt><trkpt lat="43.8902917" lon="12.6246917"><ele>278.3333333333333</ele><time>2026-04-26T08:04:09.936Z</time></trkpt><trkpt lat="43.8902733" lon="12.6246017"><ele>277.1666666666667</ele><time>2026-04-26T08:04:10.937Z</time></trkpt><trkpt lat="43.89026" lon="12.6245133"><ele>276.0</ele><time>2026-04-26T08:04:11.937Z</time></trkpt><trkpt lat="43.8902117" lon="12.62439"><ele>275.8</ele><time>2026-04-26T08:04:13.936Z</time></trkpt><trkpt lat="43.890105" lon="12.62432"><ele>275.6</ele><time>2026-04-26T08:04:15.937Z</time></trkpt><trkpt lat="43.889985" lon="12.6243067"><ele>275.4</ele><time>2026-04-26T08:04:17.937Z</time></trkpt><trkpt lat="43.8898667" lon="12.6243433"><ele>275.2</ele><time>2026-04-26T08:04:19.937Z</time></trkpt><trkpt lat="43.8898083" lon="12.6243817"><ele>275.0</ele><time>2026-04-26T08:04:20.937Z</time></trkpt><trkpt lat="43.8897067" lon="12.6244683"><ele>280.1666666666667</ele><time>2026-04-26T08:04:22.937Z</time></trkpt><trkpt lat="43.88961" lon="12.6245533"><ele>285.33333333333337</ele><time>2026-04-26T08:04:24.937Z</time></trkpt><trkpt lat="43.8895517" lon="12.6246017"><ele>290.5</ele><time>2026-04-26T08:04:25.937Z</time></trkpt><trkpt lat="43.8894867" lon="12.6246467"><ele>295.6666666666667</ele><time>2026-04-26T08:04:26.937Z</time></trkpt><trkpt lat="43.8894133" lon="12.6246783"><ele>300.8333333333333</ele><time>2026-04-26T08:04:27.936Z</time></trkpt><trkpt lat="43.8893383" lon="12.6246933"><ele>306.0</ele><time>2026-04-26T08:04:28.937Z</time></trkpt><trkpt lat="43.8892667" lon="12.6246733"><ele>306.8333333333333</ele><time>2026-04-26T08:04:29.937Z</time></trkpt><trkpt lat="43.889205" lon="12.6246183"><ele>307.6666666666667</ele><time>2026-04-26T08:04:30.936Z</time></trkpt><trkpt lat="43.8891567" lon="12.624535"><ele>308.5</ele><time>2026-04-26T08:04:31.936Z</time></trkpt><trkpt lat="43.889115" lon="12.62443"><ele>309.33333333333337</ele><time>2026-04-26T08:04:32.937Z</time></trkpt><trkpt lat="43.8890767" lon="12.6243083"><ele>310.1666666666667</ele><time>2026-04-26T08:04:33.937Z</time></trkpt><trkpt lat="43.8890383" lon="12.6241933"><ele>311.0</ele><time>2026-04-26T08:04:34.937Z</time></trkpt><trkpt lat="43.8890067" lon="12.6240833"><ele>307.6666666666667</ele><time>2026-04-26T08:04:35.936Z</time></trkpt><trkpt lat="43.8889767" lon="12.6239767"><ele>304.33333333333337</ele><time>2026-04-26T08:04:36.937Z</time></trkpt><trkpt lat="43.8889617" lon="12.6238817"><ele>301.0</ele><time>2026-04-26T08:04:37.937Z</time></trkpt><trkpt lat="43.8889467" lon="12.6237833"><ele>297.6666666666667</ele><time>2026-04-26T08:04:38.937Z</time></trkpt><trkpt lat="43.8889233" lon="12.6236883"><ele>294.3333333333333</ele><time>2026-04-26T08:04:39.937Z</time></trkpt><trkpt lat="43.8888433" lon="12.6235533"><ele>291.0</ele><time>2026-04-26T08:04:41.937Z</time></trkpt><trkpt lat="43.88878" lon="12.6235033"><ele>290.0</ele><time>2026-04-26T08:04:42.936Z</time></trkpt><trkpt lat="43.8887167" lon="12.623455"><ele>289.0</ele><time>2026-04-26T08:04:43.937Z</time></trkpt><trkpt lat="43.8886617" lon="12.6234017"><ele>288.0</ele><time>2026-04-26T08:04:44.936Z</time></trkpt><trkpt lat="43.8885967" lon="12.6233467"><ele>287.0</ele><time>2026-04-26T08:04:45.937Z</time></trkpt><trkpt lat="43.8885233" lon="12.6232983"><ele>286.0</ele><time>2026-04-26T08:04:46.937Z</time></trkpt><trkpt lat="43.88845" lon="12.6232367"><ele>285.0</ele><time>2026-04-26T08:04:47.936Z</time></trkpt><trkpt lat="43.8883783" lon="12.6231717"><ele>285.0</ele><time>2026-04-26T08:04:48.937Z</time></trkpt><trkpt lat="43.8883067" lon="12.6231"><ele>285.0</ele><time>2026-04-26T08:04:49.937Z</time></trkpt><trkpt lat="43.8882433" lon="12.6230233"><ele>285.0</ele><time>2026-04-26T08:04:50.936Z</time></trkpt><trkpt lat="43.8882017" lon="12.6229433"><ele>285.0</ele><time>2026-04-26T08:04:51.937Z</time></trkpt><trkpt lat="43.8881783" lon="12.6228167"><ele>285.0</ele><time>2026-04-26T08:04:53.937Z</time></trkpt><trkpt lat="43.888245" lon="12.622725"><ele>285.0</ele><time>2026-04-26T08:05:17.937Z</time></trkpt><trkpt lat="43.8882933" lon="12.6225967"><ele>283.6</ele><time>2026-04-26T08:05:19.936Z</time></trkpt><trkpt lat="43.8883167" lon="12.622455"><ele>282.2</ele><time>2026-04-26T08:05:21.937Z</time></trkpt><trkpt lat="43.8883083" lon="12.6223"><ele>280.8</ele><time>2026-04-26T08:05:23.937Z</time></trkpt><trkpt lat="43.8883067" lon="12.6221633"><ele>279.4</ele><time>2026-04-26T08:05:25.937Z</time></trkpt><trkpt lat="43.88833" lon="12.6220167"><ele>278.0</ele><time>2026-04-26T08:05:27.937Z</time></trkpt><trkpt lat="43.888345" lon="12.6219283"><ele>280.5</ele><time>2026-04-26T08:05:28.937Z</time></trkpt><trkpt lat="43.8883667" lon="12.621825"><ele>283.0</ele><time>2026-04-26T08:05:29.936Z</time></trkpt><trkpt lat="43.8884033" lon="12.6217117"><ele>285.5</ele><time>2026-04-26T08:05:30.936Z</time></trkpt><trkpt lat="43.8884533" lon="12.6216017"><ele>288.0</ele><time>2026-04-26T08:05:31.937Z</time></trkpt><trkpt lat="43.8885117" lon="12.6215017"><ele>290.5</ele><time>2026-04-26T08:05:32.937Z</time></trkpt><trkpt lat="43.888575" lon="12.621415"><ele>293.0</ele><time>2026-04-26T08:05:33.937Z</time></trkpt><trkpt lat="43.8886333" lon="12.6213383"><ele>286.4</ele><time>2026-04-26T08:05:34.937Z</time></trkpt><trkpt lat="43.8886867" lon="12.6212717"><ele>279.8</ele><time>2026-04-26T08:05:35.936Z</time></trkpt><trkpt lat="43.8887583" lon="12.6211567"><ele>273.2</ele><time>2026-04-26T08:05:37.937Z</time></trkpt><trkpt lat="43.888735" lon="12.62099"><ele>266.6</ele><time>2026-04-26T08:05:39.937Z</time></trkpt><trkpt lat="43.8887033" lon="12.6208917"><ele>260.0</ele><time>2026-04-26T08:05:40.937Z</time></trkpt><trkpt lat="43.8886617" lon="12.6208117"><ele>260.0</ele><time>2026-04-26T08:05:41.937Z</time></trkpt><trkpt lat="43.88862" lon="12.620725"><ele>260.0</ele><time>2026-04-26T08:05:42.937Z</time></trkpt><trkpt lat="43.8885667" lon="12.6206067"><ele>260.0</ele><time>2026-04-26T08:05:44.937Z</time></trkpt><trkpt lat="43.8884667" lon="12.620555"><ele>260.0</ele><time>2026-04-26T08:06:09.937Z</time></trkpt><trkpt lat="43.88836" lon="12.62055"><ele>260.0</ele><time>2026-04-26T08:06:11.937Z</time></trkpt><trkpt lat="43.8882633" lon="12.6205733"><ele>267.4</ele><time>2026-04-26T08:06:13.937Z</time></trkpt><trkpt lat="43.8881967" lon="12.620645"><ele>274.8</ele><time>2026-04-26T08:06:15.937Z</time></trkpt><trkpt lat="43.88816" lon="12.6207917"><ele>282.2</ele><time>2026-04-26T08:06:17.937Z</time></trkpt><trkpt lat="43.8881183" lon="12.6209283"><ele>289.6</ele><time>2026-04-26T08:06:19.936Z</time></trkpt><trkpt lat="43.8880633" lon="12.6209767"><ele>297.0</ele><time>2026-04-26T08:06:21.936Z</time></trkpt><trkpt lat="43.8879567" lon="12.62094"><ele>297.0</ele><time>2026-04-26T08:06:23.936Z</time></trkpt><trkpt lat="43.8878317" lon="12.6209217"><ele>297.0</ele><time>2026-04-26T08:06:25.937Z</time></trkpt><trkpt lat="43.8877333" lon="12.62091"><ele>297.0</ele><time>2026-04-26T08:06:27.937Z</time></trkpt><trkpt lat="43.887675" lon="12.6210033"><ele>297.0</ele><time>2026-04-26T08:06:30.937Z</time></trkpt><trkpt lat="43.8876683" lon="12.6211583"><ele>297.0</ele><time>2026-04-26T08:06:32.937Z</time></trkpt><trkpt lat="43.88766" lon="12.621245"><ele>296.3333333333333</ele><time>2026-04-26T08:06:33.937Z</time></trkpt><trkpt lat="43.8876433" lon="12.6213333"><ele>295.6666666666667</ele><time>2026-04-26T08:06:34.937Z</time></trkpt><trkpt lat="43.8876133" lon="12.6214233"><ele>295.0</ele><time>2026-04-26T08:06:35.937Z</time></trkpt><trkpt lat="43.8875767" lon="12.62152"><ele>294.33333333333337</ele><time>2026-04-26T08:06:36.937Z</time></trkpt><trkpt lat="43.887545" lon="12.62162"><ele>293.6666666666667</ele><time>2026-04-26T08:06:37.937Z</time></trkpt><trkpt lat="43.8874983" lon="12.6217367"><ele>293.0</ele><time>2026-04-26T08:06:39.937Z</time></trkpt><trkpt lat="43.88741" lon="12.6216917"><ele>299.33333333333337</ele><time>2026-04-26T08:06:42.936Z</time></trkpt><trkpt lat="43.8873367" lon="12.6215517"><ele>305.6666666666667</ele><time>2026-04-26T08:06:44.937Z</time></trkpt><trkpt lat="43.8872817" lon="12.6214883"><ele>312.0</ele><time>2026-04-26T08:06:45.937Z</time></trkpt><trkpt lat="43.8872167" lon="12.6214517"><ele>318.3333333333333</ele><time>2026-04-26T08:06:46.937Z</time></trkpt><trkpt lat="43.8871133" lon="12.6214583"><ele>324.66666666666663</ele><time>2026-04-26T08:06:48.937Z</time></trkpt><trkpt lat="43.88707" lon="12.6215283"><ele>331.0</ele><time>2026-04-26T08:06:49.937Z</time></trkpt><trkpt lat="43.8870217" lon="12.621625"><ele>331.0</ele><time>2026-04-26T08:06:50.937Z</time></trkpt><trkpt lat="43.88698" lon="12.62174"><ele>331.0</ele><time>2026-04-26T08:06:51.937Z</time></trkpt><trkpt lat="43.8869467" lon="12.6218367"><ele>331.0</ele><time>2026-04-26T08:06:52.937Z</time></trkpt><trkpt lat="43.8868933" lon="12.6219233"><ele>331.0</ele><time>2026-04-26T08:06:54.937Z</time></trkpt><trkpt lat="43.8868167" lon="12.6218383"><ele>331.0</ele><time>2026-04-26T08:06:56.937Z</time></trkpt><trkpt lat="43.8867783" lon="12.6217467"><ele>331.0</ele><time>2026-04-26T08:06:57.937Z</time></trkpt><trkpt lat="43.8867333" lon="12.6216433"><ele>340.25</ele><time>2026-04-26T08:06:58.937Z</time></trkpt><trkpt lat="43.8866717" lon="12.6215183"><ele>349.5</ele><time>2026-04-26T08:06:59.937Z</time></trkpt><trkpt lat="43.8866067" lon="12.6213733"><ele>358.75</ele><time>2026-04-26T08:07:00.937Z</time></trkpt><trkpt lat="43.88655" lon="12.6212233"><ele>368.0</ele><time>2026-04-26T08:07:01.937Z</time></trkpt><trkpt lat="43.8864967" lon="12.62108"><ele>368.6666666666667</ele><time>2026-04-26T08:07:02.936Z</time></trkpt><trkpt lat="43.8864433" lon="12.620945"><ele>369.33333333333337</ele><time>2026-04-26T08:07:03.937Z</time></trkpt><trkpt lat="43.8863867" lon="12.6208183"><ele>370.0</ele><time>2026-04-26T08:07:04.937Z</time></trkpt><trkpt lat="43.8863483" lon="12.6207067"><ele>370.6666666666667</ele><time>2026-04-26T08:07:05.937Z</time></trkpt><trkpt lat="43.886335" lon="12.6206067"><ele>371.3333333333333</ele><time>2026-04-26T08:07:06.937Z</time></trkpt><trkpt lat="43.8863333" lon="12.620515"><ele>372.0</ele><time>2026-04-26T08:07:07.937Z</time></trkpt><trkpt lat="43.88632" lon="12.620385"><ele>371.5</ele><time>2026-04-26T08:07:09.937Z</time></trkpt><trkpt lat="43.8862767" lon="12.6202767"><ele>371.0</ele><time>2026-04-26T08:07:11.937Z</time></trkpt><trkpt lat="43.8862233" lon="12.6201267"><ele>370.5</ele><time>2026-04-26T08:07:13.937Z</time></trkpt><trkpt lat="43.8862017" lon="12.6200433"><ele>370.0</ele><time>2026-04-26T08:07:14.937Z</time></trkpt><trkpt lat="43.88615" lon="12.6199283"><ele>369.5</ele><time>2026-04-26T08:07:16.937Z</time></trkpt><trkpt lat="43.8860867" lon="12.6198867"><ele>369.0</ele><time>2026-04-26T08:07:18.937Z</time></trkpt><trkpt lat="43.886" lon="12.619925"><ele>369.0</ele><time>2026-04-26T08:07:20.937Z</time></trkpt><trkpt lat="43.885945" lon="12.61997"><ele>369.0</ele><time>2026-04-26T08:07:21.937Z</time></trkpt><trkpt lat="43.88588" lon="12.6200217"><ele>369.0</ele><time>2026-04-26T08:07:22.937Z</time></trkpt><trkpt lat="43.8858067" lon="12.6200717"><ele>369.0</ele><time>2026-04-26T08:07:23.937Z</time></trkpt><trkpt lat="43.8857283" lon="12.6201283"><ele>369.0</ele><time>2026-04-26T08:07:24.937Z</time></trkpt><trkpt lat="43.885645" lon="12.6202"><ele>369.0</ele><time>2026-04-26T08:07:25.937Z</time></trkpt><trkpt lat="43.8855583" lon="12.6202817"><ele>376.2</ele><time>2026-04-26T08:07:26.937Z</time></trkpt><trkpt lat="43.885475" lon="12.6203633"><ele>383.4</ele><time>2026-04-26T08:07:27.937Z</time></trkpt><trkpt lat="43.8853933" lon="12.6204417"><ele>390.6</ele><time>2026-04-26T08:07:28.937Z</time></trkpt><trkpt lat="43.885315" lon="12.62052"><ele>397.8</ele><time>2026-04-26T08:07:29.937Z</time></trkpt><trkpt lat="43.885245" lon="12.6205917"><ele>405.0</ele><time>2026-04-26T08:07:30.937Z</time></trkpt><trkpt lat="43.8851833" lon="12.62065"><ele>405.0</ele><time>2026-04-26T08:07:31.937Z</time></trkpt><trkpt lat="43.8851267" lon="12.6207"><ele>405.0</ele><time>2026-04-26T08:07:32.937Z</time></trkpt><trkpt lat="43.88503" lon="12.6207883"><ele>405.0</ele><time>2026-04-26T08:07:34.937Z</time></trkpt><trkpt lat="43.8849683" lon="12.6208433"><ele>405.0</ele><time>2026-04-26T08:07:36.937Z</time></trkpt><trkpt lat="43.8848817" lon="12.6209167"><ele>405.0</ele><time>2026-04-26T08:08:09.937Z</time></trkpt><trkpt lat="43.8848383" lon="12.6210033"><ele>405.0</ele><time>2026-04-26T08:08:12.937Z</time></trkpt><trkpt lat="43.8848383" lon="12.6211067"><ele>405.8333333333333</ele><time>2026-04-26T08:09:10.937Z</time></trkpt><trkpt lat="43.8848267" lon="12.62121"><ele>406.66666666666663</ele><time>2026-04-26T08:09:12.937Z</time></trkpt><trkpt lat="43.8848067" lon="12.6213083"><ele>407.5</ele><time>2026-04-26T08:09:14.937Z</time></trkpt><trkpt lat="43.8848033" lon="12.6214417"><ele>408.3333333333333</ele><time>2026-04-26T08:09:16.937Z</time></trkpt><trkpt lat="43.8848117" lon="12.6215367"><ele>409.16666666666663</ele><time>2026-04-26T08:09:17.937Z</time></trkpt><trkpt lat="43.8848283" lon="12.6216433"><ele>410.0</ele><time>2026-04-26T08:09:18.937Z</time></trkpt><trkpt lat="43.88485" lon="12.6217583"><ele>410.0</ele><time>2026-04-26T08:09:19.937Z</time></trkpt><trkpt lat="43.8848783" lon="12.621865"><ele>410.0</ele><time>2026-04-26T08:09:20.936Z</time></trkpt><trkpt lat="43.8849083" lon="12.621955"><ele>410.0</ele><time>2026-04-26T08:09:21.937Z</time></trkpt><trkpt lat="43.8849633" lon="12.6221067"><ele>410.0</ele><time>2026-04-26T08:09:23.936Z</time></trkpt><trkpt lat="43.8850183" lon="12.622245"><ele>410.0</ele><time>2026-04-26T08:09:25.936Z</time></trkpt><trkpt lat="43.8850717" lon="12.6223933"><ele>408.49999999999994</ele><time>2026-04-26T08:09:27.937Z</time></trkpt><trkpt lat="43.8850983" lon="12.62248"><ele>407.0</ele><time>2026-04-26T08:09:28.937Z</time></trkpt><trkpt lat="43.88513" lon="12.6225683"><ele>405.5</ele><time>2026-04-26T08:09:29.936Z</time></trkpt><trkpt lat="43.8851667" lon="12.6226583"><ele>404.0</ele><time>2026-04-26T08:09:30.937Z</time></trkpt><trkpt lat="43.8852067" lon="12.62274"><ele>402.49999999999994</ele><time>2026-04-26T08:09:31.936Z</time></trkpt><trkpt lat="43.8852867" lon="12.6228367"><ele>401.0</ele><time>2026-04-26T08:09:33.938Z</time></trkpt><trkpt lat="43.8853417" lon="12.6227833"><ele>400.99999999999994</ele><time>2026-04-26T08:10:05.938Z</time></trkpt><trkpt lat="43.885275" lon="12.6227867"><ele>401.0</ele><time>2026-04-26T08:10:08.937Z</time></trkpt><trkpt lat="43.885215" lon="12.6227417"><ele>401.0</ele><time>2026-04-26T08:10:10.937Z</time></trkpt><trkpt lat="43.8851633" lon="12.6226417"><ele>401.0</ele><time>2026-04-26T08:10:12.938Z</time></trkpt><trkpt lat="43.8851167" lon="12.6225317"><ele>400.99999999999994</ele><time>2026-04-26T08:10:14.937Z</time></trkpt><trkpt lat="43.8850783" lon="12.6224133"><ele>401.0</ele><time>2026-04-26T08:10:16.938Z</time></trkpt><trkpt lat="43.8850367" lon="12.6222683"><ele>402.2857142857143</ele><time>2026-04-26T08:10:18.937Z</time></trkpt><trkpt lat="43.8850083" lon="12.6221867"><ele>403.57142857142856</ele><time>2026-04-26T08:10:19.938Z</time></trkpt><trkpt lat="43.8849733" lon="12.622105"><ele>404.8571428571429</ele><time>2026-04-26T08:10:20.938Z</time></trkpt><trkpt lat="43.8849417" lon="12.6220233"><ele>406.1428571428571</ele><time>2026-04-26T08:10:21.938Z</time></trkpt><trkpt lat="43.8849083" lon="12.6219433"><ele>407.4285714285714</ele><time>2026-04-26T08:10:22.938Z</time></trkpt><trkpt lat="43.8848783" lon="12.621865"><ele>408.7142857142857</ele><time>2026-04-26T08:10:23.938Z</time></trkpt><trkpt lat="43.8848533" lon="12.6217833"><ele>410.0</ele><time>2026-04-26T08:10:24.938Z</time></trkpt><trkpt lat="43.8848333" lon="12.621695"><ele>409.99999999999994</ele><time>2026-04-26T08:10:25.938Z</time></trkpt><trkpt lat="43.8848167" lon="12.6216017"><ele>410.0</ele><time>2026-04-26T08:10:26.937Z</time></trkpt><trkpt lat="43.884805" lon="12.6215067"><ele>410.0</ele><time>2026-04-26T08:10:27.938Z</time></trkpt><trkpt lat="43.884795" lon="12.6214167"><ele>410.0</ele><time>2026-04-26T08:10:28.938Z</time></trkpt><trkpt lat="43.884795" lon="12.621275"><ele>409.99999999999994</ele><time>2026-04-26T08:10:30.938Z</time></trkpt><trkpt lat="43.8848117" lon="12.62117"><ele>410.0</ele><time>2026-04-26T08:10:32.937Z</time></trkpt><trkpt lat="43.8847533" lon="12.6211017"><ele>409.99999999999994</ele><time>2026-04-26T08:10:35.938Z</time></trkpt><trkpt lat="43.8846783" lon="12.621145"><ele>410.0</ele><time>2026-04-26T08:10:37.938Z</time></trkpt><trkpt lat="43.884635" lon="12.62121"><ele>410.0</ele><time>2026-04-26T08:10:38.937Z</time></trkpt><trkpt lat="43.8845883" lon="12.6212917"><ele>410.0</ele><time>2026-04-26T08:10:39.938Z</time></trkpt><trkpt lat="43.8845483" lon="12.6213817"><ele>409.99999999999994</ele><time>2026-04-26T08:10:40.938Z</time></trkpt><trkpt lat="43.8845233" lon="12.6214683"><ele>410.0</ele><time>2026-04-26T08:10:41.938Z</time></trkpt><trkpt lat="43.88447" lon="12.6215867"><ele>409.99999999999994</ele><time>2026-04-26T08:10:43.938Z</time></trkpt><trkpt lat="43.88441" lon="12.6215383"><ele>410.0</ele><time>2026-04-26T08:10:45.937Z</time></trkpt><trkpt lat="43.8843717" lon="12.6214467"><ele>410.0</ele><time>2026-04-26T08:10:46.938Z</time></trkpt><trkpt lat="43.8843333" lon="12.6213283"><ele>410.0</ele><time>2026-04-26T08:10:47.938Z</time></trkpt><trkpt lat="43.8842967" lon="12.6212067"><ele>409.99999999999994</ele><time>2026-04-26T08:10:48.938Z</time></trkpt><trkpt lat="43.8842583" lon="12.621085"><ele>410.0</ele><time>2026-04-26T08:10:49.938Z</time></trkpt><trkpt lat="43.8842233" lon="12.6209683"><ele>405.6</ele><time>2026-04-26T08:10:50.938Z</time></trkpt><trkpt lat="43.8841917" lon="12.6208517"><ele>401.2</ele><time>2026-04-26T08:10:51.938Z</time></trkpt><trkpt lat="43.8841617" lon="12.6207417"><ele>396.79999999999995</ele><time>2026-04-26T08:10:52.938Z</time></trkpt><trkpt lat="43.8841217" lon="12.620635"><ele>392.4</ele><time>2026-04-26T08:10:53.938Z</time></trkpt><trkpt lat="43.884075" lon="12.620525"><ele>388.0</ele><time>2026-04-26T08:10:54.938Z</time></trkpt><trkpt lat="43.8840217" lon="12.6204083"><ele>386.4</ele><time>2026-04-26T08:10:55.938Z</time></trkpt><trkpt lat="43.8839633" lon="12.6202883"><ele>384.79999999999995</ele><time>2026-04-26T08:10:56.938Z</time></trkpt><trkpt lat="43.8839083" lon="12.62016"><ele>383.2</ele><time>2026-04-26T08:10:57.938Z</time></trkpt><trkpt lat="43.88385" lon="12.62003"><ele>381.6</ele><time>2026-04-26T08:10:58.937Z</time></trkpt><trkpt lat="43.8837933" lon="12.6199"><ele>380.0</ele><time>2026-04-26T08:10:59.937Z</time></trkpt><trkpt lat="43.8837383" lon="12.619765"><ele>380.0</ele><time>2026-04-26T08:11:00.937Z</time></trkpt><trkpt lat="43.8836883" lon="12.6196267"><ele>380.0</ele><time>2026-04-26T08:11:01.938Z</time></trkpt><trkpt lat="43.8836433" lon="12.6194833"><ele>380.0</ele><time>2026-04-26T08:11:02.938Z</time></trkpt><trkpt lat="43.883585" lon="12.6193383"><ele>380.0</ele><time>2026-04-26T08:11:03.938Z</time></trkpt><trkpt lat="43.8835267" lon="12.619185"><ele>377.0</ele><time>2026-04-26T08:11:04.937Z</time></trkpt><trkpt lat="43.8834733" lon="12.6190317"><ele>374.0</ele><time>2026-04-26T08:11:05.938Z</time></trkpt><trkpt lat="43.88342" lon="12.6188783"><ele>371.0</ele><time>2026-04-26T08:11:06.938Z</time></trkpt><trkpt lat="43.8833767" lon="12.6187183"><ele>368.0</ele><time>2026-04-26T08:11:07.938Z</time></trkpt><trkpt lat="43.883345" lon="12.6185583"><ele>366.0</ele><time>2026-04-26T08:11:08.937Z</time></trkpt><trkpt lat="43.88332" lon="12.6184133"><ele>364.0</ele><time>2026-04-26T08:11:09.937Z</time></trkpt><trkpt lat="43.8832917" lon="12.618295"><ele>362.0</ele><time>2026-04-26T08:11:10.938Z</time></trkpt><trkpt lat="43.8832617" lon="12.6182017"><ele>360.0</ele><time>2026-04-26T08:11:11.938Z</time></trkpt><trkpt lat="43.883205" lon="12.61808"><ele>358.0</ele><time>2026-04-26T08:11:13.938Z</time></trkpt><trkpt lat="43.8831867" lon="12.6179683"><ele>357.59999999999997</ele><time>2026-04-26T08:11:15.938Z</time></trkpt><trkpt lat="43.8832067" lon="12.6177833"><ele>357.2</ele><time>2026-04-26T08:11:17.937Z</time></trkpt><trkpt lat="43.8832233" lon="12.61767"><ele>356.8</ele><time>2026-04-26T08:11:18.938Z</time></trkpt><trkpt lat="43.8832433" lon="12.61754"><ele>356.4</ele><time>2026-04-26T08:11:19.937Z</time></trkpt><trkpt lat="43.8832617" lon="12.6173917"><ele>356.0</ele><time>2026-04-26T08:11:20.937Z</time></trkpt><trkpt lat="43.883275" lon="12.6172267"><ele>356.0</ele><time>2026-04-26T08:11:21.937Z</time></trkpt><trkpt lat="43.883285" lon="12.6170517"><ele>356.0</ele><time>2026-04-26T08:11:22.936Z</time></trkpt><trkpt lat="43.8832833" lon="12.6168733"><ele>356.0</ele><time>2026-04-26T08:11:23.937Z</time></trkpt><trkpt lat="43.8832817" lon="12.61669"><ele>356.0</ele><time>2026-04-26T08:11:24.936Z</time></trkpt><trkpt lat="43.8832683" lon="12.6165033"><ele>355.75</ele><time>2026-04-26T08:11:25.937Z</time></trkpt><trkpt lat="43.8832417" lon="12.6163133"><ele>355.5</ele><time>2026-04-26T08:11:26.937Z</time></trkpt><trkpt lat="43.8832033" lon="12.6161233"><ele>355.25</ele><time>2026-04-26T08:11:27.937Z</time></trkpt><trkpt lat="43.8831617" lon="12.6159367"><ele>355.0</ele><time>2026-04-26T08:11:28.937Z</time></trkpt><trkpt lat="43.883125" lon="12.6157467"><ele>355.75</ele><time>2026-04-26T08:11:29.937Z</time></trkpt><trkpt lat="43.8830817" lon="12.615555"><ele>356.5</ele><time>2026-04-26T08:11:30.937Z</time></trkpt><trkpt lat="43.883045" lon="12.6153617"><ele>357.25</ele><time>2026-04-26T08:11:31.937Z</time></trkpt><trkpt lat="43.8830133" lon="12.615175"><ele>358.0</ele><time>2026-04-26T08:11:32.937Z</time></trkpt><trkpt lat="43.88299" lon="12.615005"><ele>359.5</ele><time>2026-04-26T08:11:33.937Z</time></trkpt><trkpt lat="43.8829833" lon="12.61486"><ele>361.0</ele><time>2026-04-26T08:11:34.937Z</time></trkpt><trkpt lat="43.8829883" lon="12.6147467"><ele>362.5</ele><time>2026-04-26T08:11:35.937Z</time></trkpt><trkpt lat="43.88301" lon="12.6146467"><ele>364.0</ele><time>2026-04-26T08:11:36.936Z</time></trkpt><trkpt lat="43.8830367" lon="12.6145367"><ele>365.5</ele><time>2026-04-26T08:11:37.937Z</time></trkpt><trkpt lat="43.883055" lon="12.61441"><ele>367.0</ele><time>2026-04-26T08:11:38.937Z</time></trkpt><trkpt lat="43.8830667" lon="12.6142717"><ele>368.20000000000005</ele><time>2026-04-26T08:11:39.937Z</time></trkpt><trkpt lat="43.8830817" lon="12.614125"><ele>369.4</ele><time>2026-04-26T08:11:40.937Z</time></trkpt><trkpt lat="43.8830983" lon="12.6139767"><ele>370.6</ele><time>2026-04-26T08:11:41.937Z</time></trkpt><trkpt lat="43.8831183" lon="12.6138283"><ele>371.79999999999995</ele><time>2026-04-26T08:11:42.937Z</time></trkpt><trkpt lat="43.88314" lon="12.6136817"><ele>373.0</ele><time>2026-04-26T08:11:43.937Z</time></trkpt><trkpt lat="43.88316" lon="12.6135317"><ele>375.5</ele><time>2026-04-26T08:11:44.937Z</time></trkpt><trkpt lat="43.8831817" lon="12.6133817"><ele>378.0</ele><time>2026-04-26T08:11:45.937Z</time></trkpt><trkpt lat="43.8832017" lon="12.6132283"><ele>380.5</ele><time>2026-04-26T08:11:46.936Z</time></trkpt><trkpt lat="43.883225" lon="12.6130717"><ele>383.0</ele><time>2026-04-26T08:11:47.936Z</time></trkpt><trkpt lat="43.8832467" lon="12.6129133"><ele>385.5</ele><time>2026-04-26T08:11:48.937Z</time></trkpt><trkpt lat="43.8832733" lon="12.6127517"><ele>388.0</ele><time>2026-04-26T08:11:49.937Z</time></trkpt><trkpt lat="43.8833" lon="12.612585"><ele>390.5</ele><time>2026-04-26T08:11:50.937Z</time></trkpt><trkpt lat="43.8833233" lon="12.6124183"><ele>393.0</ele><time>2026-04-26T08:11:51.936Z</time></trkpt><trkpt lat="43.88335" lon="12.61225"><ele>393.0</ele><time>2026-04-26T08:11:52.937Z</time></trkpt><trkpt lat="43.8833833" lon="12.6120767"><ele>393.0</ele><time>2026-04-26T08:11:53.937Z</time></trkpt><trkpt lat="43.8834267" lon="12.6119083"><ele>393.0</ele><time>2026-04-26T08:11:54.937Z</time></trkpt><trkpt lat="43.8834767" lon="12.6117517"><ele>393.0</ele><time>2026-04-26T08:11:55.937Z</time></trkpt><trkpt lat="43.88353" lon="12.6116283"><ele>398.2</ele><time>2026-04-26T08:11:56.937Z</time></trkpt><trkpt lat="43.883605" lon="12.6115433"><ele>403.4</ele><time>2026-04-26T08:11:57.936Z</time></trkpt><trkpt lat="43.8837" lon="12.611495"><ele>408.59999999999997</ele><time>2026-04-26T08:11:58.936Z</time></trkpt><trkpt lat="43.8838067" lon="12.6114933"><ele>413.79999999999995</ele><time>2026-04-26T08:11:59.937Z</time></trkpt><trkpt lat="43.8839183" lon="12.6115117"><ele>419.0</ele><time>2026-04-26T08:12:00.937Z</time></trkpt><trkpt lat="43.884035" lon="12.61154"><ele>419.0</ele><time>2026-04-26T08:12:01.936Z</time></trkpt><trkpt lat="43.8841567" lon="12.6115667"><ele>419.0</ele><time>2026-04-26T08:12:02.937Z</time></trkpt><trkpt lat="43.8842833" lon="12.6115967"><ele>419.0</ele><time>2026-04-26T08:12:03.937Z</time></trkpt><trkpt lat="43.8844117" lon="12.6116183"><ele>419.0</ele><time>2026-04-26T08:12:04.937Z</time></trkpt><trkpt lat="43.8845383" lon="12.6116417"><ele>421.6</ele><time>2026-04-26T08:12:05.937Z</time></trkpt><trkpt lat="43.88466" lon="12.6116467"><ele>424.2</ele><time>2026-04-26T08:12:06.937Z</time></trkpt><trkpt lat="43.88477" lon="12.61166"><ele>426.80000000000007</ele><time>2026-04-26T08:12:07.937Z</time></trkpt><trkpt lat="43.884875" lon="12.61167"><ele>429.40000000000003</ele><time>2026-04-26T08:12:08.937Z</time></trkpt><trkpt lat="43.8849767" lon="12.61167"><ele>432.0</ele><time>2026-04-26T08:12:09.937Z</time></trkpt><trkpt lat="43.8850683" lon="12.6116483"><ele>430.8</ele><time>2026-04-26T08:12:10.937Z</time></trkpt><trkpt lat="43.8851567" lon="12.6116067"><ele>429.6</ele><time>2026-04-26T08:12:11.937Z</time></trkpt><trkpt lat="43.8852433" lon="12.61153"><ele>428.40000000000003</ele><time>2026-04-26T08:12:12.936Z</time></trkpt><trkpt lat="43.88533" lon="12.6114433"><ele>427.20000000000005</ele><time>2026-04-26T08:12:13.937Z</time></trkpt><trkpt lat="43.8854167" lon="12.6113433"><ele>426.0</ele><time>2026-04-26T08:12:14.937Z</time></trkpt><trkpt lat="43.8855" lon="12.61124"><ele>426.20000000000005</ele><time>2026-04-26T08:12:15.936Z</time></trkpt><trkpt lat="43.8855817" lon="12.6111333"><ele>426.40000000000003</ele><time>2026-04-26T08:12:16.937Z</time></trkpt><trkpt lat="43.885665" lon="12.6110283"><ele>426.6</ele><time>2026-04-26T08:12:17.937Z</time></trkpt><trkpt lat="43.88575" lon="12.6109283"><ele>426.8</ele><time>2026-04-26T08:12:18.936Z</time></trkpt><trkpt lat="43.8858417" lon="12.6108467"><ele>427.0</ele><time>2026-04-26T08:12:19.937Z</time></trkpt><trkpt lat="43.88593" lon="12.610785"><ele>427.00000000000006</ele><time>2026-04-26T08:12:20.937Z</time></trkpt><trkpt lat="43.886" lon="12.6107433"><ele>427.0</ele><time>2026-04-26T08:12:21.936Z</time></trkpt><trkpt lat="43.8860833" lon="12.6107"><ele>427.0</ele><time>2026-04-26T08:12:23.937Z</time></trkpt><trkpt lat="43.8861467" lon="12.6106633"><ele>427.0</ele><time>2026-04-26T08:12:25.937Z</time></trkpt><trkpt lat="43.886225" lon="12.6106083"><ele>427.00000000000006</ele><time>2026-04-26T08:12:27.937Z</time></trkpt><trkpt lat="43.886335" lon="12.6105567"><ele>427.0</ele><time>2026-04-26T08:12:29.937Z</time></trkpt><trkpt lat="43.886435" lon="12.6104983"><ele>427.0</ele><time>2026-04-26T08:12:31.936Z</time></trkpt><trkpt lat="43.8865083" lon="12.6104467"><ele>427.0</ele><time>2026-04-26T08:12:33.937Z</time></trkpt><trkpt lat="43.88657" lon="12.610425"><ele>427.0</ele><time>2026-04-26T08:12:35.937Z</time></trkpt><trkpt lat="43.886635" lon="12.610385"><ele>427.0</ele><time>2026-04-26T08:12:38.937Z</time></trkpt><trkpt lat="43.8867" lon="12.610345"><ele>427.0</ele><time>2026-04-26T08:12:42.937Z</time></trkpt><trkpt lat="43.8867583" lon="12.6102933"><ele>427.0</ele><time>2026-04-26T08:12:46.937Z</time></trkpt><trkpt lat="43.88668" lon="12.6103433"><ele>427.0</ele><time>2026-04-26T08:13:03.937Z</time></trkpt><trkpt lat="43.88662" lon="12.610385"><ele>427.00000000000006</ele><time>2026-04-26T08:13:04.936Z</time></trkpt><trkpt lat="43.8865583" lon="12.61043"><ele>427.0</ele><time>2026-04-26T08:13:05.937Z</time></trkpt><trkpt lat="43.8864983" lon="12.6104667"><ele>427.0</ele><time>2026-04-26T08:13:06.936Z</time></trkpt><trkpt lat="43.8863783" lon="12.6105267"><ele>427.0</ele><time>2026-04-26T08:13:08.937Z</time></trkpt><trkpt lat="43.886315" lon="12.6105617"><ele>427.00000000000006</ele><time>2026-04-26T08:13:09.937Z</time></trkpt><trkpt lat="43.886255" lon="12.610605"><ele>427.0</ele><time>2026-04-26T08:13:10.937Z</time></trkpt><trkpt lat="43.8861683" lon="12.61066"><ele>427.0</ele><time>2026-04-26T08:13:12.936Z</time></trkpt><trkpt lat="43.8861283" lon="12.6105883"><ele>427.0</ele><time>2026-04-26T08:13:16.937Z</time></trkpt><trkpt lat="43.8861867" lon="12.6105167"><ele>427.0</ele><time>2026-04-26T08:13:18.937Z</time></trkpt><trkpt lat="43.8862417" lon="12.6104717"><ele>427.0</ele><time>2026-04-26T08:13:19.937Z</time></trkpt><trkpt lat="43.886295" lon="12.6104183"><ele>427.0</ele><time>2026-04-26T08:13:20.936Z</time></trkpt><trkpt lat="43.8863433" lon="12.6103567"><ele>427.0</ele><time>2026-04-26T08:13:21.937Z</time></trkpt><trkpt lat="43.886385" lon="12.6102817"><ele>427.0</ele><time>2026-04-26T08:13:22.937Z</time></trkpt><trkpt lat="43.8864267" lon="12.6102033"><ele>428.83333333333337</ele><time>2026-04-26T08:13:23.937Z</time></trkpt><trkpt lat="43.8864783" lon="12.6101267"><ele>430.6666666666667</ele><time>2026-04-26T08:13:24.936Z</time></trkpt><trkpt lat="43.886535" lon="12.610065"><ele>432.5</ele><time>2026-04-26T08:13:25.937Z</time></trkpt><trkpt lat="43.8866033" lon="12.6100033"><ele>434.33333333333337</ele><time>2026-04-26T08:13:26.937Z</time></trkpt><trkpt lat="43.8866783" lon="12.60993"><ele>436.1666666666667</ele><time>2026-04-26T08:13:27.937Z</time></trkpt><trkpt lat="43.8867533" lon="12.60985"><ele>438.0</ele><time>2026-04-26T08:13:28.937Z</time></trkpt><trkpt lat="43.886835" lon="12.6097633"><ele>438.0</ele><time>2026-04-26T08:13:29.937Z</time></trkpt><trkpt lat="43.8869233" lon="12.6096783"><ele>438.0</ele><time>2026-04-26T08:13:30.936Z</time></trkpt><trkpt lat="43.8870133" lon="12.60959"><ele>438.0</ele><time>2026-04-26T08:13:31.937Z</time></trkpt><trkpt lat="43.8871033" lon="12.609485"><ele>438.0</ele><time>2026-04-26T08:13:32.936Z</time></trkpt><trkpt lat="43.887195" lon="12.6093817"><ele>443.25</ele><time>2026-04-26T08:13:33.937Z</time></trkpt><trkpt lat="43.8872929" lon="12.6092943"><ele>448.5</ele><time>2026-04-26T08:13:34.937Z</time></trkpt><trkpt lat="43.8873876" lon="12.6091954"><ele>453.75</ele><time>2026-04-26T08:13:35.937Z</time></trkpt><trkpt lat="43.8874828" lon="12.6091098"><ele>459.0</ele><time>2026-04-26T08:13:36.937Z</time></trkpt><trkpt lat="43.8875776" lon="12.6090382"><ele>457.2</ele><time>2026-04-26T08:13:37.937Z</time></trkpt><trkpt lat="43.8876741" lon="12.6089866"><ele>455.4</ele><time>2026-04-26T08:13:38.937Z</time></trkpt><trkpt lat="43.8877655" lon="12.6089444"><ele>453.6</ele><time>2026-04-26T08:13:39.937Z</time></trkpt><trkpt lat="43.8878467" lon="12.6089075"><ele>451.8</ele><time>2026-04-26T08:13:40.937Z</time></trkpt><trkpt lat="43.8879145" lon="12.6088717"><ele>450.0</ele><time>2026-04-26T08:13:41.936Z</time></trkpt><trkpt lat="43.8880126" lon="12.608782"><ele>450.0</ele><time>2026-04-26T08:13:43.937Z</time></trkpt><trkpt lat="43.8880614" lon="12.6087199"><ele>450.0</ele><time>2026-04-26T08:13:44.936Z</time></trkpt><trkpt lat="43.8881493" lon="12.6086247"><ele>450.0</ele><time>2026-04-26T08:13:46.936Z</time></trkpt><trkpt lat="43.8882007" lon="12.608571"><ele>450.0</ele><time>2026-04-26T08:13:48.937Z</time></trkpt><trkpt lat="43.8882413" lon="12.6084748"><ele>450.0</ele><time>2026-04-26T08:13:51.937Z</time></trkpt><trkpt lat="43.8882738" lon="12.6083919"><ele>450.0</ele><time>2026-04-26T08:13:53.937Z</time></trkpt><trkpt lat="43.8883384" lon="12.6083046"><ele>449.0</ele><time>2026-04-26T08:13:56.936Z</time></trkpt><trkpt lat="43.8883776" lon="12.6082295"><ele>448.0</ele><time>2026-04-26T08:13:58.937Z</time></trkpt><trkpt lat="43.8884083" lon="12.6081489"><ele>447.0</ele><time>2026-04-26T08:14:00.936Z</time></trkpt><trkpt lat="43.8884334" lon="12.6080387"><ele>446.0</ele><time>2026-04-26T08:14:02.937Z</time></trkpt><trkpt lat="43.8884758" lon="12.6079224"><ele>445.0</ele><time>2026-04-26T08:14:04.937Z</time></trkpt><trkpt lat="43.8885201" lon="12.6077957"><ele>444.0</ele><time>2026-04-26T08:14:06.937Z</time></trkpt><trkpt lat="43.88856" lon="12.607675"><ele>444.0</ele><time>2026-04-26T08:14:08.937Z</time></trkpt><trkpt lat="43.88861" lon="12.6075267"><ele>444.0</ele><time>2026-04-26T08:14:11.937Z</time></trkpt><trkpt lat="43.8886483" lon="12.6074383"><ele>444.0</ele><time>2026-04-26T08:14:13.937Z</time></trkpt><trkpt lat="43.8886783" lon="12.6073567"><ele>444.0</ele><time>2026-04-26T08:14:15.936Z</time></trkpt><trkpt lat="43.88872" lon="12.6072367"><ele>444.0</ele><time>2026-04-26T08:14:18.937Z</time></trkpt><trkpt lat="43.8887667" lon="12.6071283"><ele>444.0</ele><time>2026-04-26T08:14:20.937Z</time></trkpt><trkpt lat="43.8888333" lon="12.6070067"><ele>444.0</ele><time>2026-04-26T08:14:22.937Z</time></trkpt><trkpt lat="43.8888817" lon="12.6069117"><ele>444.0</ele><time>2026-04-26T08:14:24.937Z</time></trkpt><trkpt lat="43.8889017" lon="12.6068217"><ele>444.0</ele><time>2026-04-26T08:14:27.936Z</time></trkpt><trkpt lat="43.8888517" lon="12.6068833"><ele>444.0</ele><time>2026-04-26T08:16:46.937Z</time></trkpt><trkpt lat="43.8888117" lon="12.6070017"><ele>444.0</ele><time>2026-04-26T08:16:49.937Z</time></trkpt><trkpt lat="43.88877" lon="12.60711"><ele>444.0</ele><time>2026-04-26T08:16:51.937Z</time></trkpt><trkpt lat="43.8887067" lon="12.6072617"><ele>444.0</ele><time>2026-04-26T08:16:53.937Z</time></trkpt><trkpt lat="43.8886733" lon="12.6073567"><ele>444.0</ele><time>2026-04-26T08:16:54.937Z</time></trkpt><trkpt lat="43.888635" lon="12.60745"><ele>444.0</ele><time>2026-04-26T08:16:55.937Z</time></trkpt><trkpt lat="43.8885983" lon="12.6075417"><ele>444.0</ele><time>2026-04-26T08:16:56.937Z</time></trkpt><trkpt lat="43.8885633" lon="12.60764"><ele>444.0</ele><time>2026-04-26T08:16:57.937Z</time></trkpt><trkpt lat="43.8885283" lon="12.6077417"><ele>444.0</ele><time>2026-04-26T08:16:58.937Z</time></trkpt><trkpt lat="43.8884883" lon="12.6078417"><ele>443.8333333333333</ele><time>2026-04-26T08:16:59.937Z</time></trkpt><trkpt lat="43.8884483" lon="12.6079483"><ele>443.66666666666663</ele><time>2026-04-26T08:17:00.937Z</time></trkpt><trkpt lat="43.8884183" lon="12.6080483"><ele>443.5</ele><time>2026-04-26T08:17:01.937Z</time></trkpt><trkpt lat="43.8883867" lon="12.6081417"><ele>443.3333333333333</ele><time>2026-04-26T08:17:02.937Z</time></trkpt><trkpt lat="43.8883483" lon="12.608225"><ele>443.16666666666663</ele><time>2026-04-26T08:17:03.937Z</time></trkpt><trkpt lat="43.888305" lon="12.6082967"><ele>443.0</ele><time>2026-04-26T08:17:04.937Z</time></trkpt><trkpt lat="43.88824" lon="12.60843"><ele>444.16666666666663</ele><time>2026-04-26T08:17:06.937Z</time></trkpt><trkpt lat="43.888165" lon="12.6085717"><ele>445.3333333333333</ele><time>2026-04-26T08:17:08.937Z</time></trkpt><trkpt lat="43.8881067" lon="12.6086417"><ele>446.5</ele><time>2026-04-26T08:17:09.937Z</time></trkpt><trkpt lat="43.8880467" lon="12.6087133"><ele>447.66666666666663</ele><time>2026-04-26T08:17:10.937Z</time></trkpt><trkpt lat="43.8879833" lon="12.6087883"><ele>448.8333333333333</ele><time>2026-04-26T08:17:11.937Z</time></trkpt><trkpt lat="43.8879183" lon="12.6088533"><ele>450.0</ele><time>2026-04-26T08:17:12.936Z</time></trkpt><trkpt lat="43.8878467" lon="12.608915"><ele>450.0</ele><time>2026-04-26T08:17:13.937Z</time></trkpt><trkpt lat="43.88776" lon="12.608965"><ele>450.0</ele><time>2026-04-26T08:17:14.937Z</time></trkpt><trkpt lat="43.887665" lon="12.6090033"><ele>450.0</ele><time>2026-04-26T08:17:15.937Z</time></trkpt><trkpt lat="43.8875717" lon="12.6090517"><ele>450.0</ele><time>2026-04-26T08:17:16.936Z</time></trkpt><trkpt lat="43.8874767" lon="12.6091133"><ele>450.0</ele><time>2026-04-26T08:17:17.936Z</time></trkpt><trkpt lat="43.8873833" lon="12.609195"><ele>452.25</ele><time>2026-04-26T08:17:18.937Z</time></trkpt><trkpt lat="43.8872883" lon="12.6092883"><ele>454.5</ele><time>2026-04-26T08:17:19.936Z</time></trkpt><trkpt lat="43.8871883" lon="12.6093917"><ele>456.75</ele><time>2026-04-26T08:17:20.937Z</time></trkpt><trkpt lat="43.887095" lon="12.609485"><ele>459.0</ele><time>2026-04-26T08:17:21.937Z</time></trkpt><trkpt lat="43.8870033" lon="12.6095817"><ele>457.2</ele><time>2026-04-26T08:17:22.937Z</time></trkpt><trkpt lat="43.8869117" lon="12.6096683"><ele>455.4</ele><time>2026-04-26T08:17:23.936Z</time></trkpt><trkpt lat="43.88683" lon="12.6097567"><ele>453.6</ele><time>2026-04-26T08:17:24.937Z</time></trkpt><trkpt lat="43.88676" lon="12.6098367"><ele>451.8</ele><time>2026-04-26T08:17:25.936Z</time></trkpt><trkpt lat="43.8866917" lon="12.6099067"><ele>450.0</ele><time>2026-04-26T08:17:26.936Z</time></trkpt><trkpt lat="43.88662" lon="12.6099833"><ele>450.0</ele><time>2026-04-26T08:17:27.937Z</time></trkpt><trkpt lat="43.8865517" lon="12.6100533"><ele>450.0</ele><time>2026-04-26T08:17:28.937Z</time></trkpt><trkpt lat="43.8864933" lon="12.6101217"><ele>450.0</ele><time>2026-04-26T08:17:29.937Z</time></trkpt><trkpt lat="43.88644" lon="12.6101917"><ele>450.0</ele><time>2026-04-26T08:17:30.936Z</time></trkpt><trkpt lat="43.8863983" lon="12.610275"><ele>450.0</ele><time>2026-04-26T08:17:31.936Z</time></trkpt><trkpt lat="43.8863617" lon="12.610365"><ele>450.0</ele><time>2026-04-26T08:17:32.937Z</time></trkpt><trkpt lat="43.8863233" lon="12.6104483"><ele>446.1666666666667</ele><time>2026-04-26T08:17:33.936Z</time></trkpt><trkpt lat="43.886275" lon="12.61052"><ele>442.33333333333337</ele><time>2026-04-26T08:17:34.937Z</time></trkpt><trkpt lat="43.88617" lon="12.610595"><ele>438.5</ele><time>2026-04-26T08:17:36.936Z</time></trkpt><trkpt lat="43.8861083" lon="12.6106617"><ele>434.6666666666667</ele><time>2026-04-26T08:17:39.936Z</time></trkpt><trkpt lat="43.8861833" lon="12.6106867"><ele>430.83333333333337</ele><time>2026-04-26T08:17:43.937Z</time></trkpt><trkpt lat="43.8862633" lon="12.610635"><ele>427.0</ele><time>2026-04-26T08:17:45.937Z</time></trkpt><trkpt lat="43.8863267" lon="12.6106"><ele>427.0</ele><time>2026-04-26T08:17:48.937Z</time></trkpt><trkpt lat="43.8863867" lon="12.6105583"><ele>427.00000000000006</ele><time>2026-04-26T08:18:17.936Z</time></trkpt><trkpt lat="43.886505" lon="12.610495"><ele>427.00000000000006</ele><time>2026-04-26T08:18:19.937Z</time></trkpt><trkpt lat="43.8865783" lon="12.610445"><ele>427.0</ele><time>2026-04-26T08:18:20.937Z</time></trkpt><trkpt lat="43.8866583" lon="12.610385"><ele>427.0</ele><time>2026-04-26T08:18:21.937Z</time></trkpt><trkpt lat="43.8867367" lon="12.6103083"><ele>429.75</ele><time>2026-04-26T08:18:22.937Z</time></trkpt><trkpt lat="43.88682" lon="12.610225"><ele>432.5</ele><time>2026-04-26T08:18:23.937Z</time></trkpt><trkpt lat="43.8869133" lon="12.610145"><ele>435.25</ele><time>2026-04-26T08:18:24.937Z</time></trkpt><trkpt lat="43.887015" lon="12.6100633"><ele>438.0</ele><time>2026-04-26T08:18:25.937Z</time></trkpt><trkpt lat="43.8871233" lon="12.60998"><ele>438.0</ele><time>2026-04-26T08:18:26.937Z</time></trkpt><trkpt lat="43.8872367" lon="12.609885"><ele>438.0</ele><time>2026-04-26T08:18:27.936Z</time></trkpt><trkpt lat="43.8873517" lon="12.6097867"><ele>438.0</ele><time>2026-04-26T08:18:28.937Z</time></trkpt><trkpt lat="43.8874717" lon="12.6096933"><ele>438.0</ele><time>2026-04-26T08:18:29.937Z</time></trkpt><trkpt lat="43.8876033" lon="12.6096117"><ele>441.0</ele><time>2026-04-26T08:18:30.937Z</time></trkpt><trkpt lat="43.8877367" lon="12.60953"><ele>444.0</ele><time>2026-04-26T08:18:31.937Z</time></trkpt><trkpt lat="43.8878683" lon="12.609435"><ele>447.0</ele><time>2026-04-26T08:18:32.937Z</time></trkpt><trkpt lat="43.8879967" lon="12.6093383"><ele>450.0</ele><time>2026-04-26T08:18:33.936Z</time></trkpt><trkpt lat="43.8881217" lon="12.60924"><ele>450.0</ele><time>2026-04-26T08:18:34.937Z</time></trkpt><trkpt lat="43.8882483" lon="12.60915"><ele>450.0</ele><time>2026-04-26T08:18:35.937Z</time></trkpt><trkpt lat="43.8883733" lon="12.609085"><ele>450.0</ele><time>2026-04-26T08:18:36.936Z</time></trkpt><trkpt lat="43.8884883" lon="12.6090283"><ele>450.0</ele><time>2026-04-26T08:18:37.937Z</time></trkpt><trkpt lat="43.8885867" lon="12.6089667"><ele>448.8333333333333</ele><time>2026-04-26T08:18:38.937Z</time></trkpt><trkpt lat="43.8886717" lon="12.6089083"><ele>447.66666666666663</ele><time>2026-04-26T08:18:39.937Z</time></trkpt><trkpt lat="43.8887433" lon="12.60885"><ele>446.5</ele><time>2026-04-26T08:18:40.937Z</time></trkpt><trkpt lat="43.888805" lon="12.6087883"><ele>445.3333333333333</ele><time>2026-04-26T08:18:41.937Z</time></trkpt><trkpt lat="43.8888567" lon="12.6087233"><ele>444.16666666666663</ele><time>2026-04-26T08:18:42.937Z</time></trkpt><trkpt lat="43.8889017" lon="12.6086517"><ele>443.0</ele><time>2026-04-26T08:18:43.937Z</time></trkpt><trkpt lat="43.8889367" lon="12.6085567"><ele>443.0</ele><time>2026-04-26T08:18:44.937Z</time></trkpt><trkpt lat="43.888985" lon="12.6084517"><ele>442.99999999999994</ele><time>2026-04-26T08:18:45.937Z</time></trkpt><trkpt lat="43.889045" lon="12.60833"><ele>442.99999999999994</ele><time>2026-04-26T08:18:46.937Z</time></trkpt><trkpt lat="43.8891217" lon="12.6082017"><ele>443.0</ele><time>2026-04-26T08:18:47.936Z</time></trkpt><trkpt lat="43.8891867" lon="12.608055"><ele>443.0</ele><time>2026-04-26T08:18:48.937Z</time></trkpt><trkpt lat="43.8892333" lon="12.6079033"><ele>434.79999999999995</ele><time>2026-04-26T08:18:49.937Z</time></trkpt><trkpt lat="43.8892717" lon="12.6077633"><ele>426.59999999999997</ele><time>2026-04-26T08:18:50.937Z</time></trkpt><trkpt lat="43.889315" lon="12.6076417"><ele>418.4</ele><time>2026-04-26T08:18:51.936Z</time></trkpt><trkpt lat="43.8893583" lon="12.6075217"><ele>410.20000000000005</ele><time>2026-04-26T08:18:52.937Z</time></trkpt><trkpt lat="43.8893883" lon="12.6073883"><ele>402.0</ele><time>2026-04-26T08:18:53.936Z</time></trkpt><trkpt lat="43.889395" lon="12.60724"><ele>402.0</ele><time>2026-04-26T08:18:54.936Z</time></trkpt><trkpt lat="43.8893917" lon="12.60708"><ele>402.0</ele><time>2026-04-26T08:18:55.937Z</time></trkpt><trkpt lat="43.889395" lon="12.60691"><ele>402.0</ele><time>2026-04-26T08:18:56.936Z</time></trkpt><trkpt lat="43.8894167" lon="12.6067317"><ele>402.0</ele><time>2026-04-26T08:18:57.936Z</time></trkpt><trkpt lat="43.8894667" lon="12.6065583"><ele>402.0</ele><time>2026-04-26T08:18:58.936Z</time></trkpt><trkpt lat="43.8895167" lon="12.6063767"><ele>402.0</ele><time>2026-04-26T08:18:59.936Z</time></trkpt><trkpt lat="43.889575" lon="12.6061917"><ele>402.0</ele><time>2026-04-26T08:19:00.937Z</time></trkpt><trkpt lat="43.8896367" lon="12.606005"><ele>402.0</ele><time>2026-04-26T08:19:01.937Z</time></trkpt><trkpt lat="43.8896967" lon="12.6058183"><ele>403.25</ele><time>2026-04-26T08:19:02.936Z</time></trkpt><trkpt lat="43.889745" lon="12.6056333"><ele>404.5</ele><time>2026-04-26T08:19:03.937Z</time></trkpt><trkpt lat="43.8897733" lon="12.60546"><ele>405.75</ele><time>2026-04-26T08:19:04.937Z</time></trkpt><trkpt lat="43.88978" lon="12.6052983"><ele>407.0</ele><time>2026-04-26T08:19:05.937Z</time></trkpt><trkpt lat="43.8897733" lon="12.6051567"><ele>407.66666666666663</ele><time>2026-04-26T08:19:06.937Z</time></trkpt><trkpt lat="43.8897683" lon="12.6050383"><ele>408.3333333333333</ele><time>2026-04-26T08:19:07.937Z</time></trkpt><trkpt lat="43.8897667" lon="12.6049417"><ele>409.0</ele><time>2026-04-26T08:19:08.937Z</time></trkpt><trkpt lat="43.8897933" lon="12.60486"><ele>409.66666666666663</ele><time>2026-04-26T08:19:09.937Z</time></trkpt><trkpt lat="43.8898817" lon="12.6047967"><ele>410.3333333333333</ele><time>2026-04-26T08:19:11.937Z</time></trkpt><trkpt lat="43.8899183" lon="12.6049683"><ele>411.0</ele><time>2026-04-26T08:19:13.937Z</time></trkpt><trkpt lat="43.8899233" lon="12.6050817"><ele>411.0</ele><time>2026-04-26T08:19:14.936Z</time></trkpt><trkpt lat="43.8899333" lon="12.6052"><ele>411.0</ele><time>2026-04-26T08:19:15.937Z</time></trkpt><trkpt lat="43.8899483" lon="12.6053283"><ele>411.0</ele><time>2026-04-26T08:19:16.936Z</time></trkpt><trkpt lat="43.8899683" lon="12.6054633"><ele>411.0</ele><time>2026-04-26T08:19:17.936Z</time></trkpt><trkpt lat="43.8899767" lon="12.6056067"><ele>411.0</ele><time>2026-04-26T08:19:18.937Z</time></trkpt><trkpt lat="43.8899817" lon="12.6057567"><ele>410.20000000000005</ele><time>2026-04-26T08:19:19.936Z</time></trkpt><trkpt lat="43.889975" lon="12.6059083"><ele>409.40000000000003</ele><time>2026-04-26T08:19:20.936Z</time></trkpt><trkpt lat="43.8899433" lon="12.6060567"><ele>408.6</ele><time>2026-04-26T08:19:21.937Z</time></trkpt><trkpt lat="43.889915" lon="12.606205"><ele>407.8</ele><time>2026-04-26T08:19:22.937Z</time></trkpt><trkpt lat="43.8898933" lon="12.6063567"><ele>407.0</ele><time>2026-04-26T08:19:23.937Z</time></trkpt><trkpt lat="43.88988" lon="12.6065133"><ele>406.0</ele><time>2026-04-26T08:19:24.937Z</time></trkpt><trkpt lat="43.8898717" lon="12.6066683"><ele>405.0</ele><time>2026-04-26T08:19:25.937Z</time></trkpt><trkpt lat="43.88988" lon="12.6068217"><ele>404.0</ele><time>2026-04-26T08:19:26.937Z</time></trkpt><trkpt lat="43.8899033" lon="12.6069667"><ele>403.0</ele><time>2026-04-26T08:19:27.937Z</time></trkpt><trkpt lat="43.8899267" lon="12.607105"><ele>402.0</ele><time>2026-04-26T08:19:28.937Z</time></trkpt><trkpt lat="43.889945" lon="12.607225"><ele>402.0</ele><time>2026-04-26T08:19:29.938Z</time></trkpt><trkpt lat="43.8899733" lon="12.6073233"><ele>402.0</ele><time>2026-04-26T08:19:30.938Z</time></trkpt><trkpt lat="43.8900283" lon="12.6073917"><ele>402.0</ele><time>2026-04-26T08:19:31.938Z</time></trkpt><trkpt lat="43.8901033" lon="12.6074283"><ele>402.0</ele><time>2026-04-26T08:19:32.938Z</time></trkpt><trkpt lat="43.8901783" lon="12.6074483"><ele>402.0</ele><time>2026-04-26T08:19:33.938Z</time></trkpt><trkpt lat="43.8902583" lon="12.6074433"><ele>402.0</ele><time>2026-04-26T08:19:34.938Z</time></trkpt><trkpt lat="43.8903217" lon="12.6074633"><ele>396.20000000000005</ele><time>2026-04-26T08:19:35.938Z</time></trkpt><trkpt lat="43.89035" lon="12.6076217"><ele>390.4</ele><time>2026-04-26T08:19:37.938Z</time></trkpt><trkpt lat="43.8903367" lon="12.60773"><ele>384.6</ele><time>2026-04-26T08:19:38.938Z</time></trkpt><trkpt lat="43.89034" lon="12.607855"><ele>378.79999999999995</ele><time>2026-04-26T08:19:39.938Z</time></trkpt><trkpt lat="43.890345" lon="12.6079983"><ele>373.0</ele><time>2026-04-26T08:19:40.937Z</time></trkpt><trkpt lat="43.890355" lon="12.6081533"><ele>373.0</ele><time>2026-04-26T08:19:41.938Z</time></trkpt><trkpt lat="43.8903867" lon="12.6083083"><ele>373.0</ele><time>2026-04-26T08:19:42.938Z</time></trkpt><trkpt lat="43.8904267" lon="12.6084583"><ele>373.0</ele><time>2026-04-26T08:19:43.938Z</time></trkpt><trkpt lat="43.89047" lon="12.6086067"><ele>373.0</ele><time>2026-04-26T08:19:44.938Z</time></trkpt><trkpt lat="43.8905083" lon="12.608745"><ele>373.3333333333333</ele><time>2026-04-26T08:19:45.938Z</time></trkpt><trkpt lat="43.89053" lon="12.60886"><ele>373.66666666666663</ele><time>2026-04-26T08:19:46.938Z</time></trkpt><trkpt lat="43.89054" lon="12.6089467"><ele>374.0</ele><time>2026-04-26T08:19:47.937Z</time></trkpt><trkpt lat="43.8905683" lon="12.60905"><ele>374.3333333333333</ele><time>2026-04-26T08:19:49.938Z</time></trkpt><trkpt lat="43.8905883" lon="12.6089117"><ele>374.6666666666667</ele><time>2026-04-26T08:19:52.937Z</time></trkpt><trkpt lat="43.8905717" lon="12.608815"><ele>375.0</ele><time>2026-04-26T08:19:53.938Z</time></trkpt><trkpt lat="43.8905633" lon="12.6086883"><ele>374.6</ele><time>2026-04-26T08:19:54.937Z</time></trkpt><trkpt lat="43.890555" lon="12.60855"><ele>374.2</ele><time>2026-04-26T08:19:55.938Z</time></trkpt><trkpt lat="43.8905533" lon="12.6084083"><ele>373.79999999999995</ele><time>2026-04-26T08:19:56.938Z</time></trkpt><trkpt lat="43.8905567" lon="12.608265"><ele>373.4</ele><time>2026-04-26T08:19:57.938Z</time></trkpt><trkpt lat="43.890575" lon="12.6081217"><ele>373.0</ele><time>2026-04-26T08:19:58.937Z</time></trkpt><trkpt lat="43.8905917" lon="12.6079733"><ele>372.75</ele><time>2026-04-26T08:19:59.937Z</time></trkpt><trkpt lat="43.8906217" lon="12.60782"><ele>372.5</ele><time>2026-04-26T08:20:00.938Z</time></trkpt><trkpt lat="43.890655" lon="12.60767"><ele>372.25</ele><time>2026-04-26T08:20:01.938Z</time></trkpt><trkpt lat="43.89069" lon="12.6075183"><ele>372.0</ele><time>2026-04-26T08:20:02.938Z</time></trkpt><trkpt lat="43.8907283" lon="12.607365"><ele>372.0</ele><time>2026-04-26T08:20:03.938Z</time></trkpt><trkpt lat="43.89076" lon="12.6072"><ele>372.0</ele><time>2026-04-26T08:20:04.938Z</time></trkpt><trkpt lat="43.8907783" lon="12.6070267"><ele>372.0</ele><time>2026-04-26T08:20:05.938Z</time></trkpt><trkpt lat="43.8908033" lon="12.6068633"><ele>372.0</ele><time>2026-04-26T08:20:06.938Z</time></trkpt><trkpt lat="43.8908333" lon="12.6066967"><ele>371.25</ele><time>2026-04-26T08:20:07.938Z</time></trkpt><trkpt lat="43.890865" lon="12.6065317"><ele>370.5</ele><time>2026-04-26T08:20:08.938Z</time></trkpt><trkpt lat="43.8908917" lon="12.606375"><ele>369.75</ele><time>2026-04-26T08:20:09.937Z</time></trkpt><trkpt lat="43.8908933" lon="12.6062133"><ele>369.0</ele><time>2026-04-26T08:20:10.938Z</time></trkpt><trkpt lat="43.8908833" lon="12.606045"><ele>368.5</ele><time>2026-04-26T08:20:11.938Z</time></trkpt><trkpt lat="43.8908767" lon="12.605875"><ele>368.0</ele><time>2026-04-26T08:20:12.938Z</time></trkpt><trkpt lat="43.8908833" lon="12.6057133"><ele>367.5</ele><time>2026-04-26T08:20:13.937Z</time></trkpt><trkpt lat="43.890905" lon="12.6055517"><ele>367.0</ele><time>2026-04-26T08:20:14.937Z</time></trkpt><trkpt lat="43.8909383" lon="12.605405"><ele>361.3333333333333</ele><time>2026-04-26T08:20:15.938Z</time></trkpt><trkpt lat="43.8909767" lon="12.6052867"><ele>355.66666666666663</ele><time>2026-04-26T08:20:16.938Z</time></trkpt><trkpt lat="43.8910133" lon="12.6051917"><ele>350.0</ele><time>2026-04-26T08:20:17.938Z</time></trkpt><trkpt lat="43.89105" lon="12.6051017"><ele>344.3333333333333</ele><time>2026-04-26T08:20:18.938Z</time></trkpt><trkpt lat="43.89108" lon="12.6050017"><ele>338.6666666666667</ele><time>2026-04-26T08:20:19.938Z</time></trkpt><trkpt lat="43.8911033" lon="12.6048833"><ele>333.0</ele><time>2026-04-26T08:20:20.938Z</time></trkpt><trkpt lat="43.89111" lon="12.6047417"><ele>333.0</ele><time>2026-04-26T08:20:21.938Z</time></trkpt><trkpt lat="43.8911033" lon="12.6046017"><ele>333.0</ele><time>2026-04-26T08:20:22.938Z</time></trkpt><trkpt lat="43.8910833" lon="12.6044567"><ele>333.0</ele><time>2026-04-26T08:20:23.938Z</time></trkpt><trkpt lat="43.89106" lon="12.604305"><ele>333.0</ele><time>2026-04-26T08:20:24.938Z</time></trkpt><trkpt lat="43.8910417" lon="12.6041517"><ele>333.0</ele><time>2026-04-26T08:20:25.938Z</time></trkpt><trkpt lat="43.8910283" lon="12.6039783"><ele>332.5</ele><time>2026-04-26T08:20:26.938Z</time></trkpt><trkpt lat="43.89103" lon="12.603805"><ele>332.0</ele><time>2026-04-26T08:20:27.938Z</time></trkpt><trkpt lat="43.8910383" lon="12.60363"><ele>331.5</ele><time>2026-04-26T08:20:28.938Z</time></trkpt><trkpt lat="43.8910533" lon="12.603455"><ele>331.0</ele><time>2026-04-26T08:20:29.938Z</time></trkpt><trkpt lat="43.8910617" lon="12.6032833"><ele>329.0</ele><time>2026-04-26T08:20:30.938Z</time></trkpt><trkpt lat="43.891065" lon="12.6031067"><ele>327.0</ele><time>2026-04-26T08:20:31.938Z</time></trkpt><trkpt lat="43.8910633" lon="12.602925"><ele>325.0</ele><time>2026-04-26T08:20:32.938Z</time></trkpt><trkpt lat="43.8910717" lon="12.60275"><ele>323.0</ele><time>2026-04-26T08:20:33.937Z</time></trkpt><trkpt lat="43.8910783" lon="12.60257"><ele>322.59999999999997</ele><time>2026-04-26T08:20:34.937Z</time></trkpt><trkpt lat="43.8911017" lon="12.6024"><ele>322.2</ele><time>2026-04-26T08:20:35.938Z</time></trkpt><trkpt lat="43.8911333" lon="12.602235"><ele>321.8</ele><time>2026-04-26T08:20:36.938Z</time></trkpt><trkpt lat="43.8911633" lon="12.6020917"><ele>321.4</ele><time>2026-04-26T08:20:37.938Z</time></trkpt><trkpt lat="43.891185" lon="12.60197"><ele>321.0</ele><time>2026-04-26T08:20:38.938Z</time></trkpt><trkpt lat="43.8911967" lon="12.6018683"><ele>321.6666666666667</ele><time>2026-04-26T08:20:39.938Z</time></trkpt><trkpt lat="43.8912333" lon="12.6017667"><ele>322.3333333333333</ele><time>2026-04-26T08:20:41.938Z</time></trkpt><trkpt lat="43.8912967" lon="12.60173"><ele>323.0</ele><time>2026-04-26T08:20:44.937Z</time></trkpt><trkpt lat="43.8913867" lon="12.6016933"><ele>323.66666666666663</ele><time>2026-04-26T08:20:46.937Z</time></trkpt><trkpt lat="43.89145" lon="12.6016783"><ele>324.3333333333333</ele><time>2026-04-26T08:20:47.938Z</time></trkpt><trkpt lat="43.89152" lon="12.60166"><ele>325.0</ele><time>2026-04-26T08:20:48.938Z</time></trkpt><trkpt lat="43.8915983" lon="12.601645"><ele>325.0</ele><time>2026-04-26T08:20:49.937Z</time></trkpt><trkpt lat="43.8916783" lon="12.6016233"><ele>325.0</ele><time>2026-04-26T08:20:50.938Z</time></trkpt><trkpt lat="43.891755" lon="12.6015717"><ele>325.0</ele><time>2026-04-26T08:20:51.937Z</time></trkpt><trkpt lat="43.8918233" lon="12.6014867"><ele>325.0</ele><time>2026-04-26T08:20:52.938Z</time></trkpt><trkpt lat="43.891885" lon="12.601385"><ele>325.0</ele><time>2026-04-26T08:20:53.938Z</time></trkpt><trkpt lat="43.8919317" lon="12.6012717"><ele>325.0</ele><time>2026-04-26T08:20:54.937Z</time></trkpt><trkpt lat="43.8919633" lon="12.60115"><ele>320.8333333333333</ele><time>2026-04-26T08:20:55.938Z</time></trkpt><trkpt lat="43.8919717" lon="12.6010217"><ele>316.66666666666663</ele><time>2026-04-26T08:20:56.938Z</time></trkpt><trkpt lat="43.8919633" lon="12.6008983"><ele>312.5</ele><time>2026-04-26T08:20:57.938Z</time></trkpt><trkpt lat="43.8919483" lon="12.6007833"><ele>308.3333333333333</ele><time>2026-04-26T08:20:58.937Z</time></trkpt><trkpt lat="43.8919333" lon="12.6006867"><ele>304.1666666666667</ele><time>2026-04-26T08:20:59.938Z</time></trkpt><trkpt lat="43.8919217" lon="12.6005533"><ele>300.0</ele><time>2026-04-26T08:21:01.938Z</time></trkpt><trkpt lat="43.8919317" lon="12.600435"><ele>300.0</ele><time>2026-04-26T08:21:05.938Z</time></trkpt><trkpt lat="43.8919117" lon="12.6003383"><ele>300.0</ele><time>2026-04-26T08:21:07.938Z</time></trkpt><trkpt lat="43.89187" lon="12.6002"><ele>300.0</ele><time>2026-04-26T08:21:09.937Z</time></trkpt><trkpt lat="43.8918167" lon="12.6000533"><ele>300.0</ele><time>2026-04-26T08:21:11.937Z</time></trkpt><trkpt lat="43.89176" lon="12.5999433"><ele>300.0</ele><time>2026-04-26T08:21:13.936Z</time></trkpt><trkpt lat="43.891745" lon="12.5998333"><ele>299.3333333333333</ele><time>2026-04-26T08:21:15.937Z</time></trkpt><trkpt lat="43.891785" lon="12.59972"><ele>298.6666666666667</ele><time>2026-04-26T08:21:17.936Z</time></trkpt><trkpt lat="43.8918183" lon="12.59963"><ele>298.0</ele><time>2026-04-26T08:21:19.937Z</time></trkpt><trkpt lat="43.89186" lon="12.59955"><ele>297.33333333333337</ele><time>2026-04-26T08:21:23.937Z</time></trkpt><trkpt lat="43.8919083" lon="12.5994667"><ele>296.6666666666667</ele><time>2026-04-26T08:21:28.937Z</time></trkpt><trkpt lat="43.891975" lon="12.5993967"><ele>296.0</ele><time>2026-04-26T08:21:32.937Z</time></trkpt><trkpt lat="43.892025" lon="12.5994717"><ele>296.0</ele><time>2026-04-26T08:21:35.937Z</time></trkpt><trkpt lat="43.8920117" lon="12.5995817"><ele>296.0</ele><time>2026-04-26T08:21:37.937Z</time></trkpt><trkpt lat="43.8920117" lon="12.599705"><ele>296.0</ele><time>2026-04-26T08:21:39.937Z</time></trkpt><trkpt lat="43.8920633" lon="12.5998067"><ele>296.0</ele><time>2026-04-26T08:21:41.937Z</time></trkpt><trkpt lat="43.8921383" lon="12.5998483"><ele>296.0</ele><time>2026-04-26T08:21:43.937Z</time></trkpt><trkpt lat="43.8922167" lon="12.5997917"><ele>296.0</ele><time>2026-04-26T08:21:46.937Z</time></trkpt><trkpt lat="43.8922683" lon="12.5997167"><ele>296.0</ele><time>2026-04-26T08:21:48.936Z</time></trkpt><trkpt lat="43.8923417" lon="12.5996417"><ele>296.0</ele><time>2026-04-26T08:21:50.937Z</time></trkpt><trkpt lat="43.8924167" lon="12.5995517"><ele>296.0</ele><time>2026-04-26T08:21:52.937Z</time></trkpt><trkpt lat="43.8925083" lon="12.5994667"><ele>296.0</ele><time>2026-04-26T08:21:54.937Z</time></trkpt><trkpt lat="43.8926033" lon="12.5993733"><ele>296.0</ele><time>2026-04-26T08:21:56.937Z</time></trkpt><trkpt lat="43.8926683" lon="12.5992867"><ele>290.33333333333337</ele><time>2026-04-26T08:21:58.937Z</time></trkpt><trkpt lat="43.8927167" lon="12.5992083"><ele>284.6666666666667</ele><time>2026-04-26T08:22:00.937Z</time></trkpt><trkpt lat="43.892765" lon="12.59913"><ele>279.0</ele><time>2026-04-26T08:22:02.937Z</time></trkpt><trkpt lat="43.892815" lon="12.59906"><ele>273.3333333333333</ele><time>2026-04-26T08:22:04.936Z</time></trkpt><trkpt lat="43.8928517" lon="12.5989633"><ele>267.66666666666663</ele><time>2026-04-26T08:22:06.937Z</time></trkpt><trkpt lat="43.8928683" lon="12.5988317"><ele>262.0</ele><time>2026-04-26T08:22:08.937Z</time></trkpt><trkpt lat="43.89287" lon="12.5986883"><ele>260.4</ele><time>2026-04-26T08:22:10.937Z</time></trkpt><trkpt lat="43.8928783" lon="12.5985283"><ele>258.79999999999995</ele><time>2026-04-26T08:22:12.937Z</time></trkpt><trkpt lat="43.89285" lon="12.5983433"><ele>257.2</ele><time>2026-04-26T08:23:17.937Z</time></trkpt><trkpt lat="43.8927667" lon="12.5983367"><ele>255.6</ele><time>2026-04-26T08:23:20.937Z</time></trkpt><trkpt lat="43.8926933" lon="12.59835"><ele>254.0</ele><time>2026-04-26T08:23:23.937Z</time></trkpt><trkpt lat="43.8926633" lon="12.598245"><ele>254.00000000000003</ele><time>2026-04-26T08:23:26.937Z</time></trkpt><trkpt lat="43.8926817" lon="12.5981517"><ele>254.0</ele><time>2026-04-26T08:23:28.937Z</time></trkpt><trkpt lat="43.8927117" lon="12.5980117"><ele>254.0</ele><time>2026-04-26T08:23:30.937Z</time></trkpt><trkpt lat="43.89275" lon="12.5978667"><ele>254.0</ele><time>2026-04-26T08:23:32.937Z</time></trkpt><trkpt lat="43.8927867" lon="12.5977717"><ele>254.00000000000003</ele><time>2026-04-26T08:23:34.936Z</time></trkpt><trkpt lat="43.8928233" lon="12.5977"><ele>254.0</ele><time>2026-04-26T08:23:36.936Z</time></trkpt><trkpt lat="43.8928683" lon="12.59762"><ele>252.00000000000003</ele><time>2026-04-26T08:23:39.937Z</time></trkpt><trkpt lat="43.8929067" lon="12.5975433"><ele>250.0</ele><time>2026-04-26T08:23:42.937Z</time></trkpt><trkpt lat="43.89293" lon="12.5974433"><ele>248.0</ele><time>2026-04-26T08:23:45.937Z</time></trkpt><trkpt lat="43.8929567" lon="12.5973517"><ele>246.0</ele><time>2026-04-26T08:23:48.937Z</time></trkpt><trkpt lat="43.8929917" lon="12.5972267"><ele>244.00000000000003</ele><time>2026-04-26T08:23:55.937Z</time></trkpt><trkpt lat="43.89306" lon="12.59715"><ele>242.0</ele><time>2026-04-26T08:23:59.936Z</time></trkpt><trkpt lat="43.8931083" lon="12.59709"><ele>242.00000000000003</ele><time>2026-04-26T08:24:01.937Z</time></trkpt><trkpt lat="43.8931533" lon="12.5970283"><ele>242.0</ele><time>2026-04-26T08:24:03.937Z</time></trkpt><trkpt lat="43.8932117" lon="12.5969817"><ele>242.0</ele><time>2026-04-26T08:24:06.937Z</time></trkpt><trkpt lat="43.8932933" lon="12.5968367"><ele>242.0</ele><time>2026-04-26T08:24:29.937Z</time></trkpt><trkpt lat="43.8932183" lon="12.5968233"><ele>242.00000000000003</ele><time>2026-04-26T08:24:33.936Z</time></trkpt><trkpt lat="43.8931083" lon="12.59683"><ele>242.0</ele><time>2026-04-26T08:24:35.937Z</time></trkpt><trkpt lat="43.8930433" lon="12.5968317"><ele>238.33333333333334</ele><time>2026-04-26T08:24:36.937Z</time></trkpt><trkpt lat="43.8929767" lon="12.5968317"><ele>234.66666666666669</ele><time>2026-04-26T08:24:37.937Z</time></trkpt><trkpt lat="43.8929133" lon="12.5968217"><ele>231.0</ele><time>2026-04-26T08:24:38.937Z</time></trkpt><trkpt lat="43.8928467" lon="12.5968083"><ele>227.33333333333331</ele><time>2026-04-26T08:24:39.937Z</time></trkpt><trkpt lat="43.89273" lon="12.5967767"><ele>223.66666666666666</ele><time>2026-04-26T08:24:41.936Z</time></trkpt><trkpt lat="43.8926483" lon="12.5967467"><ele>220.0</ele><time>2026-04-26T08:24:43.937Z</time></trkpt><trkpt lat="43.89258" lon="12.5967233"><ele>219.99999999999997</ele><time>2026-04-26T08:24:45.937Z</time></trkpt><trkpt lat="43.8925467" lon="12.5966433"><ele>220.0</ele><time>2026-04-26T08:24:47.937Z</time></trkpt><trkpt lat="43.8925833" lon="12.5965217"><ele>220.0</ele><time>2026-04-26T08:24:49.937Z</time></trkpt><trkpt lat="43.8926717" lon="12.5964583"><ele>220.0</ele><time>2026-04-26T08:24:51.937Z</time></trkpt><trkpt lat="43.89279" lon="12.596415"><ele>219.99999999999997</ele><time>2026-04-26T08:24:53.937Z</time></trkpt><trkpt lat="43.8928467" lon="12.5963733"><ele>220.0</ele><time>2026-04-26T08:24:54.937Z</time></trkpt><trkpt lat="43.8929" lon="12.5963217"><ele>219.99999999999997</ele><time>2026-04-26T08:24:55.937Z</time></trkpt><trkpt lat="43.892945" lon="12.59625"><ele>220.0</ele><time>2026-04-26T08:24:56.936Z</time></trkpt><trkpt lat="43.892985" lon="12.59617"><ele>220.0</ele><time>2026-04-26T08:24:57.937Z</time></trkpt><trkpt lat="43.893025" lon="12.5961"><ele>220.0</ele><time>2026-04-26T08:24:58.936Z</time></trkpt><trkpt lat="43.8930667" lon="12.5960267"><ele>220.0</ele><time>2026-04-26T08:24:59.937Z</time></trkpt><trkpt lat="43.8931083" lon="12.59595"><ele>219.99999999999997</ele><time>2026-04-26T08:25:00.937Z</time></trkpt><trkpt lat="43.893145" lon="12.5958717"><ele>220.0</ele><time>2026-04-26T08:25:01.937Z</time></trkpt><trkpt lat="43.89319" lon="12.5957233"><ele>215.33333333333331</ele><time>2026-04-26T08:25:03.937Z</time></trkpt><trkpt lat="43.8932283" lon="12.595605"><ele>210.66666666666666</ele><time>2026-04-26T08:25:05.936Z</time></trkpt><trkpt lat="43.8932433" lon="12.59551"><ele>206.0</ele><time>2026-04-26T08:25:07.937Z</time></trkpt><trkpt lat="43.8932367" lon="12.5953983"><ele>201.33333333333331</ele><time>2026-04-26T08:25:12.937Z</time></trkpt><trkpt lat="43.8932267" lon="12.5952767"><ele>196.66666666666666</ele><time>2026-04-26T08:25:16.937Z</time></trkpt><trkpt lat="43.8932383" lon="12.5951683"><ele>192.0</ele><time>2026-04-26T08:25:19.937Z</time></trkpt><trkpt lat="43.8932683" lon="12.5950733"><ele>187.83333333333334</ele><time>2026-04-26T08:25:22.937Z</time></trkpt><trkpt lat="43.8933083" lon="12.5949883"><ele>183.66666666666666</ele><time>2026-04-26T08:25:24.937Z</time></trkpt><trkpt lat="43.8933433" lon="12.594885"><ele>179.5</ele><time>2026-04-26T08:25:27.937Z</time></trkpt><trkpt lat="43.893355" lon="12.5947667"><ele>175.33333333333331</ele><time>2026-04-26T08:25:31.936Z</time></trkpt><trkpt lat="43.8933683" lon="12.5946733"><ele>171.16666666666666</ele><time>2026-04-26T08:25:33.937Z</time></trkpt><trkpt lat="43.89339" lon="12.5945617"><ele>167.0</ele><time>2026-04-26T08:25:35.937Z</time></trkpt><trkpt lat="43.89343" lon="12.5944467"><ele>161.2</ele><time>2026-04-26T08:25:37.937Z</time></trkpt><trkpt lat="43.89348" lon="12.5943117"><ele>155.39999999999998</ele><time>2026-04-26T08:25:39.937Z</time></trkpt><trkpt lat="43.8935133" lon="12.59416"><ele>149.60000000000002</ele><time>2026-04-26T08:25:41.937Z</time></trkpt><trkpt lat="43.8935183" lon="12.5940533"><ele>143.8</ele><time>2026-04-26T08:25:42.937Z</time></trkpt><trkpt lat="43.89352" lon="12.5939467"><ele>138.0</ele><time>2026-04-26T08:25:43.937Z</time></trkpt><trkpt lat="43.893535" lon="12.593805"><ele>138.0</ele><time>2026-04-26T08:25:45.936Z</time></trkpt><trkpt lat="43.893555" lon="12.59368"><ele>138.0</ele><time>2026-04-26T08:25:48.936Z</time></trkpt><trkpt lat="43.8934917" lon="12.593495"><ele>138.0</ele><time>2026-04-26T08:26:01.937Z</time></trkpt><trkpt lat="43.8934333" lon="12.593435"><ele>138.0</ele><time>2026-04-26T08:26:06.937Z</time></trkpt><trkpt lat="43.8933833" lon="12.5933517"><ele>138.0</ele><time>2026-04-26T08:26:08.937Z</time></trkpt><trkpt lat="43.8932983" lon="12.5932583"><ele>137.33333333333334</ele><time>2026-04-26T08:26:10.937Z</time></trkpt><trkpt lat="43.893205" lon="12.593185"><ele>136.66666666666666</ele><time>2026-04-26T08:26:12.937Z</time></trkpt><trkpt lat="43.8931283" lon="12.59315"><ele>136.0</ele><time>2026-04-26T08:26:15.936Z</time></trkpt><trkpt lat="43.8930667" lon="12.593115"><ele>135.33333333333331</ele><time>2026-04-26T08:30:14.938Z</time></trkpt><trkpt lat="43.8930067" lon="12.59306"><ele>134.66666666666666</ele><time>2026-04-26T08:30:19.937Z</time></trkpt><trkpt lat="43.8929383" lon="12.5930467"><ele>134.0</ele><time>2026-04-26T08:30:53.937Z</time></trkpt><trkpt lat="43.8928633" lon="12.5930283"><ele>134.0</ele><time>2026-04-26T08:30:55.937Z</time></trkpt><trkpt lat="43.8927933" lon="12.593005"><ele>134.0</ele><time>2026-04-26T08:30:58.938Z</time></trkpt><trkpt lat="43.8927233" lon="12.5929767"><ele>134.0</ele><time>2026-04-26T08:31:01.938Z</time></trkpt><trkpt lat="43.8926517" lon="12.59296"><ele>134.0</ele><time>2026-04-26T08:31:04.938Z</time></trkpt><trkpt lat="43.89257" lon="12.59293"><ele>134.0</ele><time>2026-04-26T08:31:17.938Z</time></trkpt><trkpt lat="43.8925083" lon="12.5928833"><ele>134.0</ele><time>2026-04-26T08:31:19.938Z</time></trkpt><trkpt lat="43.8924433" lon="12.5928567"><ele>134.0</ele><time>2026-04-26T08:31:21.938Z</time></trkpt><trkpt lat="43.8923817" lon="12.59283"><ele>133.5</ele><time>2026-04-26T08:31:23.937Z</time></trkpt><trkpt lat="43.8923117" lon="12.5927933"><ele>133.0</ele><time>2026-04-26T08:31:25.938Z</time></trkpt><trkpt lat="43.8922333" lon="12.59274"><ele>132.5</ele><time>2026-04-26T08:31:28.938Z</time></trkpt><trkpt lat="43.8922017" lon="12.5926333"><ele>132.0</ele><time>2026-04-26T08:31:31.938Z</time></trkpt><trkpt lat="43.8921767" lon="12.592545"><ele>131.5</ele><time>2026-04-26T08:31:34.938Z</time></trkpt><trkpt lat="43.8921183" lon="12.59244"><ele>131.0</ele><time>2026-04-26T08:32:39.937Z</time></trkpt><trkpt lat="43.8920633" lon="12.5923367"><ele>131.0</ele><time>2026-04-26T08:33:28.937Z</time></trkpt><trkpt lat="43.89208" lon="12.5924333"><ele>131.0</ele><time>2026-04-26T08:34:07.936Z</time></trkpt><trkpt lat="43.8921383" lon="12.5925667"><ele>131.0</ele><time>2026-04-26T08:34:32.936Z</time></trkpt><trkpt lat="43.8921583" lon="12.5926783"><ele>131.0</ele><time>2026-04-26T08:34:35.936Z</time></trkpt><trkpt lat="43.8922167" lon="12.5927233"><ele>131.0</ele><time>2026-04-26T08:34:39.937Z</time></trkpt><trkpt lat="43.8922767" lon="12.5927667"><ele>131.0</ele><time>2026-04-26T08:34:42.937Z</time></trkpt><trkpt lat="43.892365" lon="12.592785"><ele>131.0</ele><time>2026-04-26T08:34:46.936Z</time></trkpt><trkpt lat="43.89244" lon="12.592825"><ele>131.0</ele><time>2026-04-26T08:34:49.937Z</time></trkpt><trkpt lat="43.8925117" lon="12.5928817"><ele>131.0</ele><time>2026-04-26T08:34:51.937Z</time></trkpt><trkpt lat="43.89259" lon="12.5929133"><ele>131.0</ele><time>2026-04-26T08:34:53.936Z</time></trkpt><trkpt lat="43.8926533" lon="12.5929233"><ele>131.0</ele><time>2026-04-26T08:34:56.937Z</time></trkpt><trkpt lat="43.8927267" lon="12.5928883"><ele>131.0</ele><time>2026-04-26T08:35:00.937Z</time></trkpt><trkpt lat="43.8927933" lon="12.592825"><ele>129.8</ele><time>2026-04-26T08:35:02.937Z</time></trkpt><trkpt lat="43.8928783" lon="12.592765"><ele>128.6</ele><time>2026-04-26T08:35:04.937Z</time></trkpt><trkpt lat="43.89294" lon="12.5927233"><ele>127.4</ele><time>2026-04-26T08:35:07.936Z</time></trkpt><trkpt lat="43.8930283" lon="12.5926617"><ele>126.2</ele><time>2026-04-26T08:37:40.937Z</time></trkpt><trkpt lat="43.8930317" lon="12.5925333"><ele>125.0</ele><time>2026-04-26T08:37:45.936Z</time></trkpt><trkpt lat="43.8930333" lon="12.59237"><ele>124.99999999999999</ele><time>2026-04-26T08:38:04.937Z</time></trkpt><trkpt lat="43.89296" lon="12.592385"><ele>125.0</ele><time>2026-04-26T08:38:08.937Z</time></trkpt><trkpt lat="43.8928883" lon="12.59242"><ele>125.0</ele><time>2026-04-26T08:38:11.937Z</time></trkpt><trkpt lat="43.8928167" lon="12.59245"><ele>125.0</ele><time>2026-04-26T08:38:14.937Z</time></trkpt><trkpt lat="43.89274" lon="12.5924983"><ele>124.99999999999999</ele><time>2026-04-26T08:38:17.937Z</time></trkpt><trkpt lat="43.892665" lon="12.5925283"><ele>125.0</ele><time>2026-04-26T08:38:20.936Z</time></trkpt><trkpt lat="43.8926133" lon="12.59243"><ele>126.2</ele><time>2026-04-26T08:38:42.937Z</time></trkpt><trkpt lat="43.89257" lon="12.5923"><ele>127.4</ele><time>2026-04-26T08:38:44.937Z</time></trkpt><trkpt lat="43.892525" lon="12.5921867"><ele>128.6</ele><time>2026-04-26T08:38:46.937Z</time></trkpt><trkpt lat="43.8924633" lon="12.59205"><ele>129.8</ele><time>2026-04-26T08:38:48.936Z</time></trkpt><trkpt lat="43.8924217" lon="12.5919767"><ele>131.0</ele><time>2026-04-26T08:38:49.937Z</time></trkpt><trkpt lat="43.89237" lon="12.5918233"><ele>131.2</ele><time>2026-04-26T08:38:51.937Z</time></trkpt><trkpt lat="43.89236" lon="12.5916933"><ele>131.39999999999998</ele><time>2026-04-26T08:38:53.937Z</time></trkpt><trkpt lat="43.8923833" lon="12.5915283"><ele>131.6</ele><time>2026-04-26T08:39:10.937Z</time></trkpt><trkpt lat="43.8923917" lon="12.5914367"><ele>131.79999999999998</ele><time>2026-04-26T08:39:12.937Z</time></trkpt><trkpt lat="43.8923883" lon="12.5913267"><ele>132.0</ele><time>2026-04-26T08:39:14.937Z</time></trkpt><trkpt lat="43.8922867" lon="12.5912467"><ele>132.0</ele><time>2026-04-26T08:39:16.937Z</time></trkpt><trkpt lat="43.8922" lon="12.5912033"><ele>132.0</ele><time>2026-04-26T08:39:17.937Z</time></trkpt><trkpt lat="43.8921133" lon="12.5911633"><ele>132.0</ele><time>2026-04-26T08:39:18.936Z</time></trkpt><trkpt lat="43.8920367" lon="12.5911367"><ele>132.0</ele><time>2026-04-26T08:39:19.937Z</time></trkpt><trkpt lat="43.8919667" lon="12.5911183"><ele>132.0</ele><time>2026-04-26T08:39:20.936Z</time></trkpt><trkpt lat="43.8918867" lon="12.59112"><ele>132.0</ele><time>2026-04-26T08:39:21.937Z</time></trkpt><trkpt lat="43.89181" lon="12.5911183"><ele>131.79999999999998</ele><time>2026-04-26T08:39:22.937Z</time></trkpt><trkpt lat="43.8917417" lon="12.5911033"><ele>131.6</ele><time>2026-04-26T08:39:23.937Z</time></trkpt><trkpt lat="43.891635" lon="12.5910167"><ele>131.39999999999998</ele><time>2026-04-26T08:39:25.937Z</time></trkpt><trkpt lat="43.8915583" lon="12.5908967"><ele>131.2</ele><time>2026-04-26T08:39:27.937Z</time></trkpt><trkpt lat="43.8915283" lon="12.5907367"><ele>131.0</ele><time>2026-04-26T08:39:29.937Z</time></trkpt><trkpt lat="43.8915233" lon="12.59064"><ele>131.0</ele><time>2026-04-26T08:39:30.937Z</time></trkpt><trkpt lat="43.8915183" lon="12.59054"><ele>131.0</ele><time>2026-04-26T08:39:31.937Z</time></trkpt><trkpt lat="43.89151" lon="12.5903933"><ele>131.0</ele><time>2026-04-26T08:39:33.937Z</time></trkpt><trkpt lat="43.8914617" lon="12.5903033"><ele>131.0</ele><time>2026-04-26T08:39:35.937Z</time></trkpt><trkpt lat="43.89139" lon="12.5902383"><ele>131.0</ele><time>2026-04-26T08:39:37.937Z</time></trkpt><trkpt lat="43.8913233" lon="12.5902233"><ele>131.0</ele><time>2026-04-26T08:39:39.937Z</time></trkpt><trkpt lat="43.8912367" lon="12.5902217"><ele>131.6</ele><time>2026-04-26T08:39:41.937Z</time></trkpt><trkpt lat="43.8911483" lon="12.590225"><ele>132.2</ele><time>2026-04-26T08:39:43.937Z</time></trkpt><trkpt lat="43.891025" lon="12.5902233"><ele>132.8</ele><time>2026-04-26T08:39:45.937Z</time></trkpt><trkpt lat="43.89095" lon="12.590215"><ele>133.4</ele><time>2026-04-26T08:39:46.936Z</time></trkpt><trkpt lat="43.8908817" lon="12.5902067"><ele>134.0</ele><time>2026-04-26T08:39:47.936Z</time></trkpt><trkpt lat="43.8907483" lon="12.5902133"><ele>134.0</ele><time>2026-04-26T08:39:49.937Z</time></trkpt><trkpt lat="43.8906667" lon="12.5902167"><ele>134.0</ele><time>2026-04-26T08:39:50.937Z</time></trkpt><trkpt lat="43.8905833" lon="12.5902117"><ele>134.0</ele><time>2026-04-26T08:39:51.937Z</time></trkpt><trkpt lat="43.89051" lon="12.5902"><ele>134.0</ele><time>2026-04-26T08:39:52.937Z</time></trkpt><trkpt lat="43.890445" lon="12.5901667"><ele>134.0</ele><time>2026-04-26T08:39:53.937Z</time></trkpt><trkpt lat="43.89035" lon="12.5900817"><ele>134.0</ele><time>2026-04-26T08:39:55.937Z</time></trkpt><trkpt lat="43.8902517" lon="12.5900267"><ele>134.0</ele><time>2026-04-26T08:39:57.937Z</time></trkpt><trkpt lat="43.890185" lon="12.5900067"><ele>134.0</ele><time>2026-04-26T08:39:58.936Z</time></trkpt><trkpt lat="43.8901117" lon="12.589965"><ele>134.0</ele><time>2026-04-26T08:39:59.937Z</time></trkpt><trkpt lat="43.8900333" lon="12.589895"><ele>134.0</ele><time>2026-04-26T08:40:00.937Z</time></trkpt><trkpt lat="43.889965" lon="12.5898117"><ele>134.0</ele><time>2026-04-26T08:40:01.937Z</time></trkpt><trkpt lat="43.8899017" lon="12.5897267"><ele>134.0</ele><time>2026-04-26T08:40:02.937Z</time></trkpt><trkpt lat="43.88984" lon="12.589655"><ele>133.83333333333331</ele><time>2026-04-26T08:40:03.937Z</time></trkpt><trkpt lat="43.88976" lon="12.5895933"><ele>133.66666666666666</ele><time>2026-04-26T08:40:04.937Z</time></trkpt><trkpt lat="43.889675" lon="12.5895417"><ele>133.5</ele><time>2026-04-26T08:40:05.936Z</time></trkpt><trkpt lat="43.8895883" lon="12.5895017"><ele>133.33333333333334</ele><time>2026-04-26T08:40:06.937Z</time></trkpt><trkpt lat="43.8895067" lon="12.5894667"><ele>133.16666666666669</ele><time>2026-04-26T08:40:07.937Z</time></trkpt><trkpt lat="43.88943" lon="12.5894517"><ele>133.0</ele><time>2026-04-26T08:40:08.937Z</time></trkpt><trkpt lat="43.8893567" lon="12.5894417"><ele>133.0</ele><time>2026-04-26T08:40:09.937Z</time></trkpt><trkpt lat="43.889285" lon="12.589435"><ele>133.0</ele><time>2026-04-26T08:40:10.937Z</time></trkpt><trkpt lat="43.889215" lon="12.5894217"><ele>133.0</ele><time>2026-04-26T08:40:11.936Z</time></trkpt><trkpt lat="43.8891433" lon="12.5894167"><ele>133.0</ele><time>2026-04-26T08:40:12.937Z</time></trkpt><trkpt lat="43.8890717" lon="12.5894167"><ele>133.0</ele><time>2026-04-26T08:40:13.937Z</time></trkpt><trkpt lat="43.8889967" lon="12.5893983"><ele>133.0</ele><time>2026-04-26T08:40:14.937Z</time></trkpt><trkpt lat="43.88892" lon="12.589375"><ele>133.0</ele><time>2026-04-26T08:40:15.937Z</time></trkpt><trkpt lat="43.8888467" lon="12.5893367"><ele>133.0</ele><time>2026-04-26T08:40:16.937Z</time></trkpt><trkpt lat="43.8887717" lon="12.5892933"><ele>133.0</ele><time>2026-04-26T08:40:17.937Z</time></trkpt><trkpt lat="43.888695" lon="12.5892483"><ele>133.0</ele><time>2026-04-26T08:40:18.937Z</time></trkpt><trkpt lat="43.888615" lon="12.58921"><ele>133.0</ele><time>2026-04-26T08:40:19.937Z</time></trkpt><trkpt lat="43.8885333" lon="12.589175"><ele>133.0</ele><time>2026-04-26T08:40:20.937Z</time></trkpt><trkpt lat="43.8884517" lon="12.5891383"><ele>133.0</ele><time>2026-04-26T08:40:21.936Z</time></trkpt><trkpt lat="43.8883733" lon="12.5891017"><ele>133.0</ele><time>2026-04-26T08:40:22.937Z</time></trkpt><trkpt lat="43.888305" lon="12.5890583"><ele>133.0</ele><time>2026-04-26T08:40:23.937Z</time></trkpt><trkpt lat="43.8882383" lon="12.58903"><ele>133.0</ele><time>2026-04-26T08:40:24.936Z</time></trkpt><trkpt lat="43.88817" lon="12.5890067"><ele>133.0</ele><time>2026-04-26T08:40:25.936Z</time></trkpt><trkpt lat="43.8880983" lon="12.5889933"><ele>133.0</ele><time>2026-04-26T08:40:26.937Z</time></trkpt><trkpt lat="43.888035" lon="12.5889933"><ele>133.0</ele><time>2026-04-26T08:40:27.936Z</time></trkpt><trkpt lat="43.8879317" lon="12.589005"><ele>133.0</ele><time>2026-04-26T08:40:29.937Z</time></trkpt><trkpt lat="43.8878183" lon="12.58907"><ele>133.0</ele><time>2026-04-26T08:40:31.937Z</time></trkpt><trkpt lat="43.887755" lon="12.58913"><ele>133.0</ele><time>2026-04-26T08:40:32.937Z</time></trkpt><trkpt lat="43.8876917" lon="12.5892033"><ele>133.0</ele><time>2026-04-26T08:40:33.937Z</time></trkpt><trkpt lat="43.8876333" lon="12.5892733"><ele>133.0</ele><time>2026-04-26T08:40:34.937Z</time></trkpt><trkpt lat="43.8875783" lon="12.5893367"><ele>133.0</ele><time>2026-04-26T08:40:35.937Z</time></trkpt><trkpt lat="43.8875233" lon="12.5894067"><ele>132.4</ele><time>2026-04-26T08:40:36.937Z</time></trkpt><trkpt lat="43.8874383" lon="12.5895317"><ele>131.8</ele><time>2026-04-26T08:40:38.937Z</time></trkpt><trkpt lat="43.8873967" lon="12.5896033"><ele>131.2</ele><time>2026-04-26T08:40:39.937Z</time></trkpt><trkpt lat="43.8873283" lon="12.5897267"><ele>130.6</ele><time>2026-04-26T08:40:41.937Z</time></trkpt><trkpt lat="43.887285" lon="12.5898433"><ele>130.0</ele><time>2026-04-26T08:40:43.937Z</time></trkpt><trkpt lat="43.8871767" lon="12.5899067"><ele>130.0</ele><time>2026-04-26T08:40:45.937Z</time></trkpt><trkpt lat="43.8871117" lon="12.5899233"><ele>130.0</ele><time>2026-04-26T08:40:46.937Z</time></trkpt><trkpt lat="43.88703" lon="12.5899233"><ele>130.0</ele><time>2026-04-26T08:40:47.937Z</time></trkpt><trkpt lat="43.886945" lon="12.5899033"><ele>130.0</ele><time>2026-04-26T08:40:48.937Z</time></trkpt><trkpt lat="43.8868717" lon="12.5898767"><ele>130.0</ele><time>2026-04-26T08:40:49.937Z</time></trkpt><trkpt lat="43.8868" lon="12.589845"><ele>130.0</ele><time>2026-04-26T08:40:50.937Z</time></trkpt><trkpt lat="43.8867383" lon="12.58981"><ele>129.66666666666669</ele><time>2026-04-26T08:40:51.937Z</time></trkpt><trkpt lat="43.88668" lon="12.5897767"><ele>129.33333333333334</ele><time>2026-04-26T08:40:52.937Z</time></trkpt><trkpt lat="43.8865583" lon="12.5897183"><ele>129.0</ele><time>2026-04-26T08:40:54.936Z</time></trkpt><trkpt lat="43.886495" lon="12.5896933"><ele>128.66666666666666</ele><time>2026-04-26T08:40:55.937Z</time></trkpt><trkpt lat="43.88642" lon="12.5896683"><ele>128.33333333333331</ele><time>2026-04-26T08:40:56.937Z</time></trkpt><trkpt lat="43.886345" lon="12.5896383"><ele>128.0</ele><time>2026-04-26T08:40:57.937Z</time></trkpt><trkpt lat="43.8862683" lon="12.5896217"><ele>127.99999999999999</ele><time>2026-04-26T08:40:58.937Z</time></trkpt><trkpt lat="43.88619" lon="12.589605"><ele>128.0</ele><time>2026-04-26T08:40:59.937Z</time></trkpt><trkpt lat="43.8861133" lon="12.5895867"><ele>128.0</ele><time>2026-04-26T08:41:00.936Z</time></trkpt><trkpt lat="43.8860483" lon="12.589565"><ele>128.0</ele><time>2026-04-26T08:41:01.936Z</time></trkpt><trkpt lat="43.885975" lon="12.589535"><ele>127.99999999999999</ele><time>2026-04-26T08:41:03.937Z</time></trkpt><trkpt lat="43.8858917" lon="12.5894767"><ele>128.0</ele><time>2026-04-26T08:41:30.938Z</time></trkpt><trkpt lat="43.8858667" lon="12.5893783"><ele>127.83333333333333</ele><time>2026-04-26T08:41:32.938Z</time></trkpt><trkpt lat="43.88583" lon="12.589305"><ele>127.66666666666666</ele><time>2026-04-26T08:41:33.938Z</time></trkpt><trkpt lat="43.88578" lon="12.5892167"><ele>127.5</ele><time>2026-04-26T08:41:34.938Z</time></trkpt><trkpt lat="43.8857283" lon="12.5891167"><ele>127.33333333333334</ele><time>2026-04-26T08:41:35.938Z</time></trkpt><trkpt lat="43.88568" lon="12.589005"><ele>127.16666666666667</ele><time>2026-04-26T08:41:36.938Z</time></trkpt><trkpt lat="43.885635" lon="12.5888917"><ele>127.0</ele><time>2026-04-26T08:41:37.938Z</time></trkpt><trkpt lat="43.8855983" lon="12.588785"><ele>127.0</ele><time>2026-04-26T08:41:38.937Z</time></trkpt><trkpt lat="43.8855817" lon="12.5887"><ele>126.99999999999999</ele><time>2026-04-26T08:41:39.938Z</time></trkpt><trkpt lat="43.8856133" lon="12.58853"><ele>126.99999999999999</ele><time>2026-04-26T08:41:41.938Z</time></trkpt><trkpt lat="43.8856633" lon="12.58843"><ele>127.0</ele><time>2026-04-26T08:41:42.938Z</time></trkpt><trkpt lat="43.8857217" lon="12.58832"><ele>127.0</ele><time>2026-04-26T08:41:43.938Z</time></trkpt><trkpt lat="43.8857817" lon="12.5882083"><ele>128.6</ele><time>2026-04-26T08:41:44.938Z</time></trkpt><trkpt lat="43.8858517" lon="12.5881067"><ele>130.2</ele><time>2026-04-26T08:41:45.938Z</time></trkpt><trkpt lat="43.88593" lon="12.5880133"><ele>131.8</ele><time>2026-04-26T08:41:46.937Z</time></trkpt><trkpt lat="43.886005" lon="12.5879233"><ele>133.4</ele><time>2026-04-26T08:41:47.938Z</time></trkpt><trkpt lat="43.88606" lon="12.5878367"><ele>135.0</ele><time>2026-04-26T08:41:48.938Z</time></trkpt><trkpt lat="43.8861017" lon="12.58774"><ele>138.33333333333334</ele><time>2026-04-26T08:41:49.937Z</time></trkpt><trkpt lat="43.8861383" lon="12.5876333"><ele>141.66666666666666</ele><time>2026-04-26T08:41:50.938Z</time></trkpt><trkpt lat="43.886165" lon="12.5875283"><ele>145.0</ele><time>2026-04-26T08:41:51.938Z</time></trkpt><trkpt lat="43.8861833" lon="12.5874217"><ele>148.33333333333331</ele><time>2026-04-26T08:41:52.938Z</time></trkpt><trkpt lat="43.8862017" lon="12.58731"><ele>151.66666666666666</ele><time>2026-04-26T08:41:53.938Z</time></trkpt><trkpt lat="43.8862267" lon="12.5872033"><ele>155.0</ele><time>2026-04-26T08:41:54.938Z</time></trkpt><trkpt lat="43.88627" lon="12.5870983"><ele>157.8</ele><time>2026-04-26T08:41:55.938Z</time></trkpt><trkpt lat="43.8863267" lon="12.586985"><ele>160.6</ele><time>2026-04-26T08:41:56.937Z</time></trkpt><trkpt lat="43.8863917" lon="12.586875"><ele>163.39999999999998</ele><time>2026-04-26T08:41:57.937Z</time></trkpt><trkpt lat="43.8864517" lon="12.5867733"><ele>166.2</ele><time>2026-04-26T08:41:58.938Z</time></trkpt><trkpt lat="43.886505" lon="12.5866633"><ele>169.0</ele><time>2026-04-26T08:41:59.938Z</time></trkpt><trkpt lat="43.8865483" lon="12.5865383"><ele>169.0</ele><time>2026-04-26T08:42:00.938Z</time></trkpt><trkpt lat="43.8865867" lon="12.5864"><ele>169.0</ele><time>2026-04-26T08:42:01.938Z</time></trkpt><trkpt lat="43.88663" lon="12.5862683"><ele>169.0</ele><time>2026-04-26T08:42:02.938Z</time></trkpt><trkpt lat="43.8866767" lon="12.58614"><ele>169.0</ele><time>2026-04-26T08:42:03.938Z</time></trkpt><trkpt lat="43.8867333" lon="12.586005"><ele>169.0</ele><time>2026-04-26T08:42:04.937Z</time></trkpt><trkpt lat="43.8868017" lon="12.5858667"><ele>172.5</ele><time>2026-04-26T08:42:05.938Z</time></trkpt><trkpt lat="43.88688" lon="12.5857333"><ele>176.0</ele><time>2026-04-26T08:42:06.938Z</time></trkpt><trkpt lat="43.8869633" lon="12.5856067"><ele>179.5</ele><time>2026-04-26T08:42:07.937Z</time></trkpt><trkpt lat="43.8870417" lon="12.5854917"><ele>183.0</ele><time>2026-04-26T08:42:08.938Z</time></trkpt><trkpt lat="43.8871133" lon="12.5853833"><ele>186.60000000000002</ele><time>2026-04-26T08:42:09.938Z</time></trkpt><trkpt lat="43.8871783" lon="12.5852867"><ele>190.20000000000002</ele><time>2026-04-26T08:42:10.938Z</time></trkpt><trkpt lat="43.88723" lon="12.585185"><ele>193.8</ele><time>2026-04-26T08:42:11.938Z</time></trkpt><trkpt lat="43.8872767" lon="12.5850683"><ele>197.4</ele><time>2026-04-26T08:42:12.938Z</time></trkpt><trkpt lat="43.887325" lon="12.58494"><ele>201.0</ele><time>2026-04-26T08:42:13.938Z</time></trkpt><trkpt lat="43.8873733" lon="12.5848117"><ele>201.0</ele><time>2026-04-26T08:42:14.937Z</time></trkpt><trkpt lat="43.8874183" lon="12.5846917"><ele>201.0</ele><time>2026-04-26T08:42:15.937Z</time></trkpt><trkpt lat="43.8874733" lon="12.5845867"><ele>201.0</ele><time>2026-04-26T08:42:16.938Z</time></trkpt><trkpt lat="43.887545" lon="12.584505"><ele>201.0</ele><time>2026-04-26T08:42:17.938Z</time></trkpt><trkpt lat="43.88763" lon="12.5844483"><ele>201.0</ele><time>2026-04-26T08:42:18.936Z</time></trkpt><trkpt lat="43.88772" lon="12.5844167"><ele>203.8</ele><time>2026-04-26T08:42:19.937Z</time></trkpt><trkpt lat="43.887815" lon="12.5843983"><ele>206.60000000000002</ele><time>2026-04-26T08:42:20.937Z</time></trkpt><trkpt lat="43.887915" lon="12.5843633"><ele>209.4</ele><time>2026-04-26T08:42:21.936Z</time></trkpt><trkpt lat="43.888015" lon="12.5843067"><ele>212.2</ele><time>2026-04-26T08:42:22.937Z</time></trkpt><trkpt lat="43.8881133" lon="12.5842333"><ele>215.0</ele><time>2026-04-26T08:42:23.937Z</time></trkpt><trkpt lat="43.8882167" lon="12.58414"><ele>215.0</ele><time>2026-04-26T08:42:24.937Z</time></trkpt><trkpt lat="43.8883133" lon="12.584035"><ele>215.0</ele><time>2026-04-26T08:42:25.937Z</time></trkpt><trkpt lat="43.8883983" lon="12.5839167"><ele>215.0</ele><time>2026-04-26T08:42:26.937Z</time></trkpt><trkpt lat="43.8884733" lon="12.5837967"><ele>215.0</ele><time>2026-04-26T08:42:27.937Z</time></trkpt><trkpt lat="43.8885383" lon="12.5836683"><ele>218.4</ele><time>2026-04-26T08:42:28.937Z</time></trkpt><trkpt lat="43.8886017" lon="12.5835367"><ele>221.8</ele><time>2026-04-26T08:42:29.936Z</time></trkpt><trkpt lat="43.8886583" lon="12.5834117"><ele>225.2</ele><time>2026-04-26T08:42:30.937Z</time></trkpt><trkpt lat="43.8887083" lon="12.583285"><ele>228.6</ele><time>2026-04-26T08:42:31.937Z</time></trkpt><trkpt lat="43.888755" lon="12.5831467"><ele>232.0</ele><time>2026-04-26T08:42:32.936Z</time></trkpt><trkpt lat="43.8888017" lon="12.5830083"><ele>231.99999999999997</ele><time>2026-04-26T08:42:33.937Z</time></trkpt><trkpt lat="43.8888533" lon="12.5829"><ele>232.0</ele><time>2026-04-26T08:42:34.937Z</time></trkpt><trkpt lat="43.888915" lon="12.5828267"><ele>232.0</ele><time>2026-04-26T08:42:35.936Z</time></trkpt><trkpt lat="43.8889883" lon="12.582785"><ele>232.0</ele><time>2026-04-26T08:42:36.936Z</time></trkpt><trkpt lat="43.88907" lon="12.5827767"><ele>231.99999999999997</ele><time>2026-04-26T08:42:37.937Z</time></trkpt><trkpt lat="43.8891517" lon="12.582795"><ele>232.0</ele><time>2026-04-26T08:42:38.937Z</time></trkpt><trkpt lat="43.889225" lon="12.5828167"><ele>231.33333333333331</ele><time>2026-04-26T08:42:39.937Z</time></trkpt><trkpt lat="43.8893433" lon="12.5828483"><ele>230.66666666666666</ele><time>2026-04-26T08:42:41.937Z</time></trkpt><trkpt lat="43.8894083" lon="12.58286"><ele>230.0</ele><time>2026-04-26T08:42:42.937Z</time></trkpt><trkpt lat="43.8894767" lon="12.5828717"><ele>229.33333333333331</ele><time>2026-04-26T08:42:43.937Z</time></trkpt><trkpt lat="43.8895617" lon="12.5828883"><ele>228.66666666666666</ele><time>2026-04-26T08:42:44.937Z</time></trkpt><trkpt lat="43.8896483" lon="12.5829067"><ele>228.0</ele><time>2026-04-26T08:42:45.937Z</time></trkpt><trkpt lat="43.8897283" lon="12.5829267"><ele>228.0</ele><time>2026-04-26T08:42:46.936Z</time></trkpt><trkpt lat="43.8898117" lon="12.582945"><ele>228.0</ele><time>2026-04-26T08:42:47.937Z</time></trkpt><trkpt lat="43.8899017" lon="12.58296"><ele>228.0</ele><time>2026-04-26T08:42:48.937Z</time></trkpt><trkpt lat="43.889995" lon="12.5829633"><ele>228.0</ele><time>2026-04-26T08:42:49.937Z</time></trkpt><trkpt lat="43.8900883" lon="12.58295"><ele>228.0</ele><time>2026-04-26T08:42:50.936Z</time></trkpt><trkpt lat="43.89019" lon="12.58293"><ele>227.0</ele><time>2026-04-26T08:42:51.937Z</time></trkpt><trkpt lat="43.8903067" lon="12.5829067"><ele>226.0</ele><time>2026-04-26T08:42:52.937Z</time></trkpt><trkpt lat="43.8904267" lon="12.5828883"><ele>225.0</ele><time>2026-04-26T08:42:53.937Z</time></trkpt><trkpt lat="43.8905483" lon="12.582865"><ele>224.0</ele><time>2026-04-26T08:42:54.937Z</time></trkpt><trkpt lat="43.890665" lon="12.5828283"><ele>223.5</ele><time>2026-04-26T08:42:55.937Z</time></trkpt><trkpt lat="43.8907817" lon="12.5827767"><ele>223.0</ele><time>2026-04-26T08:42:56.937Z</time></trkpt><trkpt lat="43.8908967" lon="12.5827183"><ele>222.5</ele><time>2026-04-26T08:42:57.937Z</time></trkpt><trkpt lat="43.8910017" lon="12.5826633"><ele>222.0</ele><time>2026-04-26T08:42:58.936Z</time></trkpt><trkpt lat="43.8910983" lon="12.5826183"><ele>224.39999999999998</ele><time>2026-04-26T08:42:59.937Z</time></trkpt><trkpt lat="43.891195" lon="12.5825933"><ele>226.79999999999998</ele><time>2026-04-26T08:43:00.937Z</time></trkpt><trkpt lat="43.8913033" lon="12.5825867"><ele>229.2</ele><time>2026-04-26T08:43:01.936Z</time></trkpt><trkpt lat="43.8914183" lon="12.58257"><ele>231.6</ele><time>2026-04-26T08:43:02.937Z</time></trkpt><trkpt lat="43.8915333" lon="12.5825367"><ele>234.0</ele><time>2026-04-26T08:43:03.937Z</time></trkpt><trkpt lat="43.8916467" lon="12.5825033"><ele>234.0</ele><time>2026-04-26T08:43:04.937Z</time></trkpt><trkpt lat="43.8917533" lon="12.5824683"><ele>233.99999999999997</ele><time>2026-04-26T08:43:05.936Z</time></trkpt><trkpt lat="43.8918567" lon="12.582435"><ele>233.99999999999997</ele><time>2026-04-26T08:43:06.937Z</time></trkpt><trkpt lat="43.8919567" lon="12.5823967"><ele>234.0</ele><time>2026-04-26T08:43:07.937Z</time></trkpt><trkpt lat="43.892055" lon="12.5823367"><ele>234.0</ele><time>2026-04-26T08:43:08.937Z</time></trkpt><trkpt lat="43.8921483" lon="12.5822417"><ele>236.0</ele><time>2026-04-26T08:43:09.937Z</time></trkpt><trkpt lat="43.89223" lon="12.582125"><ele>237.99999999999997</ele><time>2026-04-26T08:43:10.936Z</time></trkpt><trkpt lat="43.892295" lon="12.582"><ele>239.99999999999997</ele><time>2026-04-26T08:43:11.936Z</time></trkpt><trkpt lat="43.8923533" lon="12.58188"><ele>242.0</ele><time>2026-04-26T08:43:12.937Z</time></trkpt><trkpt lat="43.8924183" lon="12.581755"><ele>244.0</ele><time>2026-04-26T08:43:13.936Z</time></trkpt><trkpt lat="43.8924983" lon="12.5816367"><ele>244.0</ele><time>2026-04-26T08:43:14.937Z</time></trkpt><trkpt lat="43.8925883" lon="12.5815433"><ele>244.0</ele><time>2026-04-26T08:43:15.936Z</time></trkpt><trkpt lat="43.89269" lon="12.58147"><ele>244.0</ele><time>2026-04-26T08:43:16.936Z</time></trkpt><trkpt lat="43.8928" lon="12.5814"><ele>244.0</ele><time>2026-04-26T08:43:17.937Z</time></trkpt><trkpt lat="43.8929133" lon="12.5813183"><ele>247.75</ele><time>2026-04-26T08:43:18.936Z</time></trkpt><trkpt lat="43.8930267" lon="12.5812217"><ele>251.5</ele><time>2026-04-26T08:43:19.936Z</time></trkpt><trkpt lat="43.8931433" lon="12.5811133"><ele>255.25</ele><time>2026-04-26T08:43:20.937Z</time></trkpt><trkpt lat="43.8932583" lon="12.58101"><ele>259.0</ele><time>2026-04-26T08:43:21.937Z</time></trkpt><trkpt lat="43.8933717" lon="12.58093"><ele>263.0</ele><time>2026-04-26T08:43:22.936Z</time></trkpt><trkpt lat="43.8934767" lon="12.5808733"><ele>267.0</ele><time>2026-04-26T08:43:23.937Z</time></trkpt><trkpt lat="43.8935767" lon="12.5808367"><ele>271.0</ele><time>2026-04-26T08:43:24.937Z</time></trkpt><trkpt lat="43.89368" lon="12.5808217"><ele>275.0</ele><time>2026-04-26T08:43:25.937Z</time></trkpt><trkpt lat="43.8937833" lon="12.5807967"><ele>279.0</ele><time>2026-04-26T08:43:26.936Z</time></trkpt><trkpt lat="43.8938867" lon="12.5807483"><ele>279.0</ele><time>2026-04-26T08:43:27.937Z</time></trkpt><trkpt lat="43.8939883" lon="12.580705"><ele>279.0</ele><time>2026-04-26T08:43:28.937Z</time></trkpt><trkpt lat="43.8940683" lon="12.580655"><ele>279.0</ele><time>2026-04-26T08:43:29.937Z</time></trkpt><trkpt lat="43.8941233" lon="12.580595"><ele>279.0</ele><time>2026-04-26T08:43:30.937Z</time></trkpt><trkpt lat="43.8941667" lon="12.5805017"><ele>279.0</ele><time>2026-04-26T08:43:31.937Z</time></trkpt><trkpt lat="43.89421" lon="12.580395"><ele>279.0</ele><time>2026-04-26T08:43:32.937Z</time></trkpt><trkpt lat="43.894265" lon="12.5802783"><ele>278.0</ele><time>2026-04-26T08:43:33.937Z</time></trkpt><trkpt lat="43.89433" lon="12.5801633"><ele>277.0</ele><time>2026-04-26T08:43:34.937Z</time></trkpt><trkpt lat="43.894405" lon="12.5800517"><ele>276.0</ele><time>2026-04-26T08:43:35.937Z</time></trkpt><trkpt lat="43.8944817" lon="12.57994"><ele>275.0</ele><time>2026-04-26T08:43:36.937Z</time></trkpt><trkpt lat="43.894555" lon="12.5798417"><ele>274.0</ele><time>2026-04-26T08:43:37.937Z</time></trkpt><trkpt lat="43.8946183" lon="12.5797683"><ele>274.0</ele><time>2026-04-26T08:43:38.937Z</time></trkpt><trkpt lat="43.89469" lon="12.5796767"><ele>274.0</ele><time>2026-04-26T08:43:40.937Z</time></trkpt><trkpt lat="43.8947583" lon="12.5796067"><ele>274.0</ele><time>2026-04-26T08:44:01.936Z</time></trkpt><trkpt lat="43.8948533" lon="12.579445"><ele>274.0</ele><time>2026-04-26T08:44:03.937Z</time></trkpt><trkpt lat="43.8948983" lon="12.579345"><ele>274.0</ele><time>2026-04-26T08:44:04.936Z</time></trkpt><trkpt lat="43.894955" lon="12.5792417"><ele>275.0</ele><time>2026-04-26T08:44:05.937Z</time></trkpt><trkpt lat="43.8950133" lon="12.57912"><ele>276.0</ele><time>2026-04-26T08:44:06.937Z</time></trkpt><trkpt lat="43.8950783" lon="12.5789867"><ele>277.0</ele><time>2026-04-26T08:44:07.937Z</time></trkpt><trkpt lat="43.89515" lon="12.578855"><ele>278.0</ele><time>2026-04-26T08:44:08.936Z</time></trkpt><trkpt lat="43.89524" lon="12.57873"><ele>281.0</ele><time>2026-04-26T08:44:09.937Z</time></trkpt><trkpt lat="43.895345" lon="12.5786083"><ele>284.0</ele><time>2026-04-26T08:44:10.937Z</time></trkpt><trkpt lat="43.8954633" lon="12.5784933"><ele>287.0</ele><time>2026-04-26T08:44:11.937Z</time></trkpt><trkpt lat="43.8955733" lon="12.5783717"><ele>290.0</ele><time>2026-04-26T08:44:12.937Z</time></trkpt><trkpt lat="43.8956817" lon="12.5782583"><ele>290.0</ele><time>2026-04-26T08:44:13.937Z</time></trkpt><trkpt lat="43.8957967" lon="12.5781817"><ele>290.0</ele><time>2026-04-26T08:44:14.937Z</time></trkpt><trkpt lat="43.895905" lon="12.5781067"><ele>290.0</ele><time>2026-04-26T08:44:15.936Z</time></trkpt><trkpt lat="43.8960083" lon="12.5780233"><ele>290.0</ele><time>2026-04-26T08:44:16.937Z</time></trkpt><trkpt lat="43.8961" lon="12.57793"><ele>293.1666666666667</ele><time>2026-04-26T08:44:17.936Z</time></trkpt><trkpt lat="43.89618" lon="12.5778433"><ele>296.33333333333337</ele><time>2026-04-26T08:44:18.937Z</time></trkpt><trkpt lat="43.8962517" lon="12.5777683"><ele>299.5</ele><time>2026-04-26T08:44:19.937Z</time></trkpt><trkpt lat="43.8963133" lon="12.5776967"><ele>302.6666666666667</ele><time>2026-04-26T08:44:20.937Z</time></trkpt><trkpt lat="43.8963717" lon="12.5776517"><ele>305.8333333333333</ele><time>2026-04-26T08:44:21.937Z</time></trkpt><trkpt lat="43.896465" lon="12.5776017"><ele>309.0</ele><time>2026-04-26T08:44:23.937Z</time></trkpt><trkpt lat="43.8965183" lon="12.5775367"><ele>309.0</ele><time>2026-04-26T08:44:30.936Z</time></trkpt><trkpt lat="43.8965517" lon="12.5773917"><ele>309.0</ele><time>2026-04-26T08:44:33.937Z</time></trkpt><trkpt lat="43.896565" lon="12.5772183"><ele>309.0</ele><time>2026-04-26T08:44:35.937Z</time></trkpt><trkpt lat="43.896565" lon="12.5771233"><ele>309.0</ele><time>2026-04-26T08:44:36.937Z</time></trkpt><trkpt lat="43.8965667" lon="12.5769633"><ele>309.0</ele><time>2026-04-26T08:44:38.936Z</time></trkpt><trkpt lat="43.8966083" lon="12.5767967"><ele>309.3333333333333</ele><time>2026-04-26T08:44:40.937Z</time></trkpt><trkpt lat="43.8966483" lon="12.576725"><ele>309.6666666666667</ele><time>2026-04-26T08:44:41.937Z</time></trkpt><trkpt lat="43.8966967" lon="12.5766683"><ele>310.0</ele><time>2026-04-26T08:44:42.936Z</time></trkpt><trkpt lat="43.8967817" lon="12.576545"><ele>310.33333333333337</ele><time>2026-04-26T08:44:44.936Z</time></trkpt><trkpt lat="43.8968233" lon="12.5764583"><ele>310.6666666666667</ele><time>2026-04-26T08:44:45.936Z</time></trkpt><trkpt lat="43.8968583" lon="12.5763617"><ele>311.0</ele><time>2026-04-26T08:44:46.937Z</time></trkpt><trkpt lat="43.8969" lon="12.5762733"><ele>311.0</ele><time>2026-04-26T08:44:47.937Z</time></trkpt><trkpt lat="43.8969483" lon="12.5761983"><ele>311.0</ele><time>2026-04-26T08:44:48.936Z</time></trkpt><trkpt lat="43.8970017" lon="12.5761467"><ele>311.0</ele><time>2026-04-26T08:44:49.937Z</time></trkpt><trkpt lat="43.8971017" lon="12.576065"><ele>311.0</ele><time>2026-04-26T08:44:51.936Z</time></trkpt><trkpt lat="43.8971783" lon="12.5759317"><ele>311.0</ele><time>2026-04-26T08:45:06.937Z</time></trkpt><trkpt lat="43.8972" lon="12.5757883"><ele>307.57142857142856</ele><time>2026-04-26T08:45:08.937Z</time></trkpt><trkpt lat="43.8972083" lon="12.5756983"><ele>304.14285714285717</ele><time>2026-04-26T08:45:09.937Z</time></trkpt><trkpt lat="43.8972167" lon="12.57561"><ele>300.7142857142857</ele><time>2026-04-26T08:45:10.937Z</time></trkpt><trkpt lat="43.8972467" lon="12.5754867"><ele>297.2857142857143</ele><time>2026-04-26T08:45:12.936Z</time></trkpt><trkpt lat="43.8972717" lon="12.5754"><ele>293.8571428571429</ele><time>2026-04-26T08:45:14.937Z</time></trkpt><trkpt lat="43.897285" lon="12.5753083"><ele>290.42857142857144</ele><time>2026-04-26T08:45:16.937Z</time></trkpt><trkpt lat="43.8972833" lon="12.5752083"><ele>287.0</ele><time>2026-04-26T08:45:18.937Z</time></trkpt><trkpt lat="43.8972583" lon="12.5751233"><ele>285.8</ele><time>2026-04-26T08:45:20.936Z</time></trkpt><trkpt lat="43.8971583" lon="12.5750367"><ele>284.6</ele><time>2026-04-26T08:45:22.937Z</time></trkpt><trkpt lat="43.8970867" lon="12.5749767"><ele>283.40000000000003</ele><time>2026-04-26T08:45:23.937Z</time></trkpt><trkpt lat="43.8970083" lon="12.5749117"><ele>282.2</ele><time>2026-04-26T08:45:24.937Z</time></trkpt><trkpt lat="43.896925" lon="12.5748583"><ele>281.0</ele><time>2026-04-26T08:45:25.937Z</time></trkpt><trkpt lat="43.8968467" lon="12.574825"><ele>281.0</ele><time>2026-04-26T08:45:26.937Z</time></trkpt><trkpt lat="43.8967733" lon="12.5748183"><ele>281.0</ele><time>2026-04-26T08:45:27.936Z</time></trkpt><trkpt lat="43.8967" lon="12.574825"><ele>281.0</ele><time>2026-04-26T08:45:28.937Z</time></trkpt><trkpt lat="43.8966233" lon="12.574835"><ele>281.0</ele><time>2026-04-26T08:45:29.936Z</time></trkpt><trkpt lat="43.89654" lon="12.5748483"><ele>281.0</ele><time>2026-04-26T08:45:30.937Z</time></trkpt><trkpt lat="43.8964617" lon="12.5748567"><ele>281.0</ele><time>2026-04-26T08:45:31.937Z</time></trkpt><trkpt lat="43.896395" lon="12.5748633"><ele>279.5</ele><time>2026-04-26T08:45:32.937Z</time></trkpt><trkpt lat="43.89633" lon="12.5748633"><ele>278.0</ele><time>2026-04-26T08:45:33.937Z</time></trkpt><trkpt lat="43.8962567" lon="12.5748583"><ele>276.5</ele><time>2026-04-26T08:45:34.937Z</time></trkpt><trkpt lat="43.89617" lon="12.57485"><ele>275.0</ele><time>2026-04-26T08:45:35.937Z</time></trkpt><trkpt lat="43.8960883" lon="12.5748317"><ele>273.5</ele><time>2026-04-26T08:45:36.937Z</time></trkpt><trkpt lat="43.896015" lon="12.5748117"><ele>272.0</ele><time>2026-04-26T08:45:37.937Z</time></trkpt><trkpt lat="43.895945" lon="12.5747833"><ele>271.0</ele><time>2026-04-26T08:45:38.936Z</time></trkpt><trkpt lat="43.8958733" lon="12.5747533"><ele>270.0</ele><time>2026-04-26T08:45:39.936Z</time></trkpt><trkpt lat="43.895795" lon="12.5747217"><ele>269.0</ele><time>2026-04-26T08:45:40.937Z</time></trkpt><trkpt lat="43.89571" lon="12.5746867"><ele>268.0</ele><time>2026-04-26T08:45:41.937Z</time></trkpt><trkpt lat="43.8956217" lon="12.5746467"><ele>267.0</ele><time>2026-04-26T08:45:42.937Z</time></trkpt><trkpt lat="43.8955367" lon="12.5746133"><ele>266.0</ele><time>2026-04-26T08:45:43.937Z</time></trkpt><trkpt lat="43.89546" lon="12.574585"><ele>266.0</ele><time>2026-04-26T08:45:44.937Z</time></trkpt><trkpt lat="43.8953833" lon="12.574565"><ele>266.0</ele><time>2026-04-26T08:45:45.936Z</time></trkpt><trkpt lat="43.8953117" lon="12.5745467"><ele>266.0</ele><time>2026-04-26T08:45:46.937Z</time></trkpt><trkpt lat="43.8952517" lon="12.5745167"><ele>266.0</ele><time>2026-04-26T08:45:47.937Z</time></trkpt><trkpt lat="43.8951917" lon="12.5744717"><ele>266.0</ele><time>2026-04-26T08:45:48.937Z</time></trkpt><trkpt lat="43.8951283" lon="12.5744067"><ele>266.0</ele><time>2026-04-26T08:45:49.936Z</time></trkpt><trkpt lat="43.8950617" lon="12.5743267"><ele>266.1666666666667</ele><time>2026-04-26T08:45:50.937Z</time></trkpt><trkpt lat="43.8949967" lon="12.57424"><ele>266.33333333333337</ele><time>2026-04-26T08:45:51.937Z</time></trkpt><trkpt lat="43.894945" lon="12.57415"><ele>266.5</ele><time>2026-04-26T08:45:52.937Z</time></trkpt><trkpt lat="43.8949033" lon="12.5740517"><ele>266.6666666666667</ele><time>2026-04-26T08:45:53.936Z</time></trkpt><trkpt lat="43.89487" lon="12.5739367"><ele>266.8333333333333</ele><time>2026-04-26T08:45:54.937Z</time></trkpt><trkpt lat="43.8948433" lon="12.5738117"><ele>267.0</ele><time>2026-04-26T08:45:55.937Z</time></trkpt><trkpt lat="43.8948217" lon="12.5736867"><ele>269.2</ele><time>2026-04-26T08:45:56.937Z</time></trkpt><trkpt lat="43.894805" lon="12.5735667"><ele>271.4</ele><time>2026-04-26T08:45:57.937Z</time></trkpt><trkpt lat="43.894795" lon="12.57344"><ele>273.6</ele><time>2026-04-26T08:45:58.936Z</time></trkpt><trkpt lat="43.8947883" lon="12.5733067"><ele>275.8</ele><time>2026-04-26T08:45:59.936Z</time></trkpt><trkpt lat="43.8947817" lon="12.573165"><ele>278.0</ele><time>2026-04-26T08:46:00.937Z</time></trkpt><trkpt lat="43.8947683" lon="12.57303"><ele>278.0</ele><time>2026-04-26T08:46:01.937Z</time></trkpt><trkpt lat="43.8947567" lon="12.5729267"><ele>278.0</ele><time>2026-04-26T08:46:02.937Z</time></trkpt><trkpt lat="43.894705" lon="12.5728167"><ele>278.0</ele><time>2026-04-26T08:46:04.936Z</time></trkpt><trkpt lat="43.8945983" lon="12.5727633"><ele>278.0</ele><time>2026-04-26T08:46:06.937Z</time></trkpt><trkpt lat="43.894535" lon="12.5727333"><ele>278.0</ele><time>2026-04-26T08:46:07.937Z</time></trkpt><trkpt lat="43.89447" lon="12.5726883"><ele>278.0</ele><time>2026-04-26T08:46:08.937Z</time></trkpt><trkpt lat="43.894405" lon="12.572635"><ele>277.0</ele><time>2026-04-26T08:46:09.936Z</time></trkpt><trkpt lat="43.8943367" lon="12.5725767"><ele>276.0</ele><time>2026-04-26T08:46:10.936Z</time></trkpt><trkpt lat="43.89427" lon="12.5725133"><ele>275.0</ele><time>2026-04-26T08:46:11.937Z</time></trkpt><trkpt lat="43.8942067" lon="12.572455"><ele>274.0</ele><time>2026-04-26T08:46:12.937Z</time></trkpt><trkpt lat="43.8941417" lon="12.5724033"><ele>273.0</ele><time>2026-04-26T08:46:13.937Z</time></trkpt><trkpt lat="43.8940783" lon="12.5723567"><ele>272.0</ele><time>2026-04-26T08:46:14.937Z</time></trkpt><trkpt lat="43.8940167" lon="12.57232"><ele>271.71428571428567</ele><time>2026-04-26T08:46:15.937Z</time></trkpt><trkpt lat="43.893955" lon="12.5722883"><ele>271.42857142857144</ele><time>2026-04-26T08:46:16.937Z</time></trkpt><trkpt lat="43.8938933" lon="12.57225"><ele>271.1428571428571</ele><time>2026-04-26T08:46:17.937Z</time></trkpt><trkpt lat="43.89383" lon="12.57221"><ele>270.85714285714283</ele><time>2026-04-26T08:46:18.937Z</time></trkpt><trkpt lat="43.8937633" lon="12.5721767"><ele>270.57142857142856</ele><time>2026-04-26T08:46:19.936Z</time></trkpt><trkpt lat="43.89369" lon="12.572145"><ele>270.2857142857143</ele><time>2026-04-26T08:46:20.937Z</time></trkpt><trkpt lat="43.8936133" lon="12.5721167"><ele>270.0</ele><time>2026-04-26T08:46:21.937Z</time></trkpt><trkpt lat="43.893535" lon="12.5720983"><ele>270.0</ele><time>2026-04-26T08:46:22.937Z</time></trkpt><trkpt lat="43.8934533" lon="12.5720867"><ele>270.0</ele><time>2026-04-26T08:46:23.937Z</time></trkpt><trkpt lat="43.893365" lon="12.5720767"><ele>270.0</ele><time>2026-04-26T08:46:24.937Z</time></trkpt><trkpt lat="43.8932767" lon="12.5720667"><ele>270.0</ele><time>2026-04-26T08:46:25.937Z</time></trkpt><trkpt lat="43.89319" lon="12.572065"><ele>270.0</ele><time>2026-04-26T08:46:26.937Z</time></trkpt><trkpt lat="43.8931033" lon="12.572075"><ele>270.0</ele><time>2026-04-26T08:46:27.937Z</time></trkpt><trkpt lat="43.89302" lon="12.5720983"><ele>268.0</ele><time>2026-04-26T08:46:28.937Z</time></trkpt><trkpt lat="43.8929367" lon="12.5721417"><ele>266.0</ele><time>2026-04-26T08:46:29.936Z</time></trkpt><trkpt lat="43.89284" lon="12.5722067"><ele>264.0</ele><time>2026-04-26T08:46:30.937Z</time></trkpt><trkpt lat="43.8927317" lon="12.57229"><ele>262.0</ele><time>2026-04-26T08:46:31.937Z</time></trkpt><trkpt lat="43.8926183" lon="12.572385"><ele>258.5</ele><time>2026-04-26T08:46:32.936Z</time></trkpt><trkpt lat="43.8925033" lon="12.57249"><ele>255.0</ele><time>2026-04-26T08:46:33.936Z</time></trkpt><trkpt lat="43.8923867" lon="12.5726"><ele>251.5</ele><time>2026-04-26T08:46:34.937Z</time></trkpt><trkpt lat="43.8922767" lon="12.5727117"><ele>248.0</ele><time>2026-04-26T08:46:35.937Z</time></trkpt><trkpt lat="43.8921717" lon="12.572825"><ele>247.5</ele><time>2026-04-26T08:46:36.936Z</time></trkpt><trkpt lat="43.8920633" lon="12.57294"><ele>247.0</ele><time>2026-04-26T08:46:37.937Z</time></trkpt><trkpt lat="43.8919567" lon="12.57304"><ele>246.5</ele><time>2026-04-26T08:46:38.936Z</time></trkpt><trkpt lat="43.89185" lon="12.57313"><ele>246.0</ele><time>2026-04-26T08:46:39.936Z</time></trkpt><trkpt lat="43.8917467" lon="12.5732117"><ele>246.0</ele><time>2026-04-26T08:46:40.937Z</time></trkpt><trkpt lat="43.8916483" lon="12.5732867"><ele>246.0</ele><time>2026-04-26T08:46:41.937Z</time></trkpt><trkpt lat="43.891545" lon="12.5733533"><ele>246.0</ele><time>2026-04-26T08:46:42.936Z</time></trkpt><trkpt lat="43.8914367" lon="12.573405"><ele>246.0</ele><time>2026-04-26T08:46:43.937Z</time></trkpt><trkpt lat="43.8913167" lon="12.573445"><ele>246.0</ele><time>2026-04-26T08:46:44.937Z</time></trkpt><trkpt lat="43.89119" lon="12.5734783"><ele>246.0</ele><time>2026-04-26T08:46:45.937Z</time></trkpt><trkpt lat="43.8910633" lon="12.5735117"><ele>246.0</ele><time>2026-04-26T08:46:46.937Z</time></trkpt><trkpt lat="43.8909433" lon="12.5735467"><ele>246.0</ele><time>2026-04-26T08:46:47.937Z</time></trkpt><trkpt lat="43.8908367" lon="12.5735783"><ele>246.25</ele><time>2026-04-26T08:46:48.937Z</time></trkpt><trkpt lat="43.89074" lon="12.5735967"><ele>246.5</ele><time>2026-04-26T08:46:49.937Z</time></trkpt><trkpt lat="43.890635" lon="12.5736"><ele>246.75</ele><time>2026-04-26T08:46:50.937Z</time></trkpt><trkpt lat="43.890515" lon="12.5735917"><ele>247.0</ele><time>2026-04-26T08:46:51.936Z</time></trkpt><trkpt lat="43.8903783" lon="12.57358"><ele>247.0</ele><time>2026-04-26T08:46:52.937Z</time></trkpt><trkpt lat="43.890235" lon="12.573565"><ele>247.0</ele><time>2026-04-26T08:46:53.937Z</time></trkpt><trkpt lat="43.8900933" lon="12.5735533"><ele>247.0</ele><time>2026-04-26T08:46:54.936Z</time></trkpt><trkpt lat="43.88996" lon="12.573545"><ele>247.0</ele><time>2026-04-26T08:46:55.937Z</time></trkpt><trkpt lat="43.889835" lon="12.57355"><ele>247.8</ele><time>2026-04-26T08:46:56.937Z</time></trkpt><trkpt lat="43.8897183" lon="12.5735683"><ele>248.6</ele><time>2026-04-26T08:46:57.937Z</time></trkpt><trkpt lat="43.8896117" lon="12.5735917"><ele>249.40000000000003</ele><time>2026-04-26T08:46:58.937Z</time></trkpt><trkpt lat="43.889515" lon="12.573615"><ele>250.20000000000002</ele><time>2026-04-26T08:46:59.937Z</time></trkpt><trkpt lat="43.8894233" lon="12.5736367"><ele>251.0</ele><time>2026-04-26T08:47:00.937Z</time></trkpt><trkpt lat="43.8893367" lon="12.5736533"><ele>250.16666666666669</ele><time>2026-04-26T08:47:01.937Z</time></trkpt><trkpt lat="43.8892583" lon="12.5736567"><ele>249.33333333333334</ele><time>2026-04-26T08:47:02.937Z</time></trkpt><trkpt lat="43.8891883" lon="12.573655"><ele>248.5</ele><time>2026-04-26T08:47:03.937Z</time></trkpt><trkpt lat="43.889115" lon="12.5736433"><ele>247.66666666666669</ele><time>2026-04-26T08:47:04.936Z</time></trkpt><trkpt lat="43.8890367" lon="12.5736233"><ele>246.83333333333334</ele><time>2026-04-26T08:47:05.937Z</time></trkpt><trkpt lat="43.888955" lon="12.5736033"><ele>246.0</ele><time>2026-04-26T08:47:06.936Z</time></trkpt><trkpt lat="43.8888733" lon="12.5735867"><ele>246.0</ele><time>2026-04-26T08:47:07.937Z</time></trkpt><trkpt lat="43.888785" lon="12.5735683"><ele>246.00000000000003</ele><time>2026-04-26T08:47:08.937Z</time></trkpt><trkpt lat="43.8886917" lon="12.5735467"><ele>246.00000000000003</ele><time>2026-04-26T08:47:09.936Z</time></trkpt><trkpt lat="43.8886017" lon="12.5735217"><ele>246.0</ele><time>2026-04-26T08:47:10.937Z</time></trkpt><trkpt lat="43.8885167" lon="12.57349"><ele>246.0</ele><time>2026-04-26T08:47:11.937Z</time></trkpt><trkpt lat="43.888435" lon="12.5734517"><ele>243.83333333333334</ele><time>2026-04-26T08:47:12.936Z</time></trkpt><trkpt lat="43.8883533" lon="12.573415"><ele>241.66666666666669</ele><time>2026-04-26T08:47:13.937Z</time></trkpt><trkpt lat="43.8882717" lon="12.573365"><ele>239.5</ele><time>2026-04-26T08:47:14.937Z</time></trkpt><trkpt lat="43.8881967" lon="12.5733017"><ele>237.33333333333334</ele><time>2026-04-26T08:47:15.937Z</time></trkpt><trkpt lat="43.8881283" lon="12.57324"><ele>235.16666666666669</ele><time>2026-04-26T08:47:16.937Z</time></trkpt><trkpt lat="43.8880667" lon="12.573195"><ele>233.0</ele><time>2026-04-26T08:47:17.937Z</time></trkpt><trkpt lat="43.88798" lon="12.5731117"><ele>233.0</ele><time>2026-04-26T08:47:19.937Z</time></trkpt><trkpt lat="43.8879583" lon="12.5729933"><ele>233.0</ele><time>2026-04-26T08:47:21.937Z</time></trkpt><trkpt lat="43.8880017" lon="12.572855"><ele>233.0</ele><time>2026-04-26T08:47:23.937Z</time></trkpt><trkpt lat="43.888035" lon="12.57277"><ele>233.0</ele><time>2026-04-26T08:47:24.937Z</time></trkpt><trkpt lat="43.8880717" lon="12.5726317"><ele>233.0</ele><time>2026-04-26T08:47:26.936Z</time></trkpt><trkpt lat="43.8880367" lon="12.5725317"><ele>229.8</ele><time>2026-04-26T08:47:28.937Z</time></trkpt><trkpt lat="43.887895" lon="12.572495"><ele>226.60000000000002</ele><time>2026-04-26T08:47:30.937Z</time></trkpt><trkpt lat="43.8878033" lon="12.5725017"><ele>223.39999999999998</ele><time>2026-04-26T08:47:31.937Z</time></trkpt><trkpt lat="43.88771" lon="12.5725317"><ele>220.2</ele><time>2026-04-26T08:47:32.936Z</time></trkpt><trkpt lat="43.88762" lon="12.5725617"><ele>217.0</ele><time>2026-04-26T08:47:33.937Z</time></trkpt><trkpt lat="43.8875267" lon="12.5725917"><ele>215.8</ele><time>2026-04-26T08:47:34.936Z</time></trkpt><trkpt lat="43.8874317" lon="12.5726267"><ele>214.6</ele><time>2026-04-26T08:47:35.937Z</time></trkpt><trkpt lat="43.8873367" lon="12.5726583"><ele>213.4</ele><time>2026-04-26T08:47:36.936Z</time></trkpt><trkpt lat="43.887245" lon="12.572685"><ele>212.20000000000002</ele><time>2026-04-26T08:47:37.937Z</time></trkpt><trkpt lat="43.887155" lon="12.5727133"><ele>211.0</ele><time>2026-04-26T08:47:38.937Z</time></trkpt><trkpt lat="43.8870667" lon="12.57274"><ele>211.0</ele><time>2026-04-26T08:47:39.937Z</time></trkpt><trkpt lat="43.886985" lon="12.572765"><ele>211.0</ele><time>2026-04-26T08:47:40.937Z</time></trkpt><trkpt lat="43.886905" lon="12.57279"><ele>211.0</ele><time>2026-04-26T08:47:41.937Z</time></trkpt><trkpt lat="43.886835" lon="12.5728017"><ele>211.0</ele><time>2026-04-26T08:47:42.936Z</time></trkpt><trkpt lat="43.8867183" lon="12.572775"><ele>211.0</ele><time>2026-04-26T08:47:44.936Z</time></trkpt><trkpt lat="43.8866333" lon="12.5726417"><ele>207.33333333333331</ele><time>2026-04-26T08:47:46.937Z</time></trkpt><trkpt lat="43.8866083" lon="12.5725383"><ele>203.66666666666666</ele><time>2026-04-26T08:47:47.937Z</time></trkpt><trkpt lat="43.8865883" lon="12.5724367"><ele>200.0</ele><time>2026-04-26T08:47:48.936Z</time></trkpt><trkpt lat="43.8865683" lon="12.5723533"><ele>196.33333333333331</ele><time>2026-04-26T08:47:49.937Z</time></trkpt><trkpt lat="43.8865133" lon="12.5722283"><ele>192.66666666666666</ele><time>2026-04-26T08:47:51.937Z</time></trkpt><trkpt lat="43.886415" lon="12.5721767"><ele>189.0</ele><time>2026-04-26T08:47:53.937Z</time></trkpt><trkpt lat="43.8863017" lon="12.57217"><ele>189.0</ele><time>2026-04-26T08:47:55.937Z</time></trkpt><trkpt lat="43.88623" lon="12.572175"><ele>189.0</ele><time>2026-04-26T08:47:56.936Z</time></trkpt><trkpt lat="43.8861483" lon="12.5721767"><ele>189.0</ele><time>2026-04-26T08:47:57.936Z</time></trkpt><trkpt lat="43.8860683" lon="12.5721783"><ele>189.0</ele><time>2026-04-26T08:47:58.936Z</time></trkpt><trkpt lat="43.8859817" lon="12.572185"><ele>189.0</ele><time>2026-04-26T08:47:59.937Z</time></trkpt><trkpt lat="43.8858867" lon="12.5721933"><ele>189.0</ele><time>2026-04-26T08:48:00.937Z</time></trkpt><trkpt lat="43.885785" lon="12.5721783"><ele>184.6</ele><time>2026-04-26T08:48:01.937Z</time></trkpt><trkpt lat="43.8856867" lon="12.572145"><ele>180.2</ele><time>2026-04-26T08:48:02.937Z</time></trkpt><trkpt lat="43.8855933" lon="12.5721067"><ele>175.79999999999998</ele><time>2026-04-26T08:48:03.937Z</time></trkpt><trkpt lat="43.8855067" lon="12.57206"><ele>171.39999999999998</ele><time>2026-04-26T08:48:04.937Z</time></trkpt><trkpt lat="43.8854317" lon="12.5720083"><ele>167.0</ele><time>2026-04-26T08:48:05.937Z</time></trkpt><trkpt lat="43.885365" lon="12.571955"><ele>166.39999999999998</ele><time>2026-04-26T08:48:06.937Z</time></trkpt><trkpt lat="43.8853017" lon="12.5718967"><ele>165.79999999999998</ele><time>2026-04-26T08:48:07.937Z</time></trkpt><trkpt lat="43.8852333" lon="12.5718217"><ele>165.2</ele><time>2026-04-26T08:48:08.936Z</time></trkpt><trkpt lat="43.8851517" lon="12.5717217"><ele>164.6</ele><time>2026-04-26T08:48:09.937Z</time></trkpt><trkpt lat="43.8850583" lon="12.5716083"><ele>164.0</ele><time>2026-04-26T08:48:10.937Z</time></trkpt><trkpt lat="43.8849633" lon="12.5714917"><ele>161.2</ele><time>2026-04-26T08:48:11.937Z</time></trkpt><trkpt lat="43.8848667" lon="12.5713817"><ele>158.39999999999998</ele><time>2026-04-26T08:48:12.937Z</time></trkpt><trkpt lat="43.8847767" lon="12.57128"><ele>155.6</ele><time>2026-04-26T08:48:13.937Z</time></trkpt><trkpt lat="43.8846983" lon="12.571195"><ele>152.8</ele><time>2026-04-26T08:48:14.937Z</time></trkpt><trkpt lat="43.8846333" lon="12.571125"><ele>150.0</ele><time>2026-04-26T08:48:15.937Z</time></trkpt><trkpt lat="43.8845667" lon="12.5710367"><ele>150.0</ele><time>2026-04-26T08:48:17.937Z</time></trkpt><trkpt lat="43.8845067" lon="12.570935"><ele>150.0</ele><time>2026-04-26T08:48:22.937Z</time></trkpt><trkpt lat="43.884445" lon="12.57082"><ele>150.0</ele><time>2026-04-26T08:48:24.937Z</time></trkpt><trkpt lat="43.884365" lon="12.5707"><ele>150.0</ele><time>2026-04-26T08:48:26.937Z</time></trkpt><trkpt lat="43.8843267" lon="12.57062"><ele>150.0</ele><time>2026-04-26T08:48:27.937Z</time></trkpt><trkpt lat="43.8843033" lon="12.5705333"><ele>150.0</ele><time>2026-04-26T08:48:28.937Z</time></trkpt><trkpt lat="43.8843067" lon="12.5703917"><ele>150.0</ele><time>2026-04-26T08:48:30.937Z</time></trkpt><trkpt lat="43.8843617" lon="12.5703133"><ele>150.0</ele><time>2026-04-26T08:48:32.937Z</time></trkpt><trkpt lat="43.88447" lon="12.5702983"><ele>150.0</ele><time>2026-04-26T08:48:34.936Z</time></trkpt><trkpt lat="43.8845817" lon="12.570275"><ele>150.0</ele><time>2026-04-26T08:48:36.937Z</time></trkpt><trkpt lat="43.8846683" lon="12.5702217"><ele>151.33333333333334</ele><time>2026-04-26T08:48:38.936Z</time></trkpt><trkpt lat="43.8847367" lon="12.57013"><ele>152.66666666666666</ele><time>2026-04-26T08:48:40.936Z</time></trkpt><trkpt lat="43.8847833" lon="12.5700183"><ele>154.0</ele><time>2026-04-26T08:48:42.937Z</time></trkpt><trkpt lat="43.8848167" lon="12.5699417"><ele>155.33333333333331</ele><time>2026-04-26T08:48:45.936Z</time></trkpt><trkpt lat="43.8848433" lon="12.5698567"><ele>156.66666666666666</ele><time>2026-04-26T08:48:52.937Z</time></trkpt><trkpt lat="43.8848883" lon="12.56972"><ele>158.0</ele><time>2026-04-26T08:48:54.937Z</time></trkpt><trkpt lat="43.8849133" lon="12.5696367"><ele>158.0</ele><time>2026-04-26T08:48:55.937Z</time></trkpt><trkpt lat="43.8849483" lon="12.5695417"><ele>158.0</ele><time>2026-04-26T08:48:56.936Z</time></trkpt><trkpt lat="43.8849867" lon="12.5694333"><ele>158.0</ele><time>2026-04-26T08:48:57.937Z</time></trkpt><trkpt lat="43.8850367" lon="12.5693267"><ele>158.0</ele><time>2026-04-26T08:48:58.936Z</time></trkpt><trkpt lat="43.8850833" lon="12.5692067"><ele>158.0</ele><time>2026-04-26T08:48:59.937Z</time></trkpt><trkpt lat="43.8851367" lon="12.569095"><ele>158.8</ele><time>2026-04-26T08:49:00.937Z</time></trkpt><trkpt lat="43.8851917" lon="12.5689917"><ele>159.60000000000002</ele><time>2026-04-26T08:49:01.937Z</time></trkpt><trkpt lat="43.88525" lon="12.5688833"><ele>160.39999999999998</ele><time>2026-04-26T08:49:02.936Z</time></trkpt><trkpt lat="43.8852967" lon="12.5687583"><ele>161.2</ele><time>2026-04-26T08:49:03.937Z</time></trkpt><trkpt lat="43.8853467" lon="12.5686283"><ele>162.0</ele><time>2026-04-26T08:49:04.937Z</time></trkpt><trkpt lat="43.8854033" lon="12.568505"><ele>167.0</ele><time>2026-04-26T08:49:05.937Z</time></trkpt><trkpt lat="43.885465" lon="12.568375"><ele>172.0</ele><time>2026-04-26T08:49:06.937Z</time></trkpt><trkpt lat="43.8855317" lon="12.5682383"><ele>177.0</ele><time>2026-04-26T08:49:07.936Z</time></trkpt><trkpt lat="43.8856033" lon="12.568105"><ele>182.0</ele><time>2026-04-26T08:49:08.937Z</time></trkpt><trkpt lat="43.8856733" lon="12.567985"><ele>182.0</ele><time>2026-04-26T08:49:09.937Z</time></trkpt><trkpt lat="43.8857383" lon="12.5678767"><ele>182.0</ele><time>2026-04-26T08:49:10.937Z</time></trkpt><trkpt lat="43.8857917" lon="12.5677683"><ele>182.0</ele><time>2026-04-26T08:49:11.937Z</time></trkpt><trkpt lat="43.8858433" lon="12.5676617"><ele>182.0</ele><time>2026-04-26T08:49:12.937Z</time></trkpt><trkpt lat="43.8858817" lon="12.5675533"><ele>182.0</ele><time>2026-04-26T08:49:13.937Z</time></trkpt><trkpt lat="43.8858933" lon="12.5674517"><ele>184.66666666666666</ele><time>2026-04-26T08:49:14.936Z</time></trkpt><trkpt lat="43.8858817" lon="12.567365"><ele>187.33333333333331</ele><time>2026-04-26T08:49:15.937Z</time></trkpt><trkpt lat="43.8858533" lon="12.5672767"><ele>190.0</ele><time>2026-04-26T08:49:16.937Z</time></trkpt><trkpt lat="43.8858417" lon="12.5671767"><ele>192.66666666666666</ele><time>2026-04-26T08:49:17.937Z</time></trkpt><trkpt lat="43.885825" lon="12.5670683"><ele>195.33333333333334</ele><time>2026-04-26T08:49:18.937Z</time></trkpt><trkpt lat="43.8858117" lon="12.56695"><ele>198.0</ele><time>2026-04-26T08:49:19.937Z</time></trkpt><trkpt lat="43.88581" lon="12.566835"><ele>198.83333333333334</ele><time>2026-04-26T08:49:20.936Z</time></trkpt><trkpt lat="43.8858283" lon="12.5667283"><ele>199.66666666666669</ele><time>2026-04-26T08:49:21.937Z</time></trkpt><trkpt lat="43.8858417" lon="12.566625"><ele>200.5</ele><time>2026-04-26T08:49:22.937Z</time></trkpt><trkpt lat="43.88585" lon="12.5665317"><ele>201.33333333333334</ele><time>2026-04-26T08:49:23.936Z</time></trkpt><trkpt lat="43.8858617" lon="12.5663817"><ele>202.16666666666669</ele><time>2026-04-26T08:49:25.936Z</time></trkpt><trkpt lat="43.885825" lon="12.5662817"><ele>203.0</ele><time>2026-04-26T08:49:27.936Z</time></trkpt><trkpt lat="43.8857067" lon="12.5662083"><ele>204.0</ele><time>2026-04-26T08:49:29.937Z</time></trkpt><trkpt lat="43.8856317" lon="12.5661417"><ele>205.0</ele><time>2026-04-26T08:49:30.936Z</time></trkpt><trkpt lat="43.8855417" lon="12.56605"><ele>206.0</ele><time>2026-04-26T08:49:31.937Z</time></trkpt><trkpt lat="43.885445" lon="12.5659467"><ele>207.0</ele><time>2026-04-26T08:49:32.937Z</time></trkpt><trkpt lat="43.8853517" lon="12.5658433"><ele>208.0</ele><time>2026-04-26T08:49:33.937Z</time></trkpt><trkpt lat="43.8852583" lon="12.5657333"><ele>208.0</ele><time>2026-04-26T08:49:34.937Z</time></trkpt><trkpt lat="43.885165" lon="12.565615"><ele>208.0</ele><time>2026-04-26T08:49:35.937Z</time></trkpt><trkpt lat="43.8850767" lon="12.5654917"><ele>208.0</ele><time>2026-04-26T08:49:36.936Z</time></trkpt><trkpt lat="43.88499" lon="12.5653717"><ele>208.0</ele><time>2026-04-26T08:49:37.937Z</time></trkpt><trkpt lat="43.8849017" lon="12.5652617"><ele>205.2</ele><time>2026-04-26T08:49:38.937Z</time></trkpt><trkpt lat="43.8848117" lon="12.565155"><ele>202.4</ele><time>2026-04-26T08:49:39.936Z</time></trkpt><trkpt lat="43.8847233" lon="12.5650533"><ele>199.6</ele><time>2026-04-26T08:49:40.937Z</time></trkpt><trkpt lat="43.884645" lon="12.564965"><ele>196.79999999999998</ele><time>2026-04-26T08:49:41.937Z</time></trkpt><trkpt lat="43.8845817" lon="12.56488"><ele>194.0</ele><time>2026-04-26T08:49:42.937Z</time></trkpt><trkpt lat="43.8845233" lon="12.5648083"><ele>194.0</ele><time>2026-04-26T08:49:43.937Z</time></trkpt><trkpt lat="43.8844267" lon="12.5647267"><ele>194.0</ele><time>2026-04-26T08:49:45.936Z</time></trkpt><trkpt lat="43.8843183" lon="12.5647767"><ele>194.0</ele><time>2026-04-26T08:49:47.937Z</time></trkpt><trkpt lat="43.8842367" lon="12.5648233"><ele>194.0</ele><time>2026-04-26T08:49:48.937Z</time></trkpt><trkpt lat="43.8841517" lon="12.5648583"><ele>194.0</ele><time>2026-04-26T08:49:49.936Z</time></trkpt><trkpt lat="43.8840733" lon="12.56489"><ele>192.00000000000003</ele><time>2026-04-26T08:49:50.936Z</time></trkpt><trkpt lat="43.884" lon="12.564925"><ele>190.0</ele><time>2026-04-26T08:49:51.937Z</time></trkpt><trkpt lat="43.88392" lon="12.564955"><ele>188.0</ele><time>2026-04-26T08:49:52.937Z</time></trkpt><trkpt lat="43.8838367" lon="12.5649833"><ele>186.0</ele><time>2026-04-26T08:49:53.936Z</time></trkpt><trkpt lat="43.8837533" lon="12.5650217"><ele>184.0</ele><time>2026-04-26T08:49:54.937Z</time></trkpt><trkpt lat="43.8836683" lon="12.5650567"><ele>182.0</ele><time>2026-04-26T08:49:55.937Z</time></trkpt><trkpt lat="43.8835883" lon="12.5650917"><ele>182.0</ele><time>2026-04-26T08:49:56.937Z</time></trkpt><trkpt lat="43.8835183" lon="12.5651217"><ele>182.0</ele><time>2026-04-26T08:49:57.937Z</time></trkpt><trkpt lat="43.8834517" lon="12.56515"><ele>182.0</ele><time>2026-04-26T08:49:58.938Z</time></trkpt><trkpt lat="43.8833767" lon="12.56518"><ele>182.0</ele><time>2026-04-26T08:49:59.938Z</time></trkpt><trkpt lat="43.8832967" lon="12.5652167"><ele>182.0</ele><time>2026-04-26T08:50:00.937Z</time></trkpt><trkpt lat="43.88321" lon="12.5652583"><ele>182.0</ele><time>2026-04-26T08:50:01.938Z</time></trkpt><trkpt lat="43.88312" lon="12.5653017"><ele>179.83333333333331</ele><time>2026-04-26T08:50:02.938Z</time></trkpt><trkpt lat="43.883035" lon="12.5653517"><ele>177.66666666666666</ele><time>2026-04-26T08:50:03.937Z</time></trkpt><trkpt lat="43.8829567" lon="12.565395"><ele>175.5</ele><time>2026-04-26T08:50:04.938Z</time></trkpt><trkpt lat="43.8828833" lon="12.5654333"><ele>173.33333333333334</ele><time>2026-04-26T08:50:05.938Z</time></trkpt><trkpt lat="43.8828117" lon="12.5654767"><ele>171.16666666666669</ele><time>2026-04-26T08:50:06.938Z</time></trkpt><trkpt lat="43.882745" lon="12.5655317"><ele>169.0</ele><time>2026-04-26T08:50:07.938Z</time></trkpt><trkpt lat="43.8826933" lon="12.5655967"><ele>168.16666666666669</ele><time>2026-04-26T08:50:08.938Z</time></trkpt><trkpt lat="43.88263" lon="12.5657033"><ele>167.33333333333334</ele><time>2026-04-26T08:50:10.937Z</time></trkpt><trkpt lat="43.8825317" lon="12.5657983"><ele>166.5</ele><time>2026-04-26T08:50:38.937Z</time></trkpt><trkpt lat="43.88246" lon="12.5658317"><ele>165.66666666666666</ele><time>2026-04-26T08:50:41.937Z</time></trkpt><trkpt lat="43.8823967" lon="12.5658567"><ele>164.83333333333331</ele><time>2026-04-26T08:50:49.937Z</time></trkpt><trkpt lat="43.8824717" lon="12.5658383"><ele>164.0</ele><time>2026-04-26T08:50:53.937Z</time></trkpt><trkpt lat="43.8825517" lon="12.56579"><ele>163.0</ele><time>2026-04-26T08:50:55.937Z</time></trkpt><trkpt lat="43.8825967" lon="12.5657133"><ele>162.0</ele><time>2026-04-26T08:50:58.937Z</time></trkpt><trkpt lat="43.8824833" lon="12.5657117"><ele>161.0</ele><time>2026-04-26T08:51:37.937Z</time></trkpt><trkpt lat="43.88241" lon="12.5656533"><ele>160.0</ele><time>2026-04-26T08:51:40.937Z</time></trkpt><trkpt lat="43.8823517" lon="12.565615"><ele>159.0</ele><time>2026-04-26T08:51:43.937Z</time></trkpt><trkpt lat="43.88227" lon="12.565545"><ele>158.0</ele><time>2026-04-26T08:52:22.937Z</time></trkpt><trkpt lat="43.8822" lon="12.5655383"><ele>158.0</ele><time>2026-04-26T08:52:24.937Z</time></trkpt><trkpt lat="43.8821233" lon="12.5655483"><ele>158.0</ele><time>2026-04-26T08:52:27.937Z</time></trkpt><trkpt lat="43.8820417" lon="12.5655383"><ele>158.0</ele><time>2026-04-26T08:53:31.936Z</time></trkpt><trkpt lat="43.8821417" lon="12.56552"><ele>158.0</ele><time>2026-04-26T08:53:37.937Z</time></trkpt><trkpt lat="43.882215" lon="12.565535"><ele>158.0</ele><time>2026-04-26T08:53:39.937Z</time></trkpt><trkpt lat="43.8822967" lon="12.5655317"><ele>158.0</ele><time>2026-04-26T08:54:08.937Z</time></trkpt><trkpt lat="43.8822133" lon="12.5655233"><ele>158.0</ele><time>2026-04-26T08:55:46.937Z</time></trkpt><trkpt lat="43.8821483" lon="12.5655433"><ele>158.0</ele><time>2026-04-26T08:55:48.937Z</time></trkpt><trkpt lat="43.882075" lon="12.565535"><ele>158.0</ele><time>2026-04-26T08:55:51.937Z</time></trkpt><trkpt lat="43.8820433" lon="12.56543"><ele>158.0</ele><time>2026-04-26T08:55:54.937Z</time></trkpt><trkpt lat="43.8820617" lon="12.5653083"><ele>158.0</ele><time>2026-04-26T08:55:56.937Z</time></trkpt><trkpt lat="43.88208" lon="12.5651983"><ele>158.0</ele><time>2026-04-26T08:55:58.937Z</time></trkpt><trkpt lat="43.8820833" lon="12.5650667"><ele>158.42857142857144</ele><time>2026-04-26T08:56:00.937Z</time></trkpt><trkpt lat="43.8820817" lon="12.5649583"><ele>158.85714285714286</ele><time>2026-04-26T08:56:04.937Z</time></trkpt><trkpt lat="43.8820917" lon="12.5648483"><ele>159.28571428571428</ele><time>2026-04-26T08:56:09.937Z</time></trkpt><trkpt lat="43.8820933" lon="12.5647267"><ele>159.71428571428572</ele><time>2026-04-26T08:56:12.936Z</time></trkpt><trkpt lat="43.8820767" lon="12.5646317"><ele>160.14285714285714</ele><time>2026-04-26T08:56:14.936Z</time></trkpt><trkpt lat="43.8820733" lon="12.56454"><ele>160.57142857142858</ele><time>2026-04-26T08:56:18.937Z</time></trkpt><trkpt lat="43.8820883" lon="12.5646267"><ele>161.0</ele><time>2026-04-26T08:56:46.937Z</time></trkpt><trkpt lat="43.8820917" lon="12.5647283"><ele>161.0</ele><time>2026-04-26T08:56:52.937Z</time></trkpt><trkpt lat="43.8820867" lon="12.5648333"><ele>161.0</ele><time>2026-04-26T08:56:55.937Z</time></trkpt><trkpt lat="43.8820683" lon="12.56494"><ele>161.0</ele><time>2026-04-26T08:56:57.936Z</time></trkpt><trkpt lat="43.8820517" lon="12.5650917"><ele>161.0</ele><time>2026-04-26T08:56:59.936Z</time></trkpt><trkpt lat="43.8820433" lon="12.565265"><ele>161.0</ele><time>2026-04-26T08:57:01.937Z</time></trkpt><trkpt lat="43.8820283" lon="12.5653983"><ele>160.5</ele><time>2026-04-26T08:57:03.937Z</time></trkpt><trkpt lat="43.8820233" lon="12.5654933"><ele>160.0</ele><time>2026-04-26T08:57:05.937Z</time></trkpt><trkpt lat="43.88198" lon="12.5655967"><ele>159.5</ele><time>2026-04-26T08:57:08.936Z</time></trkpt><trkpt lat="43.881945" lon="12.5656817"><ele>159.0</ele><time>2026-04-26T08:57:12.937Z</time></trkpt><trkpt lat="43.8819033" lon="12.5657583"><ele>158.5</ele><time>2026-04-26T08:57:15.937Z</time></trkpt><trkpt lat="43.8818483" lon="12.5658467"><ele>158.0</ele><time>2026-04-26T08:57:18.937Z</time></trkpt><trkpt lat="43.8818067" lon="12.5659417"><ele>158.83333333333331</ele><time>2026-04-26T08:57:20.937Z</time></trkpt><trkpt lat="43.8817583" lon="12.5660233"><ele>159.66666666666666</ele><time>2026-04-26T08:57:22.937Z</time></trkpt><trkpt lat="43.8817013" lon="12.5661214"><ele>160.5</ele><time>2026-04-26T08:57:25.191Z</time></trkpt><trkpt lat="43.8816562" lon="12.5662159"><ele>161.33333333333334</ele><time>2026-04-26T08:57:27.135Z</time></trkpt><trkpt lat="43.8816028" lon="12.5663076"><ele>162.16666666666669</ele><time>2026-04-26T08:57:29.153Z</time></trkpt><trkpt lat="43.8815476" lon="12.5663786"><ele>163.0</ele><time>2026-04-26T08:57:31.169Z</time></trkpt><trkpt lat="43.8814773" lon="12.5664402"><ele>164.16666666666669</ele><time>2026-04-26T08:57:34.192Z</time></trkpt><trkpt lat="43.8815349" lon="12.566403"><ele>165.33333333333334</ele><time>2026-04-26T08:57:38.123Z</time></trkpt><trkpt lat="43.8815606" lon="12.5663114"><ele>166.5</ele><time>2026-04-26T08:57:40.138Z</time></trkpt><trkpt lat="43.8815181" lon="12.5664127"><ele>167.66666666666666</ele><time>2026-04-26T08:59:00.157Z</time></trkpt><trkpt lat="43.88145" lon="12.5665283"><ele>168.83333333333331</ele><time>2026-04-26T08:59:01.937Z</time></trkpt><trkpt lat="43.88138" lon="12.5666167"><ele>170.0</ele><time>2026-04-26T08:59:04.937Z</time></trkpt><trkpt lat="43.8813206" lon="12.5666791"><ele>170.0</ele><time>2026-04-26T08:59:07.017Z</time></trkpt><trkpt lat="43.8812497" lon="12.5667686"><ele>170.0</ele><time>2026-04-26T08:59:09.127Z</time></trkpt><trkpt lat="43.8811849" lon="12.5668164"><ele>170.0</ele><time>2026-04-26T08:59:11.129Z</time></trkpt><trkpt lat="43.8812129" lon="12.5667249"><ele>170.0</ele><time>2026-04-26T08:59:17.189Z</time></trkpt><trkpt lat="43.8811583" lon="12.5668063"><ele>170.0</ele><time>2026-04-26T09:10:48.2Z</time></trkpt><trkpt lat="43.8810936" lon="12.5668927"><ele>170.0</ele><time>2026-04-26T09:10:50.115Z</time></trkpt><trkpt lat="43.8810381" lon="12.5669416"><ele>170.0</ele><time>2026-04-26T09:10:52.147Z</time></trkpt><trkpt lat="43.8809696" lon="12.566981"><ele>170.0</ele><time>2026-04-26T09:10:54.147Z</time></trkpt><trkpt lat="43.880891" lon="12.5670258"><ele>170.0</ele><time>2026-04-26T09:10:56.128Z</time></trkpt><trkpt lat="43.8807657" lon="12.5671094"><ele>170.0</ele><time>2026-04-26T09:10:58.936Z</time></trkpt><trkpt lat="43.8806847" lon="12.5671585"><ele>170.0</ele><time>2026-04-26T09:11:00.936Z</time></trkpt><trkpt lat="43.8806075" lon="12.5671951"><ele>173.6</ele><time>2026-04-26T09:11:02.936Z</time></trkpt><trkpt lat="43.8805053" lon="12.5672239"><ele>177.2</ele><time>2026-04-26T09:11:04.937Z</time></trkpt><trkpt lat="43.8804062" lon="12.5672404"><ele>180.8</ele><time>2026-04-26T09:11:06.937Z</time></trkpt><trkpt lat="43.8803252" lon="12.5672562"><ele>184.4</ele><time>2026-04-26T09:11:11.171Z</time></trkpt><trkpt lat="43.8802458" lon="12.5673328"><ele>188.0</ele><time>2026-04-26T09:25:15.242Z</time></trkpt><trkpt lat="43.8801663" lon="12.5673656"><ele>188.0</ele><time>2026-04-26T09:25:36.209Z</time></trkpt><trkpt lat="43.8802302" lon="12.5673236"><ele>188.0</ele><time>2026-04-26T09:31:53.178Z</time></trkpt><trkpt lat="43.8801267" lon="12.56748"><ele>188.0</ele><time>2026-04-26T09:35:05.937Z</time></trkpt><trkpt lat="43.880055" lon="12.5675683"><ele>188.0</ele><time>2026-04-26T09:35:07.937Z</time></trkpt><trkpt lat="43.8799633" lon="12.567685"><ele>188.0</ele><time>2026-04-26T09:35:09.937Z</time></trkpt><trkpt lat="43.8799133" lon="12.5677517"><ele>190.33333333333331</ele><time>2026-04-26T09:35:10.937Z</time></trkpt><trkpt lat="43.8798633" lon="12.5678233"><ele>192.66666666666666</ele><time>2026-04-26T09:35:11.937Z</time></trkpt><trkpt lat="43.8798133" lon="12.5678933"><ele>195.0</ele><time>2026-04-26T09:35:12.937Z</time></trkpt><trkpt lat="43.8797667" lon="12.5679633"><ele>197.33333333333331</ele><time>2026-04-26T09:35:13.936Z</time></trkpt><trkpt lat="43.87972" lon="12.5680283"><ele>199.66666666666666</ele><time>2026-04-26T09:35:14.937Z</time></trkpt><trkpt lat="43.8796283" lon="12.5681283"><ele>202.0</ele><time>2026-04-26T09:35:16.937Z</time></trkpt><trkpt lat="43.8795367" lon="12.5682467"><ele>203.66666666666666</ele><time>2026-04-26T09:35:18.936Z</time></trkpt><trkpt lat="43.8794817" lon="12.5683217"><ele>205.33333333333331</ele><time>2026-04-26T09:35:19.937Z</time></trkpt><trkpt lat="43.8794217" lon="12.5684033"><ele>207.0</ele><time>2026-04-26T09:35:20.937Z</time></trkpt><trkpt lat="43.8793633" lon="12.5684783"><ele>208.66666666666669</ele><time>2026-04-26T09:35:21.937Z</time></trkpt><trkpt lat="43.8793117" lon="12.5685467"><ele>210.33333333333334</ele><time>2026-04-26T09:35:22.937Z</time></trkpt><trkpt lat="43.87923" lon="12.5686383"><ele>212.0</ele><time>2026-04-26T09:35:24.937Z</time></trkpt><trkpt lat="43.87915" lon="12.5686717"><ele>215.57142857142858</ele><time>2026-04-26T09:35:26.937Z</time></trkpt><trkpt lat="43.8791" lon="12.5687433"><ele>219.1428571428571</ele><time>2026-04-26T09:35:28.936Z</time></trkpt><trkpt lat="43.8790633" lon="12.5688267"><ele>222.7142857142857</ele><time>2026-04-26T09:35:30.936Z</time></trkpt><trkpt lat="43.879" lon="12.5688767"><ele>226.28571428571428</ele><time>2026-04-26T09:35:33.937Z</time></trkpt><trkpt lat="43.8789667" lon="12.568975"><ele>229.85714285714283</ele><time>2026-04-26T09:35:43.937Z</time></trkpt><trkpt lat="43.878965" lon="12.5690717"><ele>233.4285714285714</ele><time>2026-04-26T09:35:46.937Z</time></trkpt><trkpt lat="43.8789783" lon="12.5691767"><ele>236.99999999999997</ele><time>2026-04-26T09:35:49.937Z</time></trkpt><trkpt lat="43.87898" lon="12.5692717"><ele>237.0</ele><time>2026-04-26T09:35:52.936Z</time></trkpt><trkpt lat="43.879005" lon="12.5693533"><ele>237.0</ele><time>2026-04-26T09:35:54.937Z</time></trkpt><trkpt lat="43.8790317" lon="12.5694733"><ele>237.0</ele><time>2026-04-26T09:35:56.937Z</time></trkpt><trkpt lat="43.8790733" lon="12.569605"><ele>237.0</ele><time>2026-04-26T09:35:58.937Z</time></trkpt><trkpt lat="43.8791167" lon="12.5697267"><ele>237.0</ele><time>2026-04-26T09:36:00.937Z</time></trkpt><trkpt lat="43.8791683" lon="12.5698417"><ele>237.6</ele><time>2026-04-26T09:36:02.937Z</time></trkpt><trkpt lat="43.8792167" lon="12.5699583"><ele>238.2</ele><time>2026-04-26T09:36:04.936Z</time></trkpt><trkpt lat="43.879255" lon="12.570085"><ele>238.8</ele><time>2026-04-26T09:36:06.937Z</time></trkpt><trkpt lat="43.8792783" lon="12.5702383"><ele>239.4</ele><time>2026-04-26T09:36:08.936Z</time></trkpt><trkpt lat="43.8792867" lon="12.5703367"><ele>240.0</ele><time>2026-04-26T09:36:09.936Z</time></trkpt><trkpt lat="43.8792917" lon="12.5704367"><ele>239.66666666666666</ele><time>2026-04-26T09:36:10.937Z</time></trkpt><trkpt lat="43.879295" lon="12.5705317"><ele>239.33333333333331</ele><time>2026-04-26T09:36:11.937Z</time></trkpt><trkpt lat="43.8792767" lon="12.5706817"><ele>239.0</ele><time>2026-04-26T09:36:13.936Z</time></trkpt><trkpt lat="43.8792283" lon="12.5707483"><ele>238.66666666666666</ele><time>2026-04-26T09:36:15.936Z</time></trkpt><trkpt lat="43.879165" lon="12.5707933"><ele>238.33333333333331</ele><time>2026-04-26T09:36:18.937Z</time></trkpt><trkpt lat="43.8790933" lon="12.5708283"><ele>238.0</ele><time>2026-04-26T09:36:24.937Z</time></trkpt><trkpt lat="43.878985" lon="12.570865"><ele>237.99999999999997</ele><time>2026-04-26T09:36:26.936Z</time></trkpt><trkpt lat="43.87892" lon="12.5708817"><ele>238.0</ele><time>2026-04-26T09:36:27.937Z</time></trkpt><trkpt lat="43.8787983" lon="12.5709033"><ele>238.0</ele><time>2026-04-26T09:36:29.936Z</time></trkpt><trkpt lat="43.8787333" lon="12.57091"><ele>238.0</ele><time>2026-04-26T09:36:30.937Z</time></trkpt><trkpt lat="43.8786617" lon="12.5709183"><ele>237.99999999999997</ele><time>2026-04-26T09:36:31.937Z</time></trkpt><trkpt lat="43.8785833" lon="12.5709267"><ele>238.0</ele><time>2026-04-26T09:36:32.937Z</time></trkpt><trkpt lat="43.8785067" lon="12.570925"><ele>237.99999999999997</ele><time>2026-04-26T09:36:33.937Z</time></trkpt><trkpt lat="43.8784383" lon="12.5709117"><ele>238.0</ele><time>2026-04-26T09:36:34.936Z</time></trkpt><trkpt lat="43.8783333" lon="12.5708417"><ele>238.0</ele><time>2026-04-26T09:36:36.937Z</time></trkpt><trkpt lat="43.8782483" lon="12.5707267"><ele>238.0</ele><time>2026-04-26T09:36:38.937Z</time></trkpt><trkpt lat="43.878205" lon="12.5706517"><ele>237.99999999999997</ele><time>2026-04-26T09:36:39.937Z</time></trkpt><trkpt lat="43.87816" lon="12.5705717"><ele>238.0</ele><time>2026-04-26T09:36:40.937Z</time></trkpt><trkpt lat="43.8781167" lon="12.5704933"><ele>242.4</ele><time>2026-04-26T09:36:41.937Z</time></trkpt><trkpt lat="43.8780733" lon="12.5704283"><ele>246.8</ele><time>2026-04-26T09:36:42.937Z</time></trkpt><trkpt lat="43.877975" lon="12.5703183"><ele>251.2</ele><time>2026-04-26T09:36:44.937Z</time></trkpt><trkpt lat="43.8778717" lon="12.570245"><ele>255.6</ele><time>2026-04-26T09:36:46.937Z</time></trkpt><trkpt lat="43.8777683" lon="12.5701917"><ele>260.0</ele><time>2026-04-26T09:36:48.937Z</time></trkpt><trkpt lat="43.8777083" lon="12.57016"><ele>260.33333333333337</ele><time>2026-04-26T09:36:49.937Z</time></trkpt><trkpt lat="43.8776433" lon="12.57013"><ele>260.6666666666667</ele><time>2026-04-26T09:36:50.936Z</time></trkpt><trkpt lat="43.8775733" lon="12.5701017"><ele>261.0</ele><time>2026-04-26T09:36:51.937Z</time></trkpt><trkpt lat="43.877495" lon="12.5700783"><ele>261.3333333333333</ele><time>2026-04-26T09:36:52.937Z</time></trkpt><trkpt lat="43.8774117" lon="12.5700617"><ele>261.66666666666663</ele><time>2026-04-26T09:36:53.936Z</time></trkpt><trkpt lat="43.87733" lon="12.5700533"><ele>262.0</ele><time>2026-04-26T09:36:54.937Z</time></trkpt><trkpt lat="43.8772483" lon="12.5700483"><ele>267.0</ele><time>2026-04-26T09:36:55.937Z</time></trkpt><trkpt lat="43.8771633" lon="12.5700517"><ele>272.0</ele><time>2026-04-26T09:36:56.937Z</time></trkpt><trkpt lat="43.87707" lon="12.5700583"><ele>277.0</ele><time>2026-04-26T09:36:57.937Z</time></trkpt><trkpt lat="43.8769733" lon="12.5700717"><ele>282.0</ele><time>2026-04-26T09:36:58.937Z</time></trkpt><trkpt lat="43.8768767" lon="12.57009"><ele>287.0</ele><time>2026-04-26T09:36:59.937Z</time></trkpt><trkpt lat="43.8767917" lon="12.5701083"><ele>289.83333333333337</ele><time>2026-04-26T09:37:00.937Z</time></trkpt><trkpt lat="43.8767183" lon="12.5701183"><ele>292.6666666666667</ele><time>2026-04-26T09:37:01.936Z</time></trkpt><trkpt lat="43.87665" lon="12.5701267"><ele>295.5</ele><time>2026-04-26T09:37:02.937Z</time></trkpt><trkpt lat="43.8765533" lon="12.57013"><ele>298.3333333333333</ele><time>2026-04-26T09:37:04.936Z</time></trkpt><trkpt lat="43.8764667" lon="12.5701717"><ele>301.16666666666663</ele><time>2026-04-26T09:37:13.937Z</time></trkpt><trkpt lat="43.8763917" lon="12.5702033"><ele>304.0</ele><time>2026-04-26T09:37:15.937Z</time></trkpt><trkpt lat="43.876285" lon="12.5702067"><ele>304.0</ele><time>2026-04-26T09:37:17.937Z</time></trkpt><trkpt lat="43.8762183" lon="12.5702067"><ele>304.0</ele><time>2026-04-26T09:37:18.937Z</time></trkpt><trkpt lat="43.87615" lon="12.5702"><ele>304.0</ele><time>2026-04-26T09:37:19.937Z</time></trkpt><trkpt lat="43.8760317" lon="12.57018"><ele>304.0</ele><time>2026-04-26T09:37:21.937Z</time></trkpt><trkpt lat="43.875925" lon="12.570135"><ele>304.0</ele><time>2026-04-26T09:37:23.937Z</time></trkpt><trkpt lat="43.8758083" lon="12.57006"><ele>306.85714285714283</ele><time>2026-04-26T09:37:25.937Z</time></trkpt><trkpt lat="43.875755" lon="12.57001"><ele>309.7142857142857</ele><time>2026-04-26T09:37:26.937Z</time></trkpt><trkpt lat="43.8757" lon="12.5699583"><ele>312.57142857142856</ele><time>2026-04-26T09:37:27.937Z</time></trkpt><trkpt lat="43.8756417" lon="12.569895"><ele>315.42857142857144</ele><time>2026-04-26T09:37:28.937Z</time></trkpt><trkpt lat="43.875585" lon="12.56983"><ele>318.2857142857143</ele><time>2026-04-26T09:37:29.937Z</time></trkpt><trkpt lat="43.87553" lon="12.5697617"><ele>321.14285714285717</ele><time>2026-04-26T09:37:30.937Z</time></trkpt><trkpt lat="43.8754733" lon="12.5696983"><ele>324.0</ele><time>2026-04-26T09:37:31.937Z</time></trkpt><trkpt lat="43.87541" lon="12.569655"><ele>324.0</ele><time>2026-04-26T09:37:32.937Z</time></trkpt><trkpt lat="43.8753383" lon="12.5696117"><ele>324.0</ele><time>2026-04-26T09:37:33.937Z</time></trkpt><trkpt lat="43.875275" lon="12.5695583"><ele>324.0</ele><time>2026-04-26T09:37:34.937Z</time></trkpt><trkpt lat="43.8752167" lon="12.5695083"><ele>324.0</ele><time>2026-04-26T09:37:35.937Z</time></trkpt><trkpt lat="43.87513" lon="12.56947"><ele>324.0</ele><time>2026-04-26T09:37:37.937Z</time></trkpt><trkpt lat="43.87508" lon="12.5695233"><ele>324.0</ele><time>2026-04-26T09:37:40.937Z</time></trkpt><trkpt lat="43.8751117" lon="12.5696433"><ele>324.0</ele><time>2026-04-26T09:37:42.937Z</time></trkpt><trkpt lat="43.8751533" lon="12.569785"><ele>324.0</ele><time>2026-04-26T09:37:44.937Z</time></trkpt><trkpt lat="43.875155" lon="12.56993"><ele>324.0</ele><time>2026-04-26T09:37:46.937Z</time></trkpt><trkpt lat="43.8751133" lon="12.5700633"><ele>324.0</ele><time>2026-04-26T09:37:48.936Z</time></trkpt><trkpt lat="43.8750633" lon="12.5701617"><ele>324.0</ele><time>2026-04-26T09:37:50.936Z</time></trkpt><trkpt lat="43.8749933" lon="12.570155"><ele>329.6</ele><time>2026-04-26T09:37:52.937Z</time></trkpt><trkpt lat="43.8749217" lon="12.57006"><ele>335.2</ele><time>2026-04-26T09:37:54.937Z</time></trkpt><trkpt lat="43.8748417" lon="12.5700133"><ele>340.8</ele><time>2026-04-26T09:37:56.937Z</time></trkpt><trkpt lat="43.874765" lon="12.570065"><ele>346.40000000000003</ele><time>2026-04-26T09:37:58.937Z</time></trkpt><trkpt lat="43.8746667" lon="12.5701283"><ele>352.0</ele><time>2026-04-26T09:38:00.938Z</time></trkpt><trkpt lat="43.8745767" lon="12.57015"><ele>352.0</ele><time>2026-04-26T09:38:02.937Z</time></trkpt><trkpt lat="43.8744833" lon="12.5700767"><ele>352.0</ele><time>2026-04-26T09:38:04.937Z</time></trkpt><trkpt lat="43.8744317" lon="12.57002"><ele>352.0</ele><time>2026-04-26T09:38:05.937Z</time></trkpt><trkpt lat="43.8743717" lon="12.5699617"><ele>352.0</ele><time>2026-04-26T09:38:06.938Z</time></trkpt><trkpt lat="43.8743017" lon="12.5699033"><ele>352.0</ele><time>2026-04-26T09:38:07.938Z</time></trkpt><trkpt lat="43.8742333" lon="12.5698417"><ele>352.0</ele><time>2026-04-26T09:38:08.938Z</time></trkpt><trkpt lat="43.8741717" lon="12.5697883"><ele>356.66666666666663</ele><time>2026-04-26T09:38:09.938Z</time></trkpt><trkpt lat="43.8741067" lon="12.5697583"><ele>361.3333333333333</ele><time>2026-04-26T09:38:12.937Z</time></trkpt><trkpt lat="43.8741133" lon="12.569895"><ele>366.0</ele><time>2026-04-26T09:38:15.938Z</time></trkpt><trkpt lat="43.874155" lon="12.570025"><ele>370.6666666666667</ele><time>2026-04-26T09:38:17.938Z</time></trkpt><trkpt lat="43.874125" lon="12.5701283"><ele>375.33333333333337</ele><time>2026-04-26T09:38:19.938Z</time></trkpt><trkpt lat="43.8740517" lon="12.5701733"><ele>380.0</ele><time>2026-04-26T09:38:21.938Z</time></trkpt><trkpt lat="43.87396" lon="12.570265"><ele>380.0</ele><time>2026-04-26T09:38:34.938Z</time></trkpt><trkpt lat="43.8738767" lon="12.570325"><ele>380.0</ele><time>2026-04-26T09:38:36.938Z</time></trkpt><trkpt lat="43.87377" lon="12.570425"><ele>380.0</ele><time>2026-04-26T09:38:38.938Z</time></trkpt><trkpt lat="43.8737133" lon="12.5705017"><ele>380.0</ele><time>2026-04-26T09:38:39.937Z</time></trkpt><trkpt lat="43.8736617" lon="12.5705817"><ele>380.0</ele><time>2026-04-26T09:38:40.938Z</time></trkpt><trkpt lat="43.8736117" lon="12.5706567"><ele>379.5</ele><time>2026-04-26T09:38:41.938Z</time></trkpt><trkpt lat="43.8735633" lon="12.5707267"><ele>379.0</ele><time>2026-04-26T09:38:42.937Z</time></trkpt><trkpt lat="43.873515" lon="12.5707833"><ele>378.5</ele><time>2026-04-26T09:38:43.938Z</time></trkpt><trkpt lat="43.8734367" lon="12.570775"><ele>378.0</ele><time>2026-04-26T09:38:45.938Z</time></trkpt><trkpt lat="43.8734133" lon="12.5706283"><ele>377.5</ele><time>2026-04-26T09:38:47.938Z</time></trkpt><trkpt lat="43.8733717" lon="12.5705317"><ele>377.0</ele><time>2026-04-26T09:38:49.938Z</time></trkpt><trkpt lat="43.873295" lon="12.57051"><ele>381.2857142857143</ele><time>2026-04-26T09:38:51.938Z</time></trkpt><trkpt lat="43.87323" lon="12.5705217"><ele>385.57142857142856</ele><time>2026-04-26T09:38:52.938Z</time></trkpt><trkpt lat="43.8731583" lon="12.5705433"><ele>389.8571428571429</ele><time>2026-04-26T09:38:53.937Z</time></trkpt><trkpt lat="43.8730867" lon="12.5705683"><ele>394.1428571428571</ele><time>2026-04-26T09:38:54.938Z</time></trkpt><trkpt lat="43.873025" lon="12.5706017"><ele>398.42857142857144</ele><time>2026-04-26T09:38:55.938Z</time></trkpt><trkpt lat="43.8729667" lon="12.57065"><ele>402.7142857142857</ele><time>2026-04-26T09:38:56.938Z</time></trkpt><trkpt lat="43.8728933" lon="12.5707183"><ele>407.0</ele><time>2026-04-26T09:38:57.938Z</time></trkpt><trkpt lat="43.8728017" lon="12.5708117"><ele>407.0</ele><time>2026-04-26T09:38:58.938Z</time></trkpt><trkpt lat="43.87271" lon="12.570915"><ele>407.0</ele><time>2026-04-26T09:38:59.938Z</time></trkpt><trkpt lat="43.87263" lon="12.571025"><ele>407.0</ele><time>2026-04-26T09:39:00.938Z</time></trkpt><trkpt lat="43.8725617" lon="12.57114"><ele>407.0</ele><time>2026-04-26T09:39:01.937Z</time></trkpt><trkpt lat="43.8724867" lon="12.5712567"><ele>408.16666666666663</ele><time>2026-04-26T09:39:02.937Z</time></trkpt><trkpt lat="43.8724117" lon="12.57135"><ele>409.3333333333333</ele><time>2026-04-26T09:39:03.938Z</time></trkpt><trkpt lat="43.8723417" lon="12.5714233"><ele>410.5</ele><time>2026-04-26T09:39:04.938Z</time></trkpt><trkpt lat="43.8722783" lon="12.5714917"><ele>411.66666666666663</ele><time>2026-04-26T09:39:05.938Z</time></trkpt><trkpt lat="43.872215" lon="12.5715617"><ele>412.8333333333333</ele><time>2026-04-26T09:39:06.938Z</time></trkpt><trkpt lat="43.8721517" lon="12.5716417"><ele>414.0</ele><time>2026-04-26T09:39:07.938Z</time></trkpt><trkpt lat="43.8720867" lon="12.5717233"><ele>414.0</ele><time>2026-04-26T09:39:08.938Z</time></trkpt><trkpt lat="43.8720133" lon="12.571805"><ele>414.0</ele><time>2026-04-26T09:39:09.938Z</time></trkpt><trkpt lat="43.8719417" lon="12.5718833"><ele>414.0</ele><time>2026-04-26T09:39:10.938Z</time></trkpt><trkpt lat="43.8718667" lon="12.5719683"><ele>414.0</ele><time>2026-04-26T09:39:11.938Z</time></trkpt><trkpt lat="43.8717883" lon="12.57206"><ele>414.0</ele><time>2026-04-26T09:39:12.938Z</time></trkpt><trkpt lat="43.8717067" lon="12.5721483"><ele>415.2</ele><time>2026-04-26T09:39:13.937Z</time></trkpt><trkpt lat="43.8716267" lon="12.5722417"><ele>416.4</ele><time>2026-04-26T09:39:14.937Z</time></trkpt><trkpt lat="43.8715533" lon="12.5723367"><ele>417.6</ele><time>2026-04-26T09:39:15.938Z</time></trkpt><trkpt lat="43.871485" lon="12.572425"><ele>418.8</ele><time>2026-04-26T09:39:16.938Z</time></trkpt><trkpt lat="43.87142" lon="12.57251"><ele>420.0</ele><time>2026-04-26T09:39:17.938Z</time></trkpt><trkpt lat="43.871365" lon="12.5725817"><ele>420.0</ele><time>2026-04-26T09:39:18.938Z</time></trkpt><trkpt lat="43.8712917" lon="12.5726783"><ele>420.0</ele><time>2026-04-26T09:39:20.938Z</time></trkpt><trkpt lat="43.8712217" lon="12.5727017"><ele>420.0</ele><time>2026-04-26T09:39:22.938Z</time></trkpt><trkpt lat="43.871185" lon="12.5726117"><ele>420.0</ele><time>2026-04-26T09:39:24.938Z</time></trkpt><trkpt lat="43.8711883" lon="12.5725117"><ele>420.0</ele><time>2026-04-26T09:39:25.938Z</time></trkpt><trkpt lat="43.8711733" lon="12.572395"><ele>420.0</ele><time>2026-04-26T09:39:26.937Z</time></trkpt><trkpt lat="43.8711417" lon="12.5722767"><ele>420.0</ele><time>2026-04-26T09:39:27.938Z</time></trkpt><trkpt lat="43.8711017" lon="12.572155"><ele>420.0</ele><time>2026-04-26T09:39:28.938Z</time></trkpt><trkpt lat="43.871065" lon="12.57203"><ele>420.0</ele><time>2026-04-26T09:39:29.937Z</time></trkpt><trkpt lat="43.871025" lon="12.5719033"><ele>420.0</ele><time>2026-04-26T09:39:30.938Z</time></trkpt><trkpt lat="43.8709867" lon="12.5717733"><ele>420.0</ele><time>2026-04-26T09:39:31.938Z</time></trkpt><trkpt lat="43.8709517" lon="12.5716417"><ele>420.4</ele><time>2026-04-26T09:39:32.938Z</time></trkpt><trkpt lat="43.8709167" lon="12.571505"><ele>420.8</ele><time>2026-04-26T09:39:33.938Z</time></trkpt><trkpt lat="43.87088" lon="12.5713667"><ele>421.20000000000005</ele><time>2026-04-26T09:39:34.938Z</time></trkpt><trkpt lat="43.8708517" lon="12.571235"><ele>421.6</ele><time>2026-04-26T09:39:35.937Z</time></trkpt><trkpt lat="43.8708367" lon="12.5711033"><ele>422.0</ele><time>2026-04-26T09:39:36.938Z</time></trkpt><trkpt lat="43.8708317" lon="12.57097"><ele>421.8</ele><time>2026-04-26T09:39:37.938Z</time></trkpt><trkpt lat="43.870835" lon="12.5708333"><ele>421.6</ele><time>2026-04-26T09:39:38.938Z</time></trkpt><trkpt lat="43.8708417" lon="12.5706967"><ele>421.40000000000003</ele><time>2026-04-26T09:39:39.938Z</time></trkpt><trkpt lat="43.8708433" lon="12.570555"><ele>421.20000000000005</ele><time>2026-04-26T09:39:40.937Z</time></trkpt><trkpt lat="43.8708367" lon="12.5704133"><ele>421.0</ele><time>2026-04-26T09:39:41.937Z</time></trkpt><trkpt lat="43.8708317" lon="12.5702683"><ele>421.0</ele><time>2026-04-26T09:39:42.938Z</time></trkpt><trkpt lat="43.8708267" lon="12.5701217"><ele>421.0</ele><time>2026-04-26T09:39:43.938Z</time></trkpt><trkpt lat="43.8708217" lon="12.5699733"><ele>421.0</ele><time>2026-04-26T09:39:44.938Z</time></trkpt><trkpt lat="43.8708117" lon="12.5698333"><ele>421.0</ele><time>2026-04-26T09:39:45.937Z</time></trkpt><trkpt lat="43.8707917" lon="12.5697083"><ele>421.0</ele><time>2026-04-26T09:39:46.937Z</time></trkpt><trkpt lat="43.87076" lon="12.569585"><ele>421.75</ele><time>2026-04-26T09:39:47.938Z</time></trkpt><trkpt lat="43.8707117" lon="12.569455"><ele>422.5</ele><time>2026-04-26T09:39:48.938Z</time></trkpt><trkpt lat="43.8706467" lon="12.56931"><ele>423.25</ele><time>2026-04-26T09:39:49.937Z</time></trkpt><trkpt lat="43.8705717" lon="12.569155"><ele>424.0</ele><time>2026-04-26T09:39:50.938Z</time></trkpt><trkpt lat="43.8704967" lon="12.568995"><ele>424.0</ele><time>2026-04-26T09:39:51.938Z</time></trkpt><trkpt lat="43.8704283" lon="12.568835"><ele>424.0</ele><time>2026-04-26T09:39:52.938Z</time></trkpt><trkpt lat="43.8703633" lon="12.5686667"><ele>424.0</ele><time>2026-04-26T09:39:53.938Z</time></trkpt><trkpt lat="43.8702967" lon="12.5684833"><ele>424.0</ele><time>2026-04-26T09:39:54.938Z</time></trkpt><trkpt lat="43.8702283" lon="12.5682917"><ele>423.0</ele><time>2026-04-26T09:39:55.938Z</time></trkpt><trkpt lat="43.870155" lon="12.56809"><ele>422.0</ele><time>2026-04-26T09:39:56.938Z</time></trkpt><trkpt lat="43.8700817" lon="12.5678867"><ele>421.0</ele><time>2026-04-26T09:39:57.938Z</time></trkpt><trkpt lat="43.8700133" lon="12.56768"><ele>420.33333333333337</ele><time>2026-04-26T09:39:58.938Z</time></trkpt><trkpt lat="43.8699433" lon="12.5674683"><ele>419.66666666666663</ele><time>2026-04-26T09:39:59.938Z</time></trkpt><trkpt lat="43.8698717" lon="12.56726"><ele>419.0</ele><time>2026-04-26T09:40:00.938Z</time></trkpt><trkpt lat="43.8698017" lon="12.5670567"><ele>417.0</ele><time>2026-04-26T09:40:01.938Z</time></trkpt><trkpt lat="43.8697333" lon="12.5668483"><ele>415.0</ele><time>2026-04-26T09:40:02.938Z</time></trkpt><trkpt lat="43.8696667" lon="12.5666417"><ele>413.0</ele><time>2026-04-26T09:40:03.938Z</time></trkpt><trkpt lat="43.8696" lon="12.5664467"><ele>413.0</ele><time>2026-04-26T09:40:04.938Z</time></trkpt><trkpt lat="43.869535" lon="12.566265"><ele>413.0</ele><time>2026-04-26T09:40:05.938Z</time></trkpt><trkpt lat="43.8694667" lon="12.56609"><ele>413.0</ele><time>2026-04-26T09:40:06.938Z</time></trkpt><trkpt lat="43.8693983" lon="12.565925"><ele>413.0</ele><time>2026-04-26T09:40:07.938Z</time></trkpt><trkpt lat="43.8693317" lon="12.5657717"><ele>416.5</ele><time>2026-04-26T09:40:08.938Z</time></trkpt><trkpt lat="43.86926" lon="12.5656267"><ele>420.0</ele><time>2026-04-26T09:40:09.938Z</time></trkpt><trkpt lat="43.8691783" lon="12.5654717"><ele>423.5</ele><time>2026-04-26T09:40:10.938Z</time></trkpt><trkpt lat="43.869095" lon="12.56531"><ele>427.0</ele><time>2026-04-26T09:40:11.937Z</time></trkpt><trkpt lat="43.8690117" lon="12.5651433"><ele>428.0</ele><time>2026-04-26T09:40:12.938Z</time></trkpt><trkpt lat="43.868935" lon="12.5649767"><ele>429.0</ele><time>2026-04-26T09:40:13.937Z</time></trkpt><trkpt lat="43.8688567" lon="12.5648117"><ele>430.0</ele><time>2026-04-26T09:40:14.938Z</time></trkpt><trkpt lat="43.8687817" lon="12.564645"><ele>431.0</ele><time>2026-04-26T09:40:15.937Z</time></trkpt><trkpt lat="43.8687067" lon="12.564475"><ele>430.75</ele><time>2026-04-26T09:40:16.938Z</time></trkpt><trkpt lat="43.868635" lon="12.5643083"><ele>430.5</ele><time>2026-04-26T09:40:17.938Z</time></trkpt><trkpt lat="43.868565" lon="12.5641433"><ele>430.25</ele><time>2026-04-26T09:40:18.938Z</time></trkpt><trkpt lat="43.8684933" lon="12.56398"><ele>430.0</ele><time>2026-04-26T09:40:19.938Z</time></trkpt><trkpt lat="43.86842" lon="12.5638167"><ele>431.5</ele><time>2026-04-26T09:40:20.938Z</time></trkpt><trkpt lat="43.8683383" lon="12.5636583"><ele>433.0</ele><time>2026-04-26T09:40:21.938Z</time></trkpt><trkpt lat="43.868255" lon="12.56351"><ele>434.5</ele><time>2026-04-26T09:40:22.938Z</time></trkpt><trkpt lat="43.8681683" lon="12.5633633"><ele>436.0</ele><time>2026-04-26T09:40:23.938Z</time></trkpt><trkpt lat="43.86808" lon="12.56322"><ele>436.0</ele><time>2026-04-26T09:40:24.937Z</time></trkpt><trkpt lat="43.867995" lon="12.5630867"><ele>436.0</ele><time>2026-04-26T09:40:25.937Z</time></trkpt><trkpt lat="43.86791" lon="12.5629617"><ele>436.0</ele><time>2026-04-26T09:40:26.938Z</time></trkpt><trkpt lat="43.86782" lon="12.562845"><ele>436.0</ele><time>2026-04-26T09:40:27.938Z</time></trkpt><trkpt lat="43.8677217" lon="12.5627333"><ele>436.25</ele><time>2026-04-26T09:40:28.938Z</time></trkpt><trkpt lat="43.8676167" lon="12.5626317"><ele>436.5</ele><time>2026-04-26T09:40:29.937Z</time></trkpt><trkpt lat="43.8675033" lon="12.5625417"><ele>436.75</ele><time>2026-04-26T09:40:30.938Z</time></trkpt><trkpt lat="43.8673817" lon="12.5624683"><ele>437.0</ele><time>2026-04-26T09:40:31.938Z</time></trkpt><trkpt lat="43.8672517" lon="12.5624083"><ele>437.0</ele><time>2026-04-26T09:40:32.937Z</time></trkpt><trkpt lat="43.8671233" lon="12.562355"><ele>437.0</ele><time>2026-04-26T09:40:33.938Z</time></trkpt><trkpt lat="43.8670083" lon="12.5622967"><ele>437.0</ele><time>2026-04-26T09:40:34.937Z</time></trkpt><trkpt lat="43.8669067" lon="12.5622417"><ele>437.0</ele><time>2026-04-26T09:40:35.938Z</time></trkpt><trkpt lat="43.8668117" lon="12.56219"><ele>436.40000000000003</ele><time>2026-04-26T09:40:36.937Z</time></trkpt><trkpt lat="43.8667167" lon="12.5621367"><ele>435.80000000000007</ele><time>2026-04-26T09:40:37.938Z</time></trkpt><trkpt lat="43.866615" lon="12.5620883"><ele>435.2</ele><time>2026-04-26T09:40:38.937Z</time></trkpt><trkpt lat="43.8665067" lon="12.56204"><ele>434.6</ele><time>2026-04-26T09:40:39.938Z</time></trkpt><trkpt lat="43.8663917" lon="12.5619917"><ele>434.0</ele><time>2026-04-26T09:40:40.938Z</time></trkpt><trkpt lat="43.8662817" lon="12.5619317"><ele>435.0</ele><time>2026-04-26T09:40:41.938Z</time></trkpt><trkpt lat="43.8661717" lon="12.5618683"><ele>436.0</ele><time>2026-04-26T09:40:42.938Z</time></trkpt><trkpt lat="43.866055" lon="12.561805"><ele>437.0</ele><time>2026-04-26T09:40:43.938Z</time></trkpt><trkpt lat="43.8659317" lon="12.5617483"><ele>438.0</ele><time>2026-04-26T09:40:44.938Z</time></trkpt><trkpt lat="43.8658167" lon="12.561695"><ele>438.0</ele><time>2026-04-26T09:40:45.938Z</time></trkpt><trkpt lat="43.8657267" lon="12.56164"><ele>438.0</ele><time>2026-04-26T09:40:46.938Z</time></trkpt><trkpt lat="43.8656533" lon="12.561595"><ele>438.0</ele><time>2026-04-26T09:40:47.938Z</time></trkpt><trkpt lat="43.8655867" lon="12.56156"><ele>438.0</ele><time>2026-04-26T09:40:48.938Z</time></trkpt><trkpt lat="43.8655083" lon="12.5615217"><ele>438.0</ele><time>2026-04-26T09:40:49.937Z</time></trkpt><trkpt lat="43.8654083" lon="12.561465"><ele>438.0</ele><time>2026-04-26T09:40:50.938Z</time></trkpt><trkpt lat="43.8653083" lon="12.5614017"><ele>438.0</ele><time>2026-04-26T09:40:51.938Z</time></trkpt><trkpt lat="43.8652217" lon="12.561335"><ele>437.99999999999994</ele><time>2026-04-26T09:40:52.938Z</time></trkpt><trkpt lat="43.8651533" lon="12.5612383"><ele>437.99999999999994</ele><time>2026-04-26T09:40:53.937Z</time></trkpt><trkpt lat="43.8650933" lon="12.5611083"><ele>438.0</ele><time>2026-04-26T09:40:54.937Z</time></trkpt><trkpt lat="43.865035" lon="12.5609567"><ele>438.0</ele><time>2026-04-26T09:40:55.937Z</time></trkpt><trkpt lat="43.8649783" lon="12.560795"><ele>439.75</ele><time>2026-04-26T09:40:56.938Z</time></trkpt><trkpt lat="43.86492" lon="12.5606317"><ele>441.5</ele><time>2026-04-26T09:40:57.938Z</time></trkpt><trkpt lat="43.8648583" lon="12.560475"><ele>443.25</ele><time>2026-04-26T09:40:58.938Z</time></trkpt><trkpt lat="43.864795" lon="12.5603167"><ele>445.0</ele><time>2026-04-26T09:40:59.938Z</time></trkpt><trkpt lat="43.864735" lon="12.560165"><ele>446.5</ele><time>2026-04-26T09:41:00.938Z</time></trkpt><trkpt lat="43.8646783" lon="12.56002"><ele>448.0</ele><time>2026-04-26T09:41:01.937Z</time></trkpt><trkpt lat="43.86462" lon="12.5598717"><ele>449.5</ele><time>2026-04-26T09:41:02.937Z</time></trkpt><trkpt lat="43.8645567" lon="12.5597233"><ele>451.0</ele><time>2026-04-26T09:41:03.938Z</time></trkpt><trkpt lat="43.864495" lon="12.559575"><ele>451.0</ele><time>2026-04-26T09:41:04.938Z</time></trkpt><trkpt lat="43.864435" lon="12.55942"><ele>451.0</ele><time>2026-04-26T09:41:05.936Z</time></trkpt><trkpt lat="43.864375" lon="12.559255"><ele>451.0</ele><time>2026-04-26T09:41:06.937Z</time></trkpt><trkpt lat="43.8643167" lon="12.5590833"><ele>451.0</ele><time>2026-04-26T09:41:07.937Z</time></trkpt><trkpt lat="43.8642583" lon="12.558915"><ele>451.0</ele><time>2026-04-26T09:41:08.937Z</time></trkpt><trkpt lat="43.8642017" lon="12.5587483"><ele>451.0</ele><time>2026-04-26T09:41:09.937Z</time></trkpt><trkpt lat="43.864145" lon="12.558585"><ele>451.0</ele><time>2026-04-26T09:41:10.936Z</time></trkpt><trkpt lat="43.864085" lon="12.558425"><ele>451.0</ele><time>2026-04-26T09:41:11.937Z</time></trkpt><trkpt lat="43.8640283" lon="12.5582733"><ele>453.0</ele><time>2026-04-26T09:41:12.937Z</time></trkpt><trkpt lat="43.863975" lon="12.5581283"><ele>455.0</ele><time>2026-04-26T09:41:13.936Z</time></trkpt><trkpt lat="43.8639317" lon="12.5579883"><ele>457.0</ele><time>2026-04-26T09:41:14.937Z</time></trkpt><trkpt lat="43.8639067" lon="12.5578467"><ele>459.0</ele><time>2026-04-26T09:41:15.937Z</time></trkpt><trkpt lat="43.8638983" lon="12.5577033"><ele>461.0</ele><time>2026-04-26T09:41:16.936Z</time></trkpt><trkpt lat="43.8639" lon="12.55756"><ele>461.5</ele><time>2026-04-26T09:41:17.936Z</time></trkpt><trkpt lat="43.8639217" lon="12.55742"><ele>462.0</ele><time>2026-04-26T09:41:18.936Z</time></trkpt><trkpt lat="43.863965" lon="12.5572767"><ele>462.5</ele><time>2026-04-26T09:41:19.937Z</time></trkpt><trkpt lat="43.86403" lon="12.55714"><ele>463.0</ele><time>2026-04-26T09:41:20.937Z</time></trkpt><trkpt lat="43.8640983" lon="12.5570083"><ele>463.0</ele><time>2026-04-26T09:41:21.937Z</time></trkpt><trkpt lat="43.8641583" lon="12.556885"><ele>462.99999999999994</ele><time>2026-04-26T09:41:22.936Z</time></trkpt><trkpt lat="43.8642033" lon="12.5567617"><ele>462.99999999999994</ele><time>2026-04-26T09:41:23.936Z</time></trkpt><trkpt lat="43.8642367" lon="12.556625"><ele>463.0</ele><time>2026-04-26T09:41:24.936Z</time></trkpt><trkpt lat="43.8642717" lon="12.5564717"><ele>463.0</ele><time>2026-04-26T09:41:25.937Z</time></trkpt><trkpt lat="43.864315" lon="12.5563017"><ele>467.0</ele><time>2026-04-26T09:41:26.937Z</time></trkpt><trkpt lat="43.8643683" lon="12.5561217"><ele>471.0</ele><time>2026-04-26T09:41:27.937Z</time></trkpt><trkpt lat="43.8644283" lon="12.55595"><ele>475.0</ele><time>2026-04-26T09:41:28.936Z</time></trkpt><trkpt lat="43.8644867" lon="12.5557867"><ele>479.0</ele><time>2026-04-26T09:41:29.937Z</time></trkpt><trkpt lat="43.8645483" lon="12.5556367"><ele>479.0</ele><time>2026-04-26T09:41:30.937Z</time></trkpt><trkpt lat="43.8646083" lon="12.55549"><ele>479.0</ele><time>2026-04-26T09:41:31.937Z</time></trkpt><trkpt lat="43.8646517" lon="12.5553383"><ele>479.0</ele><time>2026-04-26T09:41:32.937Z</time></trkpt><trkpt lat="43.864684" lon="12.5551862"><ele>479.0</ele><time>2026-04-26T09:41:33.937Z</time></trkpt><trkpt lat="43.8647074" lon="12.5550299"><ele>479.0</ele><time>2026-04-26T09:41:34.937Z</time></trkpt><trkpt lat="43.8647232" lon="12.5548751"><ele>479.0</ele><time>2026-04-26T09:41:35.937Z</time></trkpt><trkpt lat="43.864733" lon="12.5547272"><ele>479.0</ele><time>2026-04-26T09:41:36.937Z</time></trkpt><trkpt lat="43.8647281" lon="12.5545929"><ele>479.0</ele><time>2026-04-26T09:41:37.936Z</time></trkpt><trkpt lat="43.8647016" lon="12.5544753"><ele>479.0</ele><time>2026-04-26T09:41:38.937Z</time></trkpt><trkpt lat="43.8646557" lon="12.5543666"><ele>478.75</ele><time>2026-04-26T09:41:39.937Z</time></trkpt><trkpt lat="43.8645888" lon="12.5542675"><ele>478.5</ele><time>2026-04-26T09:41:40.937Z</time></trkpt><trkpt lat="43.8644901" lon="12.5541783"><ele>478.25</ele><time>2026-04-26T09:41:41.937Z</time></trkpt><trkpt lat="43.8643805" lon="12.5540868"><ele>478.0</ele><time>2026-04-26T09:41:42.937Z</time></trkpt><trkpt lat="43.864272" lon="12.5540047"><ele>478.0</ele><time>2026-04-26T09:41:43.937Z</time></trkpt><trkpt lat="43.8641672" lon="12.5539438"><ele>478.0</ele><time>2026-04-26T09:41:44.937Z</time></trkpt><trkpt lat="43.8640627" lon="12.5538939"><ele>478.0</ele><time>2026-04-26T09:41:45.936Z</time></trkpt><trkpt lat="43.8639624" lon="12.553831"><ele>478.0</ele><time>2026-04-26T09:41:46.937Z</time></trkpt><trkpt lat="43.8638607" lon="12.5537417"><ele>480.0</ele><time>2026-04-26T09:41:47.937Z</time></trkpt><trkpt lat="43.8637525" lon="12.5536379"><ele>482.0</ele><time>2026-04-26T09:41:48.937Z</time></trkpt><trkpt lat="43.8636474" lon="12.5535271"><ele>484.0</ele><time>2026-04-26T09:41:49.937Z</time></trkpt><trkpt lat="43.8635486" lon="12.5534052"><ele>486.0</ele><time>2026-04-26T09:41:50.937Z</time></trkpt><trkpt lat="43.8634565" lon="12.5532685"><ele>486.0</ele><time>2026-04-26T09:41:51.937Z</time></trkpt><trkpt lat="43.8633708" lon="12.5531199"><ele>486.0</ele><time>2026-04-26T09:41:52.936Z</time></trkpt><trkpt lat="43.8632918" lon="12.5529757"><ele>486.0</ele><time>2026-04-26T09:41:53.937Z</time></trkpt><trkpt lat="43.8632143" lon="12.5528313"><ele>486.0</ele><time>2026-04-26T09:41:54.937Z</time></trkpt><trkpt lat="43.8631297" lon="12.5527027"><ele>486.0</ele><time>2026-04-26T09:41:55.937Z</time></trkpt><trkpt lat="43.8630406" lon="12.5526039"><ele>486.0</ele><time>2026-04-26T09:41:56.937Z</time></trkpt><trkpt lat="43.8629625" lon="12.5525192"><ele>486.0</ele><time>2026-04-26T09:41:57.937Z</time></trkpt><trkpt lat="43.8628911" lon="12.5524194"><ele>486.0</ele><time>2026-04-26T09:41:58.937Z</time></trkpt><trkpt lat="43.8628114" lon="12.5523047"><ele>486.0</ele><time>2026-04-26T09:41:59.937Z</time></trkpt><trkpt lat="43.8627172" lon="12.5521931"><ele>486.0</ele><time>2026-04-26T09:42:00.937Z</time></trkpt><trkpt lat="43.8626145" lon="12.552083"><ele>486.0</ele><time>2026-04-26T09:42:01.937Z</time></trkpt><trkpt lat="43.8625126" lon="12.5519719"><ele>486.0</ele><time>2026-04-26T09:42:02.936Z</time></trkpt><trkpt lat="43.8624135" lon="12.5518549"><ele>486.0</ele><time>2026-04-26T09:42:03.937Z</time></trkpt><trkpt lat="43.8623089" lon="12.5517302"><ele>486.75</ele><time>2026-04-26T09:42:04.937Z</time></trkpt><trkpt lat="43.8622073" lon="12.5516074"><ele>487.5</ele><time>2026-04-26T09:42:05.936Z</time></trkpt><trkpt lat="43.8621097" lon="12.5515041"><ele>488.25</ele><time>2026-04-26T09:42:06.937Z</time></trkpt><trkpt lat="43.8620059" lon="12.5514107"><ele>489.0</ele><time>2026-04-26T09:42:07.937Z</time></trkpt><trkpt lat="43.8618965" lon="12.5513215"><ele>489.0</ele><time>2026-04-26T09:42:08.937Z</time></trkpt><trkpt lat="43.8617815" lon="12.5512216"><ele>489.0</ele><time>2026-04-26T09:42:09.937Z</time></trkpt><trkpt lat="43.8616615" lon="12.5511049"><ele>489.0</ele><time>2026-04-26T09:42:10.937Z</time></trkpt><trkpt lat="43.8615454" lon="12.5509816"><ele>489.0</ele><time>2026-04-26T09:42:11.937Z</time></trkpt><trkpt lat="43.861439" lon="12.5508613"><ele>489.0</ele><time>2026-04-26T09:42:12.936Z</time></trkpt><trkpt lat="43.8613487" lon="12.550747"><ele>489.0</ele><time>2026-04-26T09:42:13.937Z</time></trkpt><trkpt lat="43.8612705" lon="12.5506528"><ele>489.0</ele><time>2026-04-26T09:42:14.936Z</time></trkpt><trkpt lat="43.8611966" lon="12.5505772"><ele>489.0</ele><time>2026-04-26T09:42:15.936Z</time></trkpt><trkpt lat="43.8611253" lon="12.5505056"><ele>489.0</ele><time>2026-04-26T09:42:16.936Z</time></trkpt><trkpt lat="43.8610569" lon="12.550432"><ele>489.0</ele><time>2026-04-26T09:42:17.937Z</time></trkpt><trkpt lat="43.8609923" lon="12.5503628"><ele>489.0</ele><time>2026-04-26T09:42:18.937Z</time></trkpt><trkpt lat="43.8609308" lon="12.5502956"><ele>489.0</ele><time>2026-04-26T09:42:19.936Z</time></trkpt><trkpt lat="43.8608708" lon="12.5502246"><ele>489.0</ele><time>2026-04-26T09:42:20.936Z</time></trkpt><trkpt lat="43.8608156" lon="12.5501569"><ele>489.0</ele><time>2026-04-26T09:42:21.937Z</time></trkpt><trkpt lat="43.8607431" lon="12.5500413"><ele>489.0</ele><time>2026-04-26T09:42:23.937Z</time></trkpt><trkpt lat="43.8607312" lon="12.5499448"><ele>489.0</ele><time>2026-04-26T09:42:25.936Z</time></trkpt><trkpt lat="43.8607821" lon="12.549877"><ele>489.0</ele><time>2026-04-26T09:42:27.937Z</time></trkpt><trkpt lat="43.8609034" lon="12.5498308"><ele>489.0</ele><time>2026-04-26T09:42:29.937Z</time></trkpt><trkpt lat="43.8609923" lon="12.5498232"><ele>489.0</ele><time>2026-04-26T09:42:30.937Z</time></trkpt><trkpt lat="43.8610878" lon="12.5498193"><ele>489.0</ele><time>2026-04-26T09:42:31.937Z</time></trkpt><trkpt lat="43.8611874" lon="12.5498152"><ele>490.25</ele><time>2026-04-26T09:42:32.937Z</time></trkpt><trkpt lat="43.8612998" lon="12.5498088"><ele>491.5</ele><time>2026-04-26T09:42:33.936Z</time></trkpt><trkpt lat="43.8614231" lon="12.5498019"><ele>492.75</ele><time>2026-04-26T09:42:34.937Z</time></trkpt><trkpt lat="43.8615549" lon="12.5497918"><ele>494.0</ele><time>2026-04-26T09:42:35.937Z</time></trkpt><trkpt lat="43.8616909" lon="12.5497792"><ele>495.75</ele><time>2026-04-26T09:42:36.937Z</time></trkpt><trkpt lat="43.8618287" lon="12.5497675"><ele>497.5</ele><time>2026-04-26T09:42:37.937Z</time></trkpt><trkpt lat="43.8619632" lon="12.5497516"><ele>499.25</ele><time>2026-04-26T09:42:38.937Z</time></trkpt><trkpt lat="43.8620922" lon="12.54973"><ele>501.0</ele><time>2026-04-26T09:42:39.937Z</time></trkpt><trkpt lat="43.862219" lon="12.549704"><ele>501.0</ele><time>2026-04-26T09:42:40.937Z</time></trkpt><trkpt lat="43.8623484" lon="12.5496862"><ele>501.0</ele><time>2026-04-26T09:42:41.937Z</time></trkpt><trkpt lat="43.8624839" lon="12.5496748"><ele>501.0</ele><time>2026-04-26T09:42:42.936Z</time></trkpt><trkpt lat="43.862616" lon="12.5496623"><ele>501.0</ele><time>2026-04-26T09:42:43.937Z</time></trkpt><trkpt lat="43.8627423" lon="12.5496524"><ele>503.0</ele><time>2026-04-26T09:42:44.937Z</time></trkpt><trkpt lat="43.8628641" lon="12.5496486"><ele>505.0</ele><time>2026-04-26T09:42:45.937Z</time></trkpt><trkpt lat="43.8629706" lon="12.5496438"><ele>507.0</ele><time>2026-04-26T09:42:46.937Z</time></trkpt><trkpt lat="43.8630506" lon="12.5496365"><ele>509.0</ele><time>2026-04-26T09:42:47.936Z</time></trkpt><trkpt lat="43.8631349" lon="12.5495909"><ele>511.0</ele><time>2026-04-26T09:42:49.937Z</time></trkpt><trkpt lat="43.8632028" lon="12.5494613"><ele>511.83333333333337</ele><time>2026-04-26T09:42:51.937Z</time></trkpt><trkpt lat="43.863246" lon="12.5493873"><ele>512.6666666666667</ele><time>2026-04-26T09:42:52.936Z</time></trkpt><trkpt lat="43.8633035" lon="12.5493424"><ele>513.5</ele><time>2026-04-26T09:42:53.937Z</time></trkpt><trkpt lat="43.8633751" lon="12.5493257"><ele>514.3333333333334</ele><time>2026-04-26T09:42:54.936Z</time></trkpt><trkpt lat="43.8634615" lon="12.5493309"><ele>515.1666666666666</ele><time>2026-04-26T09:42:55.937Z</time></trkpt><trkpt lat="43.8635614" lon="12.5493494"><ele>516.0</ele><time>2026-04-26T09:42:56.937Z</time></trkpt><trkpt lat="43.8636602" lon="12.5493637"><ele>517.8333333333334</ele><time>2026-04-26T09:42:57.937Z</time></trkpt><trkpt lat="43.863747" lon="12.5493529"><ele>519.6666666666666</ele><time>2026-04-26T09:42:58.937Z</time></trkpt><trkpt lat="43.8638208" lon="12.5493176"><ele>521.5</ele><time>2026-04-26T09:42:59.937Z</time></trkpt><trkpt lat="43.8638801" lon="12.5492607"><ele>523.3333333333333</ele><time>2026-04-26T09:43:00.937Z</time></trkpt><trkpt lat="43.8639292" lon="12.5491841"><ele>525.1666666666666</ele><time>2026-04-26T09:43:01.937Z</time></trkpt><trkpt lat="43.8639805" lon="12.5490917"><ele>527.0</ele><time>2026-04-26T09:43:02.937Z</time></trkpt><trkpt lat="43.8640395" lon="12.5489832"><ele>527.0</ele><time>2026-04-26T09:43:03.936Z</time></trkpt><trkpt lat="43.8641053" lon="12.548865"><ele>527.0</ele><time>2026-04-26T09:43:04.937Z</time></trkpt><trkpt lat="43.8641684" lon="12.5487507"><ele>527.0</ele><time>2026-04-26T09:43:05.937Z</time></trkpt><trkpt lat="43.8642284" lon="12.5486568"><ele>527.0</ele><time>2026-04-26T09:43:06.936Z</time></trkpt><trkpt lat="43.8642909" lon="12.5485794"><ele>527.0</ele><time>2026-04-26T09:43:07.937Z</time></trkpt><trkpt lat="43.8643501" lon="12.5485057"><ele>526.8333333333333</ele><time>2026-04-26T09:43:08.937Z</time></trkpt><trkpt lat="43.8643973" lon="12.5484286"><ele>526.6666666666666</ele><time>2026-04-26T09:43:09.936Z</time></trkpt><trkpt lat="43.8644332" lon="12.5483434"><ele>526.5</ele><time>2026-04-26T09:43:10.937Z</time></trkpt><trkpt lat="43.8644655" lon="12.5482444"><ele>526.3333333333334</ele><time>2026-04-26T09:43:11.937Z</time></trkpt><trkpt lat="43.8644978" lon="12.5481451"><ele>526.1666666666667</ele><time>2026-04-26T09:43:12.937Z</time></trkpt><trkpt lat="43.86453" lon="12.548065"><ele>526.0</ele><time>2026-04-26T09:43:13.937Z</time></trkpt><trkpt lat="43.8646117" lon="12.5479583"><ele>526.0</ele><time>2026-04-26T09:43:15.937Z</time></trkpt><trkpt lat="43.8646917" lon="12.5479067"><ele>526.0</ele><time>2026-04-26T09:43:17.937Z</time></trkpt><trkpt lat="43.8647733" lon="12.5478767"><ele>526.0</ele><time>2026-04-26T09:43:20.937Z</time></trkpt><trkpt lat="43.8648467" lon="12.5478317"><ele>526.0</ele><time>2026-04-26T09:43:49.937Z</time></trkpt><trkpt lat="43.864795" lon="12.5478983"><ele>526.0</ele><time>2026-04-26T09:48:22.936Z</time></trkpt><trkpt lat="43.8647217" lon="12.547925"><ele>526.0</ele><time>2026-04-26T09:48:24.937Z</time></trkpt><trkpt lat="43.8646617" lon="12.5479517"><ele>526.0</ele><time>2026-04-26T09:48:26.936Z</time></trkpt><trkpt lat="43.8647467" lon="12.5479333"><ele>526.0</ele><time>2026-04-26T09:48:49.937Z</time></trkpt><trkpt lat="43.864805" lon="12.5478517"><ele>526.0</ele><time>2026-04-26T09:48:52.937Z</time></trkpt><trkpt lat="43.8648033" lon="12.5477317"><ele>526.0</ele><time>2026-04-26T09:48:55.937Z</time></trkpt><trkpt lat="43.8647433" lon="12.5476583"><ele>526.0</ele><time>2026-04-26T09:48:57.937Z</time></trkpt><trkpt lat="43.864685" lon="12.547605"><ele>526.0</ele><time>2026-04-26T09:48:59.936Z</time></trkpt><trkpt lat="43.86465" lon="12.5475217"><ele>525.0</ele><time>2026-04-26T09:49:01.937Z</time></trkpt><trkpt lat="43.864635" lon="12.54741"><ele>524.0</ele><time>2026-04-26T09:49:03.937Z</time></trkpt><trkpt lat="43.8646217" lon="12.5472667"><ele>523.0</ele><time>2026-04-26T09:49:05.937Z</time></trkpt><trkpt lat="43.8646183" lon="12.54709"><ele>522.0</ele><time>2026-04-26T09:49:07.937Z</time></trkpt><trkpt lat="43.864615" lon="12.5469883"><ele>521.0</ele><time>2026-04-26T09:49:08.936Z</time></trkpt><trkpt lat="43.8646133" lon="12.5468783"><ele>520.4</ele><time>2026-04-26T09:49:09.937Z</time></trkpt><trkpt lat="43.8646167" lon="12.546775"><ele>519.8</ele><time>2026-04-26T09:49:10.937Z</time></trkpt><trkpt lat="43.864635" lon="12.5466233"><ele>519.1999999999999</ele><time>2026-04-26T09:49:12.937Z</time></trkpt><trkpt lat="43.8646917" lon="12.5465"><ele>518.6</ele><time>2026-04-26T09:49:14.937Z</time></trkpt><trkpt lat="43.86478" lon="12.5463717"><ele>518.0</ele><time>2026-04-26T09:49:16.936Z</time></trkpt><trkpt lat="43.86483" lon="12.5462933"><ele>518.3333333333333</ele><time>2026-04-26T09:49:17.936Z</time></trkpt><trkpt lat="43.8648783" lon="12.546205"><ele>518.6666666666666</ele><time>2026-04-26T09:49:18.937Z</time></trkpt><trkpt lat="43.8649267" lon="12.5461067"><ele>519.0</ele><time>2026-04-26T09:49:19.937Z</time></trkpt><trkpt lat="43.864975" lon="12.54601"><ele>519.3333333333334</ele><time>2026-04-26T09:49:20.937Z</time></trkpt><trkpt lat="43.86502" lon="12.545925"><ele>519.6666666666667</ele><time>2026-04-26T09:49:21.937Z</time></trkpt><trkpt lat="43.8650617" lon="12.545835"><ele>520.0</ele><time>2026-04-26T09:49:22.937Z</time></trkpt><trkpt lat="43.86511" lon="12.54573"><ele>518.1666666666667</ele><time>2026-04-26T09:49:23.937Z</time></trkpt><trkpt lat="43.8651567" lon="12.5456183"><ele>516.3333333333334</ele><time>2026-04-26T09:49:24.937Z</time></trkpt><trkpt lat="43.8652017" lon="12.5455167"><ele>514.5</ele><time>2026-04-26T09:49:25.936Z</time></trkpt><trkpt lat="43.865245" lon="12.5454383"><ele>512.6666666666666</ele><time>2026-04-26T09:49:26.936Z</time></trkpt><trkpt lat="43.8653183" lon="12.5453433"><ele>510.8333333333333</ele><time>2026-04-26T09:49:28.936Z</time></trkpt><trkpt lat="43.86537" lon="12.5452483"><ele>509.0</ele><time>2026-04-26T09:49:30.936Z</time></trkpt><trkpt lat="43.8654233" lon="12.5451617"><ele>508.99999999999994</ele><time>2026-04-26T09:49:32.937Z</time></trkpt><trkpt lat="43.8654683" lon="12.5450517"><ele>509.0</ele><time>2026-04-26T09:49:34.937Z</time></trkpt><trkpt lat="43.8654983" lon="12.5449117"><ele>509.0</ele><time>2026-04-26T09:49:36.936Z</time></trkpt><trkpt lat="43.8655133" lon="12.5447883"><ele>509.0</ele><time>2026-04-26T09:49:38.936Z</time></trkpt><trkpt lat="43.8655083" lon="12.5446767"><ele>508.99999999999994</ele><time>2026-04-26T09:49:48.937Z</time></trkpt><trkpt lat="43.8654983" lon="12.5445833"><ele>509.0</ele><time>2026-04-26T09:49:54.937Z</time></trkpt><trkpt lat="43.86552" lon="12.5445"><ele>507.8333333333333</ele><time>2026-04-26T09:49:57.936Z</time></trkpt><trkpt lat="43.8655267" lon="12.5443833"><ele>506.66666666666663</ele><time>2026-04-26T09:50:00.937Z</time></trkpt><trkpt lat="43.8655467" lon="12.5442633"><ele>505.5</ele><time>2026-04-26T09:50:02.936Z</time></trkpt><trkpt lat="43.8655567" lon="12.5441667"><ele>504.33333333333337</ele><time>2026-04-26T09:50:04.936Z</time></trkpt><trkpt lat="43.8655467" lon="12.5440433"><ele>503.1666666666667</ele><time>2026-04-26T09:50:06.937Z</time></trkpt><trkpt lat="43.8655267" lon="12.543895"><ele>502.0</ele><time>2026-04-26T09:50:08.937Z</time></trkpt><trkpt lat="43.8655533" lon="12.5437417"><ele>500.71428571428567</ele><time>2026-04-26T09:50:10.936Z</time></trkpt><trkpt lat="43.865575" lon="12.5436533"><ele>499.42857142857144</ele><time>2026-04-26T09:50:11.937Z</time></trkpt><trkpt lat="43.8656017" lon="12.543565"><ele>498.1428571428571</ele><time>2026-04-26T09:50:12.937Z</time></trkpt><trkpt lat="43.8656333" lon="12.5434317"><ele>496.85714285714283</ele><time>2026-04-26T09:50:14.937Z</time></trkpt><trkpt lat="43.8656517" lon="12.5433433"><ele>495.57142857142856</ele><time>2026-04-26T09:50:24.937Z</time></trkpt><trkpt lat="43.8657017" lon="12.5432683"><ele>494.2857142857143</ele><time>2026-04-26T09:50:27.937Z</time></trkpt><trkpt lat="43.8657467" lon="12.543195"><ele>493.0</ele><time>2026-04-26T09:50:29.936Z</time></trkpt><trkpt lat="43.8658017" lon="12.543095"><ele>493.00000000000006</ele><time>2026-04-26T09:50:31.936Z</time></trkpt><trkpt lat="43.8658467" lon="12.5430033"><ele>493.0</ele><time>2026-04-26T09:50:33.937Z</time></trkpt><trkpt lat="43.865925" lon="12.5429717"><ele>493.0</ele><time>2026-04-26T09:50:36.937Z</time></trkpt><trkpt lat="43.865965" lon="12.54305"><ele>493.0</ele><time>2026-04-26T09:50:38.936Z</time></trkpt><trkpt lat="43.8660017" lon="12.5431817"><ele>493.00000000000006</ele><time>2026-04-26T09:50:40.937Z</time></trkpt><trkpt lat="43.8660583" lon="12.5432617"><ele>493.0</ele><time>2026-04-26T09:50:42.937Z</time></trkpt><trkpt lat="43.8661617" lon="12.5433133"><ele>486.59999999999997</ele><time>2026-04-26T09:50:44.937Z</time></trkpt><trkpt lat="43.866265" lon="12.5433567"><ele>480.19999999999993</ele><time>2026-04-26T09:50:46.937Z</time></trkpt><trkpt lat="43.8663333" lon="12.5434467"><ele>473.8</ele><time>2026-04-26T09:50:48.936Z</time></trkpt><trkpt lat="43.8664133" lon="12.543545"><ele>467.4</ele><time>2026-04-26T09:50:50.937Z</time></trkpt><trkpt lat="43.8664833" lon="12.5436033"><ele>461.0</ele><time>2026-04-26T09:50:52.937Z</time></trkpt><trkpt lat="43.8665367" lon="12.5437033"><ele>458.8333333333333</ele><time>2026-04-26T09:50:55.936Z</time></trkpt><trkpt lat="43.8665717" lon="12.5438283"><ele>456.66666666666663</ele><time>2026-04-26T09:50:57.936Z</time></trkpt><trkpt lat="43.8666467" lon="12.5438633"><ele>454.5</ele><time>2026-04-26T09:50:59.937Z</time></trkpt><trkpt lat="43.8667467" lon="12.5438917"><ele>452.33333333333337</ele><time>2026-04-26T09:51:01.937Z</time></trkpt><trkpt lat="43.8668017" lon="12.5439433"><ele>450.1666666666667</ele><time>2026-04-26T09:51:02.937Z</time></trkpt><trkpt lat="43.8668583" lon="12.5440083"><ele>448.0</ele><time>2026-04-26T09:51:03.936Z</time></trkpt><trkpt lat="43.8669083" lon="12.5440667"><ele>448.00000000000006</ele><time>2026-04-26T09:51:04.937Z</time></trkpt><trkpt lat="43.8670067" lon="12.54419"><ele>448.0</ele><time>2026-04-26T09:51:06.937Z</time></trkpt><trkpt lat="43.8670583" lon="12.5442617"><ele>448.0</ele><time>2026-04-26T09:51:07.937Z</time></trkpt><trkpt lat="43.8671067" lon="12.54433"><ele>448.0</ele><time>2026-04-26T09:51:08.937Z</time></trkpt><trkpt lat="43.86715" lon="12.5444"><ele>448.00000000000006</ele><time>2026-04-26T09:51:09.937Z</time></trkpt><trkpt lat="43.8671883" lon="12.5444883"><ele>448.0</ele><time>2026-04-26T09:51:10.936Z</time></trkpt><trkpt lat="43.8672317" lon="12.544585"><ele>450.50000000000006</ele><time>2026-04-26T09:51:11.936Z</time></trkpt><trkpt lat="43.8672783" lon="12.5446833"><ele>453.0</ele><time>2026-04-26T09:51:12.937Z</time></trkpt><trkpt lat="43.8673283" lon="12.5447867"><ele>455.5</ele><time>2026-04-26T09:51:13.937Z</time></trkpt><trkpt lat="43.8673683" lon="12.544885"><ele>458.0</ele><time>2026-04-26T09:51:14.937Z</time></trkpt><trkpt lat="43.8673933" lon="12.544975"><ele>460.50000000000006</ele><time>2026-04-26T09:51:15.937Z</time></trkpt><trkpt lat="43.8674083" lon="12.5450717"><ele>463.0</ele><time>2026-04-26T09:51:16.936Z</time></trkpt><trkpt lat="43.8674167" lon="12.5451817"><ele>463.00000000000006</ele><time>2026-04-26T09:51:17.937Z</time></trkpt><trkpt lat="43.8674317" lon="12.5453"><ele>463.0</ele><time>2026-04-26T09:51:18.937Z</time></trkpt><trkpt lat="43.86745" lon="12.54542"><ele>463.0</ele><time>2026-04-26T09:51:19.937Z</time></trkpt><trkpt lat="43.8674567" lon="12.545535"><ele>463.0</ele><time>2026-04-26T09:51:20.936Z</time></trkpt><trkpt lat="43.867455" lon="12.5456533"><ele>463.00000000000006</ele><time>2026-04-26T09:51:21.937Z</time></trkpt><trkpt lat="43.867455" lon="12.5457817"><ele>463.0</ele><time>2026-04-26T09:51:22.937Z</time></trkpt><trkpt lat="43.867455" lon="12.5459083"><ele>462.4</ele><time>2026-04-26T09:51:23.937Z</time></trkpt><trkpt lat="43.8674567" lon="12.546035"><ele>461.79999999999995</ele><time>2026-04-26T09:51:24.937Z</time></trkpt><trkpt lat="43.86747" lon="12.5461683"><ele>461.2</ele><time>2026-04-26T09:51:25.937Z</time></trkpt><trkpt lat="43.86748" lon="12.5463017"><ele>460.6</ele><time>2026-04-26T09:51:26.937Z</time></trkpt><trkpt lat="43.867495" lon="12.5464267"><ele>460.0</ele><time>2026-04-26T09:51:27.937Z</time></trkpt><trkpt lat="43.8675167" lon="12.5465317"><ele>458.50000000000006</ele><time>2026-04-26T09:51:28.937Z</time></trkpt><trkpt lat="43.8675683" lon="12.546665"><ele>457.0</ele><time>2026-04-26T09:51:30.937Z</time></trkpt><trkpt lat="43.8676117" lon="12.5467483"><ele>455.5</ele><time>2026-04-26T09:51:31.937Z</time></trkpt><trkpt lat="43.8676433" lon="12.54685"><ele>454.0</ele><time>2026-04-26T09:51:32.937Z</time></trkpt><trkpt lat="43.8676617" lon="12.5469633"><ele>452.50000000000006</ele><time>2026-04-26T09:51:33.937Z</time></trkpt><trkpt lat="43.86767" lon="12.5470783"><ele>451.0</ele><time>2026-04-26T09:51:34.937Z</time></trkpt><trkpt lat="43.867675" lon="12.547175"><ele>446.50000000000006</ele><time>2026-04-26T09:51:35.937Z</time></trkpt><trkpt lat="43.8676833" lon="12.5472983"><ele>442.0</ele><time>2026-04-26T09:51:37.936Z</time></trkpt><trkpt lat="43.867735" lon="12.5473483"><ele>437.5</ele><time>2026-04-26T09:51:39.937Z</time></trkpt><trkpt lat="43.867845" lon="12.54734"><ele>433.0</ele><time>2026-04-26T09:51:41.937Z</time></trkpt><trkpt lat="43.8679167" lon="12.5473183"><ele>428.50000000000006</ele><time>2026-04-26T09:51:42.937Z</time></trkpt><trkpt lat="43.8679967" lon="12.54728"><ele>424.0</ele><time>2026-04-26T09:51:43.937Z</time></trkpt><trkpt lat="43.8680717" lon="12.5472267"><ele>424.0</ele><time>2026-04-26T09:51:44.937Z</time></trkpt><trkpt lat="43.8681383" lon="12.5471583"><ele>424.0</ele><time>2026-04-26T09:51:45.937Z</time></trkpt><trkpt lat="43.8682033" lon="12.5470933"><ele>424.0</ele><time>2026-04-26T09:51:46.936Z</time></trkpt><trkpt lat="43.8682667" lon="12.547035"><ele>424.0</ele><time>2026-04-26T09:51:47.937Z</time></trkpt><trkpt lat="43.86833" lon="12.5469867"><ele>424.0</ele><time>2026-04-26T09:51:48.937Z</time></trkpt><trkpt lat="43.868395" lon="12.5469567"><ele>424.0</ele><time>2026-04-26T09:51:49.937Z</time></trkpt><trkpt lat="43.868455" lon="12.546925"><ele>424.0</ele><time>2026-04-26T09:51:50.937Z</time></trkpt><trkpt lat="43.8685483" lon="12.5468233"><ele>422.50000000000006</ele><time>2026-04-26T09:51:52.937Z</time></trkpt><trkpt lat="43.8686183" lon="12.5466917"><ele>421.0</ele><time>2026-04-26T09:51:54.936Z</time></trkpt><trkpt lat="43.8686667" lon="12.54659"><ele>419.5</ele><time>2026-04-26T09:51:56.937Z</time></trkpt><trkpt lat="43.8686967" lon="12.5464933"><ele>418.0</ele><time>2026-04-26T09:51:59.937Z</time></trkpt><trkpt lat="43.86872" lon="12.5464033"><ele>416.50000000000006</ele><time>2026-04-26T09:52:01.936Z</time></trkpt><trkpt lat="43.8687483" lon="12.5462883"><ele>415.0</ele><time>2026-04-26T09:52:03.937Z</time></trkpt><trkpt lat="43.8687933" lon="12.5461483"><ele>415.0</ele><time>2026-04-26T09:52:05.937Z</time></trkpt><trkpt lat="43.868865" lon="12.5460033"><ele>415.0</ele><time>2026-04-26T09:52:07.937Z</time></trkpt><trkpt lat="43.868985" lon="12.5459617"><ele>415.0</ele><time>2026-04-26T09:52:09.937Z</time></trkpt><trkpt lat="43.8690633" lon="12.5459883"><ele>415.0</ele><time>2026-04-26T09:52:10.936Z</time></trkpt><trkpt lat="43.869145" lon="12.54603"><ele>415.0</ele><time>2026-04-26T09:52:11.937Z</time></trkpt><trkpt lat="43.8692133" lon="12.5460633"><ele>410.2</ele><time>2026-04-26T09:52:12.936Z</time></trkpt><trkpt lat="43.8693067" lon="12.5460617"><ele>405.4</ele><time>2026-04-26T09:52:14.937Z</time></trkpt><trkpt lat="43.86941" lon="12.5460017"><ele>400.6</ele><time>2026-04-26T09:52:16.937Z</time></trkpt><trkpt lat="43.8695133" lon="12.5459417"><ele>395.8</ele><time>2026-04-26T09:52:18.937Z</time></trkpt><trkpt lat="43.8695767" lon="12.5458967"><ele>391.0</ele><time>2026-04-26T09:52:20.937Z</time></trkpt><trkpt lat="43.869615" lon="12.5458033"><ele>391.00000000000006</ele><time>2026-04-26T09:52:24.936Z</time></trkpt><trkpt lat="43.8696833" lon="12.5458667"><ele>391.0</ele><time>2026-04-26T09:52:27.936Z</time></trkpt><trkpt lat="43.86971" lon="12.54601"><ele>391.0</ele><time>2026-04-26T09:52:29.937Z</time></trkpt><trkpt lat="43.8697167" lon="12.54612"><ele>391.0</ele><time>2026-04-26T09:52:30.937Z</time></trkpt><trkpt lat="43.869725" lon="12.5462383"><ele>391.00000000000006</ele><time>2026-04-26T09:52:31.936Z</time></trkpt><trkpt lat="43.8697217" lon="12.5463633"><ele>391.0</ele><time>2026-04-26T09:52:32.936Z</time></trkpt><trkpt lat="43.8696983" lon="12.5464933"><ele>390.25</ele><time>2026-04-26T09:52:33.937Z</time></trkpt><trkpt lat="43.8696667" lon="12.5466333"><ele>389.5</ele><time>2026-04-26T09:52:34.937Z</time></trkpt><trkpt lat="43.8696333" lon="12.5467867"><ele>388.75</ele><time>2026-04-26T09:52:35.937Z</time></trkpt><trkpt lat="43.8696" lon="12.5469433"><ele>388.0</ele><time>2026-04-26T09:52:36.937Z</time></trkpt><trkpt lat="43.869565" lon="12.5471033"><ele>386.0</ele><time>2026-04-26T09:52:37.937Z</time></trkpt><trkpt lat="43.8695283" lon="12.547265"><ele>384.0</ele><time>2026-04-26T09:52:38.936Z</time></trkpt><trkpt lat="43.8695" lon="12.5474183"><ele>382.0</ele><time>2026-04-26T09:52:39.936Z</time></trkpt><trkpt lat="43.86948" lon="12.5475567"><ele>380.0</ele><time>2026-04-26T09:52:40.937Z</time></trkpt><trkpt lat="43.8694733" lon="12.5476867"><ele>378.0</ele><time>2026-04-26T09:52:41.937Z</time></trkpt><trkpt lat="43.8694833" lon="12.5478083"><ele>376.1666666666667</ele><time>2026-04-26T09:52:42.937Z</time></trkpt><trkpt lat="43.8694967" lon="12.547925"><ele>374.3333333333333</ele><time>2026-04-26T09:52:43.937Z</time></trkpt><trkpt lat="43.869515" lon="12.5480367"><ele>372.5</ele><time>2026-04-26T09:52:44.937Z</time></trkpt><trkpt lat="43.869545" lon="12.5481317"><ele>370.66666666666663</ele><time>2026-04-26T09:52:45.937Z</time></trkpt><trkpt lat="43.8695883" lon="12.548205"><ele>368.8333333333333</ele><time>2026-04-26T09:52:46.937Z</time></trkpt><trkpt lat="43.8696967" lon="12.5482533"><ele>367.0</ele><time>2026-04-26T09:52:48.937Z</time></trkpt><trkpt lat="43.8697783" lon="12.548225"><ele>367.0</ele><time>2026-04-26T09:52:50.937Z</time></trkpt><trkpt lat="43.869835" lon="12.54818"><ele>367.0</ele><time>2026-04-26T09:52:51.937Z</time></trkpt><trkpt lat="43.86991" lon="12.5481067"><ele>367.0</ele><time>2026-04-26T09:52:52.937Z</time></trkpt><trkpt lat="43.869995" lon="12.5480167"><ele>367.0</ele><time>2026-04-26T09:52:53.937Z</time></trkpt><trkpt lat="43.87009" lon="12.54792"><ele>367.0</ele><time>2026-04-26T09:52:54.937Z</time></trkpt><trkpt lat="43.870175" lon="12.5478067"><ele>363.25</ele><time>2026-04-26T09:52:55.937Z</time></trkpt><trkpt lat="43.870255" lon="12.5476617"><ele>359.5</ele><time>2026-04-26T09:52:56.937Z</time></trkpt><trkpt lat="43.87034" lon="12.5475217"><ele>355.75</ele><time>2026-04-26T09:52:57.937Z</time></trkpt><trkpt lat="43.8704283" lon="12.54739"><ele>352.0</ele><time>2026-04-26T09:52:58.936Z</time></trkpt><trkpt lat="43.8705217" lon="12.5472767"><ele>352.0</ele><time>2026-04-26T09:52:59.937Z</time></trkpt><trkpt lat="43.8706183" lon="12.547175"><ele>352.0</ele><time>2026-04-26T09:53:00.937Z</time></trkpt><trkpt lat="43.87071" lon="12.54707"><ele>352.0</ele><time>2026-04-26T09:53:01.937Z</time></trkpt><trkpt lat="43.8708" lon="12.5469633"><ele>352.0</ele><time>2026-04-26T09:53:02.937Z</time></trkpt><trkpt lat="43.87088" lon="12.5468467"><ele>349.0</ele><time>2026-04-26T09:53:03.937Z</time></trkpt><trkpt lat="43.8709483" lon="12.5467133"><ele>346.0</ele><time>2026-04-26T09:53:04.936Z</time></trkpt><trkpt lat="43.8710083" lon="12.546575"><ele>343.0</ele><time>2026-04-26T09:53:05.937Z</time></trkpt><trkpt lat="43.871065" lon="12.5464317"><ele>340.0</ele><time>2026-04-26T09:53:06.937Z</time></trkpt><trkpt lat="43.8711217" lon="12.546285"><ele>340.4</ele><time>2026-04-26T09:53:07.937Z</time></trkpt><trkpt lat="43.8711767" lon="12.546145"><ele>340.8</ele><time>2026-04-26T09:53:08.937Z</time></trkpt><trkpt lat="43.8712333" lon="12.5460117"><ele>341.20000000000005</ele><time>2026-04-26T09:53:09.937Z</time></trkpt><trkpt lat="43.871295" lon="12.5458883"><ele>341.6</ele><time>2026-04-26T09:53:10.936Z</time></trkpt><trkpt lat="43.8713717" lon="12.5457783"><ele>342.0</ele><time>2026-04-26T09:53:11.937Z</time></trkpt><trkpt lat="43.87146" lon="12.54568"><ele>342.0</ele><time>2026-04-26T09:53:12.937Z</time></trkpt><trkpt lat="43.8715533" lon="12.5455917"><ele>342.0</ele><time>2026-04-26T09:53:13.937Z</time></trkpt><trkpt lat="43.87165" lon="12.5455083"><ele>342.0</ele><time>2026-04-26T09:53:14.937Z</time></trkpt><trkpt lat="43.87174" lon="12.545425"><ele>342.0</ele><time>2026-04-26T09:53:15.937Z</time></trkpt><trkpt lat="43.8718333" lon="12.54536"><ele>342.0</ele><time>2026-04-26T09:53:16.937Z</time></trkpt><trkpt lat="43.87193" lon="12.5453383"><ele>340.0</ele><time>2026-04-26T09:53:17.937Z</time></trkpt><trkpt lat="43.8720217" lon="12.545355"><ele>338.0</ele><time>2026-04-26T09:53:18.937Z</time></trkpt><trkpt lat="43.8721033" lon="12.5454067"><ele>336.0</ele><time>2026-04-26T09:53:19.937Z</time></trkpt><trkpt lat="43.8721717" lon="12.54549"><ele>334.0</ele><time>2026-04-26T09:53:20.937Z</time></trkpt><trkpt lat="43.8722217" lon="12.5455917"><ele>332.0</ele><time>2026-04-26T09:53:21.937Z</time></trkpt><trkpt lat="43.8722633" lon="12.5456917"><ele>330.0</ele><time>2026-04-26T09:53:22.937Z</time></trkpt><trkpt lat="43.8723067" lon="12.5457817"><ele>330.0</ele><time>2026-04-26T09:53:23.937Z</time></trkpt><trkpt lat="43.8723667" lon="12.5458383"><ele>330.0</ele><time>2026-04-26T09:53:24.937Z</time></trkpt><trkpt lat="43.87243" lon="12.5458783"><ele>330.0</ele><time>2026-04-26T09:53:25.937Z</time></trkpt><trkpt lat="43.8725083" lon="12.5458833"><ele>330.0</ele><time>2026-04-26T09:53:26.936Z</time></trkpt><trkpt lat="43.8725933" lon="12.5458683"><ele>330.0</ele><time>2026-04-26T09:53:27.937Z</time></trkpt><trkpt lat="43.8726783" lon="12.5458533"><ele>330.0</ele><time>2026-04-26T09:53:28.937Z</time></trkpt><trkpt lat="43.8727617" lon="12.5458267"><ele>327.0</ele><time>2026-04-26T09:53:29.937Z</time></trkpt><trkpt lat="43.8728333" lon="12.545795"><ele>324.0</ele><time>2026-04-26T09:53:30.937Z</time></trkpt><trkpt lat="43.87293" lon="12.5457267"><ele>321.0</ele><time>2026-04-26T09:53:32.936Z</time></trkpt><trkpt lat="43.87297" lon="12.5455667"><ele>318.0</ele><time>2026-04-26T09:53:34.936Z</time></trkpt><trkpt lat="43.8729767" lon="12.5454483"><ele>315.0</ele><time>2026-04-26T09:53:35.937Z</time></trkpt><trkpt lat="43.8729583" lon="12.5453117"><ele>313.75</ele><time>2026-04-26T09:53:36.937Z</time></trkpt><trkpt lat="43.872915" lon="12.5451517"><ele>312.5</ele><time>2026-04-26T09:53:37.937Z</time></trkpt><trkpt lat="43.8728667" lon="12.5449817"><ele>311.25</ele><time>2026-04-26T09:53:38.937Z</time></trkpt><trkpt lat="43.8728217" lon="12.5448117"><ele>310.0</ele><time>2026-04-26T09:53:39.936Z</time></trkpt><trkpt lat="43.8727767" lon="12.5446417"><ele>309.0</ele><time>2026-04-26T09:53:40.937Z</time></trkpt><trkpt lat="43.87274" lon="12.5444667"><ele>308.0</ele><time>2026-04-26T09:53:41.937Z</time></trkpt><trkpt lat="43.8727017" lon="12.5443017"><ele>307.0</ele><time>2026-04-26T09:53:42.937Z</time></trkpt><trkpt lat="43.8726767" lon="12.5441417"><ele>306.0</ele><time>2026-04-26T09:53:43.937Z</time></trkpt><trkpt lat="43.872655" lon="12.543975"><ele>306.0</ele><time>2026-04-26T09:53:44.937Z</time></trkpt><trkpt lat="43.8726283" lon="12.5438083"><ele>306.0</ele><time>2026-04-26T09:53:45.937Z</time></trkpt><trkpt lat="43.8725983" lon="12.54364"><ele>306.0</ele><time>2026-04-26T09:53:46.937Z</time></trkpt><trkpt lat="43.87256" lon="12.54347"><ele>306.0</ele><time>2026-04-26T09:53:47.937Z</time></trkpt><trkpt lat="43.8725083" lon="12.5433033"><ele>306.75</ele><time>2026-04-26T09:53:48.937Z</time></trkpt><trkpt lat="43.8724417" lon="12.54314"><ele>307.5</ele><time>2026-04-26T09:53:49.937Z</time></trkpt><trkpt lat="43.8723717" lon="12.54298"><ele>308.25</ele><time>2026-04-26T09:53:50.936Z</time></trkpt><trkpt lat="43.8722917" lon="12.5428283"><ele>309.0</ele><time>2026-04-26T09:53:51.937Z</time></trkpt><trkpt lat="43.8722033" lon="12.5426867"><ele>309.0</ele><time>2026-04-26T09:53:52.936Z</time></trkpt><trkpt lat="43.87212" lon="12.5425467"><ele>309.0</ele><time>2026-04-26T09:53:53.937Z</time></trkpt><trkpt lat="43.8720367" lon="12.542425"><ele>309.0</ele><time>2026-04-26T09:53:54.936Z</time></trkpt><trkpt lat="43.871955" lon="12.5423283"><ele>309.0</ele><time>2026-04-26T09:53:55.937Z</time></trkpt><trkpt lat="43.87186" lon="12.542275"><ele>312.2</ele><time>2026-04-26T09:53:56.936Z</time></trkpt><trkpt lat="43.8717583" lon="12.5422617"><ele>315.4</ele><time>2026-04-26T09:53:57.937Z</time></trkpt><trkpt lat="43.871655" lon="12.5422783"><ele>318.6</ele><time>2026-04-26T09:53:58.937Z</time></trkpt><trkpt lat="43.87155" lon="12.5423067"><ele>321.8</ele><time>2026-04-26T09:53:59.936Z</time></trkpt><trkpt lat="43.871445" lon="12.5423433"><ele>325.0</ele><time>2026-04-26T09:54:00.936Z</time></trkpt><trkpt lat="43.87135" lon="12.5423483"><ele>325.0</ele><time>2026-04-26T09:54:01.937Z</time></trkpt><trkpt lat="43.871265" lon="12.5423233"><ele>325.0</ele><time>2026-04-26T09:54:02.937Z</time></trkpt><trkpt lat="43.8711967" lon="12.5422767"><ele>325.0</ele><time>2026-04-26T09:54:03.937Z</time></trkpt><trkpt lat="43.87115" lon="12.542215"><ele>325.0</ele><time>2026-04-26T09:54:04.936Z</time></trkpt><trkpt lat="43.8711683" lon="12.5421"><ele>325.0</ele><time>2026-04-26T09:54:05.937Z</time></trkpt><trkpt lat="43.8712083" lon="12.5419733"><ele>325.0</ele><time>2026-04-26T09:54:06.937Z</time></trkpt><trkpt lat="43.8712367" lon="12.54184"><ele>325.5</ele><time>2026-04-26T09:54:07.936Z</time></trkpt><trkpt lat="43.8712617" lon="12.5417067"><ele>326.0</ele><time>2026-04-26T09:54:08.937Z</time></trkpt><trkpt lat="43.871265" lon="12.5415933"><ele>326.5</ele><time>2026-04-26T09:54:09.937Z</time></trkpt><trkpt lat="43.8712333" lon="12.5415117"><ele>327.0</ele><time>2026-04-26T09:54:10.937Z</time></trkpt><trkpt lat="43.871175" lon="12.541465"><ele>327.5</ele><time>2026-04-26T09:54:11.937Z</time></trkpt><trkpt lat="43.8711" lon="12.5414733"><ele>328.0</ele><time>2026-04-26T09:54:12.937Z</time></trkpt><trkpt lat="43.8710217" lon="12.5415433"><ele>331.79999999999995</ele><time>2026-04-26T09:54:13.936Z</time></trkpt><trkpt lat="43.870935" lon="12.5416267"><ele>335.6</ele><time>2026-04-26T09:54:14.937Z</time></trkpt><trkpt lat="43.87085" lon="12.5417083"><ele>339.4</ele><time>2026-04-26T09:54:15.936Z</time></trkpt><trkpt lat="43.8707633" lon="12.54176"><ele>343.20000000000005</ele><time>2026-04-26T09:54:16.937Z</time></trkpt><trkpt lat="43.8706833" lon="12.5417733"><ele>347.0</ele><time>2026-04-26T09:54:17.937Z</time></trkpt><trkpt lat="43.8706083" lon="12.5417267"><ele>347.0</ele><time>2026-04-26T09:54:18.937Z</time></trkpt><trkpt lat="43.870565" lon="12.5416333"><ele>347.0</ele><time>2026-04-26T09:54:19.937Z</time></trkpt><trkpt lat="43.87057" lon="12.5414783"><ele>347.0</ele><time>2026-04-26T09:54:20.937Z</time></trkpt><trkpt lat="43.8705917" lon="12.5413083"><ele>347.0</ele><time>2026-04-26T09:54:21.937Z</time></trkpt><trkpt lat="43.8706183" lon="12.5411317"><ele>347.0</ele><time>2026-04-26T09:54:22.937Z</time></trkpt><trkpt lat="43.8706333" lon="12.5409433"><ele>348.5</ele><time>2026-04-26T09:54:23.937Z</time></trkpt><trkpt lat="43.8706367" lon="12.5407517"><ele>350.0</ele><time>2026-04-26T09:54:24.936Z</time></trkpt><trkpt lat="43.87064" lon="12.5405617"><ele>351.5</ele><time>2026-04-26T09:54:25.937Z</time></trkpt><trkpt lat="43.8706333" lon="12.54036"><ele>353.0</ele><time>2026-04-26T09:54:26.936Z</time></trkpt><trkpt lat="43.8706183" lon="12.540155"><ele>354.0</ele><time>2026-04-26T09:54:27.937Z</time></trkpt><trkpt lat="43.8706017" lon="12.539955"><ele>355.0</ele><time>2026-04-26T09:54:28.937Z</time></trkpt><trkpt lat="43.870595" lon="12.539765"><ele>356.0</ele><time>2026-04-26T09:54:29.936Z</time></trkpt><trkpt lat="43.8705867" lon="12.5395883"><ele>357.0</ele><time>2026-04-26T09:54:30.937Z</time></trkpt><trkpt lat="43.87059" lon="12.5394283"><ele>357.40000000000003</ele><time>2026-04-26T09:54:31.936Z</time></trkpt><trkpt lat="43.8706083" lon="12.539285"><ele>357.8</ele><time>2026-04-26T09:54:32.937Z</time></trkpt><trkpt lat="43.87064" lon="12.5391567"><ele>358.2</ele><time>2026-04-26T09:54:33.937Z</time></trkpt><trkpt lat="43.870695" lon="12.5390467"><ele>358.6</ele><time>2026-04-26T09:54:34.937Z</time></trkpt><trkpt lat="43.870775" lon="12.5389667"><ele>359.0</ele><time>2026-04-26T09:54:35.936Z</time></trkpt><trkpt lat="43.87087" lon="12.5389117"><ele>358.5</ele><time>2026-04-26T09:54:36.937Z</time></trkpt><trkpt lat="43.8709783" lon="12.5388817"><ele>358.0</ele><time>2026-04-26T09:54:37.937Z</time></trkpt><trkpt lat="43.8710933" lon="12.5388683"><ele>357.5</ele><time>2026-04-26T09:54:38.937Z</time></trkpt><trkpt lat="43.8712183" lon="12.5388633"><ele>357.0</ele><time>2026-04-26T09:54:39.937Z</time></trkpt><trkpt lat="43.8713433" lon="12.538855"><ele>357.0</ele><time>2026-04-26T09:54:40.937Z</time></trkpt><trkpt lat="43.87146" lon="12.5388483"><ele>357.0</ele><time>2026-04-26T09:54:41.936Z</time></trkpt><trkpt lat="43.871575" lon="12.5388467"><ele>357.0</ele><time>2026-04-26T09:54:42.936Z</time></trkpt><trkpt lat="43.8716917" lon="12.5388367"><ele>357.0</ele><time>2026-04-26T09:54:43.936Z</time></trkpt><trkpt lat="43.8718183" lon="12.5388083"><ele>355.0</ele><time>2026-04-26T09:54:44.937Z</time></trkpt><trkpt lat="43.871955" lon="12.5387683"><ele>353.0</ele><time>2026-04-26T09:54:45.937Z</time></trkpt><trkpt lat="43.8721033" lon="12.53872"><ele>351.0</ele><time>2026-04-26T09:54:46.937Z</time></trkpt><trkpt lat="43.87226" lon="12.5386683"><ele>351.0</ele><time>2026-04-26T09:54:47.936Z</time></trkpt><trkpt lat="43.87242" lon="12.5386167"><ele>351.0</ele><time>2026-04-26T09:54:48.937Z</time></trkpt><trkpt lat="43.872575" lon="12.53856"><ele>351.0</ele><time>2026-04-26T09:54:49.937Z</time></trkpt><trkpt lat="43.8727267" lon="12.538515"><ele>351.0</ele><time>2026-04-26T09:54:50.937Z</time></trkpt><trkpt lat="43.872875" lon="12.538475"><ele>351.0</ele><time>2026-04-26T09:54:51.936Z</time></trkpt><trkpt lat="43.873025" lon="12.5384383"><ele>351.0</ele><time>2026-04-26T09:54:52.937Z</time></trkpt><trkpt lat="43.8731817" lon="12.5384033"><ele>351.0</ele><time>2026-04-26T09:54:53.937Z</time></trkpt><trkpt lat="43.8733433" lon="12.5383783"><ele>351.0</ele><time>2026-04-26T09:54:54.937Z</time></trkpt><trkpt lat="43.873505" lon="12.53835"><ele>351.0</ele><time>2026-04-26T09:54:55.937Z</time></trkpt><trkpt lat="43.8736717" lon="12.5383167"><ele>346.6666666666667</ele><time>2026-04-26T09:54:56.937Z</time></trkpt><trkpt lat="43.8738417" lon="12.538285"><ele>342.33333333333337</ele><time>2026-04-26T09:54:57.937Z</time></trkpt><trkpt lat="43.87401" lon="12.5382633"><ele>338.0</ele><time>2026-04-26T09:54:58.936Z</time></trkpt><trkpt lat="43.874175" lon="12.538235"><ele>336.0</ele><time>2026-04-26T09:54:59.936Z</time></trkpt><trkpt lat="43.8743383" lon="12.5382083"><ele>334.0</ele><time>2026-04-26T09:55:00.937Z</time></trkpt><trkpt lat="43.874505" lon="12.5381733"><ele>332.0</ele><time>2026-04-26T09:55:01.937Z</time></trkpt><trkpt lat="43.874675" lon="12.5381333"><ele>332.0</ele><time>2026-04-26T09:55:02.937Z</time></trkpt><trkpt lat="43.8748433" lon="12.5381"><ele>332.0</ele><time>2026-04-26T09:55:03.937Z</time></trkpt><trkpt lat="43.87501" lon="12.5380717"><ele>332.0</ele><time>2026-04-26T09:55:04.937Z</time></trkpt><trkpt lat="43.8751717" lon="12.5380533"><ele>329.33333333333337</ele><time>2026-04-26T09:55:05.937Z</time></trkpt><trkpt lat="43.875335" lon="12.53804"><ele>326.6666666666667</ele><time>2026-04-26T09:55:06.936Z</time></trkpt><trkpt lat="43.8754983" lon="12.538015"><ele>324.0</ele><time>2026-04-26T09:55:07.937Z</time></trkpt><trkpt lat="43.8756667" lon="12.5379883"><ele>324.0</ele><time>2026-04-26T09:55:08.937Z</time></trkpt><trkpt lat="43.8758383" lon="12.5379617"><ele>324.0</ele><time>2026-04-26T09:55:09.937Z</time></trkpt><trkpt lat="43.8760133" lon="12.53794"><ele>324.0</ele><time>2026-04-26T09:55:10.936Z</time></trkpt><trkpt lat="43.8761933" lon="12.5379233"><ele>322.0</ele><time>2026-04-26T09:55:11.937Z</time></trkpt><trkpt lat="43.8763733" lon="12.5379067"><ele>320.0</ele><time>2026-04-26T09:55:12.937Z</time></trkpt><trkpt lat="43.8765533" lon="12.5378917"><ele>318.0</ele><time>2026-04-26T09:55:13.937Z</time></trkpt><trkpt lat="43.8767333" lon="12.537875"><ele>315.3333333333333</ele><time>2026-04-26T09:55:14.936Z</time></trkpt><trkpt lat="43.8769133" lon="12.5378583"><ele>312.66666666666663</ele><time>2026-04-26T09:55:15.937Z</time></trkpt><trkpt lat="43.8770933" lon="12.537845"><ele>310.0</ele><time>2026-04-26T09:55:16.936Z</time></trkpt><trkpt lat="43.8772733" lon="12.5378267"><ele>310.0</ele><time>2026-04-26T09:55:17.937Z</time></trkpt><trkpt lat="43.87746" lon="12.5378017"><ele>310.0</ele><time>2026-04-26T09:55:18.937Z</time></trkpt><trkpt lat="43.87765" lon="12.5377783"><ele>310.0</ele><time>2026-04-26T09:55:19.937Z</time></trkpt><trkpt lat="43.8778383" lon="12.5377417"><ele>309.66666666666663</ele><time>2026-04-26T09:55:20.936Z</time></trkpt><trkpt lat="43.8780217" lon="12.537705"><ele>309.3333333333333</ele><time>2026-04-26T09:55:21.937Z</time></trkpt><trkpt lat="43.8782033" lon="12.5376683"><ele>309.0</ele><time>2026-04-26T09:55:22.937Z</time></trkpt><trkpt lat="43.8783867" lon="12.53762"><ele>307.3333333333333</ele><time>2026-04-26T09:55:23.937Z</time></trkpt><trkpt lat="43.87857" lon="12.5375633"><ele>305.66666666666663</ele><time>2026-04-26T09:55:24.937Z</time></trkpt><trkpt lat="43.8787517" lon="12.5375017"><ele>304.0</ele><time>2026-04-26T09:55:25.937Z</time></trkpt><trkpt lat="43.8789383" lon="12.5374417"><ele>304.0</ele><time>2026-04-26T09:55:26.937Z</time></trkpt><trkpt lat="43.879135" lon="12.5373917"><ele>304.0</ele><time>2026-04-26T09:55:27.937Z</time></trkpt><trkpt lat="43.8793317" lon="12.537355"><ele>304.0</ele><time>2026-04-26T09:55:28.937Z</time></trkpt><trkpt lat="43.8795267" lon="12.5373267"><ele>303.0</ele><time>2026-04-26T09:55:29.937Z</time></trkpt><trkpt lat="43.8797133" lon="12.5372983"><ele>302.0</ele><time>2026-04-26T09:55:30.937Z</time></trkpt><trkpt lat="43.8798967" lon="12.5372667"><ele>301.0</ele><time>2026-04-26T09:55:31.937Z</time></trkpt><trkpt lat="43.8800817" lon="12.5372333"><ele>299.66666666666663</ele><time>2026-04-26T09:55:32.937Z</time></trkpt><trkpt lat="43.8802617" lon="12.5372"><ele>298.3333333333333</ele><time>2026-04-26T09:55:33.937Z</time></trkpt><trkpt lat="43.880435" lon="12.53717"><ele>297.0</ele><time>2026-04-26T09:55:34.936Z</time></trkpt><trkpt lat="43.8806017" lon="12.5371433"><ele>297.0</ele><time>2026-04-26T09:55:35.936Z</time></trkpt><trkpt lat="43.8807683" lon="12.5371183"><ele>297.0</ele><time>2026-04-26T09:55:36.937Z</time></trkpt><trkpt lat="43.8809367" lon="12.5370883"><ele>297.0</ele><time>2026-04-26T09:55:37.937Z</time></trkpt><trkpt lat="43.8811067" lon="12.5370583"><ele>299.3333333333333</ele><time>2026-04-26T09:55:38.937Z</time></trkpt><trkpt lat="43.8812783" lon="12.5370333"><ele>301.66666666666663</ele><time>2026-04-26T09:55:39.937Z</time></trkpt><trkpt lat="43.88145" lon="12.5370033"><ele>304.0</ele><time>2026-04-26T09:55:40.937Z</time></trkpt><trkpt lat="43.88162" lon="12.537"><ele>300.66666666666663</ele><time>2026-04-26T09:55:41.937Z</time></trkpt><trkpt lat="43.8817933" lon="12.5370233"><ele>297.3333333333333</ele><time>2026-04-26T09:55:42.937Z</time></trkpt><trkpt lat="43.8819667" lon="12.5370617"><ele>294.0</ele><time>2026-04-26T09:55:43.937Z</time></trkpt><trkpt lat="43.8821467" lon="12.5371133"><ele>293.6666666666667</ele><time>2026-04-26T09:55:44.937Z</time></trkpt><trkpt lat="43.88233" lon="12.5371617"><ele>293.33333333333337</ele><time>2026-04-26T09:55:45.936Z</time></trkpt><trkpt lat="43.8825133" lon="12.5372167"><ele>293.0</ele><time>2026-04-26T09:55:46.937Z</time></trkpt><trkpt lat="43.8826917" lon="12.537275"><ele>291.6666666666667</ele><time>2026-04-26T09:55:47.936Z</time></trkpt><trkpt lat="43.8828617" lon="12.5373633"><ele>290.3333333333333</ele><time>2026-04-26T09:55:48.937Z</time></trkpt><trkpt lat="43.88302" lon="12.5375017"><ele>289.0</ele><time>2026-04-26T09:55:49.937Z</time></trkpt><trkpt lat="43.8831717" lon="12.537665"><ele>289.0</ele><time>2026-04-26T09:55:50.936Z</time></trkpt><trkpt lat="43.88331" lon="12.5378433"><ele>289.0</ele><time>2026-04-26T09:55:51.937Z</time></trkpt><trkpt lat="43.8834417" lon="12.5380217"><ele>289.0</ele><time>2026-04-26T09:55:52.937Z</time></trkpt><trkpt lat="43.883545" lon="12.5382183"><ele>288.66666666666663</ele><time>2026-04-26T09:55:53.936Z</time></trkpt><trkpt lat="43.8836217" lon="12.53842"><ele>288.3333333333333</ele><time>2026-04-26T09:55:54.937Z</time></trkpt><trkpt lat="43.883715" lon="12.5386"><ele>288.0</ele><time>2026-04-26T09:55:55.936Z</time></trkpt><trkpt lat="43.8838333" lon="12.53875"><ele>288.0</ele><time>2026-04-26T09:55:56.937Z</time></trkpt><trkpt lat="43.88395" lon="12.538885"><ele>288.0</ele><time>2026-04-26T09:55:57.937Z</time></trkpt><trkpt lat="43.8840567" lon="12.5389967"><ele>288.0</ele><time>2026-04-26T09:55:58.937Z</time></trkpt><trkpt lat="43.884165" lon="12.5390617"><ele>288.0</ele><time>2026-04-26T09:55:59.936Z</time></trkpt><trkpt lat="43.8842667" lon="12.5390917"><ele>286.4</ele><time>2026-04-26T09:56:00.937Z</time></trkpt><trkpt lat="43.8843583" lon="12.5390767"><ele>284.8</ele><time>2026-04-26T09:56:01.937Z</time></trkpt><trkpt lat="43.8844367" lon="12.5390033"><ele>283.2</ele><time>2026-04-26T09:56:02.936Z</time></trkpt><trkpt lat="43.884495" lon="12.5388767"><ele>281.6</ele><time>2026-04-26T09:56:03.936Z</time></trkpt><trkpt lat="43.884535" lon="12.53871"><ele>280.0</ele><time>2026-04-26T09:56:04.937Z</time></trkpt><trkpt lat="43.88456" lon="12.5385217"><ele>277.25</ele><time>2026-04-26T09:56:05.937Z</time></trkpt><trkpt lat="43.8845917" lon="12.5383367"><ele>274.5</ele><time>2026-04-26T09:56:06.936Z</time></trkpt><trkpt lat="43.88462" lon="12.5381567"><ele>271.75</ele><time>2026-04-26T09:56:07.937Z</time></trkpt><trkpt lat="43.8846383" lon="12.5379833"><ele>269.0</ele><time>2026-04-26T09:56:08.937Z</time></trkpt><trkpt lat="43.88463" lon="12.5378167"><ele>267.75</ele><time>2026-04-26T09:56:09.937Z</time></trkpt><trkpt lat="43.8845867" lon="12.5376633"><ele>266.5</ele><time>2026-04-26T09:56:10.936Z</time></trkpt><trkpt lat="43.8845167" lon="12.5375267"><ele>265.25</ele><time>2026-04-26T09:56:11.937Z</time></trkpt><trkpt lat="43.8844333" lon="12.5373967"><ele>264.0</ele><time>2026-04-26T09:56:12.937Z</time></trkpt><trkpt lat="43.8843433" lon="12.5372717"><ele>264.75</ele><time>2026-04-26T09:56:13.937Z</time></trkpt><trkpt lat="43.884255" lon="12.5371417"><ele>265.5</ele><time>2026-04-26T09:56:14.936Z</time></trkpt><trkpt lat="43.8841667" lon="12.537005"><ele>266.25</ele><time>2026-04-26T09:56:15.937Z</time></trkpt><trkpt lat="43.884075" lon="12.5368683"><ele>267.0</ele><time>2026-04-26T09:56:16.937Z</time></trkpt><trkpt lat="43.8839833" lon="12.5367383"><ele>267.0</ele><time>2026-04-26T09:56:17.937Z</time></trkpt><trkpt lat="43.8839" lon="12.536615"><ele>267.0</ele><time>2026-04-26T09:56:18.937Z</time></trkpt><trkpt lat="43.883845" lon="12.5364917"><ele>267.0</ele><time>2026-04-26T09:56:19.936Z</time></trkpt><trkpt lat="43.8838317" lon="12.53636"><ele>267.0</ele><time>2026-04-26T09:56:20.937Z</time></trkpt><trkpt lat="43.88386" lon="12.5362267"><ele>267.0</ele><time>2026-04-26T09:56:21.937Z</time></trkpt><trkpt lat="43.8839117" lon="12.5361133"><ele>264.6</ele><time>2026-04-26T09:56:22.937Z</time></trkpt><trkpt lat="43.883985" lon="12.53604"><ele>262.2</ele><time>2026-04-26T09:56:23.937Z</time></trkpt><trkpt lat="43.8840783" lon="12.536025"><ele>259.8</ele><time>2026-04-26T09:56:24.937Z</time></trkpt><trkpt lat="43.8841683" lon="12.53606"><ele>257.4</ele><time>2026-04-26T09:56:25.936Z</time></trkpt><trkpt lat="43.8842567" lon="12.5361233"><ele>255.0</ele><time>2026-04-26T09:56:26.937Z</time></trkpt><trkpt lat="43.8843433" lon="12.5361717"><ele>252.2</ele><time>2026-04-26T09:56:27.936Z</time></trkpt><trkpt lat="43.8844217" lon="12.53621"><ele>249.4</ele><time>2026-04-26T09:56:28.937Z</time></trkpt><trkpt lat="43.8845017" lon="12.5361883"><ele>246.60000000000002</ele><time>2026-04-26T09:56:29.937Z</time></trkpt><trkpt lat="43.8845867" lon="12.5361433"><ele>243.8</ele><time>2026-04-26T09:56:30.937Z</time></trkpt><trkpt lat="43.8846817" lon="12.5361317"><ele>241.0</ele><time>2026-04-26T09:56:31.937Z</time></trkpt><trkpt lat="43.8847933" lon="12.5361"><ele>241.0</ele><time>2026-04-26T09:56:32.936Z</time></trkpt><trkpt lat="43.8849117" lon="12.5360767"><ele>241.0</ele><time>2026-04-26T09:56:33.936Z</time></trkpt><trkpt lat="43.8850333" lon="12.5360883"><ele>241.0</ele><time>2026-04-26T09:56:34.937Z</time></trkpt><trkpt lat="43.8851517" lon="12.5361383"><ele>241.0</ele><time>2026-04-26T09:56:35.937Z</time></trkpt><trkpt lat="43.8852667" lon="12.5362133"><ele>239.4</ele><time>2026-04-26T09:56:36.937Z</time></trkpt><trkpt lat="43.8853817" lon="12.53628"><ele>237.8</ele><time>2026-04-26T09:56:37.937Z</time></trkpt><trkpt lat="43.88549" lon="12.5363367"><ele>236.20000000000002</ele><time>2026-04-26T09:56:38.937Z</time></trkpt><trkpt lat="43.885585" lon="12.5363717"><ele>234.60000000000002</ele><time>2026-04-26T09:56:39.937Z</time></trkpt><trkpt lat="43.8856667" lon="12.5363767"><ele>233.0</ele><time>2026-04-26T09:56:40.936Z</time></trkpt><trkpt lat="43.8857383" lon="12.53634"><ele>233.0</ele><time>2026-04-26T09:56:41.937Z</time></trkpt><trkpt lat="43.8857933" lon="12.5362767"><ele>233.0</ele><time>2026-04-26T09:56:42.936Z</time></trkpt><trkpt lat="43.8858133" lon="12.5361717"><ele>233.0</ele><time>2026-04-26T09:56:43.937Z</time></trkpt><trkpt lat="43.8857917" lon="12.5360317"><ele>233.0</ele><time>2026-04-26T09:56:44.936Z</time></trkpt><trkpt lat="43.885745" lon="12.53589"><ele>233.0</ele><time>2026-04-26T09:56:45.937Z</time></trkpt><trkpt lat="43.8856817" lon="12.5357333"><ele>230.75</ele><time>2026-04-26T09:56:46.937Z</time></trkpt><trkpt lat="43.8856167" lon="12.5355683"><ele>228.5</ele><time>2026-04-26T09:56:47.937Z</time></trkpt><trkpt lat="43.885545" lon="12.53539"><ele>226.25</ele><time>2026-04-26T09:56:48.937Z</time></trkpt><trkpt lat="43.8854667" lon="12.5352167"><ele>224.0</ele><time>2026-04-26T09:56:49.937Z</time></trkpt><trkpt lat="43.88538" lon="12.5350483"><ele>222.0</ele><time>2026-04-26T09:56:50.937Z</time></trkpt><trkpt lat="43.88529" lon="12.5348817"><ele>220.0</ele><time>2026-04-26T09:56:51.937Z</time></trkpt><trkpt lat="43.8852017" lon="12.5347183"><ele>218.0</ele><time>2026-04-26T09:56:52.937Z</time></trkpt><trkpt lat="43.8851217" lon="12.5345567"><ele>216.0</ele><time>2026-04-26T09:56:53.936Z</time></trkpt><trkpt lat="43.8850417" lon="12.5344017"><ele>216.0</ele><time>2026-04-26T09:56:54.937Z</time></trkpt><trkpt lat="43.8849617" lon="12.5342583"><ele>216.0</ele><time>2026-04-26T09:56:55.936Z</time></trkpt><trkpt lat="43.884885" lon="12.5341117"><ele>216.0</ele><time>2026-04-26T09:56:56.937Z</time></trkpt><trkpt lat="43.8848083" lon="12.5339617"><ele>216.0</ele><time>2026-04-26T09:56:57.937Z</time></trkpt><trkpt lat="43.8847317" lon="12.5338133"><ele>214.25</ele><time>2026-04-26T09:56:58.937Z</time></trkpt><trkpt lat="43.8846517" lon="12.53367"><ele>212.5</ele><time>2026-04-26T09:56:59.937Z</time></trkpt><trkpt lat="43.8845583" lon="12.5335283"><ele>210.75</ele><time>2026-04-26T09:57:00.937Z</time></trkpt><trkpt lat="43.8844583" lon="12.5333833"><ele>209.0</ele><time>2026-04-26T09:57:01.937Z</time></trkpt><trkpt lat="43.884355" lon="12.533235"><ele>209.75</ele><time>2026-04-26T09:57:02.936Z</time></trkpt><trkpt lat="43.8842567" lon="12.5330767"><ele>210.5</ele><time>2026-04-26T09:57:03.937Z</time></trkpt><trkpt lat="43.8841667" lon="12.5329133"><ele>211.25</ele><time>2026-04-26T09:57:04.936Z</time></trkpt><trkpt lat="43.8840833" lon="12.53275"><ele>212.0</ele><time>2026-04-26T09:57:05.937Z</time></trkpt><trkpt lat="43.88401" lon="12.53258"><ele>212.0</ele><time>2026-04-26T09:57:06.937Z</time></trkpt><trkpt lat="43.88395" lon="12.5324"><ele>212.0</ele><time>2026-04-26T09:57:07.937Z</time></trkpt><trkpt lat="43.8838933" lon="12.5322217"><ele>212.0</ele><time>2026-04-26T09:57:08.936Z</time></trkpt><trkpt lat="43.883835" lon="12.5320517"><ele>212.0</ele><time>2026-04-26T09:57:09.937Z</time></trkpt><trkpt lat="43.8837817" lon="12.5318883"><ele>211.6</ele><time>2026-04-26T09:57:10.937Z</time></trkpt><trkpt lat="43.8837367" lon="12.5317367"><ele>211.2</ele><time>2026-04-26T09:57:11.937Z</time></trkpt><trkpt lat="43.8837017" lon="12.5316033"><ele>210.8</ele><time>2026-04-26T09:57:12.937Z</time></trkpt><trkpt lat="43.8836817" lon="12.5314883"><ele>210.4</ele><time>2026-04-26T09:57:13.937Z</time></trkpt><trkpt lat="43.8836717" lon="12.5313917"><ele>210.0</ele><time>2026-04-26T09:57:14.936Z</time></trkpt><trkpt lat="43.8836683" lon="12.5312267"><ele>210.0</ele><time>2026-04-26T09:57:16.936Z</time></trkpt><trkpt lat="43.8836283" lon="12.5310817"><ele>210.0</ele><time>2026-04-26T09:57:18.937Z</time></trkpt><trkpt lat="43.8835817" lon="12.5310133"><ele>210.0</ele><time>2026-04-26T09:57:19.937Z</time></trkpt><trkpt lat="43.883525" lon="12.530945"><ele>210.0</ele><time>2026-04-26T09:57:20.937Z</time></trkpt><trkpt lat="43.8834633" lon="12.5308733"><ele>210.0</ele><time>2026-04-26T09:57:21.937Z</time></trkpt><trkpt lat="43.8833983" lon="12.5307967"><ele>210.0</ele><time>2026-04-26T09:57:22.937Z</time></trkpt><trkpt lat="43.8833367" lon="12.5307183"><ele>210.14285714285714</ele><time>2026-04-26T09:57:23.937Z</time></trkpt><trkpt lat="43.8832817" lon="12.5306367"><ele>210.28571428571428</ele><time>2026-04-26T09:57:24.937Z</time></trkpt><trkpt lat="43.883245" lon="12.53055"><ele>210.42857142857144</ele><time>2026-04-26T09:57:25.937Z</time></trkpt><trkpt lat="43.883235" lon="12.5304633"><ele>210.57142857142856</ele><time>2026-04-26T09:57:26.937Z</time></trkpt><trkpt lat="43.8832533" lon="12.5303767"><ele>210.71428571428572</ele><time>2026-04-26T09:57:27.936Z</time></trkpt><trkpt lat="43.8832917" lon="12.5302883"><ele>210.85714285714286</ele><time>2026-04-26T09:57:28.936Z</time></trkpt><trkpt lat="43.8833483" lon="12.5302"><ele>211.0</ele><time>2026-04-26T09:57:29.937Z</time></trkpt><trkpt lat="43.8833983" lon="12.5301033"><ele>210.66666666666666</ele><time>2026-04-26T09:57:30.936Z</time></trkpt><trkpt lat="43.8834367" lon="12.53"><ele>210.33333333333331</ele><time>2026-04-26T09:57:31.937Z</time></trkpt><trkpt lat="43.8834783" lon="12.5298933"><ele>210.0</ele><time>2026-04-26T09:57:32.936Z</time></trkpt><trkpt lat="43.8835167" lon="12.5297883"><ele>209.66666666666669</ele><time>2026-04-26T09:57:33.937Z</time></trkpt><trkpt lat="43.8835517" lon="12.5296833"><ele>209.33333333333334</ele><time>2026-04-26T09:57:34.937Z</time></trkpt><trkpt lat="43.8835817" lon="12.529575"><ele>209.0</ele><time>2026-04-26T09:57:35.937Z</time></trkpt><trkpt lat="43.8836" lon="12.52947"><ele>208.79999999999998</ele><time>2026-04-26T09:57:36.937Z</time></trkpt><trkpt lat="43.8836" lon="12.5293733"><ele>208.6</ele><time>2026-04-26T09:57:37.936Z</time></trkpt><trkpt lat="43.8836033" lon="12.529285"><ele>208.4</ele><time>2026-04-26T09:57:38.937Z</time></trkpt><trkpt lat="43.8836167" lon="12.52914"><ele>208.2</ele><time>2026-04-26T09:57:40.937Z</time></trkpt><trkpt lat="43.8836633" lon="12.5290167"><ele>208.0</ele><time>2026-04-26T09:57:42.937Z</time></trkpt><trkpt lat="43.8837383" lon="12.5288967"><ele>207.99999999999997</ele><time>2026-04-26T09:57:44.937Z</time></trkpt><trkpt lat="43.8837833" lon="12.528825"><ele>208.0</ele><time>2026-04-26T09:57:45.937Z</time></trkpt><trkpt lat="43.8838283" lon="12.5287433"><ele>208.0</ele><time>2026-04-26T09:57:46.937Z</time></trkpt><trkpt lat="43.8838767" lon="12.5286567"><ele>208.0</ele><time>2026-04-26T09:57:47.937Z</time></trkpt><trkpt lat="43.8839317" lon="12.528565"><ele>207.99999999999997</ele><time>2026-04-26T09:57:48.936Z</time></trkpt><trkpt lat="43.883985" lon="12.5284717"><ele>208.0</ele><time>2026-04-26T09:57:49.937Z</time></trkpt><trkpt lat="43.8840417" lon="12.528375"><ele>208.2</ele><time>2026-04-26T09:57:50.937Z</time></trkpt><trkpt lat="43.8841033" lon="12.5282717"><ele>208.4</ele><time>2026-04-26T09:57:51.936Z</time></trkpt><trkpt lat="43.8841733" lon="12.52816"><ele>208.6</ele><time>2026-04-26T09:57:52.937Z</time></trkpt><trkpt lat="43.8842433" lon="12.528035"><ele>208.79999999999998</ele><time>2026-04-26T09:57:53.937Z</time></trkpt><trkpt lat="43.8843133" lon="12.5279017"><ele>209.0</ele><time>2026-04-26T09:57:54.937Z</time></trkpt><trkpt lat="43.88438" lon="12.5277583"><ele>209.2</ele><time>2026-04-26T09:57:55.936Z</time></trkpt><trkpt lat="43.8844483" lon="12.5276183"><ele>209.39999999999998</ele><time>2026-04-26T09:57:56.936Z</time></trkpt><trkpt lat="43.8845067" lon="12.5274767"><ele>209.6</ele><time>2026-04-26T09:57:57.937Z</time></trkpt><trkpt lat="43.88456" lon="12.5273467"><ele>209.8</ele><time>2026-04-26T09:57:58.936Z</time></trkpt><trkpt lat="43.8846167" lon="12.527235"><ele>210.0</ele><time>2026-04-26T09:57:59.937Z</time></trkpt><trkpt lat="43.8846733" lon="12.527145"><ele>210.0</ele><time>2026-04-26T09:58:00.936Z</time></trkpt><trkpt lat="43.884715" lon="12.527065"><ele>210.0</ele><time>2026-04-26T09:58:01.937Z</time></trkpt><trkpt lat="43.8847867" lon="12.5269817"><ele>210.0</ele><time>2026-04-26T09:58:03.937Z</time></trkpt><trkpt lat="43.8848567" lon="12.5269483"><ele>210.0</ele><time>2026-04-26T09:58:17.937Z</time></trkpt><trkpt lat="43.884915" lon="12.5268533"><ele>210.0</ele><time>2026-04-26T09:58:20.937Z</time></trkpt><trkpt lat="43.8849733" lon="12.5267367"><ele>210.0</ele><time>2026-04-26T09:58:22.937Z</time></trkpt><trkpt lat="43.8849283" lon="12.5266083"><ele>210.0</ele><time>2026-04-26T09:58:24.936Z</time></trkpt><trkpt lat="43.8848283" lon="12.52658"><ele>210.0</ele><time>2026-04-26T09:58:26.937Z</time></trkpt><trkpt lat="43.8847517" lon="12.5267117"><ele>210.0</ele><time>2026-04-26T09:58:28.936Z</time></trkpt><trkpt lat="43.8847267" lon="12.5268117"><ele>210.0</ele><time>2026-04-26T09:58:29.937Z</time></trkpt><trkpt lat="43.884705" lon="12.5269433"><ele>210.0</ele><time>2026-04-26T09:58:30.937Z</time></trkpt><trkpt lat="43.8846617" lon="12.52709"><ele>210.0</ele><time>2026-04-26T09:58:31.937Z</time></trkpt><trkpt lat="43.8845883" lon="12.527245"><ele>210.0</ele><time>2026-04-26T09:58:32.937Z</time></trkpt><trkpt lat="43.8845067" lon="12.5273983"><ele>210.0</ele><time>2026-04-26T09:58:33.936Z</time></trkpt><trkpt lat="43.8844217" lon="12.5275583"><ele>210.0</ele><time>2026-04-26T09:58:34.936Z</time></trkpt><trkpt lat="43.8843417" lon="12.52773"><ele>210.0</ele><time>2026-04-26T09:58:35.937Z</time></trkpt><trkpt lat="43.8842633" lon="12.5279"><ele>210.0</ele><time>2026-04-26T09:58:36.937Z</time></trkpt><trkpt lat="43.884185" lon="12.5280567"><ele>210.0</ele><time>2026-04-26T09:58:37.937Z</time></trkpt><trkpt lat="43.884095" lon="12.5282033"><ele>210.0</ele><time>2026-04-26T09:58:38.937Z</time></trkpt><trkpt lat="43.8840067" lon="12.5283567"><ele>210.0</ele><time>2026-04-26T09:58:39.936Z</time></trkpt><trkpt lat="43.8839217" lon="12.52851"><ele>210.0</ele><time>2026-04-26T09:58:40.936Z</time></trkpt><trkpt lat="43.8838367" lon="12.52865"><ele>210.0</ele><time>2026-04-26T09:58:41.936Z</time></trkpt><trkpt lat="43.8837633" lon="12.5287833"><ele>210.0</ele><time>2026-04-26T09:58:42.936Z</time></trkpt><trkpt lat="43.8837" lon="12.5289017"><ele>210.16666666666666</ele><time>2026-04-26T09:58:43.937Z</time></trkpt><trkpt lat="43.8836567" lon="12.529"><ele>210.33333333333331</ele><time>2026-04-26T09:58:44.937Z</time></trkpt><trkpt lat="43.8836083" lon="12.52906"><ele>210.5</ele><time>2026-04-26T09:58:45.937Z</time></trkpt><trkpt lat="43.883515" lon="12.52909"><ele>210.66666666666666</ele><time>2026-04-26T09:58:47.937Z</time></trkpt><trkpt lat="43.883425" lon="12.52897"><ele>210.83333333333331</ele><time>2026-04-26T09:58:49.937Z</time></trkpt><trkpt lat="43.88338" lon="12.5288983"><ele>211.0</ele><time>2026-04-26T09:58:50.936Z</time></trkpt><trkpt lat="43.8833433" lon="12.5288083"><ele>211.20000000000002</ele><time>2026-04-26T09:58:51.936Z</time></trkpt><trkpt lat="43.8833133" lon="12.528715"><ele>211.4</ele><time>2026-04-26T09:58:52.937Z</time></trkpt><trkpt lat="43.8832967" lon="12.5286217"><ele>211.6</ele><time>2026-04-26T09:58:53.937Z</time></trkpt><trkpt lat="43.8832567" lon="12.5284717"><ele>211.8</ele><time>2026-04-26T09:58:55.937Z</time></trkpt><trkpt lat="43.88319" lon="12.5283583"><ele>212.0</ele><time>2026-04-26T09:58:57.936Z</time></trkpt><trkpt lat="43.883105" lon="12.5282517"><ele>212.00000000000003</ele><time>2026-04-26T09:58:59.937Z</time></trkpt><trkpt lat="43.8830383" lon="12.5282217"><ele>212.0</ele><time>2026-04-26T09:59:00.936Z</time></trkpt><trkpt lat="43.8829617" lon="12.5281883"><ele>212.0</ele><time>2026-04-26T09:59:01.937Z</time></trkpt><trkpt lat="43.882875" lon="12.528155"><ele>212.0</ele><time>2026-04-26T09:59:02.937Z</time></trkpt><trkpt lat="43.8827867" lon="12.528125"><ele>212.00000000000003</ele><time>2026-04-26T09:59:03.937Z</time></trkpt><trkpt lat="43.8827" lon="12.52809"><ele>212.0</ele><time>2026-04-26T09:59:04.937Z</time></trkpt><trkpt lat="43.88261" lon="12.5280583"><ele>211.83333333333334</ele><time>2026-04-26T09:59:05.937Z</time></trkpt><trkpt lat="43.8825167" lon="12.5280333"><ele>211.66666666666669</ele><time>2026-04-26T09:59:06.937Z</time></trkpt><trkpt lat="43.8824267" lon="12.5280083"><ele>211.5</ele><time>2026-04-26T09:59:07.936Z</time></trkpt><trkpt lat="43.88234" lon="12.5279717"><ele>211.33333333333331</ele><time>2026-04-26T09:59:08.937Z</time></trkpt><trkpt lat="43.8822633" lon="12.52793"><ele>211.16666666666666</ele><time>2026-04-26T09:59:09.937Z</time></trkpt><trkpt lat="43.8821867" lon="12.52788"><ele>211.0</ele><time>2026-04-26T09:59:10.937Z</time></trkpt><trkpt lat="43.8821083" lon="12.52782"><ele>211.0</ele><time>2026-04-26T09:59:11.937Z</time></trkpt><trkpt lat="43.8820317" lon="12.5277483"><ele>211.0</ele><time>2026-04-26T09:59:12.937Z</time></trkpt><trkpt lat="43.8819617" lon="12.527675"><ele>211.0</ele><time>2026-04-26T09:59:13.937Z</time></trkpt><trkpt lat="43.8818917" lon="12.5275883"><ele>211.0</ele><time>2026-04-26T09:59:14.937Z</time></trkpt><trkpt lat="43.8818217" lon="12.527495"><ele>211.0</ele><time>2026-04-26T09:59:15.937Z</time></trkpt><trkpt lat="43.8817533" lon="12.5274033"><ele>211.60000000000002</ele><time>2026-04-26T09:59:16.937Z</time></trkpt><trkpt lat="43.8816933" lon="12.5273067"><ele>212.2</ele><time>2026-04-26T09:59:17.937Z</time></trkpt><trkpt lat="43.8816367" lon="12.5272017"><ele>212.79999999999998</ele><time>2026-04-26T09:59:18.937Z</time></trkpt><trkpt lat="43.88158" lon="12.5270917"><ele>213.39999999999998</ele><time>2026-04-26T09:59:19.936Z</time></trkpt><trkpt lat="43.8815283" lon="12.526985"><ele>214.0</ele><time>2026-04-26T09:59:20.937Z</time></trkpt><trkpt lat="43.881475" lon="12.5268733"><ele>214.0</ele><time>2026-04-26T09:59:21.937Z</time></trkpt><trkpt lat="43.8814267" lon="12.52675"><ele>213.99999999999997</ele><time>2026-04-26T09:59:22.936Z</time></trkpt><trkpt lat="43.88138" lon="12.52662"><ele>213.99999999999997</ele><time>2026-04-26T09:59:23.937Z</time></trkpt><trkpt lat="43.8813283" lon="12.526485"><ele>214.0</ele><time>2026-04-26T09:59:24.936Z</time></trkpt><trkpt lat="43.881285" lon="12.5263433"><ele>214.0</ele><time>2026-04-26T09:59:25.936Z</time></trkpt><trkpt lat="43.8812433" lon="12.5261983"><ele>214.0</ele><time>2026-04-26T09:59:26.936Z</time></trkpt><trkpt lat="43.8811983" lon="12.5260533"><ele>213.99999999999997</ele><time>2026-04-26T09:59:27.937Z</time></trkpt><trkpt lat="43.8811567" lon="12.525905"><ele>213.99999999999997</ele><time>2026-04-26T09:59:28.937Z</time></trkpt><trkpt lat="43.88112" lon="12.525765"><ele>214.0</ele><time>2026-04-26T09:59:29.937Z</time></trkpt><trkpt lat="43.88109" lon="12.5256417"><ele>214.0</ele><time>2026-04-26T09:59:30.937Z</time></trkpt><trkpt lat="43.8810683" lon="12.52552"><ele>213.79999999999998</ele><time>2026-04-26T09:59:31.937Z</time></trkpt><trkpt lat="43.8810533" lon="12.5253917"><ele>213.59999999999997</ele><time>2026-04-26T09:59:32.937Z</time></trkpt><trkpt lat="43.8810417" lon="12.52527"><ele>213.4</ele><time>2026-04-26T09:59:33.936Z</time></trkpt><trkpt lat="43.8810317" lon="12.52515"><ele>213.2</ele><time>2026-04-26T09:59:34.937Z</time></trkpt><trkpt lat="43.8810283" lon="12.5250233"><ele>213.0</ele><time>2026-04-26T09:59:35.936Z</time></trkpt><trkpt lat="43.88102" lon="12.5248867"><ele>213.0</ele><time>2026-04-26T09:59:36.936Z</time></trkpt><trkpt lat="43.881" lon="12.524735"><ele>213.0</ele><time>2026-04-26T09:59:37.937Z</time></trkpt><trkpt lat="43.8809833" lon="12.5245817"><ele>213.0</ele><time>2026-04-26T09:59:38.936Z</time></trkpt><trkpt lat="43.8809733" lon="12.5244367"><ele>213.0</ele><time>2026-04-26T09:59:39.936Z</time></trkpt><trkpt lat="43.8809633" lon="12.5242917"><ele>213.0</ele><time>2026-04-26T09:59:40.936Z</time></trkpt><trkpt lat="43.8809533" lon="12.524165"><ele>213.33333333333334</ele><time>2026-04-26T09:59:41.937Z</time></trkpt><trkpt lat="43.8809497" lon="12.5240564"><ele>213.66666666666669</ele><time>2026-04-26T09:59:42.937Z</time></trkpt><trkpt lat="43.8809576" lon="12.5239619"><ele>214.0</ele><time>2026-04-26T09:59:43.936Z</time></trkpt><trkpt lat="43.8809701" lon="12.5238657"><ele>214.33333333333334</ele><time>2026-04-26T09:59:44.937Z</time></trkpt><trkpt lat="43.8809792" lon="12.5237689"><ele>214.66666666666669</ele><time>2026-04-26T09:59:45.936Z</time></trkpt><trkpt lat="43.8809897" lon="12.523616"><ele>215.0</ele><time>2026-04-26T09:59:47.937Z</time></trkpt><trkpt lat="43.8809727" lon="12.5234541"><ele>215.0</ele><time>2026-04-26T09:59:49.937Z</time></trkpt><trkpt lat="43.8809639" lon="12.5233589"><ele>215.0</ele><time>2026-04-26T09:59:50.937Z</time></trkpt><trkpt lat="43.8809556" lon="12.5232554"><ele>215.0</ele><time>2026-04-26T09:59:51.937Z</time></trkpt><trkpt lat="43.8809535" lon="12.5231463"><ele>215.0</ele><time>2026-04-26T09:59:52.937Z</time></trkpt><trkpt lat="43.8809551" lon="12.5230441"><ele>215.0</ele><time>2026-04-26T09:59:53.937Z</time></trkpt><trkpt lat="43.8809532" lon="12.522949"><ele>215.0</ele><time>2026-04-26T09:59:54.937Z</time></trkpt><trkpt lat="43.8809462" lon="12.522856"><ele>215.0</ele><time>2026-04-26T09:59:55.937Z</time></trkpt><trkpt lat="43.880927" lon="12.522767"><ele>215.66666666666669</ele><time>2026-04-26T09:59:56.937Z</time></trkpt><trkpt lat="43.880898" lon="12.5226883"><ele>216.33333333333334</ele><time>2026-04-26T09:59:57.937Z</time></trkpt><trkpt lat="43.8808356" lon="12.5225345"><ele>217.0</ele><time>2026-04-26T09:59:59.936Z</time></trkpt><trkpt lat="43.8807965" lon="12.522452"><ele>217.66666666666669</ele><time>2026-04-26T10:00:00.936Z</time></trkpt><trkpt lat="43.8807588" lon="12.5223689"><ele>218.33333333333334</ele><time>2026-04-26T10:00:01.937Z</time></trkpt><trkpt lat="43.8807197" lon="12.5222717"><ele>219.0</ele><time>2026-04-26T10:00:02.937Z</time></trkpt><trkpt lat="43.8806819" lon="12.5221609"><ele>219.0</ele><time>2026-04-26T10:00:03.937Z</time></trkpt><trkpt lat="43.8806424" lon="12.5220405"><ele>218.99999999999997</ele><time>2026-04-26T10:00:04.937Z</time></trkpt><trkpt lat="43.8805986" lon="12.5219139"><ele>218.99999999999997</ele><time>2026-04-26T10:00:05.937Z</time></trkpt><trkpt lat="43.8805542" lon="12.5217899"><ele>219.0</ele><time>2026-04-26T10:00:06.937Z</time></trkpt><trkpt lat="43.8805143" lon="12.5216641"><ele>219.0</ele><time>2026-04-26T10:00:07.937Z</time></trkpt><trkpt lat="43.8804779" lon="12.521534"><ele>219.0</ele><time>2026-04-26T10:00:08.937Z</time></trkpt><trkpt lat="43.8804372" lon="12.5214033"><ele>219.0</ele><time>2026-04-26T10:00:09.936Z</time></trkpt><trkpt lat="43.8803916" lon="12.5212689"><ele>219.0</ele><time>2026-04-26T10:00:10.936Z</time></trkpt><trkpt lat="43.8803483" lon="12.5211222"><ele>219.0</ele><time>2026-04-26T10:00:11.937Z</time></trkpt><trkpt lat="43.8803061" lon="12.5209572"><ele>219.0</ele><time>2026-04-26T10:00:12.937Z</time></trkpt><trkpt lat="43.8802602" lon="12.5207823"><ele>219.0</ele><time>2026-04-26T10:00:13.937Z</time></trkpt><trkpt lat="43.8802158" lon="12.5206132"><ele>219.0</ele><time>2026-04-26T10:00:14.937Z</time></trkpt><trkpt lat="43.8801807" lon="12.5204581"><ele>219.0</ele><time>2026-04-26T10:00:15.936Z</time></trkpt><trkpt lat="43.8801593" lon="12.5203072"><ele>219.5</ele><time>2026-04-26T10:00:16.937Z</time></trkpt><trkpt lat="43.8801528" lon="12.5201515"><ele>220.0</ele><time>2026-04-26T10:00:17.937Z</time></trkpt><trkpt lat="43.8801521" lon="12.5199879"><ele>220.5</ele><time>2026-04-26T10:00:18.937Z</time></trkpt><trkpt lat="43.8801503" lon="12.5198225"><ele>221.0</ele><time>2026-04-26T10:00:19.937Z</time></trkpt><trkpt lat="43.8801482" lon="12.519659"><ele>221.25</ele><time>2026-04-26T10:00:20.937Z</time></trkpt><trkpt lat="43.8801428" lon="12.5194951"><ele>221.5</ele><time>2026-04-26T10:00:21.937Z</time></trkpt><trkpt lat="43.8801402" lon="12.5193351"><ele>221.75</ele><time>2026-04-26T10:00:22.937Z</time></trkpt><trkpt lat="43.8801443" lon="12.5191738"><ele>222.0</ele><time>2026-04-26T10:00:23.936Z</time></trkpt><trkpt lat="43.8801566" lon="12.5190083"><ele>222.0</ele><time>2026-04-26T10:00:24.937Z</time></trkpt><trkpt lat="43.8801673" lon="12.5188299"><ele>222.0</ele><time>2026-04-26T10:00:25.936Z</time></trkpt><trkpt lat="43.8801754" lon="12.5186496"><ele>222.0</ele><time>2026-04-26T10:00:26.937Z</time></trkpt><trkpt lat="43.8801788" lon="12.5184693"><ele>222.0</ele><time>2026-04-26T10:00:27.937Z</time></trkpt><trkpt lat="43.8801785" lon="12.5182917"><ele>222.25</ele><time>2026-04-26T10:00:28.936Z</time></trkpt><trkpt lat="43.8801765" lon="12.5181135"><ele>222.5</ele><time>2026-04-26T10:00:29.937Z</time></trkpt><trkpt lat="43.8801701" lon="12.5179439"><ele>222.75</ele><time>2026-04-26T10:00:30.937Z</time></trkpt><trkpt lat="43.8801628" lon="12.5177685"><ele>223.0</ele><time>2026-04-26T10:00:31.937Z</time></trkpt><trkpt lat="43.8801557" lon="12.5175785"><ele>223.5</ele><time>2026-04-26T10:00:32.937Z</time></trkpt><trkpt lat="43.8801483" lon="12.5173887"><ele>224.0</ele><time>2026-04-26T10:00:33.937Z</time></trkpt><trkpt lat="43.8801404" lon="12.5172135"><ele>224.5</ele><time>2026-04-26T10:00:34.937Z</time></trkpt><trkpt lat="43.8801264" lon="12.5170502"><ele>225.0</ele><time>2026-04-26T10:00:35.937Z</time></trkpt><trkpt lat="43.8801031" lon="12.5169"><ele>225.4</ele><time>2026-04-26T10:00:36.937Z</time></trkpt><trkpt lat="43.8800674" lon="12.516775"><ele>225.8</ele><time>2026-04-26T10:00:37.937Z</time></trkpt><trkpt lat="43.8800139" lon="12.5166747"><ele>226.2</ele><time>2026-04-26T10:00:38.937Z</time></trkpt><trkpt lat="43.8799395" lon="12.5165959"><ele>226.6</ele><time>2026-04-26T10:00:39.937Z</time></trkpt><trkpt lat="43.8798455" lon="12.5165356"><ele>227.0</ele><time>2026-04-26T10:00:40.937Z</time></trkpt><trkpt lat="43.879738" lon="12.516486"><ele>227.0</ele><time>2026-04-26T10:00:41.937Z</time></trkpt><trkpt lat="43.8796219" lon="12.5164457"><ele>227.0</ele><time>2026-04-26T10:00:42.936Z</time></trkpt><trkpt lat="43.8794969" lon="12.5164218"><ele>227.0</ele><time>2026-04-26T10:00:43.937Z</time></trkpt><trkpt lat="43.8793748" lon="12.516408"><ele>227.0</ele><time>2026-04-26T10:00:44.936Z</time></trkpt><trkpt lat="43.8792718" lon="12.5163864"><ele>227.5</ele><time>2026-04-26T10:00:45.937Z</time></trkpt><trkpt lat="43.8791863" lon="12.5163387"><ele>228.0</ele><time>2026-04-26T10:00:46.937Z</time></trkpt><trkpt lat="43.8791047" lon="12.5162517"><ele>228.5</ele><time>2026-04-26T10:00:47.937Z</time></trkpt><trkpt lat="43.8790167" lon="12.5161301"><ele>229.0</ele><time>2026-04-26T10:00:48.937Z</time></trkpt><trkpt lat="43.8789221" lon="12.5159966"><ele>229.75</ele><time>2026-04-26T10:00:49.936Z</time></trkpt><trkpt lat="43.8788283" lon="12.5158647"><ele>230.5</ele><time>2026-04-26T10:00:50.937Z</time></trkpt><trkpt lat="43.8787341" lon="12.5157305"><ele>231.25</ele><time>2026-04-26T10:00:51.936Z</time></trkpt><trkpt lat="43.878637" lon="12.5155986"><ele>232.0</ele><time>2026-04-26T10:00:52.936Z</time></trkpt><trkpt lat="43.8785372" lon="12.5154796"><ele>232.25</ele><time>2026-04-26T10:00:53.937Z</time></trkpt><trkpt lat="43.8784379" lon="12.5153816"><ele>232.5</ele><time>2026-04-26T10:00:54.936Z</time></trkpt><trkpt lat="43.8783376" lon="12.5152945"><ele>232.75</ele><time>2026-04-26T10:00:55.937Z</time></trkpt><trkpt lat="43.8782356" lon="12.5152166"><ele>233.0</ele><time>2026-04-26T10:00:56.937Z</time></trkpt><trkpt lat="43.8781424" lon="12.5151492"><ele>233.0</ele><time>2026-04-26T10:00:57.937Z</time></trkpt><trkpt lat="43.8780658" lon="12.5151058"><ele>233.0</ele><time>2026-04-26T10:00:58.937Z</time></trkpt><trkpt lat="43.8779999" lon="12.5150831"><ele>233.0</ele><time>2026-04-26T10:00:59.936Z</time></trkpt><trkpt lat="43.8779087" lon="12.5150472"><ele>233.0</ele><time>2026-04-26T10:01:01.937Z</time></trkpt><trkpt lat="43.8779029" lon="12.5149512"><ele>233.0</ele><time>2026-04-26T10:01:05.936Z</time></trkpt><trkpt lat="43.8779319" lon="12.51487"><ele>233.0</ele><time>2026-04-26T10:01:08.937Z</time></trkpt><trkpt lat="43.8779238" lon="12.5147781"><ele>233.0</ele><time>2026-04-26T10:01:10.937Z</time></trkpt><trkpt lat="43.8779036" lon="12.5146802"><ele>232.50000000000003</ele><time>2026-04-26T10:01:12.937Z</time></trkpt><trkpt lat="43.8779185" lon="12.5145323"><ele>232.0</ele><time>2026-04-26T10:01:14.936Z</time></trkpt><trkpt lat="43.8779395" lon="12.5144393"><ele>231.5</ele><time>2026-04-26T10:01:15.937Z</time></trkpt><trkpt lat="43.8779665" lon="12.5143455"><ele>231.0</ele><time>2026-04-26T10:01:16.937Z</time></trkpt><trkpt lat="43.8779929" lon="12.5142581"><ele>230.50000000000003</ele><time>2026-04-26T10:01:17.937Z</time></trkpt><trkpt lat="43.8780179" lon="12.5141706"><ele>230.0</ele><time>2026-04-26T10:01:18.937Z</time></trkpt><trkpt lat="43.8780432" lon="12.5140759"><ele>230.00000000000003</ele><time>2026-04-26T10:01:19.937Z</time></trkpt><trkpt lat="43.8780653" lon="12.5139873"><ele>230.0</ele><time>2026-04-26T10:01:20.936Z</time></trkpt><trkpt lat="43.878083" lon="12.5138965"><ele>230.0</ele><time>2026-04-26T10:01:21.937Z</time></trkpt><trkpt lat="43.8780989" lon="12.5138111"><ele>230.0</ele><time>2026-04-26T10:01:22.937Z</time></trkpt><trkpt lat="43.8781483" lon="12.5136717"><ele>230.00000000000003</ele><time>2026-04-26T10:01:24.937Z</time></trkpt><trkpt lat="43.878175" lon="12.5135817"><ele>230.0</ele><time>2026-04-26T10:01:25.936Z</time></trkpt><trkpt lat="43.8782067" lon="12.5134833"><ele>230.33333333333334</ele><time>2026-04-26T10:01:26.937Z</time></trkpt><trkpt lat="43.8782417" lon="12.51338"><ele>230.66666666666669</ele><time>2026-04-26T10:01:27.937Z</time></trkpt><trkpt lat="43.878275" lon="12.513275"><ele>231.0</ele><time>2026-04-26T10:01:28.937Z</time></trkpt><trkpt lat="43.87831" lon="12.5131767"><ele>231.33333333333331</ele><time>2026-04-26T10:01:29.937Z</time></trkpt><trkpt lat="43.8783433" lon="12.513075"><ele>231.66666666666666</ele><time>2026-04-26T10:01:30.937Z</time></trkpt><trkpt lat="43.8783817" lon="12.5129667"><ele>232.0</ele><time>2026-04-26T10:01:31.937Z</time></trkpt><trkpt lat="43.8784267" lon="12.5128667"><ele>232.16666666666666</ele><time>2026-04-26T10:01:32.937Z</time></trkpt><trkpt lat="43.87848" lon="12.5127617"><ele>232.33333333333331</ele><time>2026-04-26T10:01:33.937Z</time></trkpt><trkpt lat="43.8785383" lon="12.51266"><ele>232.5</ele><time>2026-04-26T10:01:34.937Z</time></trkpt><trkpt lat="43.878595" lon="12.5125667"><ele>232.66666666666669</ele><time>2026-04-26T10:01:35.936Z</time></trkpt><trkpt lat="43.8786533" lon="12.5124783"><ele>232.83333333333334</ele><time>2026-04-26T10:01:36.937Z</time></trkpt><trkpt lat="43.8787067" lon="12.512395"><ele>233.0</ele><time>2026-04-26T10:01:37.937Z</time></trkpt><trkpt lat="43.87875" lon="12.5123117"><ele>233.00000000000003</ele><time>2026-04-26T10:01:38.937Z</time></trkpt><trkpt lat="43.8787817" lon="12.5122317"><ele>233.0</ele><time>2026-04-26T10:01:39.937Z</time></trkpt><trkpt lat="43.8788" lon="12.51208"><ele>233.0</ele><time>2026-04-26T10:01:41.937Z</time></trkpt><trkpt lat="43.8788133" lon="12.51196"><ele>233.0</ele><time>2026-04-26T10:01:43.936Z</time></trkpt><trkpt lat="43.8788033" lon="12.51187"><ele>233.00000000000003</ele><time>2026-04-26T10:01:45.936Z</time></trkpt><trkpt lat="43.8787317" lon="12.5118117"><ele>233.0</ele><time>2026-04-26T10:01:47.937Z</time></trkpt><trkpt lat="43.87862" lon="12.5117267"><ele>233.28571428571428</ele><time>2026-04-26T10:01:49.937Z</time></trkpt><trkpt lat="43.87856" lon="12.5116817"><ele>233.57142857142856</ele><time>2026-04-26T10:01:50.937Z</time></trkpt><trkpt lat="43.878495" lon="12.5116433"><ele>233.85714285714283</ele><time>2026-04-26T10:01:51.936Z</time></trkpt><trkpt lat="43.8784267" lon="12.5116117"><ele>234.14285714285714</ele><time>2026-04-26T10:01:52.936Z</time></trkpt><trkpt lat="43.87836" lon="12.5115867"><ele>234.4285714285714</ele><time>2026-04-26T10:01:53.937Z</time></trkpt><trkpt lat="43.8782917" lon="12.511565"><ele>234.7142857142857</ele><time>2026-04-26T10:01:54.937Z</time></trkpt><trkpt lat="43.87823" lon="12.511545"><ele>235.0</ele><time>2026-04-26T10:01:55.937Z</time></trkpt><trkpt lat="43.878105" lon="12.5114633"><ele>235.8</ele><time>2026-04-26T10:01:57.936Z</time></trkpt><trkpt lat="43.8780267" lon="12.5113933"><ele>236.6</ele><time>2026-04-26T10:01:58.937Z</time></trkpt><trkpt lat="43.8779467" lon="12.51132"><ele>237.39999999999998</ele><time>2026-04-26T10:01:59.937Z</time></trkpt><trkpt lat="43.8778783" lon="12.51124"><ele>238.2</ele><time>2026-04-26T10:02:00.937Z</time></trkpt><trkpt lat="43.8778133" lon="12.51115"><ele>239.0</ele><time>2026-04-26T10:02:01.936Z</time></trkpt><trkpt lat="43.8777583" lon="12.5110633"><ele>239.00000000000003</ele><time>2026-04-26T10:02:02.937Z</time></trkpt><trkpt lat="43.8777117" lon="12.5110017"><ele>239.0</ele><time>2026-04-26T10:02:03.937Z</time></trkpt><trkpt lat="43.87765" lon="12.5109517"><ele>239.0</ele><time>2026-04-26T10:02:04.937Z</time></trkpt><trkpt lat="43.8775783" lon="12.5108917"><ele>239.0</ele><time>2026-04-26T10:02:05.937Z</time></trkpt><trkpt lat="43.877515" lon="12.5108117"><ele>239.00000000000003</ele><time>2026-04-26T10:02:06.937Z</time></trkpt><trkpt lat="43.8774617" lon="12.5107283"><ele>239.0</ele><time>2026-04-26T10:02:07.937Z</time></trkpt><trkpt lat="43.87741" lon="12.5106383"><ele>239.33333333333334</ele><time>2026-04-26T10:02:08.936Z</time></trkpt><trkpt lat="43.8773633" lon="12.5105467"><ele>239.66666666666669</ele><time>2026-04-26T10:02:09.937Z</time></trkpt><trkpt lat="43.8773283" lon="12.5104567"><ele>240.0</ele><time>2026-04-26T10:02:10.937Z</time></trkpt><trkpt lat="43.8772967" lon="12.51036"><ele>240.33333333333331</ele><time>2026-04-26T10:02:11.937Z</time></trkpt><trkpt lat="43.877255" lon="12.5102683"><ele>240.66666666666666</ele><time>2026-04-26T10:02:12.936Z</time></trkpt><trkpt lat="43.8772133" lon="12.5101933"><ele>241.0</ele><time>2026-04-26T10:02:13.937Z</time></trkpt><trkpt lat="43.8771367" lon="12.5100733"><ele>241.0</ele><time>2026-04-26T10:02:15.937Z</time></trkpt><trkpt lat="43.8770733" lon="12.5099817"><ele>241.00000000000003</ele><time>2026-04-26T10:02:17.936Z</time></trkpt><trkpt lat="43.8770117" lon="12.5098767"><ele>241.00000000000003</ele><time>2026-04-26T10:02:19.936Z</time></trkpt><trkpt lat="43.8769617" lon="12.509765"><ele>241.0</ele><time>2026-04-26T10:02:21.937Z</time></trkpt><trkpt lat="43.8769317" lon="12.5096367"><ele>241.0</ele><time>2026-04-26T10:02:23.937Z</time></trkpt><trkpt lat="43.87694" lon="12.50947"><ele>241.14285714285717</ele><time>2026-04-26T10:02:25.936Z</time></trkpt><trkpt lat="43.8769417" lon="12.5093733"><ele>241.2857142857143</ele><time>2026-04-26T10:02:26.937Z</time></trkpt><trkpt lat="43.8769333" lon="12.50928"><ele>241.42857142857144</ele><time>2026-04-26T10:02:27.937Z</time></trkpt><trkpt lat="43.8769117" lon="12.50919"><ele>241.57142857142856</ele><time>2026-04-26T10:02:28.937Z</time></trkpt><trkpt lat="43.8768817" lon="12.509095"><ele>241.7142857142857</ele><time>2026-04-26T10:02:29.937Z</time></trkpt><trkpt lat="43.876845" lon="12.5090033"><ele>241.85714285714283</ele><time>2026-04-26T10:02:30.937Z</time></trkpt><trkpt lat="43.8768083" lon="12.5089183"><ele>242.0</ele><time>2026-04-26T10:02:31.937Z</time></trkpt><trkpt lat="43.8767733" lon="12.5088317"><ele>242.28571428571428</ele><time>2026-04-26T10:02:32.937Z</time></trkpt><trkpt lat="43.8767383" lon="12.508745"><ele>242.57142857142856</ele><time>2026-04-26T10:02:33.936Z</time></trkpt><trkpt lat="43.8767033" lon="12.5086533"><ele>242.85714285714283</ele><time>2026-04-26T10:02:34.937Z</time></trkpt><trkpt lat="43.8766667" lon="12.5085633"><ele>243.1428571428571</ele><time>2026-04-26T10:02:35.936Z</time></trkpt><trkpt lat="43.8766367" lon="12.5084717"><ele>243.42857142857142</ele><time>2026-04-26T10:02:36.937Z</time></trkpt><trkpt lat="43.87662" lon="12.5083767"><ele>243.71428571428567</ele><time>2026-04-26T10:02:37.937Z</time></trkpt><trkpt lat="43.87661" lon="12.5082717"><ele>243.99999999999997</ele><time>2026-04-26T10:02:38.936Z</time></trkpt><trkpt lat="43.8766017" lon="12.5081567"><ele>243.99999999999997</ele><time>2026-04-26T10:02:39.937Z</time></trkpt><trkpt lat="43.87659" lon="12.5080433"><ele>244.0</ele><time>2026-04-26T10:02:40.937Z</time></trkpt><trkpt lat="43.8765767" lon="12.5079317"><ele>244.0</ele><time>2026-04-26T10:02:41.937Z</time></trkpt><trkpt lat="43.8765583" lon="12.50782"><ele>244.0</ele><time>2026-04-26T10:02:42.937Z</time></trkpt><trkpt lat="43.876535" lon="12.5077133"><ele>243.99999999999997</ele><time>2026-04-26T10:02:43.937Z</time></trkpt><trkpt lat="43.8765133" lon="12.507615"><ele>244.0</ele><time>2026-04-26T10:02:44.936Z</time></trkpt><trkpt lat="43.876485" lon="12.5075183"><ele>243.99999999999997</ele><time>2026-04-26T10:02:45.936Z</time></trkpt><trkpt lat="43.87646" lon="12.5074183"><ele>244.0</ele><time>2026-04-26T10:02:46.937Z</time></trkpt><trkpt lat="43.876435" lon="12.50731"><ele>244.0</ele><time>2026-04-26T10:02:47.937Z</time></trkpt><trkpt lat="43.87641" lon="12.5072033"><ele>244.0</ele><time>2026-04-26T10:02:48.937Z</time></trkpt><trkpt lat="43.87638" lon="12.5071033"><ele>243.99999999999997</ele><time>2026-04-26T10:02:49.937Z</time></trkpt><trkpt lat="43.87635" lon="12.5070083"><ele>244.0</ele><time>2026-04-26T10:02:50.937Z</time></trkpt><trkpt lat="43.8763233" lon="12.5069117"><ele>244.16666666666666</ele><time>2026-04-26T10:02:51.936Z</time></trkpt><trkpt lat="43.8763" lon="12.5068167"><ele>244.33333333333331</ele><time>2026-04-26T10:02:52.937Z</time></trkpt><trkpt lat="43.8762783" lon="12.5067283"><ele>244.5</ele><time>2026-04-26T10:02:53.937Z</time></trkpt><trkpt lat="43.8762367" lon="12.5065967"><ele>244.66666666666669</ele><time>2026-04-26T10:02:55.936Z</time></trkpt><trkpt lat="43.876205" lon="12.506495"><ele>244.83333333333334</ele><time>2026-04-26T10:02:58.937Z</time></trkpt><trkpt lat="43.8761683" lon="12.50637"><ele>245.0</ele><time>2026-04-26T10:03:01.937Z</time></trkpt><trkpt lat="43.8761033" lon="12.5062483"><ele>245.16666666666669</ele><time>2026-04-26T10:03:03.937Z</time></trkpt><trkpt lat="43.8760467" lon="12.5061483"><ele>245.33333333333334</ele><time>2026-04-26T10:03:05.936Z</time></trkpt><trkpt lat="43.8760083" lon="12.5060683"><ele>245.5</ele><time>2026-04-26T10:03:07.936Z</time></trkpt><trkpt lat="43.875965" lon="12.5059767"><ele>245.66666666666669</ele><time>2026-04-26T10:03:09.937Z</time></trkpt><trkpt lat="43.8759167" lon="12.5058833"><ele>245.83333333333334</ele><time>2026-04-26T10:03:11.937Z</time></trkpt><trkpt lat="43.8758583" lon="12.5057733"><ele>246.0</ele><time>2026-04-26T10:03:13.936Z</time></trkpt><trkpt lat="43.8758033" lon="12.50566"><ele>246.16666666666666</ele><time>2026-04-26T10:03:15.937Z</time></trkpt><trkpt lat="43.8757533" lon="12.5055633"><ele>246.33333333333331</ele><time>2026-04-26T10:03:17.937Z</time></trkpt><trkpt lat="43.8757033" lon="12.50545"><ele>246.5</ele><time>2026-04-26T10:03:19.937Z</time></trkpt><trkpt lat="43.8756633" lon="12.505365"><ele>246.66666666666666</ele><time>2026-04-26T10:03:21.936Z</time></trkpt><trkpt lat="43.8756267" lon="12.505275"><ele>246.83333333333331</ele><time>2026-04-26T10:03:23.936Z</time></trkpt><trkpt lat="43.87558" lon="12.5051717"><ele>247.0</ele><time>2026-04-26T10:03:25.937Z</time></trkpt><trkpt lat="43.8755583" lon="12.5050717"><ele>246.99999999999997</ele><time>2026-04-26T10:03:28.936Z</time></trkpt><trkpt lat="43.8755417" lon="12.5049567"><ele>247.0</ele><time>2026-04-26T10:03:35.937Z</time></trkpt><trkpt lat="43.8755317" lon="12.5048517"><ele>247.0</ele><time>2026-04-26T10:06:48.937Z</time></trkpt><trkpt lat="43.8755033" lon="12.50474"><ele>247.0</ele><time>2026-04-26T10:06:52.937Z</time></trkpt><trkpt lat="43.8754933" lon="12.5046467"><ele>246.99999999999997</ele><time>2026-04-26T10:06:55.937Z</time></trkpt><trkpt lat="43.8754733" lon="12.5045617"><ele>247.0</ele><time>2026-04-26T10:06:57.936Z</time></trkpt><trkpt lat="43.8754267" lon="12.5044767"><ele>247.33333333333331</ele><time>2026-04-26T10:07:00.937Z</time></trkpt><trkpt lat="43.8754017" lon="12.5043633"><ele>247.66666666666666</ele><time>2026-04-26T10:08:15.937Z</time></trkpt><trkpt lat="43.8753667" lon="12.5041967"><ele>248.0</ele><time>2026-04-26T10:14:36.937Z</time></trkpt><trkpt lat="43.8753433" lon="12.5041067"><ele>248.33333333333331</ele><time>2026-04-26T10:14:38.937Z</time></trkpt><trkpt lat="43.8753217" lon="12.5040217"><ele>248.66666666666666</ele><time>2026-04-26T10:14:40.937Z</time></trkpt><trkpt lat="43.8752967" lon="12.503935"><ele>249.0</ele><time>2026-04-26T10:14:42.937Z</time></trkpt><trkpt lat="43.8752683" lon="12.5038383"><ele>248.79999999999998</ele><time>2026-04-26T10:14:44.936Z</time></trkpt><trkpt lat="43.875235" lon="12.5037267"><ele>248.59999999999997</ele><time>2026-04-26T10:14:46.937Z</time></trkpt><trkpt lat="43.8752133" lon="12.50361"><ele>248.4</ele><time>2026-04-26T10:14:48.937Z</time></trkpt><trkpt lat="43.8751617" lon="12.5034783"><ele>248.2</ele><time>2026-04-26T10:14:50.937Z</time></trkpt><trkpt lat="43.87506" lon="12.5033733"><ele>248.0</ele><time>2026-04-26T10:14:52.936Z</time></trkpt><trkpt lat="43.8749983" lon="12.50331"><ele>248.83333333333334</ele><time>2026-04-26T10:14:53.937Z</time></trkpt><trkpt lat="43.8749417" lon="12.5032433"><ele>249.66666666666669</ele><time>2026-04-26T10:14:54.937Z</time></trkpt><trkpt lat="43.874895" lon="12.503175"><ele>250.5</ele><time>2026-04-26T10:14:55.937Z</time></trkpt><trkpt lat="43.87485" lon="12.5030983"><ele>251.33333333333331</ele><time>2026-04-26T10:14:56.936Z</time></trkpt><trkpt lat="43.8748033" lon="12.5030083"><ele>252.16666666666666</ele><time>2026-04-26T10:14:57.937Z</time></trkpt><trkpt lat="43.874755" lon="12.502905"><ele>253.0</ele><time>2026-04-26T10:14:58.937Z</time></trkpt><trkpt lat="43.8747117" lon="12.5028"><ele>253.16666666666666</ele><time>2026-04-26T10:14:59.937Z</time></trkpt><trkpt lat="43.874675" lon="12.5027"><ele>253.33333333333331</ele><time>2026-04-26T10:15:00.937Z</time></trkpt><trkpt lat="43.8746433" lon="12.5026083"><ele>253.5</ele><time>2026-04-26T10:15:01.937Z</time></trkpt><trkpt lat="43.8746117" lon="12.502525"><ele>253.66666666666669</ele><time>2026-04-26T10:15:02.937Z</time></trkpt><trkpt lat="43.8745667" lon="12.5024167"><ele>253.83333333333334</ele><time>2026-04-26T10:15:04.937Z</time></trkpt><trkpt lat="43.8745217" lon="12.5023133"><ele>254.0</ele><time>2026-04-26T10:15:06.937Z</time></trkpt><trkpt lat="43.87445" lon="12.50218"><ele>254.0</ele><time>2026-04-26T10:15:08.937Z</time></trkpt><trkpt lat="43.8744033" lon="12.5021133"><ele>253.99999999999997</ele><time>2026-04-26T10:15:09.937Z</time></trkpt><trkpt lat="43.8743183" lon="12.5019967"><ele>253.99999999999997</ele><time>2026-04-26T10:15:11.937Z</time></trkpt><trkpt lat="43.8742683" lon="12.5018767"><ele>254.0</ele><time>2026-04-26T10:15:13.937Z</time></trkpt><trkpt lat="43.8742417" lon="12.5017583"><ele>254.0</ele><time>2026-04-26T10:15:15.937Z</time></trkpt><trkpt lat="43.8742467" lon="12.5016533"><ele>254.33333333333334</ele><time>2026-04-26T10:15:18.937Z</time></trkpt><trkpt lat="43.874235" lon="12.5015567"><ele>254.66666666666669</ele><time>2026-04-26T10:15:21.937Z</time></trkpt><trkpt lat="43.874205" lon="12.5014667"><ele>255.0</ele><time>2026-04-26T10:15:23.936Z</time></trkpt><trkpt lat="43.874135" lon="12.501365"><ele>255.33333333333331</ele><time>2026-04-26T10:15:25.936Z</time></trkpt><trkpt lat="43.87408" lon="12.5013017"><ele>255.66666666666666</ele><time>2026-04-26T10:15:26.937Z</time></trkpt><trkpt lat="43.8740283" lon="12.501235"><ele>256.0</ele><time>2026-04-26T10:15:27.937Z</time></trkpt><trkpt lat="43.8739767" lon="12.501165"><ele>256.0</ele><time>2026-04-26T10:15:28.937Z</time></trkpt><trkpt lat="43.8739217" lon="12.5010867"><ele>256.0</ele><time>2026-04-26T10:15:29.937Z</time></trkpt><trkpt lat="43.8738583" lon="12.5009967"><ele>256.0</ele><time>2026-04-26T10:15:30.936Z</time></trkpt><trkpt lat="43.8737917" lon="12.500905"><ele>256.0</ele><time>2026-04-26T10:15:31.937Z</time></trkpt><trkpt lat="43.8737267" lon="12.5008133"><ele>256.0</ele><time>2026-04-26T10:15:32.937Z</time></trkpt><trkpt lat="43.8736567" lon="12.5007233"><ele>255.99999999999997</ele><time>2026-04-26T10:15:33.937Z</time></trkpt><trkpt lat="43.873585" lon="12.5006383"><ele>256.0</ele><time>2026-04-26T10:15:34.937Z</time></trkpt><trkpt lat="43.87352" lon="12.5005617"><ele>256.0</ele><time>2026-04-26T10:15:35.937Z</time></trkpt><trkpt lat="43.87347" lon="12.50048"><ele>256.0</ele><time>2026-04-26T10:15:36.937Z</time></trkpt><trkpt lat="43.8734383" lon="12.5003983"><ele>255.99999999999997</ele><time>2026-04-26T10:15:37.937Z</time></trkpt><trkpt lat="43.87341" lon="12.5002917"><ele>256.0</ele><time>2026-04-26T10:15:39.937Z</time></trkpt><trkpt lat="43.8733767" lon="12.5002167"><ele>256.6</ele><time>2026-04-26T10:15:42.937Z</time></trkpt><trkpt lat="43.87331" lon="12.5001733"><ele>257.20000000000005</ele><time>2026-04-26T10:15:46.937Z</time></trkpt><trkpt lat="43.8732333" lon="12.5001283"><ele>257.79999999999995</ele><time>2026-04-26T10:15:48.937Z</time></trkpt><trkpt lat="43.87315" lon="12.500115"><ele>258.4</ele><time>2026-04-26T10:15:50.936Z</time></trkpt><trkpt lat="43.8730617" lon="12.5000383"><ele>259.0</ele><time>2026-04-26T10:15:52.936Z</time></trkpt><trkpt lat="43.8729667" lon="12.4999033"><ele>259.0</ele><time>2026-04-26T10:15:54.937Z</time></trkpt><trkpt lat="43.8729133" lon="12.499815"><ele>259.0</ele><time>2026-04-26T10:15:55.936Z</time></trkpt><trkpt lat="43.8728517" lon="12.4997217"><ele>259.0</ele><time>2026-04-26T10:15:56.936Z</time></trkpt><trkpt lat="43.8727883" lon="12.4996267"><ele>259.0</ele><time>2026-04-26T10:15:57.937Z</time></trkpt><trkpt lat="43.872725" lon="12.49953"><ele>259.0</ele><time>2026-04-26T10:15:58.937Z</time></trkpt><trkpt lat="43.8726583" lon="12.4994333"><ele>259.5</ele><time>2026-04-26T10:15:59.936Z</time></trkpt><trkpt lat="43.8725867" lon="12.4993433"><ele>260.0</ele><time>2026-04-26T10:16:00.937Z</time></trkpt><trkpt lat="43.8725133" lon="12.4992633"><ele>260.5</ele><time>2026-04-26T10:16:01.936Z</time></trkpt><trkpt lat="43.8724483" lon="12.499185"><ele>261.0</ele><time>2026-04-26T10:16:02.937Z</time></trkpt><trkpt lat="43.8723917" lon="12.4991067"><ele>261.5</ele><time>2026-04-26T10:16:03.937Z</time></trkpt><trkpt lat="43.872345" lon="12.4990367"><ele>262.0</ele><time>2026-04-26T10:16:04.937Z</time></trkpt><trkpt lat="43.8722867" lon="12.4989367"><ele>262.0</ele><time>2026-04-26T10:16:06.936Z</time></trkpt><trkpt lat="43.87222" lon="12.49881"><ele>262.0</ele><time>2026-04-26T10:16:11.937Z</time></trkpt><trkpt lat="43.8721633" lon="12.49868"><ele>262.0</ele><time>2026-04-26T10:16:13.936Z</time></trkpt><trkpt lat="43.8721217" lon="12.4986067"><ele>262.0</ele><time>2026-04-26T10:16:15.937Z</time></trkpt><trkpt lat="43.8720683" lon="12.4985517"><ele>262.0</ele><time>2026-04-26T10:16:17.936Z</time></trkpt><trkpt lat="43.871985" lon="12.4984883"><ele>261.8333333333333</ele><time>2026-04-26T10:16:19.937Z</time></trkpt><trkpt lat="43.8719" lon="12.4983867"><ele>261.66666666666663</ele><time>2026-04-26T10:16:21.937Z</time></trkpt><trkpt lat="43.87186" lon="12.4983083"><ele>261.5</ele><time>2026-04-26T10:16:22.937Z</time></trkpt><trkpt lat="43.871825" lon="12.49821"><ele>261.3333333333333</ele><time>2026-04-26T10:16:23.937Z</time></trkpt><trkpt lat="43.8718" lon="12.4981033"><ele>261.1666666666667</ele><time>2026-04-26T10:16:24.937Z</time></trkpt><trkpt lat="43.8717783" lon="12.498"><ele>261.0</ele><time>2026-04-26T10:16:25.937Z</time></trkpt><trkpt lat="43.8717617" lon="12.4979033"><ele>261.8</ele><time>2026-04-26T10:16:26.937Z</time></trkpt><trkpt lat="43.871755" lon="12.4977867"><ele>262.6</ele><time>2026-04-26T10:16:28.936Z</time></trkpt><trkpt lat="43.871715" lon="12.4976667"><ele>263.4</ele><time>2026-04-26T10:16:40.937Z</time></trkpt><trkpt lat="43.8716233" lon="12.4975267"><ele>264.2</ele><time>2026-04-26T10:16:42.936Z</time></trkpt><trkpt lat="43.8715617" lon="12.4974233"><ele>265.0</ele><time>2026-04-26T10:16:43.937Z</time></trkpt><trkpt lat="43.8715" lon="12.4973117"><ele>265.0</ele><time>2026-04-26T10:16:44.937Z</time></trkpt><trkpt lat="43.871425" lon="12.4972033"><ele>265.0</ele><time>2026-04-26T10:16:45.937Z</time></trkpt><trkpt lat="43.8713417" lon="12.4971"><ele>265.0</ele><time>2026-04-26T10:16:46.937Z</time></trkpt><trkpt lat="43.8712667" lon="12.496995"><ele>265.0</ele><time>2026-04-26T10:16:47.936Z</time></trkpt><trkpt lat="43.8711917" lon="12.4968917"><ele>265.0</ele><time>2026-04-26T10:16:48.937Z</time></trkpt><trkpt lat="43.8711083" lon="12.4968"><ele>264.6</ele><time>2026-04-26T10:16:49.937Z</time></trkpt><trkpt lat="43.8710233" lon="12.4967317"><ele>264.2</ele><time>2026-04-26T10:16:50.937Z</time></trkpt><trkpt lat="43.8709367" lon="12.4966583"><ele>263.8</ele><time>2026-04-26T10:16:51.937Z</time></trkpt><trkpt lat="43.8708583" lon="12.4965683"><ele>263.4</ele><time>2026-04-26T10:16:52.937Z</time></trkpt><trkpt lat="43.8708" lon="12.496475"><ele>263.0</ele><time>2026-04-26T10:16:53.937Z</time></trkpt><trkpt lat="43.87076" lon="12.49639"><ele>264.2</ele><time>2026-04-26T10:16:54.936Z</time></trkpt><trkpt lat="43.8707267" lon="12.4962667"><ele>265.4</ele><time>2026-04-26T10:16:56.937Z</time></trkpt><trkpt lat="43.8707383" lon="12.4961533"><ele>266.59999999999997</ele><time>2026-04-26T10:16:59.937Z</time></trkpt><trkpt lat="43.8707967" lon="12.4960167"><ele>267.8</ele><time>2026-04-26T10:17:01.936Z</time></trkpt><trkpt lat="43.870845" lon="12.4959283"><ele>269.0</ele><time>2026-04-26T10:17:02.937Z</time></trkpt><trkpt lat="43.8709" lon="12.4958317"><ele>269.0</ele><time>2026-04-26T10:17:03.937Z</time></trkpt><trkpt lat="43.8709583" lon="12.4957267"><ele>269.0</ele><time>2026-04-26T10:17:04.937Z</time></trkpt><trkpt lat="43.8710167" lon="12.4956183"><ele>269.0</ele><time>2026-04-26T10:17:05.937Z</time></trkpt><trkpt lat="43.87108" lon="12.4955033"><ele>269.0</ele><time>2026-04-26T10:17:06.937Z</time></trkpt><trkpt lat="43.8711483" lon="12.4953817"><ele>269.0</ele><time>2026-04-26T10:17:07.937Z</time></trkpt><trkpt lat="43.871215" lon="12.49526"><ele>269.0</ele><time>2026-04-26T10:17:08.937Z</time></trkpt><trkpt lat="43.871275" lon="12.4951433"><ele>269.0</ele><time>2026-04-26T10:17:09.937Z</time></trkpt><trkpt lat="43.8713383" lon="12.4950317"><ele>269.0</ele><time>2026-04-26T10:17:10.937Z</time></trkpt><trkpt lat="43.8713983" lon="12.4949233"><ele>269.0</ele><time>2026-04-26T10:17:11.937Z</time></trkpt><trkpt lat="43.8714517" lon="12.4948133"><ele>269.0</ele><time>2026-04-26T10:17:12.936Z</time></trkpt><trkpt lat="43.871505" lon="12.4947033"><ele>269.0</ele><time>2026-04-26T10:17:13.937Z</time></trkpt><trkpt lat="43.871555" lon="12.4945883"><ele>269.0</ele><time>2026-04-26T10:17:14.936Z</time></trkpt><trkpt lat="43.8715933" lon="12.4944667"><ele>269.0</ele><time>2026-04-26T10:17:15.937Z</time></trkpt><trkpt lat="43.8716283" lon="12.4943517"><ele>269.0</ele><time>2026-04-26T10:17:16.937Z</time></trkpt><trkpt lat="43.8716583" lon="12.49424"><ele>269.0</ele><time>2026-04-26T10:17:17.936Z</time></trkpt><trkpt lat="43.871685" lon="12.4941383"><ele>269.0</ele><time>2026-04-26T10:17:18.937Z</time></trkpt><trkpt lat="43.8717067" lon="12.4940533"><ele>269.59999999999997</ele><time>2026-04-26T10:17:19.937Z</time></trkpt><trkpt lat="43.8717417" lon="12.49391"><ele>270.2</ele><time>2026-04-26T10:17:21.937Z</time></trkpt><trkpt lat="43.8717683" lon="12.493825"><ele>270.79999999999995</ele><time>2026-04-26T10:17:23.937Z</time></trkpt><trkpt lat="43.87185" lon="12.4937633"><ele>271.4</ele><time>2026-04-26T10:19:23.936Z</time></trkpt><trkpt lat="43.87193" lon="12.49378"><ele>272.0</ele><time>2026-04-26T10:19:25.937Z</time></trkpt><trkpt lat="43.8720533" lon="12.493825"><ele>272.0</ele><time>2026-04-26T10:19:27.937Z</time></trkpt><trkpt lat="43.872125" lon="12.4938633"><ele>272.0</ele><time>2026-04-26T10:19:28.937Z</time></trkpt><trkpt lat="43.872205" lon="12.4939067"><ele>272.0</ele><time>2026-04-26T10:19:29.936Z</time></trkpt><trkpt lat="43.8722833" lon="12.4939433"><ele>272.0</ele><time>2026-04-26T10:19:30.937Z</time></trkpt><trkpt lat="43.872355" lon="12.4939767"><ele>272.0</ele><time>2026-04-26T10:19:31.937Z</time></trkpt><trkpt lat="43.8724183" lon="12.49401"><ele>272.0</ele><time>2026-04-26T10:19:32.937Z</time></trkpt><trkpt lat="43.87248" lon="12.4940367"><ele>272.0</ele><time>2026-04-26T10:19:33.936Z</time></trkpt><trkpt lat="43.8725417" lon="12.494075"><ele>272.0</ele><time>2026-04-26T10:19:34.937Z</time></trkpt><trkpt lat="43.87261" lon="12.4941167"><ele>272.0</ele><time>2026-04-26T10:19:35.937Z</time></trkpt><trkpt lat="43.8726917" lon="12.4941733"><ele>272.0</ele><time>2026-04-26T10:19:36.937Z</time></trkpt><trkpt lat="43.8727833" lon="12.4942383"><ele>272.0</ele><time>2026-04-26T10:19:37.937Z</time></trkpt><trkpt lat="43.8728833" lon="12.4943067"><ele>272.0</ele><time>2026-04-26T10:19:38.937Z</time></trkpt><trkpt lat="43.87299" lon="12.4943867"><ele>271.0</ele><time>2026-04-26T10:19:39.937Z</time></trkpt><trkpt lat="43.8731" lon="12.4944817"><ele>270.0</ele><time>2026-04-26T10:19:40.937Z</time></trkpt><trkpt lat="43.8732167" lon="12.4945833"><ele>269.0</ele><time>2026-04-26T10:19:41.936Z</time></trkpt><trkpt lat="43.8733383" lon="12.49468"><ele>268.0</ele><time>2026-04-26T10:19:42.936Z</time></trkpt><trkpt lat="43.8734583" lon="12.4947733"><ele>272.0</ele><time>2026-04-26T10:19:43.937Z</time></trkpt><trkpt lat="43.8735767" lon="12.49487"><ele>276.0</ele><time>2026-04-26T10:19:44.937Z</time></trkpt><trkpt lat="43.8736967" lon="12.4949717"><ele>280.0</ele><time>2026-04-26T10:19:45.937Z</time></trkpt><trkpt lat="43.8738117" lon="12.4950717"><ele>284.0</ele><time>2026-04-26T10:19:46.937Z</time></trkpt><trkpt lat="43.8739183" lon="12.4951933"><ele>284.0</ele><time>2026-04-26T10:19:47.936Z</time></trkpt><trkpt lat="43.8740167" lon="12.4953333"><ele>284.0</ele><time>2026-04-26T10:19:48.937Z</time></trkpt><trkpt lat="43.8741083" lon="12.495475"><ele>284.0</ele><time>2026-04-26T10:19:49.937Z</time></trkpt><trkpt lat="43.8742067" lon="12.4956033"><ele>284.0</ele><time>2026-04-26T10:19:50.936Z</time></trkpt><trkpt lat="43.8743117" lon="12.4957133"><ele>282.4</ele><time>2026-04-26T10:19:51.937Z</time></trkpt><trkpt lat="43.8744167" lon="12.4958033"><ele>280.79999999999995</ele><time>2026-04-26T10:19:52.937Z</time></trkpt><trkpt lat="43.8745217" lon="12.4958583"><ele>279.20000000000005</ele><time>2026-04-26T10:19:53.936Z</time></trkpt><trkpt lat="43.874625" lon="12.4959"><ele>277.6</ele><time>2026-04-26T10:19:54.937Z</time></trkpt><trkpt lat="43.874725" lon="12.4959367"><ele>276.0</ele><time>2026-04-26T10:19:55.937Z</time></trkpt><trkpt lat="43.87482" lon="12.4959617"><ele>276.0</ele><time>2026-04-26T10:19:56.937Z</time></trkpt><trkpt lat="43.8749083" lon="12.4959683"><ele>276.0</ele><time>2026-04-26T10:19:57.936Z</time></trkpt><trkpt lat="43.8749917" lon="12.4959633"><ele>276.0</ele><time>2026-04-26T10:19:58.937Z</time></trkpt><trkpt lat="43.8750717" lon="12.4959567"><ele>276.0</ele><time>2026-04-26T10:19:59.937Z</time></trkpt><trkpt lat="43.8751567" lon="12.4959733"><ele>276.0</ele><time>2026-04-26T10:20:00.937Z</time></trkpt><trkpt lat="43.875245" lon="12.4960233"><ele>276.0</ele><time>2026-04-26T10:20:01.937Z</time></trkpt><trkpt lat="43.87533" lon="12.496115"><ele>276.40000000000003</ele><time>2026-04-26T10:20:02.936Z</time></trkpt><trkpt lat="43.8754167" lon="12.4962133"><ele>276.8</ele><time>2026-04-26T10:20:03.936Z</time></trkpt><trkpt lat="43.875505" lon="12.4963067"><ele>277.20000000000005</ele><time>2026-04-26T10:20:04.937Z</time></trkpt><trkpt lat="43.8755867" lon="12.4964183"><ele>277.6</ele><time>2026-04-26T10:20:05.936Z</time></trkpt><trkpt lat="43.8756617" lon="12.49653"><ele>278.0</ele><time>2026-04-26T10:20:06.936Z</time></trkpt><trkpt lat="43.8757283" lon="12.496635"><ele>278.6666666666667</ele><time>2026-04-26T10:20:07.937Z</time></trkpt><trkpt lat="43.8757867" lon="12.4967333"><ele>279.33333333333337</ele><time>2026-04-26T10:20:08.937Z</time></trkpt><trkpt lat="43.8758417" lon="12.4968283"><ele>280.0</ele><time>2026-04-26T10:20:09.937Z</time></trkpt><trkpt lat="43.8758917" lon="12.496915"><ele>280.6666666666667</ele><time>2026-04-26T10:20:10.936Z</time></trkpt><trkpt lat="43.8759417" lon="12.4969833"><ele>281.3333333333333</ele><time>2026-04-26T10:20:11.937Z</time></trkpt><trkpt lat="43.8760167" lon="12.497085"><ele>282.0</ele><time>2026-04-26T10:20:13.936Z</time></trkpt><trkpt lat="43.8760583" lon="12.4971633"><ele>282.0</ele><time>2026-04-26T10:20:16.937Z</time></trkpt><trkpt lat="43.8760167" lon="12.49726"><ele>282.0</ele><time>2026-04-26T10:23:27.936Z</time></trkpt><trkpt lat="43.87608" lon="12.4974"><ele>282.0</ele><time>2026-04-26T10:23:29.937Z</time></trkpt><trkpt lat="43.8761167" lon="12.49748"><ele>282.0</ele><time>2026-04-26T10:23:30.937Z</time></trkpt><trkpt lat="43.8761567" lon="12.4976233"><ele>282.0</ele><time>2026-04-26T10:23:32.937Z</time></trkpt><trkpt lat="43.87615" lon="12.49772"><ele>282.0</ele><time>2026-04-26T10:23:35.936Z</time></trkpt></trkseg></trk></gpx>